# Wetter Temperatur Luftdruck Luftfeuchtigkeit Sichtweite Windgeschwindigkeit Windrichtung Zeit
1 Rain 14 1011 87 10000 0.5 0 20:18 17.10.2019
2 Drizzle 15 1011 87 10000 0.5 280 19:42 17.10.2019
3 Clouds 15 1011 87 10000 2.6 280 19:20 17.10.2019
4 Clouds 15 1011 87 10000 2.6 280 19:20 17.10.2019
5 Clouds 15 1011 87 10000 2.6 280 18:59 17.10.2019
6 Clouds 15 1011 82 10000 2.6 260 18:38 17.10.2019
7 Rain 16 1011 82 10000 2.1 200 18:20 17.10.2019
8 Rain 16 1011 82 10000 2.6 190 17:43 17.10.2019
9 Rain 16 1011 82 10000 2.6 190 17:43 17.10.2019
10 Rain 16 1011 82 10000 2.6 190 17:24 17.10.2019
11 Clouds 17 1011 82 10000 3.6 180 16:58 17.10.2019
12 Clouds 17 1011 87 10000 2.6 190 16:40 17.10.2019
13 Clouds 17 1011 87 10000 2.6 190 16:40 17.10.2019
14 Clouds 16 1011 93 10000 3.1 200 16:19 17.10.2019
15 Clouds 16 1011 93 10000 3.1 200 15:57 17.10.2019
16 Clouds 17 1011 87 10000 4.1 210 15:38 17.10.2019
17 Clouds 16 1011 82 10000 4.6 220 15:20 17.10.2019
18 Clouds 16 1011 82 10000 4.6 220 14:56 17.10.2019
19 Clouds 16 1011 82 10000 3.6 230 14:37 17.10.2019
20 Clouds 16 1011 82 10000 4.6 240 14:19 17.10.2019
21 Clouds 16 1011 82 10000 4.1 220 13:39 17.10.2019
22 Clouds 16 1011 82 10000 4.1 220 13:39 17.10.2019
23 Clouds 16 1011 82 10000 5.1 220 13:20 17.10.2019
24 Clouds 16 1011 82 10000 5.1 220 12:57 17.10.2019
25 Clouds 16 1011 77 10000 5.7 220 12:37 17.10.2019
26 Clouds 16 1011 77 10000 5.7 220 12:37 17.10.2019
27 Clouds 15 1010 87 10000 5.7 230 12:18 17.10.2019
28 Clouds 15 1010 87 10000 5.7 230 12:18 17.10.2019
29 Clouds 15 1010 82 10000 3.6 220 11:41 17.10.2019
30 Drizzle 15 1010 93 10000 4.6 220 11:22 17.10.2019
31 Rain 15 1010 82 10000 3.1 220 10:59 17.10.2019
32 Drizzle 15 1010 87 10000 4.6 220 10:41 17.10.2019
33 Drizzle 15 1009 87 5000 6.2 220 10:19 17.10.2019
34 -273 0 0 0 0 0 09:55 17.10.2019
35 Clouds 15 1010 82 10000 4.1 210 09:55 17.10.2019
36 Clouds 15 1010 82 10000 3.6 200 09:37 17.10.2019
37 Clouds 14 1009 82 10000 4.1 200 09:19 17.10.2019
38 Clouds 14 1009 82 10000 4.1 200 08:48 17.10.2019
39 Clouds 14 1009 82 10000 4.1 200 08:27 17.10.2019
40 Clouds 14 1009 82 10000 3.6 220 07:58 17.10.2019
41 Clouds 14 1008 82 10000 3.6 210 07:40 17.10.2019
42 Clouds 14 1008 82 10000 5.1 210 07:20 17.10.2019
43 Clouds 14 1008 82 10000 5.1 210 07:20 17.10.2019
44 Clouds 14 1008 82 10000 4.6 200 06:42 17.10.2019
45 Clouds 14 1008 82 10000 3.1 190 06:23 17.10.2019
46 Clouds 14 1008 82 10000 3.1 190 05:58 17.10.2019
47 Clouds 14 1008 82 10000 3.1 190 05:34 17.10.2019
48 Clouds 14 1008 82 10000 3.1 190 04:57 17.10.2019
49 Rain 14 1009 87 10000 3.6 190 03:58 17.10.2019
50 Rain 14 1009 87 10000 3.1 190 03:38 17.10.2019
51 Clouds 14 1009 77 0 4.6 200 01:55 17.10.2019
52 Clouds 14 1009 82 10000 3.6 200 00:41 17.10.2019
53 Clouds 14 1009 82 10000 4.1 190 00:20 17.10.2019
54 Clouds 14 1009 82 10000 4.1 190 00:20 17.10.2019
55 Clouds 14 1009 82 10000 3.1 190 23:42 16.10.2019
56 Clouds 14 1009 82 10000 4.1 200 23:21 16.10.2019
57 -273 0 0 0 0 0 22:56 16.10.2019
58 Clouds 14 1009 82 10000 4.1 200 22:38 16.10.2019
59 Clouds 14 1009 82 10000 3.6 190 22:19 16.10.2019
60 Clouds 14 1009 82 10000 3.6 190 22:19 16.10.2019
61 Clouds 14 1009 82 10000 3.6 190 21:58 16.10.2019
62 Clouds 14 1009 82 10000 3.6 200 21:38 16.10.2019
63 Clouds 14 1009 82 10000 3.1 190 21:20 16.10.2019
64 Clouds 14 1009 82 10000 3.1 190 20:58 16.10.2019
65 Clouds 13 1009 82 10000 2.6 180 20:39 16.10.2019
66 Clouds 14 1009 82 10000 3.1 200 20:21 16.10.2019
67 Clouds 14 1009 82 10000 3.1 200 19:59 16.10.2019
68 Clouds 14 1009 82 10000 4.1 200 19:39 16.10.2019
69 Clouds 14 1009 76 10000 5.1 210 19:21 16.10.2019
70 Clouds 14 1009 76 10000 5.1 210 18:54 16.10.2019
71 Clouds 14 1009 76 10000 5.1 210 18:54 16.10.2019
72 Clouds 14 1009 72 10000 3.1 200 18:36 16.10.2019
73 Clouds 14 1009 72 10000 2.1 200 18:18 16.10.2019
74 Clear 15 1009 72 10000 3.6 210 17:54 16.10.2019
75 Clear 15 1009 72 10000 3.6 210 17:36 16.10.2019
76 Clouds 15 1009 63 10000 3.6 240 17:18 16.10.2019
77 Clouds 16 1009 67 10000 4.1 230 16:42 16.10.2019
78 -273 0 0 0 0 0 16:21 16.10.2019
79 Clouds 16 1009 67 10000 4.1 230 15:58 16.10.2019
80 Clouds 16 1009 67 10000 3.6 250 15:39 16.10.2019
81 Clouds 16 1009 67 10000 3.6 250 15:39 16.10.2019
82 Clouds 16 1009 67 10000 3.6 250 15:39 16.10.2019
83 Clouds 15 1009 67 10000 4.1 260 15:18 16.10.2019
84 Clouds 15 1009 72 10000 5.7 250 14:58 16.10.2019
85 Clouds 15 1009 72 10000 5.7 250 14:38 16.10.2019
86 Clouds 14 1009 72 10000 5.7 260 14:18 16.10.2019
87 Clouds 14 1009 72 10000 5.7 260 13:57 16.10.2019
88 Clouds 14 1009 72 10000 5.7 260 13:56 16.10.2019
89 Clouds 14 1009 71 10000 6.2 250 13:37 16.10.2019
90 Clouds 14 1009 76 10000 6.2 250 13:19 16.10.2019
91 Clouds 13 1009 82 10000 4.6 260 12:41 16.10.2019
92 Clouds 13 1009 82 10000 6.2 240 12:19 16.10.2019
93 Rain 13 1009 87 10000 5.1 250 11:44 16.10.2019
94 Rain 12 1009 87 10000 5.7 240 11:19 16.10.2019
95 Rain 12 1009 87 10000 5.7 240 10:41 16.10.2019
96 Rain 12 1009 87 10000 5.7 240 10:22 16.10.2019
97 Rain 12 1009 93 10000 4.6 250 09:58 16.10.2019
98 Rain 12 1009 93 7000 5.1 260 09:38 16.10.2019
99 Rain 12 1008 93 10000 5.7 240 09:20 16.10.2019
100 Rain 12 1008 87 8000 5.7 260 08:43 16.10.2019
101 Rain 12 1008 93 10000 5.7 250 08:25 16.10.2019
102 Rain 13 1008 93 3500 6.7 280 07:56 16.10.2019
103 Rain 13 1008 93 3500 6.7 280 07:56 16.10.2019
104 Rain 13 1008 93 8000 3.1 250 07:38 16.10.2019
105 Drizzle 13 1007 93 5000 3.6 250 07:19 16.10.2019
106 Drizzle 13 1007 100 2500 3.6 260 06:40 16.10.2019
107 Drizzle 13 1007 100 2500 3.1 270 05:56 16.10.2019
108 Rain 14 1007 100 8000 3.6 270 03:27 16.10.2019
109 Rain 14 1006 100 8000 5.1 290 02:50 16.10.2019
110 Thunderstorm 14 1006 93 4000 4.1 270 01:20 16.10.2019
111 Thunderstorm 15 1006 100 6000 5.7 290 00:52 16.10.2019
112 Thunderstorm 15 1005 93 2500 8.2 290 00:32 16.10.2019
113 Thunderstorm 15 1005 93 2000 8.7 310 23:41 15.10.2019
114 Thunderstorm 15 1005 93 2000 8.7 310 23:41 15.10.2019
115 Rain 15 1005 87 10000 2.1 340 23:22 15.10.2019
116 Rain 15 1005 87 10000 2.1 340 23:22 15.10.2019
117 Clouds 16 1005 87 10000 2.6 350 22:56 15.10.2019
118 Clouds 16 1005 87 10000 2.6 330 22:38 15.10.2019
119 Clouds 16 1005 87 10000 2.6 350 22:20 15.10.2019
120 -273 0 0 0 0 0 21:56 15.10.2019
121 Rain 16 1005 87 10000 1 0 21:56 15.10.2019
122 Rain 16 1005 93 10000 1 30 21:38 15.10.2019
123 Clouds 16 1006 87 10000 0.5 0 21:20 15.10.2019
124 Clouds 17 1006 87 10000 0.5 0 20:57 15.10.2019
125 Clouds 17 1005 87 10000 1 0 20:39 15.10.2019
126 Clouds 17 1005 87 10000 1 0 20:39 15.10.2019
127 Clouds 17 1005 82 10000 0.5 0 20:20 15.10.2019
128 Clouds 17 1005 82 10000 0.5 0 19:58 15.10.2019
129 Clouds 17 1005 82 10000 1 330 19:40 15.10.2019
130 Clouds 18 1005 82 10000 1.5 360 19:20 15.10.2019
131 Clouds 18 1005 82 10000 1.5 330 18:47 15.10.2019
132 Clouds 19 1005 82 10000 1.5 330 18:29 15.10.2019
133 Clouds 20 1005 77 10000 2.1 310 17:59 15.10.2019
134 Clouds 20 1005 72 10000 2.6 340 17:40 15.10.2019
135 Clouds 21 1005 68 10000 2.6 350 17:20 15.10.2019
136 Clouds 21 1005 68 10000 2.6 350 16:56 15.10.2019
137 Clouds 22 1005 68 10000 3.1 340 16:37 15.10.2019
138 Clouds 22 1005 68 10000 2.1 330 16:19 15.10.2019
139 Clouds 22 1005 68 10000 3.1 290 15:43 15.10.2019
140 Clouds 22 1005 68 10000 2.6 270 15:21 15.10.2019
141 Clouds 22 1005 68 10000 2.6 270 14:58 15.10.2019
142 Clouds 22 1005 64 10000 3.1 280 14:38 15.10.2019
143 Clouds 22 1005 64 10000 3.1 280 14:38 15.10.2019
144 Clouds 22 1005 64 10000 2.6 280 14:20 15.10.2019
145 Clouds 22 1005 64 10000 2.6 280 13:56 15.10.2019
146 Clouds 22 1005 60 10000 1.5 250 13:37 15.10.2019
147 Clouds 22 1005 60 10000 2.1 340 13:19 15.10.2019
148 Clouds 21 1006 68 10000 2.1 290 12:42 15.10.2019
149 Clouds 20 1006 64 10000 2.1 280 12:21 15.10.2019
150 Clouds 20 1006 64 10000 2.1 280 11:57 15.10.2019
151 Clouds 19 1006 68 10000 1.5 170 11:37 15.10.2019
152 Clouds 19 1006 72 10000 1.5 130 11:19 15.10.2019
153 Clouds 19 1006 72 10000 1.5 130 11:19 15.10.2019
154 Clouds 17 1006 72 10000 1 0 10:44 15.10.2019
155 Clouds 17 1006 72 10000 1 0 10:44 15.10.2019
156 Fog 16 1006 77 10000 1.5 140 10:21 15.10.2019
157 Fog 15 1006 77 10000 1.5 140 09:58 15.10.2019
158 Fog 14 1006 77 10000 1.5 140 09:38 15.10.2019
159 Fog 14 1006 77 10000 2.1 150 09:19 15.10.2019
160 Fog 13 1006 77 10000 2.1 150 08:55 15.10.2019
161 Fog 13 1006 82 10000 1.5 110 08:36 15.10.2019
162 Fog 13 1006 82 10000 1.5 110 08:36 15.10.2019
163 Fog 13 1006 82 10000 1.5 160 08:18 15.10.2019
164 Fog 12 1006 87 10000 1.5 130 07:41 15.10.2019
165 Fog 12 1006 93 10000 2.1 90 07:21 15.10.2019
166 Fog 13 1006 93 10000 2.1 80 06:45 15.10.2019
167 Clear 13 1006 93 10000 2.1 80 06:27 15.10.2019
168 Clear 13 1006 93 10000 1 110 05:44 15.10.2019
169 Clear 13 1006 93 10000 1 110 05:24 15.10.2019
170 Clouds 13 1007 93 9000 1.5 90 04:33 15.10.2019
171 Clouds 14 1007 93 6000 2.1 100 03:37 15.10.2019
172 Clouds 14 1007 93 6000 2.1 100 03:37 15.10.2019
173 Clear 14 1008 100 10000 2.1 100 02:29 15.10.2019
174 Clear 14 1008 93 10000 3.6 90 01:48 15.10.2019
175 Clear 15 1008 93 10000 3.6 90 01:22 15.10.2019
176 Clear 15 1008 93 10000 4.6 90 00:49 15.10.2019
177 Clear 15 1009 93 10000 3.1 100 00:21 15.10.2019
178 Clear 15 1009 87 10000 3.6 110 23:45 14.10.2019
179 Clear 16 1010 87 10000 3.1 100 23:20 14.10.2019
180 Clear 16 1010 87 10000 3.1 100 23:20 14.10.2019
181 Clear 16 1010 87 10000 3.1 100 22:57 14.10.2019
182 Clear 16 1010 87 10000 3.6 100 22:38 14.10.2019
183 Clear 16 1010 82 10000 3.1 100 22:18 14.10.2019
184 Clear 16 1010 82 10000 3.1 100 21:55 14.10.2019
185 Clear 17 1010 82 10000 4.1 100 21:36 14.10.2019
186 Clear 17 1010 82 10000 3.6 100 21:18 14.10.2019
187 Clear 17 1010 82 10000 3.6 100 20:40 14.10.2019
188 Clear 17 1010 82 10000 4.6 90 20:22 14.10.2019
189 Clear 17 1010 82 10000 4.6 90 19:59 14.10.2019
190 -273 0 0 0 0 0 19:41 14.10.2019
191 Rain 17 1010 77 10000 5.1 100 19:41 14.10.2019
192 Clear 18 1010 77 10000 4.1 90 19:23 14.10.2019
193 Clear 18 1010 77 10000 4.1 90 18:58 14.10.2019
194 Clear 19 1011 77 10000 3.6 90 18:39 14.10.2019
195 Clear 19 1011 72 10000 3.6 90 18:19 14.10.2019
196 Clear 20 1011 72 10000 3.6 90 17:56 14.10.2019
197 Clear 20 1011 72 10000 4.1 80 17:37 14.10.2019
198 Clear 20 1012 72 10000 5.1 80 17:19 14.10.2019
199 Clear 21 1012 72 10000 4.6 100 16:40 14.10.2019
200 Clear 20 1012 68 10000 5.1 90 16:21 14.10.2019
201 Clear 21 1013 72 10000 4.6 100 15:42 14.10.2019
202 Clear 20 1013 72 10000 4.1 80 15:23 14.10.2019
203 Clear 20 1013 72 10000 4.1 80 14:57 14.10.2019
204 Clear 20 1013 64 10000 3.1 80 14:39 14.10.2019
205 Clear 20 1014 72 10000 2.6 60 14:19 14.10.2019
206 Clear 20 1014 72 10000 2.6 60 14:19 14.10.2019
207 Clear 20 1014 68 10000 2.1 0 13:43 14.10.2019
208 Clear 19 1015 68 10000 1 0 13:21 14.10.2019
209 Clouds 18 1015 68 10000 1 0 12:55 14.10.2019
210 Clouds 18 1015 68 10000 1 0 12:37 14.10.2019
211 Clouds 18 1015 68 10000 0.5 0 12:18 14.10.2019
212 Clouds 18 1015 68 10000 0.5 0 12:18 14.10.2019
213 Clouds 18 1015 68 10000 0.5 0 12:18 14.10.2019
214 Clouds 17 1015 72 10000 1.5 210 11:44 14.10.2019
215 Clouds 17 1015 72 10000 1.5 210 11:26 14.10.2019
216 Clouds 16 1015 77 10000 2.1 250 10:57 14.10.2019
217 Clouds 17 1015 77 10000 1.5 230 10:57 14.10.2019
218 Clouds 16 1015 77 10000 2.1 250 10:38 14.10.2019
219 Clear 16 1015 77 10000 2.6 260 10:18 14.10.2019
220 Clear 15 1015 82 10000 2.1 240 09:42 14.10.2019
221 Clear 15 1015 82 10000 2.1 240 09:41 14.10.2019
222 Clear 14 1014 82 10000 2.1 250 09:21 14.10.2019
223 Clear 14 1014 87 10000 2.1 260 08:51 14.10.2019
224 Clouds 14 1014 87 10000 2.1 220 08:23 14.10.2019
225 Clouds 14 1014 87 10000 2.1 210 07:47 14.10.2019
226 Clouds 14 1014 87 10000 2.1 210 07:26 14.10.2019
227 Clouds 15 1013 87 10000 1.5 250 06:59 14.10.2019
228 Clouds 15 1013 87 10000 2.1 260 06:28 14.10.2019
229 Clouds 16 1013 82 10000 3.1 280 05:57 14.10.2019
230 Clouds 16 1013 82 10000 4.1 280 05:29 14.10.2019
231 Clouds 17 1012 77 10000 5.1 270 04:34 14.10.2019
232 Rain 18 1011 82 10000 5.1 250 03:26 14.10.2019
233 Clouds 18 1011 82 10000 4.6 250 03:26 14.10.2019
234 Clouds 19 1011 82 10000 5.1 250 02:34 14.10.2019
235 Clouds 20 1010 82 10000 4.1 270 01:22 14.10.2019
236 Rain 20 1010 77 10000 6.2 280 00:44 14.10.2019
237 Rain 21 1009 64 10000 4.1 210 00:19 14.10.2019
238 Clear 21 1009 64 10000 5.7 200 23:43 13.10.2019
239 Clear 21 1008 64 10000 5.1 200 23:20 13.10.2019
240 Clear 21 1008 64 10000 5.1 200 22:58 13.10.2019
241 Clear 21 1008 64 10000 5.7 200 22:40 13.10.2019
242 Clear 21 1008 64 10000 6.2 210 22:20 13.10.2019
243 Clear 21 1008 64 10000 6.2 210 21:57 13.10.2019
244 Clear 21 1008 64 10000 6.2 200 21:36 13.10.2019
245 Clear 21 1008 64 10000 6.2 200 21:36 13.10.2019
246 Clear 21 1008 64 10000 5.7 210 21:18 13.10.2019
247 Clear 21 1008 64 10000 5.7 210 20:57 13.10.2019
248 Clear 21 1008 64 10000 5.1 200 20:37 13.10.2019
249 Clear 21 1008 64 10000 5.7 200 20:19 13.10.2019
250 Clear 21 1007 60 10000 5.7 210 19:56 13.10.2019
251 Clear 21 1007 60 10000 5.7 210 19:56 13.10.2019
252 -273 0 0 0 0 0 19:55 13.10.2019
253 -273 0 0 0 0 0 19:55 13.10.2019
254 Clear 21 1007 60 10000 5.7 210 19:37 13.10.2019
255 Clear 21 1007 60 10000 5.7 210 19:37 13.10.2019
256 Clear 21 1007 64 10000 4.6 210 19:19 13.10.2019
257 -273 0 0 0 0 0 18:55 13.10.2019
258 -273 0 0 0 0 0 18:54 13.10.2019
259 Clear 21 1007 68 10000 5.1 190 18:36 13.10.2019
260 Clear 22 1007 64 10000 4.6 180 18:18 13.10.2019
261 Clear 22 1008 64 10000 4.6 180 17:42 13.10.2019
262 Clear 22 1008 64 10000 4.6 180 17:42 13.10.2019
263 Clear 22 1008 64 10000 4.6 180 17:42 13.10.2019
264 Clear 22 1008 68 10000 5.7 170 17:24 13.10.2019
265 Clear 22 1008 73 10000 4.6 170 16:45 13.10.2019
266 Rain 22 1008 73 10000 4.1 180 16:20 13.10.2019
267 Rain 22 1008 73 10000 4.1 180 15:59 13.10.2019
268 Rain 22 1008 73 10000 4.1 180 15:59 13.10.2019
269 Clear 21 1008 77 10000 3.6 170 15:39 13.10.2019
270 Rain 21 1009 77 10000 2.6 150 15:21 13.10.2019
271 Rain 21 1009 77 10000 2.6 150 14:59 13.10.2019
272 Clear 21 1009 82 10000 2.6 140 14:40 13.10.2019
273 Clear 20 1010 82 10000 2.6 160 14:22 13.10.2019
274 Clouds 20 1010 77 10000 3.6 180 13:58 13.10.2019
275 Clouds 20 1010 77 10000 3.6 180 13:38 13.10.2019
276 Rain 20 1010 88 10000 1 0 13:20 13.10.2019
277 Rain 20 1010 88 10000 1 0 12:56 13.10.2019
278 Rain 19 1010 88 10000 2.6 160 12:38 13.10.2019
279 Rain 19 1011 82 10000 3.1 180 12:18 13.10.2019
280 Rain 20 1011 82 10000 3.1 180 11:55 13.10.2019
281 Clouds 20 1010 77 10000 4.1 180 11:55 13.10.2019
282 Clouds 20 1010 77 10000 4.1 180 11:37 13.10.2019
283 Clouds 20 1010 77 10000 4.1 180 11:37 13.10.2019
284 Clouds 19 1010 77 10000 3.1 170 11:18 13.10.2019
285 Clouds 19 1010 77 10000 3.1 170 11:18 13.10.2019
286 Clear 18 1010 82 10000 3.6 180 10:41 13.10.2019
287 Clear 18 1010 82 10000 3.6 180 10:41 13.10.2019
288 Clouds 18 1010 77 10000 2.6 160 10:23 13.10.2019
289 Clouds 18 1010 77 10000 2.6 160 10:23 13.10.2019
290 Clouds 16 1010 87 10000 2.1 160 09:41 13.10.2019
291 Clouds 16 1010 87 10000 1.5 170 09:22 13.10.2019
292 Clouds 16 1010 87 10000 1.5 170 09:22 13.10.2019
293 Clouds 15 1010 87 10000 1.5 170 08:58 13.10.2019
294 Clouds 15 1010 87 10000 1.5 170 08:58 13.10.2019
295 Clouds 15 1010 87 10000 1.5 140 08:38 13.10.2019
296 Clouds 14 1010 87 10000 1 0 08:19 13.10.2019
297 Clouds 14 1010 87 10000 0.5 0 07:46 13.10.2019
298 Clouds 14 1010 87 10000 1 0 07:21 13.10.2019
299 Clouds 14 1010 93 10000 2.1 150 06:41 13.10.2019
300 Clouds 14 1010 93 10000 1.5 140 05:39 13.10.2019
301 Clouds 14 1010 93 8000 1.5 90 04:46 13.10.2019
302 Clouds 14 1010 100 6000 1.5 130 03:51 13.10.2019
303 Clouds 14 1011 93 10000 1.5 120 02:41 13.10.2019
304 Clouds 14 1011 100 10000 1 0 01:54 13.10.2019
305 Clouds 15 1011 100 10000 1 0 01:30 13.10.2019
306 Clouds 15 1011 93 8000 1.5 340 00:47 13.10.2019
307 Clouds 15 1011 93 8000 1.5 340 00:47 13.10.2019
308 Mist 15 1011 93 5000 1.5 300 00:21 13.10.2019
309 Mist 15 1011 93 5000 1.5 300 23:56 12.10.2019
310 Clouds 14 1010 100 6000 1 0 23:37 12.10.2019
311 Clouds 14 1011 93 6000 2.1 360 23:19 12.10.2019
312 Clouds 14 1010 93 8000 1.5 30 22:57 12.10.2019
313 Clouds 14 1010 93 8000 1.5 30 22:38 12.10.2019
314 Clouds 14 1010 93 10000 1.5 10 22:20 12.10.2019
315 Clouds 15 1010 93 10000 1 0 21:54 12.10.2019
316 Clouds 15 1010 93 10000 1 0 21:54 12.10.2019
317 Clouds 15 1010 93 10000 1 0 21:36 12.10.2019
318 Clear 15 1010 93 10000 1 0 21:18 12.10.2019
319 Clouds 16 1010 87 10000 2.1 360 20:40 12.10.2019
320 Clouds 16 1010 82 10000 0.5 0 20:22 12.10.2019
321 Clouds 16 1010 77 10000 1 0 19:38 12.10.2019
322 Clouds 16 1010 77 10000 1.5 210 19:20 12.10.2019
323 Clouds 17 1010 72 10000 2.1 230 18:56 12.10.2019
324 Clouds 17 1010 72 10000 2.1 230 18:37 12.10.2019
325 Clouds 17 1010 72 10000 3.6 230 18:19 12.10.2019
326 Clouds 17 1010 72 10000 4.1 220 17:42 12.10.2019
327 Clouds 18 1010 72 10000 3.6 210 17:19 12.10.2019
328 Clouds 18 1010 72 10000 4.1 220 16:54 12.10.2019
329 Clouds 18 1010 72 10000 4.1 220 16:54 12.10.2019
330 Clouds 18 1010 72 10000 4.1 220 16:36 12.10.2019
331 Clouds 18 1010 72 10000 3.1 220 16:18 12.10.2019
332 Clouds 18 1010 72 10000 3.6 240 15:40 12.10.2019
333 Rain 18 1010 72 10000 3.6 240 15:21 12.10.2019
334 Clouds 18 1009 72 10000 4.6 240 14:41 12.10.2019
335 Clouds 17 1009 67 10000 5.7 240 14:22 12.10.2019
336 Clouds 18 1009 72 10000 6.2 230 13:53 12.10.2019
337 Clouds 18 1009 72 10000 6.2 230 13:33 12.10.2019
338 Clouds 18 1009 72 10000 7.7 240 12:59 12.10.2019
339 Clouds 18 1009 72 10000 7.7 240 12:59 12.10.2019
340 Clouds 17 1009 72 10000 6.7 250 12:39 12.10.2019
341 Clouds 17 1009 72 10000 7.7 240 12:20 12.10.2019
342 Clouds 17 1008 72 10000 6.2 230 11:58 12.10.2019
343 Clouds 17 1008 72 10000 6.2 230 11:38 12.10.2019
344 Clouds 17 1008 72 10000 5.7 230 11:19 12.10.2019
345 Clouds 16 1008 72 10000 5.7 230 10:41 12.10.2019
346 Clouds 16 1007 67 10000 4.6 230 10:23 12.10.2019
347 Clouds 16 1007 72 10000 6.2 230 09:57 12.10.2019
348 Clouds 16 1007 72 10000 6.2 230 09:57 12.10.2019
349 Clouds 16 1007 72 10000 6.2 230 09:39 12.10.2019
350 Clear 16 1007 72 10000 6.2 230 09:20 12.10.2019
351 Clouds 15 1007 72 10000 5.7 230 08:56 12.10.2019
352 Clouds 15 1007 72 10000 5.7 230 08:55 12.10.2019
353 Clouds 15 1007 72 10000 5.7 230 08:36 12.10.2019
354 Clouds 15 1006 72 10000 5.7 230 08:18 12.10.2019
355 Clouds 15 1006 72 10000 5.7 230 08:18 12.10.2019
356 Clouds 16 1006 72 10000 5.7 230 07:32 12.10.2019
357 Clouds 16 1006 67 10000 7.2 230 06:44 12.10.2019
358 Clouds 16 1006 67 10000 7.2 240 05:46 12.10.2019
359 Clouds 16 1006 67 10000 5.7 230 04:47 12.10.2019
360 Clouds 16 1007 67 10000 5.7 230 03:56 12.10.2019
361 Clouds 16 1007 67 10000 6.7 230 02:57 12.10.2019
362 Clouds 16 1007 67 10000 6.7 240 01:36 12.10.2019
363 Clouds 16 1007 67 10000 7.2 230 00:58 12.10.2019
364 Clouds 16 1008 67 10000 6.7 240 00:39 12.10.2019
365 Clouds 16 1008 67 10000 6.2 230 23:56 11.10.2019
366 Clouds 16 1008 67 10000 6.2 230 23:37 11.10.2019
367 Clouds 16 1008 67 10000 7.2 230 23:19 11.10.2019
368 Clouds 16 1008 72 10000 7.7 230 22:39 11.10.2019
369 Clouds 16 1008 67 10000 7.7 230 22:20 11.10.2019
370 Clouds 16 1008 67 10000 7.7 230 21:55 11.10.2019
371 Rain 15 1008 67 10000 6.7 230 21:36 11.10.2019
372 Rain 15 1008 67 10000 7.7 230 21:18 11.10.2019
373 Rain 15 1008 77 10000 6.2 230 20:42 11.10.2019
374 Clouds 15 1009 67 10000 5.7 230 20:24 11.10.2019
375 Clouds 15 1009 67 10000 5.7 230 19:56 11.10.2019
376 Rain 15 1009 67 10000 6.2 230 19:38 11.10.2019
377 Rain 15 1009 67 10000 5.7 220 19:18 11.10.2019
378 Rain 15 1009 67 10000 5.7 220 19:18 11.10.2019
379 Rain 15 1009 67 10000 6.2 220 18:56 11.10.2019
380 Rain 15 1009 67 10000 6.2 220 18:37 11.10.2019
381 Rain 15 1009 67 10000 4.6 220 18:18 11.10.2019
382 Rain 16 1009 67 10000 5.7 220 17:57 11.10.2019
383 Rain 16 1009 67 10000 5.7 220 17:37 11.10.2019
384 Rain 16 1010 67 10000 5.7 220 17:18 11.10.2019
385 Rain 16 1010 67 10000 5.7 220 17:18 11.10.2019
386 Rain 16 1010 67 10000 6.7 220 16:41 11.10.2019
387 Rain 16 1010 67 10000 6.2 230 16:20 11.10.2019
388 Rain 16 1010 67 10000 6.2 230 15:59 11.10.2019
389 Rain 16 1010 67 10000 6.2 230 15:59 11.10.2019
390 Rain 16 1010 67 10000 5.1 230 15:38 11.10.2019
391 Clouds 16 1010 72 10000 7.7 230 15:19 11.10.2019
392 Clouds 16 1010 67 10000 6.7 220 14:47 11.10.2019
393 Clouds 16 1010 67 10000 6.7 220 14:29 11.10.2019
394 Clouds 16 1011 67 10000 7.7 230 13:56 11.10.2019
395 Clouds 16 1011 67 10000 7.7 230 13:38 11.10.2019
396 Rain 16 1011 72 10000 6.7 220 13:19 11.10.2019
397 Rain 15 1011 72 10000 6.7 230 12:54 11.10.2019
398 Rain 15 1011 72 10000 6.7 230 12:36 11.10.2019
399 Rain 14 1012 72 10000 8.2 240 12:18 11.10.2019
400 Rain 14 1012 76 10000 7.2 230 11:41 11.10.2019
401 Clouds 13 1012 76 10000 6.7 230 11:22 11.10.2019
402 Clouds 13 1012 76 10000 6.7 230 10:56 11.10.2019
403 Rain 13 1012 82 10000 5.7 230 10:38 11.10.2019
404 Rain 13 1012 82 10000 5.7 230 10:20 11.10.2019
405 Rain 13 1011 76 10000 6.7 230 09:55 11.10.2019
406 Rain 12 1011 76 10000 6.7 230 09:37 11.10.2019
407 Rain 12 1011 76 10000 5.7 220 09:18 11.10.2019
408 Rain 12 1011 76 10000 5.7 220 09:18 11.10.2019
409 Rain 12 1011 76 10000 5.1 230 08:40 11.10.2019
410 Rain 12 1011 71 10000 7.2 230 08:21 11.10.2019
411 Rain 12 1011 71 10000 7.2 230 07:59 11.10.2019
412 Rain 12 1011 71 10000 5.7 220 07:40 11.10.2019
413 Rain 12 1011 71 10000 6.2 220 07:20 11.10.2019
414 Rain 12 1011 71 10000 6.7 220 06:44 11.10.2019
415 Rain 12 1011 71 10000 6.7 220 06:21 11.10.2019
416 Rain 12 1012 71 10000 6.2 220 05:37 11.10.2019
417 Clouds 12 1012 71 10000 6.7 230 04:59 11.10.2019
418 Clouds 12 1012 76 10000 6.2 220 04:24 11.10.2019
419 Clear 11 1013 76 10000 4.6 220 02:18 11.10.2019
420 Clouds 11 1013 81 10000 3.6 210 00:42 11.10.2019
421 Clouds 11 1013 81 10000 3.1 200 00:23 11.10.2019
422 Clouds 11 1013 81 10000 3.1 200 00:23 11.10.2019
423 Clear 10 1014 81 10000 3.1 210 23:42 10.10.2019
424 Clouds 10 1014 87 10000 2.6 230 23:21 10.10.2019
425 Clear 10 1014 81 10000 3.6 240 22:57 10.10.2019
426 Clear 10 1014 81 10000 3.6 240 22:38 10.10.2019
427 Clear 11 1013 81 10000 3.1 240 22:20 10.10.2019
428 Clouds 11 1013 76 10000 4.1 240 21:56 10.10.2019
429 Clouds 11 1013 76 10000 4.1 240 21:56 10.10.2019
430 Clouds 11 1013 76 10000 4.1 240 21:38 10.10.2019
431 Clouds 11 1013 81 10000 3.6 240 21:20 10.10.2019
432 Rain 11 1013 81 10000 3.6 240 20:41 10.10.2019
433 Rain 11 1013 87 10000 2.6 230 20:21 10.10.2019
434 Rain 11 1013 87 10000 2.6 230 19:58 10.10.2019
435 Rain 11 1013 87 10000 3.1 230 19:40 10.10.2019
436 Rain 12 1012 81 10000 4.6 240 19:20 10.10.2019
437 Rain 12 1012 87 10000 3.6 240 18:56 10.10.2019
438 Rain 12 1012 87 10000 3.6 240 18:38 10.10.2019
439 Rain 12 1012 87 10000 3.1 240 18:19 10.10.2019
440 Rain 13 1012 87 10000 6.7 250 17:41 10.10.2019
441 Rain 13 1012 87 10000 6.7 250 17:41 10.10.2019
442 Rain 13 1011 76 5000 7.7 270 17:20 10.10.2019
443 Rain 13 1011 71 10000 6.2 250 16:58 10.10.2019
444 Clouds 14 1011 67 10000 7.7 250 16:40 10.10.2019
445 Clouds 13 1011 67 10000 6.2 250 16:21 10.10.2019
446 Clouds 14 1011 71 10000 6.2 250 15:43 10.10.2019
447 Clouds 14 1011 71 10000 6.2 250 15:43 10.10.2019
448 Clouds 14 1011 71 10000 6.2 260 15:24 10.10.2019
449 Clouds 13 1011 71 10000 6.2 260 14:59 10.10.2019
450 Clouds 13 1010 71 10000 7.2 250 14:38 10.10.2019
451 Clouds 13 1010 71 10000 7.2 250 14:38 10.10.2019
452 Clouds 13 1010 71 10000 7.2 260 14:19 10.10.2019
453 Clouds 13 1010 71 10000 7.2 260 13:59 10.10.2019
454 Rain 13 1010 76 10000 7.2 250 13:40 10.10.2019
455 Rain 12 1010 76 10000 8.2 250 13:18 10.10.2019
456 Rain 12 1010 76 10000 7.2 250 12:55 10.10.2019
457 Rain 12 1010 76 10000 7.2 250 12:37 10.10.2019
458 Clouds 12 1010 76 10000 5.1 250 12:18 10.10.2019
459 Clouds 12 1009 76 10000 7.2 240 11:42 10.10.2019
460 Clouds 11 1009 81 10000 6.2 250 11:21 10.10.2019
461 Clouds 11 1009 81 10000 6.2 250 10:59 10.10.2019
462 Clouds 11 1009 81 10000 6.7 250 10:41 10.10.2019
463 Clouds 11 1008 87 10000 5.1 250 10:22 10.10.2019
464 Clouds 10 1008 81 10000 5.1 250 09:54 10.10.2019
465 Clouds 10 1008 81 10000 5.1 250 09:36 10.10.2019
466 Clouds 10 1007 81 10000 4.1 250 09:18 10.10.2019
467 Clouds 9 1007 87 10000 4.1 230 08:41 10.10.2019
468 Clouds 9 1007 87 10000 4.1 230 08:21 10.10.2019
469 Clouds 9 1007 87 10000 4.1 230 07:58 10.10.2019
470 Clouds 9 1006 87 10000 4.1 230 07:37 10.10.2019
471 Clouds 9 1006 87 10000 3.6 240 07:19 10.10.2019
472 Clouds 9 1006 81 10000 3.6 240 06:40 10.10.2019
473 Clouds 9 1006 87 10000 3.6 240 05:57 10.10.2019
474 Clouds 9 1005 87 10000 5.1 240 05:22 10.10.2019
475 Clouds 9 1005 87 10000 5.1 240 05:22 10.10.2019
476 Clouds 9 1005 87 10000 6.2 240 04:36 10.10.2019
477 Clouds 9 1005 87 10000 4.1 240 02:49 10.10.2019
478 Rain 10 1005 87 10000 5.7 240 01:41 10.10.2019
479 Rain 10 1004 93 10000 5.7 240 01:22 10.10.2019
480 Rain 10 1004 81 10000 5.7 240 00:41 10.10.2019
481 Rain 10 1004 81 10000 5.7 240 00:19 10.10.2019
482 Rain 10 1004 81 10000 5.1 240 23:38 09.10.2019
483 Clouds 10 1004 81 10000 4.1 240 23:19 09.10.2019
484 Clouds 10 1004 81 10000 4.1 240 23:19 09.10.2019
485 Clouds 10 1004 87 10000 4.1 230 22:42 09.10.2019
486 Clouds 10 1004 87 10000 4.1 240 22:23 09.10.2019
487 Clouds 10 1004 87 10000 4.1 240 21:59 09.10.2019
488 Rain 10 1004 87 10000 5.1 240 21:39 09.10.2019
489 Rain 10 1004 87 10000 4.1 240 21:19 09.10.2019
490 Rain 10 1004 87 10000 4.1 240 20:55 09.10.2019
491 Rain 10 1004 93 10000 3.6 230 20:37 09.10.2019
492 Rain 10 1004 87 10000 4.1 220 20:18 09.10.2019
493 Rain 10 1004 87 10000 4.1 220 20:18 09.10.2019
494 Rain 10 1004 87 10000 4.1 220 20:18 09.10.2019
495 Rain 10 1004 93 10000 3.1 210 19:45 09.10.2019
496 Rain 10 1004 93 10000 2.6 220 19:23 09.10.2019
497 Rain 10 1004 93 10000 2.6 220 18:57 09.10.2019
498 Rain 11 1004 93 10000 4.1 270 18:37 09.10.2019
499 Rain 12 1004 87 10000 2.6 280 18:18 09.10.2019
500 Rain 12 1004 87 10000 2.6 280 17:54 09.10.2019
501 Rain 13 1004 87 10000 1 0 17:36 09.10.2019
502 Rain 13 1003 93 10000 2.1 270 17:18 09.10.2019
503 Rain 14 1004 87 5000 4.1 260 16:40 09.10.2019
504 Rain 14 1003 62 7000 5.1 230 16:21 09.10.2019
505 Rain 14 1003 62 7000 5.1 230 16:21 09.10.2019
506 Rain 14 1004 62 10000 5.7 220 15:57 09.10.2019
507 Rain 14 1004 62 10000 5.7 220 15:57 09.10.2019
508 Rain 14 1004 67 10000 5.1 210 15:39 09.10.2019
509 Rain 15 1004 67 10000 4.6 210 15:19 09.10.2019
510 Rain 14 1005 76 10000 3.6 210 14:56 09.10.2019
511 Rain 14 1005 76 10000 3.6 210 14:37 09.10.2019
512 Rain 14 1005 71 10000 4.1 210 14:18 09.10.2019
513 Rain 14 1005 76 10000 5.1 230 13:39 09.10.2019
514 Rain 14 1005 71 10000 3.6 220 13:39 09.10.2019
515 Clouds 14 1006 71 10000 5.7 230 13:20 09.10.2019
516 Clouds 14 1006 71 10000 5.7 230 12:57 09.10.2019
517 Clouds 14 1006 67 10000 6.2 240 12:37 09.10.2019
518 Clouds 14 1006 67 10000 6.2 240 12:19 09.10.2019
519 Clouds 14 1006 67 10000 6.7 240 11:40 09.10.2019
520 Clouds 13 1006 71 10000 6.2 240 11:21 09.10.2019
521 Clouds 13 1007 76 10000 5.7 240 10:59 09.10.2019
522 Clouds 13 1007 76 10000 5.7 240 10:40 09.10.2019
523 Clouds 13 1007 76 10000 6.2 240 10:20 09.10.2019
524 Clouds 12 1007 76 10000 6.2 240 09:56 09.10.2019
525 Clouds 12 1007 81 10000 3.6 230 09:38 09.10.2019
526 Clouds 12 1007 81 10000 3.6 230 09:38 09.10.2019
527 Clouds 12 1007 81 10000 3.6 230 09:18 09.10.2019
528 Clouds 11 1007 81 10000 3.1 230 08:39 09.10.2019
529 Clouds 11 1006 81 10000 4.1 240 08:20 09.10.2019
530 Clouds 11 1007 87 10000 4.1 230 07:47 09.10.2019
531 Clouds 11 1006 87 10000 4.1 230 07:25 09.10.2019
532 Clouds 11 1006 87 10000 4.1 230 07:25 09.10.2019
533 Clouds 11 1006 87 10000 4.1 230 07:25 09.10.2019
534 Clouds 11 1006 81 10000 5.1 240 06:58 09.10.2019
535 Clouds 11 1006 81 10000 5.1 240 06:40 09.10.2019
536 Clouds 11 1006 81 10000 5.1 240 05:53 09.10.2019
537 Clouds 12 1006 81 10000 6.2 240 05:18 09.10.2019
538 Clouds 11 1005 87 10000 4.6 240 03:48 09.10.2019
539 Clouds 11 1005 87 10000 3.6 240 02:34 09.10.2019
540 Clouds 11 1005 87 10000 2.6 230 01:39 09.10.2019
541 Clouds 11 1005 87 10000 2.6 230 01:39 09.10.2019
542 Clear 11 1005 87 10000 3.6 230 01:18 09.10.2019
543 Clouds 11 1005 93 10000 2.6 210 00:55 09.10.2019
544 Clouds 12 1005 93 10000 2.6 210 00:36 09.10.2019
545 Clouds 12 1005 87 10000 2.6 210 00:18 09.10.2019
546 Clouds 12 1005 87 10000 2.6 230 23:38 08.10.2019
547 Clouds 12 1005 87 10000 2.6 230 23:18 08.10.2019
548 Clouds 12 1005 87 10000 2.6 230 23:18 08.10.2019
549 Clouds 13 1005 87 10000 3.6 250 22:55 08.10.2019
550 Clouds 13 1005 87 10000 3.6 250 22:36 08.10.2019
551 Clouds 13 1005 87 10000 3.6 250 22:36 08.10.2019
552 Clouds 13 1004 87 10000 3.6 230 22:18 08.10.2019
553 Clear 13 1004 87 10000 3.6 220 21:55 08.10.2019
554 Clear 13 1004 87 10000 3.6 220 21:36 08.10.2019
555 Clear 13 1004 87 10000 3.1 230 21:18 08.10.2019
556 Clear 13 1004 87 10000 2.6 230 20:54 08.10.2019
557 Clear 13 1004 87 10000 2.6 230 20:36 08.10.2019
558 Clear 13 1004 87 10000 2.6 220 20:18 08.10.2019
559 Clouds 13 1004 87 10000 3.1 220 19:41 08.10.2019
560 Clouds 13 1004 87 10000 3.1 220 19:23 08.10.2019
561 Clouds 13 1004 87 10000 3.1 220 18:57 08.10.2019
562 Clouds 14 1004 87 10000 4.6 240 18:39 08.10.2019
563 Clouds 14 1005 87 10000 3.6 240 18:19 08.10.2019
564 Clouds 14 1005 87 10000 4.6 240 17:56 08.10.2019
565 Clouds 14 1005 87 10000 4.6 240 17:38 08.10.2019
566 Clouds 14 1004 87 10000 4.6 240 17:18 08.10.2019
567 Clouds 14 1005 82 10000 5.1 240 16:41 08.10.2019
568 Drizzle 14 1005 87 10000 5.7 250 16:22 08.10.2019
569 Drizzle 14 1005 87 10000 5.7 250 15:57 08.10.2019
570 Clouds 14 1005 87 10000 4.6 250 15:37 08.10.2019
571 Rain 14 1005 82 10000 4.1 240 15:19 08.10.2019
572 Clouds 14 1005 87 10000 4.6 250 14:42 08.10.2019
573 Clouds 14 1005 93 9000 3.6 240 14:21 08.10.2019
574 Clouds 14 1005 87 10000 5.7 260 13:58 08.10.2019
575 Clouds 13 1005 87 10000 5.7 260 13:39 08.10.2019
576 Clouds 13 1005 87 10000 5.7 250 13:20 08.10.2019
577 Clouds 13 1005 87 10000 5.7 250 12:59 08.10.2019
578 Clouds 13 1005 87 10000 6.2 250 12:38 08.10.2019
579 Drizzle 13 1005 87 10000 5.7 250 12:19 08.10.2019
580 Rain 12 1005 87 10000 5.1 250 11:43 08.10.2019
581 Rain 12 1005 93 10000 5.7 240 11:24 08.10.2019
582 Rain 12 1005 93 10000 5.7 240 10:59 08.10.2019
583 Rain 12 1005 93 10000 5.7 240 10:38 08.10.2019
584 Rain 12 1005 93 4500 4.6 230 10:20 08.10.2019
585 Rain 12 1005 93 4500 4.6 230 10:20 08.10.2019
586 Drizzle 11 1005 100 4000 4.1 220 09:57 08.10.2019
587 Drizzle 11 1005 100 4000 4.1 220 09:39 08.10.2019
588 Drizzle 11 1006 93 7000 3.6 200 09:19 08.10.2019
589 Drizzle 11 1005 93 6000 4.1 230 08:42 08.10.2019
590 Rain 11 1006 93 5000 3.6 190 08:23 08.10.2019
591 Rain 10 1006 93 3500 3.6 170 07:45 08.10.2019
592 Rain 10 1007 100 9000 4.1 170 07:21 08.10.2019
593 Rain 10 1008 87 9000 3.6 180 06:53 08.10.2019
594 Rain 10 1008 87 9000 3.6 180 06:29 08.10.2019
595 Rain 11 1009 87 10000 3.6 190 05:55 08.10.2019
596 Rain 10 1008 87 9000 3.1 190 05:55 08.10.2019
597 Rain 11 1009 87 10000 3.6 190 05:36 08.10.2019
598 Clouds 10 1010 81 10000 3.6 190 04:33 08.10.2019
599 Clouds 10 1011 81 10000 3.6 190 03:29 08.10.2019
600 Clouds 10 1012 81 10000 3.6 200 02:39 08.10.2019
601 Clouds 9 1013 81 10000 3.1 190 01:47 08.10.2019
602 Clouds 9 1013 81 10000 3.1 190 01:28 08.10.2019
603 Clear 9 1013 81 10000 1.5 150 00:48 08.10.2019
604 Clear 9 1014 81 10000 1.5 150 00:21 08.10.2019
605 Clear 9 1014 81 10000 1 0 23:41 07.10.2019
606 Clear 9 1015 76 10000 1 0 23:20 07.10.2019
607 Clear 9 1015 76 10000 1 0 23:20 07.10.2019
608 Clear 9 1015 76 10000 1 0 22:57 07.10.2019
609 Clouds 8 1015 76 10000 1.5 140 22:39 07.10.2019
610 Clouds 8 1016 76 10000 1.5 140 22:20 07.10.2019
611 Clouds 8 1016 76 10000 2.1 130 21:57 07.10.2019
612 Clouds 8 1016 76 10000 2.1 130 21:38 07.10.2019
613 Clouds 8 1017 76 10000 2.1 120 21:20 07.10.2019
614 Clouds 8 1017 76 10000 2.1 120 21:20 07.10.2019
615 Clouds 8 1017 76 10000 2.1 120 20:58 07.10.2019
616 Clouds 8 1017 76 10000 2.1 110 20:39 07.10.2019
617 Clouds 9 1017 71 10000 2.1 110 20:20 07.10.2019
618 Clouds 9 1017 71 10000 2.1 110 19:58 07.10.2019
619 Clear 9 1017 76 10000 2.6 110 19:39 07.10.2019
620 Clear 9 1017 71 10000 2.1 100 19:19 07.10.2019
621 Clear 10 1017 71 10000 2.1 100 18:56 07.10.2019
622 Clear 11 1017 66 10000 2.1 110 18:38 07.10.2019
623 Clear 11 1017 62 10000 2.6 110 18:18 07.10.2019
624 Clear 12 1017 58 10000 2.1 110 17:43 07.10.2019
625 Clear 12 1018 58 10000 2.6 120 17:20 07.10.2019
626 Clear 12 1018 58 10000 2.6 120 16:56 07.10.2019
627 Clear 12 1018 58 10000 2.6 120 16:38 07.10.2019
628 Clear 13 1018 54 10000 2.1 130 16:19 07.10.2019
629 Clear 13 1019 54 10000 2.1 140 15:43 07.10.2019
630 Clear 12 1019 50 10000 2.6 140 15:25 07.10.2019
631 Clear 12 1019 54 10000 3.1 130 14:42 07.10.2019
632 Clear 12 1019 54 10000 3.1 130 14:24 07.10.2019
633 Clear 12 1019 54 10000 3.1 130 14:24 07.10.2019
634 Clear 12 1020 58 10000 3.6 120 13:59 07.10.2019
635 Clear 12 1020 58 10000 3.6 120 13:59 07.10.2019
636 Clear 11 1020 57 10000 3.6 130 13:40 07.10.2019
637 Clear 11 1020 57 10000 3.6 110 13:18 07.10.2019
638 Clear 11 1021 57 10000 3.6 130 12:55 07.10.2019
639 Clear 11 1020 57 10000 3.6 110 12:55 07.10.2019
640 Clear 10 1021 57 10000 3.6 130 12:36 07.10.2019
641 Clear 9 1020 66 10000 3.6 90 12:18 07.10.2019
642 Clear 9 1021 70 10000 3.6 100 11:56 07.10.2019
643 Clear 9 1021 70 10000 3.6 100 11:37 07.10.2019
644 Clear 7 1021 70 10000 2.6 100 11:18 07.10.2019
645 Clear 6 1021 75 10000 2.6 110 10:40 07.10.2019
646 Clear 5 1021 80 10000 3.1 80 10:20 07.10.2019
647 Clear 4 1021 86 10000 3.1 90 09:42 07.10.2019
648 Clear 3 1021 86 10000 2.1 90 09:23 07.10.2019
649 Clear 3 1021 86 10000 2.1 90 08:56 07.10.2019
650 Clear 1 1020 79 10000 2.1 90 08:37 07.10.2019
651 Fog 1 1020 79 10000 1.5 80 08:18 07.10.2019
652 Fog 1 1019 79 10000 3.1 80 07:41 07.10.2019
653 Clear 1 1019 79 10000 2.6 100 07:21 07.10.2019
654 Clear 1 1019 79 10000 3.6 90 06:48 07.10.2019
655 Clear 2 1020 76 10000 2.6 80 06:27 07.10.2019
656 Clear 2 1019 76 10000 3.1 70 05:42 07.10.2019
657 Clear 2 1019 93 10000 1.5 90 05:21 07.10.2019
658 Clear 3 1019 86 10000 3.1 70 04:23 07.10.2019
659 Clear 3 1019 86 10000 1.5 90 03:44 07.10.2019
660 Clear 4 1018 86 10000 3.1 70 03:19 07.10.2019
661 Clear 4 1018 86 10000 3.1 70 03:19 07.10.2019
662 Clear 5 1018 86 10000 4.1 70 02:20 07.10.2019
663 Clear 5 1018 86 10000 4.1 70 02:20 07.10.2019
664 Clear 5 1017 80 10000 4.1 80 01:47 07.10.2019
665 Clear 6 1017 75 10000 4.6 80 01:19 07.10.2019
666 Clear 6 1017 81 10000 4.6 70 00:38 07.10.2019
667 Clear 6 1017 75 10000 4.6 80 00:19 07.10.2019
668 Clear 7 1017 75 10000 5.1 80 23:42 06.10.2019
669 Clear 7 1017 75 10000 5.1 80 23:42 06.10.2019
670 Clear 7 1017 75 10000 5.7 80 23:21 06.10.2019
671 Clear 7 1017 75 10000 5.7 80 22:59 06.10.2019
672 Clear 7 1017 75 10000 6.2 80 22:40 06.10.2019
673 Clear 8 1016 75 10000 5.1 90 22:21 06.10.2019
674 Clear 8 1016 75 10000 5.1 90 22:21 06.10.2019
675 Clear 8 1016 75 10000 5.1 90 21:57 06.10.2019
676 Clear 8 1016 70 10000 5.7 90 21:37 06.10.2019
677 Clear 8 1016 75 10000 5.1 90 21:19 06.10.2019
678 Clear 8 1016 87 10000 5.7 80 20:57 06.10.2019
679 Clear 8 1016 87 10000 5.7 80 20:38 06.10.2019
680 Clear 8 1016 75 10000 5.7 90 20:20 06.10.2019
681 Clear 8 1016 75 10000 5.7 90 19:57 06.10.2019
682 Clear 8 1016 70 10000 5.7 90 19:37 06.10.2019
683 Clear 8 1015 76 10000 5.7 100 19:19 06.10.2019
684 Clear 9 1015 76 10000 5.7 100 18:56 06.10.2019
685 Clear 9 1015 76 10000 5.7 100 18:38 06.10.2019
686 Clouds 9 1015 76 10000 6.7 100 18:19 06.10.2019
687 Clouds 9 1015 76 10000 6.7 100 18:19 06.10.2019
688 Clouds 9 1015 76 10000 5.1 100 17:43 06.10.2019
689 Clouds 9 1015 76 10000 5.1 100 17:43 06.10.2019
690 Clouds 9 1016 81 10000 6.2 100 17:20 06.10.2019
691 Clouds 9 1016 81 10000 6.2 100 16:58 06.10.2019
692 Clouds 9 1016 71 10000 6.7 100 16:40 06.10.2019
693 Clouds 10 1016 81 10000 6.7 90 16:22 06.10.2019
694 Clouds 10 1016 76 10000 6.2 90 15:44 06.10.2019
695 Clouds 10 1016 76 10000 5.7 100 15:22 06.10.2019
696 Clouds 10 1017 76 10000 5.1 100 14:58 06.10.2019
697 Clouds 10 1017 76 10000 5.1 100 14:40 06.10.2019
698 Clouds 10 1017 76 10000 5.1 100 14:21 06.10.2019
699 Clouds 10 1017 76 10000 5.1 100 13:55 06.10.2019
700 Clouds 9 1017 76 10000 5.7 100 13:36 06.10.2019
701 Clouds 9 1018 87 10000 5.7 90 13:18 06.10.2019
702 Clouds 9 1018 87 10000 5.1 90 12:55 06.10.2019
703 Clouds 9 1018 87 10000 5.1 90 12:55 06.10.2019
704 Clouds 9 1018 87 10000 5.1 90 12:37 06.10.2019
705 Clouds 9 1019 87 10000 4.6 100 12:19 06.10.2019
706 Mist 8 1019 87 10000 5.1 90 11:42 06.10.2019
707 Mist 8 1019 87 10000 3.6 100 11:24 06.10.2019
708 Mist 8 1019 87 10000 3.6 100 11:24 06.10.2019
709 Fog 7 1019 93 10000 4.6 90 10:56 06.10.2019
710 Fog 7 1019 93 10000 4.6 90 10:56 06.10.2019
711 Fog 7 1019 93 10000 4.6 90 10:38 06.10.2019
712 Fog 6 1019 93 10000 4.1 100 10:19 06.10.2019
713 Fog 6 1020 93 10000 3.6 100 09:41 06.10.2019
714 Fog 6 1020 93 10000 3.1 100 09:20 06.10.2019
715 Fog 5 1020 93 10000 3.1 90 08:49 06.10.2019
716 Clouds 5 1020 100 10000 3.6 90 08:24 06.10.2019
717 Clouds 5 1020 100 10000 3.6 90 07:59 06.10.2019
718 Clouds 4 1020 93 10000 3.1 90 07:40 06.10.2019
719 Clear 4 1020 93 10000 3.6 80 06:53 06.10.2019
720 Clear 5 1020 93 10000 3.1 90 05:41 06.10.2019
721 Clear 5 1020 93 10000 3.1 90 04:40 06.10.2019
722 Clear 5 1021 93 10000 2.6 90 02:56 06.10.2019
723 Clear 6 1021 93 10000 2.6 90 02:32 06.10.2019
724 Clear 6 1021 93 10000 2.6 90 01:49 06.10.2019
725 Clear 6 1021 93 10000 2.6 90 01:30 06.10.2019
726 Clear 6 1021 93 10000 2.6 90 01:30 06.10.2019
727 Clear 6 1021 93 10000 2.6 90 00:59 06.10.2019
728 Clear 6 1021 93 10000 2.6 90 00:36 06.10.2019
729 Clear 6 1021 93 10000 2.6 80 00:18 06.10.2019
730 Clear 7 1021 93 10000 1.5 70 23:40 05.10.2019
731 Clear 7 1021 87 10000 1.5 80 23:19 05.10.2019
732 Clear 7 1021 87 10000 1.5 80 22:54 05.10.2019
733 Clear 7 1021 87 10000 1.5 80 22:54 05.10.2019
734 Clouds 8 1021 87 10000 3.1 70 22:36 05.10.2019
735 Clouds 8 1021 81 10000 3.1 70 22:18 05.10.2019
736 Clouds 8 1021 81 10000 3.1 70 22:18 05.10.2019
737 Clouds 8 1020 81 10000 3.6 60 21:41 05.10.2019
738 Clear 8 1020 81 10000 2.6 70 21:22 05.10.2019
739 Clear 8 1020 81 10000 2.6 70 20:57 05.10.2019
740 Clear 8 1020 81 10000 2.1 50 20:39 05.10.2019
741 Clear 8 1019 81 10000 1.5 70 20:19 05.10.2019
742 Clear 8 1019 81 10000 1.5 70 20:19 05.10.2019
743 Clear 9 1019 76 10000 1 90 19:41 05.10.2019
744 Clear 10 1019 71 10000 1.5 70 19:22 05.10.2019
745 Clear 10 1019 71 10000 1.5 70 18:58 05.10.2019
746 Clear 11 1019 66 10000 1.5 50 18:39 05.10.2019
747 Clouds 12 1018 58 10000 2.6 80 18:21 05.10.2019
748 Clouds 12 1018 58 10000 2.6 80 17:59 05.10.2019
749 Clouds 12 1018 54 10000 2.6 30 17:40 05.10.2019
750 Clouds 13 1018 62 10000 3.1 80 17:20 05.10.2019
751 Clouds 13 1017 54 10000 3.1 70 16:42 05.10.2019
752 Clouds 13 1017 54 10000 2.6 20 16:23 05.10.2019
753 Clouds 13 1017 54 10000 2.6 20 15:58 05.10.2019
754 Clouds 13 1017 58 10000 3.6 50 15:40 05.10.2019
755 Clouds 13 1017 62 10000 3.6 50 15:21 05.10.2019
756 Clouds 13 1017 62 10000 3.6 50 14:58 05.10.2019
757 Clouds 13 1017 62 10000 3.6 50 14:58 05.10.2019
758 Clouds 12 1017 54 10000 4.1 40 14:40 05.10.2019
759 Clouds 12 1016 71 10000 4.1 40 14:20 05.10.2019
760 Clouds 12 1016 66 10000 5.1 60 13:42 05.10.2019
761 Clouds 11 1016 71 10000 4.6 30 13:23 05.10.2019
762 Clouds 11 1016 71 10000 4.1 60 12:47 05.10.2019
763 Clouds 11 1016 76 10000 5.1 50 12:21 05.10.2019
764 Clouds 11 1016 76 10000 5.1 50 12:21 05.10.2019
765 Clouds 10 1016 76 10000 5.1 50 11:59 05.10.2019
766 Clouds 10 1015 81 10000 3.1 40 11:39 05.10.2019
767 Clouds 9 1015 87 10000 3.6 20 11:18 05.10.2019
768 Clouds 9 1015 87 10000 3.6 20 11:18 05.10.2019
769 Clouds 9 1015 87 10000 4.1 20 10:45 05.10.2019
770 Clouds 8 1014 93 10000 3.1 10 10:26 05.10.2019
771 Clouds 8 1014 93 10000 3.1 10 09:59 05.10.2019
772 Clouds 8 1013 93 10000 3.6 350 09:39 05.10.2019
773 Clouds 8 1013 93 10000 2.1 360 09:20 05.10.2019
774 Clouds 8 1012 93 10000 2.1 350 08:40 05.10.2019
775 Clouds 8 1012 93 10000 3.1 360 08:20 05.10.2019
776 Clouds 8 1012 93 10000 3.1 360 07:57 05.10.2019
777 Clouds 8 1011 93 10000 3.1 10 07:34 05.10.2019
778 Clouds 8 1010 93 10000 3.6 360 06:59 05.10.2019
779 Clouds 8 1010 93 10000 4.1 360 06:28 05.10.2019
780 Rain 8 1009 93 10000 4.1 360 05:51 05.10.2019
781 Clouds 8 1008 93 10000 4.6 360 03:57 05.10.2019
782 Clouds 8 1008 93 10000 4.6 360 03:28 05.10.2019
783 Rain 8 1005 93 10000 5.1 40 01:41 05.10.2019
784 Rain 8 1005 93 10000 5.1 30 01:20 05.10.2019
785 Rain 8 1005 93 10000 6.7 50 00:43 05.10.2019
786 Rain 9 1004 100 10000 6.2 50 00:23 05.10.2019
787 Rain 9 1003 93 10000 6.2 60 23:44 04.10.2019
788 Rain 9 1003 93 10000 7.2 60 23:25 04.10.2019
789 Rain 9 1003 93 10000 7.2 60 22:59 04.10.2019
790 Rain 9 1003 93 10000 7.2 70 22:39 04.10.2019
791 Rain 9 1003 93 10000 7.2 70 22:20 04.10.2019
792 Rain 9 1003 93 10000 7.2 70 21:56 04.10.2019
793 Rain 9 1003 93 10000 6.7 70 21:38 04.10.2019
794 Rain 9 1003 100 10000 7.2 80 21:19 04.10.2019
795 Rain 9 1003 93 10000 6.2 90 20:54 04.10.2019
796 Rain 9 1003 93 10000 6.2 90 20:36 04.10.2019
797 Rain 9 1003 93 10000 6.2 90 20:18 04.10.2019
798 Rain 9 1003 93 10000 6.7 90 19:41 04.10.2019
799 Rain 9 1003 93 10000 5.7 90 19:23 04.10.2019
800 Rain 9 1003 93 10000 5.7 90 18:56 04.10.2019
801 Rain 9 1003 93 10000 4.6 90 18:37 04.10.2019
802 Rain 9 1003 93 10000 4.6 100 18:19 04.10.2019
803 Rain 9 1003 93 10000 4.1 110 17:42 04.10.2019
804 Rain 9 1004 93 10000 4.6 110 17:22 04.10.2019
805 Rain 10 1004 93 10000 4.6 110 16:59 04.10.2019
806 Rain 10 1004 87 10000 3.6 110 16:41 04.10.2019
807 Rain 10 1004 87 10000 3.6 120 16:19 04.10.2019
808 Rain 10 1004 87 10000 3.6 120 16:19 04.10.2019
809 Rain 10 1004 87 10000 3.6 120 15:58 04.10.2019
810 Rain 10 1005 87 10000 3.6 120 15:39 04.10.2019
811 Rain 10 1005 81 10000 3.1 130 15:20 04.10.2019
812 Rain 10 1005 81 10000 3.1 130 14:57 04.10.2019
813 Rain 11 1005 76 10000 3.1 140 14:39 04.10.2019
814 Rain 11 1006 81 10000 3.1 140 14:21 04.10.2019
815 Rain 11 1006 76 10000 2.6 130 13:45 04.10.2019
816 Rain 11 1006 81 10000 2.6 130 13:23 04.10.2019
817 Rain 11 1007 81 10000 3.1 120 12:56 04.10.2019
818 Rain 11 1007 81 10000 3.1 120 12:37 04.10.2019
819 Rain 11 1007 81 10000 2.1 150 12:18 04.10.2019
820 Rain 10 1008 93 10000 2.1 110 11:42 04.10.2019
821 Rain 10 1008 93 10000 2.1 110 11:42 04.10.2019
822 Rain 10 1008 93 10000 2.1 130 11:21 04.10.2019
823 Rain 10 1008 87 10000 2.1 140 10:42 04.10.2019
824 Rain 10 1009 87 10000 2.1 120 10:22 04.10.2019
825 Rain 9 1009 87 10000 2.1 120 09:58 04.10.2019
826 Rain 9 1009 93 8000 2.1 130 09:58 04.10.2019
827 Rain 9 1009 93 8000 2.1 130 09:40 04.10.2019
828 Rain 9 1009 93 8000 2.1 130 09:40 04.10.2019
829 Rain 9 1009 93 8000 3.1 170 09:22 04.10.2019
830 Rain 9 1010 87 10000 2.1 160 08:45 04.10.2019
831 Rain 9 1010 87 8000 2.1 160 08:26 04.10.2019
832 Clouds 9 1010 93 8000 1.5 140 07:47 04.10.2019
833 Clouds 9 1010 93 8000 1.5 150 07:24 04.10.2019
834 Clouds 9 1011 93 9000 1 0 06:58 04.10.2019
835 Clouds 9 1011 93 9000 1 0 06:39 04.10.2019
836 Clouds 9 1011 93 9000 1 0 06:20 04.10.2019
837 Rain 9 1011 93 10000 1.5 170 05:20 04.10.2019
838 Clear 9 1012 93 10000 1.5 160 04:37 04.10.2019
839 Clear 9 1013 93 10000 1 0 02:56 04.10.2019
840 Clear 9 1013 93 10000 1 0 02:56 04.10.2019
841 Clouds 9 1013 93 10000 1.5 190 02:37 04.10.2019
842 Clouds 9 1013 93 10000 1.5 220 01:53 04.10.2019
843 Clouds 9 1013 93 10000 1.5 210 01:26 04.10.2019
844 Clear 9 1013 93 10000 1 0 00:32 04.10.2019
845 Clouds 9 1014 93 10000 1.5 200 23:39 03.10.2019
846 Clouds 9 1014 93 10000 1.5 240 23:21 03.10.2019
847 Clouds 9 1014 93 10000 1.5 240 22:57 03.10.2019
848 Clouds 9 1014 93 10000 2.1 240 22:39 03.10.2019
849 Clouds 10 1015 93 10000 1.5 230 22:21 03.10.2019
850 Clouds 10 1015 93 10000 1.5 230 22:21 03.10.2019
851 Clouds 10 1015 93 10000 1.5 250 21:57 03.10.2019
852 Clouds 10 1015 93 10000 1.5 250 21:39 03.10.2019
853 Clouds 10 1015 93 10000 1 0 21:19 03.10.2019
854 Clouds 10 1015 93 10000 1.5 230 20:57 03.10.2019
855 Clouds 10 1015 93 10000 1.5 230 20:37 03.10.2019
856 Clouds 10 1015 93 10000 1.5 230 20:37 03.10.2019
857 Rain 10 1015 100 10000 1.5 220 20:19 03.10.2019
858 Rain 10 1015 100 10000 1.5 220 19:55 03.10.2019
859 Rain 11 1015 93 10000 1 0 19:36 03.10.2019
860 Clouds 11 1014 93 10000 1.5 260 19:18 03.10.2019
861 Rain 11 1014 93 10000 1 240 18:54 03.10.2019
862 Rain 11 1014 93 10000 1 240 18:36 03.10.2019
863 Rain 11 1014 93 10000 1 0 18:18 03.10.2019
864 Rain 12 1014 93 10000 1.5 250 17:42 03.10.2019
865 Rain 12 1014 93 10000 1.5 250 17:20 03.10.2019
866 Rain 13 1014 87 10000 0.5 280 16:54 03.10.2019
867 -273 0 0 0 0 0 16:54 03.10.2019
868 Rain 12 1014 87 10000 0.5 280 16:36 03.10.2019
869 Rain 12 1015 93 10000 2.1 270 16:18 03.10.2019
870 Rain 13 1015 93 10000 5.1 280 15:42 03.10.2019
871 Rain 13 1014 82 10000 4.6 280 15:23 03.10.2019
872 Rain 13 1014 82 10000 4.6 270 14:56 03.10.2019
873 Rain 13 1014 82 10000 4.6 270 14:56 03.10.2019
874 Rain 13 1014 82 10000 4.6 270 14:36 03.10.2019
875 Rain 13 1015 82 10000 3.6 270 14:18 03.10.2019
876 Rain 12 1015 87 10000 4.6 280 13:43 03.10.2019
877 Rain 13 1015 81 10000 4.6 270 13:22 03.10.2019
878 Clouds 12 1015 81 10000 4.1 260 12:58 03.10.2019
879 Clouds 12 1015 81 10000 4.1 260 12:39 03.10.2019
880 Clouds 12 1015 81 10000 4.1 260 12:39 03.10.2019
881 Drizzle 12 1015 81 10000 5.1 280 12:19 03.10.2019
882 Drizzle 12 1015 81 10000 5.1 280 12:19 03.10.2019
883 -273 0 0 0 0 0 11:56 03.10.2019
884 Drizzle 12 1015 87 10000 4.6 270 11:56 03.10.2019
885 Drizzle 12 1015 87 10000 4.6 270 11:56 03.10.2019
886 Drizzle 12 1015 87 10000 4.6 270 11:37 03.10.2019
887 Drizzle 12 1015 87 10000 5.1 270 11:19 03.10.2019
888 Drizzle 11 1015 87 10000 4.6 280 10:42 03.10.2019
889 Drizzle 11 1014 93 10000 4.1 280 10:19 03.10.2019
890 Clouds 11 1014 93 10000 4.1 280 09:59 03.10.2019
891 Clouds 10 1014 93 10000 4.1 280 09:40 03.10.2019
892 Clouds 10 1014 93 10000 4.6 280 09:21 03.10.2019
893 Clouds 10 1014 93 10000 4.6 280 08:55 03.10.2019
894 Rain 10 1014 93 10000 5.1 280 08:36 03.10.2019
895 Rain 10 1014 93 10000 5.1 300 08:18 03.10.2019
896 Drizzle 10 1013 93 10000 4.1 280 07:41 03.10.2019
897 Clouds 10 1013 93 10000 4.6 280 07:19 03.10.2019
898 Clouds 10 1013 93 10000 4.6 280 07:19 03.10.2019
899 Clouds 10 1013 93 10000 5.7 280 06:51 03.10.2019
900 Clouds 9 1013 93 10000 4.6 280 06:25 03.10.2019
901 Clouds 9 1012 93 10000 5.1 280 05:47 03.10.2019
902 Clouds 9 1012 93 10000 5.1 270 05:20 03.10.2019
903 Clouds 9 1012 93 10000 5.1 280 04:39 03.10.2019
904 Rain 10 1012 93 10000 6.7 280 03:24 03.10.2019
905 Rain 10 1012 93 5000 5.7 290 02:43 03.10.2019
906 Rain 10 1011 93 10000 7.7 270 01:59 03.10.2019
907 Rain 10 1011 87 10000 6.7 270 01:37 03.10.2019
908 Rain 10 1011 87 10000 6.7 270 00:51 03.10.2019
909 Rain 10 1011 81 10000 6.7 260 00:26 03.10.2019
910 Rain 10 1010 81 10000 7.2 260 23:44 02.10.2019
911 Rain 10 1010 81 10000 6.7 260 23:22 02.10.2019
912 Rain 9 1010 76 10000 6.2 260 22:47 02.10.2019
913 Clouds 9 1010 76 10000 6.7 250 22:23 02.10.2019
914 Clouds 9 1010 76 10000 6.7 250 21:58 02.10.2019
915 Clouds 9 1010 76 10000 6.7 250 21:58 02.10.2019
916 Clouds 9 1010 81 10000 5.1 250 21:39 02.10.2019
917 Clouds 9 1010 76 10000 5.1 240 21:20 02.10.2019
918 Clouds 9 1010 71 10000 4.6 250 20:57 02.10.2019
919 Clouds 9 1010 71 10000 4.6 250 20:39 02.10.2019
920 Clouds 9 1010 81 10000 4.1 250 20:20 02.10.2019
921 Clouds 9 1010 76 10000 3.6 240 19:56 02.10.2019
922 Clouds 9 1010 76 10000 3.6 240 19:38 02.10.2019
923 Clouds 10 1009 71 10000 4.1 250 19:19 02.10.2019
924 Clouds 10 1009 71 10000 4.1 250 18:56 02.10.2019
925 Clouds 11 1009 66 10000 3.1 260 18:38 02.10.2019
926 Rain 11 1009 66 10000 5.1 270 18:19 02.10.2019
927 Rain 11 1009 66 10000 5.1 270 17:56 02.10.2019
928 Rain 11 1009 62 10000 4.6 270 17:36 02.10.2019
929 Rain 11 1009 62 10000 5.1 270 17:18 02.10.2019
930 Rain 11 1009 71 10000 6.2 280 16:41 02.10.2019
931 Rain 12 1009 71 10000 5.7 280 16:21 02.10.2019
932 Rain 12 1009 71 10000 5.7 280 15:57 02.10.2019
933 Rain 12 1008 58 10000 5.1 280 15:38 02.10.2019
934 Rain 13 1008 58 10000 5.1 280 15:19 02.10.2019
935 Rain 12 1008 58 10000 7.2 270 14:56 02.10.2019
936 Rain 12 1008 54 10000 6.7 290 14:38 02.10.2019
937 Rain 13 1007 62 10000 5.7 280 14:19 02.10.2019
938 Rain 13 1007 58 10000 7.2 310 13:43 02.10.2019
939 Rain 13 1007 58 10000 7.2 290 13:23 02.10.2019
940 Clouds 13 1007 71 10000 5.7 280 12:56 02.10.2019
941 Clouds 12 1007 71 10000 5.1 280 12:37 02.10.2019
942 Clouds 12 1007 71 10000 5.1 280 12:18 02.10.2019
943 Clouds 11 1007 76 10000 5.1 300 11:43 02.10.2019
944 Clouds 10 1006 81 10000 5.7 280 11:22 02.10.2019
945 Rain 9 1006 81 10000 4.6 290 10:41 02.10.2019
946 Rain 9 1005 81 10000 5.7 280 10:20 02.10.2019
947 Rain 9 1005 87 10000 4.1 280 09:56 02.10.2019
948 Rain 8 1005 87 10000 4.1 280 09:36 02.10.2019
949 Fog 8 1005 93 10000 2.6 260 09:18 02.10.2019
950 Clouds 8 1004 93 10000 1.5 240 08:42 02.10.2019
951 Clouds 8 1004 93 10000 2.6 280 08:22 02.10.2019
952 Clear 8 1003 93 10000 2.6 280 07:55 02.10.2019
953 Rain 8 1003 93 10000 2.1 270 07:37 02.10.2019
954 Rain 8 1003 93 10000 2.1 270 07:18 02.10.2019
955 Rain 8 1003 93 10000 2.1 270 07:18 02.10.2019
956 Rain 8 1002 93 10000 0.5 0 06:29 02.10.2019
957 Rain 8 1002 93 10000 2.1 360 05:51 02.10.2019
958 Rain 8 1001 93 9000 3.6 360 05:22 02.10.2019
959 Rain 9 1001 93 10000 3.1 10 04:18 02.10.2019
960 Rain 9 1001 93 10000 3.6 10 03:50 02.10.2019
961 Rain 10 1000 93 4000 4.6 20 02:38 02.10.2019
962 Rain 10 1000 93 10000 4.6 30 02:20 02.10.2019
963 Rain 11 999 93 10000 3.6 20 00:55 02.10.2019
964 Rain 12 999 93 8000 3.1 30 00:30 02.10.2019
965 Rain 12 999 93 10000 2.6 20 23:57 01.10.2019
966 Rain 12 999 100 5000 2.6 50 23:39 01.10.2019
967 Rain 13 999 93 7000 3.1 360 23:21 01.10.2019
968 Rain 13 999 100 9000 3.1 360 22:58 01.10.2019
969 Rain 13 999 100 9000 3.1 360 22:58 01.10.2019
970 Rain 13 999 93 4500 3.6 40 22:38 01.10.2019
971 Rain 14 999 93 10000 4.6 340 22:18 01.10.2019
972 Rain 14 999 100 10000 1 0 21:43 01.10.2019
973 Rain 14 999 100 10000 1 0 21:43 01.10.2019
974 Rain 14 999 93 10000 1.5 300 21:23 01.10.2019
975 Rain 14 999 93 10000 1.5 300 21:23 01.10.2019
976 Rain 15 999 100 9000 1.5 340 20:59 01.10.2019
977 Rain 15 999 100 9000 1.5 340 20:59 01.10.2019
978 Rain 15 998 93 8000 4.1 330 20:39 01.10.2019
979 Rain 15 998 87 4000 3.1 320 20:20 01.10.2019
980 Rain 16 998 82 10000 4.1 250 19:58 01.10.2019
981 Rain 16 998 77 10000 4.1 260 19:40 01.10.2019
982 Clouds 17 998 77 10000 3.6 240 19:21 01.10.2019
983 Clouds 17 998 77 10000 5.1 240 18:56 01.10.2019
984 Clouds 17 998 77 10000 4.6 240 18:38 01.10.2019
985 Clouds 17 998 77 10000 4.6 240 18:19 01.10.2019
986 Clouds 17 998 77 10000 6.7 250 17:43 01.10.2019
987 Clouds 17 998 77 10000 5.1 240 17:21 01.10.2019
988 Clouds 17 998 72 10000 7.7 250 16:59 01.10.2019
989 Clouds 17 998 72 10000 7.7 250 16:41 01.10.2019
990 Clouds 17 998 72 10000 7.2 240 16:22 01.10.2019
991 Clouds 17 998 72 10000 7.2 240 16:22 01.10.2019
992 Clouds 18 998 72 10000 6.7 250 15:49 01.10.2019
993 Clouds 17 998 77 10000 8.2 240 15:25 01.10.2019
994 Clouds 17 998 82 10000 6.7 240 14:58 01.10.2019
995 Clouds 17 997 77 10000 8.2 260 14:40 01.10.2019
996 Rain 17 998 77 10000 7.2 240 14:19 01.10.2019
997 Rain 16 998 82 10000 7.7 250 13:56 01.10.2019
998 Clouds 16 999 82 10000 6.7 240 13:37 01.10.2019
999 Clouds 16 999 82 10000 6.7 240 13:18 01.10.2019
1000 Rain 15 998 87 10000 5.7 240 12:55 01.10.2019
1001 -273 0 0 0 0 0 12:55 01.10.2019
1002 Rain 15 999 93 10000 6.2 220 12:37 01.10.2019
1003 Rain 15 999 93 10000 6.2 220 12:18 01.10.2019
1004 Rain 15 999 93 10000 6.2 230 11:54 01.10.2019
1005 Rain 14 998 93 10000 4.6 220 11:36 01.10.2019
1006 Rain 14 998 93 10000 4.6 220 11:36 01.10.2019
1007 Rain 14 998 93 10000 4.6 220 11:18 01.10.2019
1008 Rain 14 999 100 8000 5.1 230 10:44 01.10.2019
1009 Rain 14 999 100 2500 2.6 160 10:25 01.10.2019
1010 Drizzle 13 999 93 10000 1 0 09:44 01.10.2019
1011 Drizzle 13 999 93 10000 1.5 160 09:26 01.10.2019
1012 Drizzle 12 1000 100 5000 2.1 110 08:44 01.10.2019
1013 Drizzle 12 1000 93 4000 1.5 120 08:25 01.10.2019
1014 Rain 12 1001 93 6000 1.5 80 07:50 01.10.2019
1015 Rain 12 1000 93 4500 3.1 210 07:26 01.10.2019
1016 Rain 12 1002 93 6000 1 0 06:51 01.10.2019
1017 Rain 12 1002 93 10000 2.6 170 06:25 01.10.2019
1018 Rain 12 1003 93 10000 2.6 170 05:59 01.10.2019
1019 Rain 12 1004 87 10000 2.6 170 05:38 01.10.2019
1020 Rain 12 1004 93 9000 3.1 210 04:40 01.10.2019
1021 Rain 12 1006 87 10000 0.5 0 03:34 01.10.2019
1022 Rain 12 1007 87 10000 1.5 200 02:19 01.10.2019
1023 Rain 12 1008 87 10000 2.1 220 01:51 01.10.2019
1024 Clouds 12 1008 87 9000 4.1 250 00:44 01.10.2019
1025 Clear 12 1009 87 10000 2.1 230 00:24 01.10.2019
1026 Clear 12 1009 87 10000 2.1 230 00:24 01.10.2019
1027 Clear 12 1009 87 10000 2.1 230 00:24 01.10.2019
1028 Clouds 12 1009 87 9000 5.1 250 23:42 30.09.2019
1029 Clear 12 1009 87 10000 3.1 240 23:22 30.09.2019
1030 Clear 12 1009 82 10000 3.1 240 22:55 30.09.2019
1031 Clouds 13 1009 82 10000 3.6 230 22:37 30.09.2019
1032 Clouds 13 1009 82 10000 3.6 230 22:19 30.09.2019
1033 Clouds 13 1009 76 10000 4.1 240 21:55 30.09.2019
1034 Clouds 13 1009 71 10000 3.6 250 21:36 30.09.2019
1035 Clouds 13 1009 71 10000 3.6 250 21:18 30.09.2019
1036 Clear 13 1009 71 10000 3.1 260 20:54 30.09.2019
1037 Clear 14 1009 67 10000 5.1 270 20:36 30.09.2019
1038 Clear 14 1009 67 10000 5.1 270 20:18 30.09.2019
1039 Clouds 14 1009 67 10000 6.2 280 19:41 30.09.2019
1040 Clear 14 1009 67 10000 5.7 270 19:20 30.09.2019
1041 Clouds 15 1008 67 10000 6.2 270 18:58 30.09.2019
1042 Clouds 15 1008 67 10000 7.7 290 18:40 30.09.2019
1043 Clouds 15 1008 62 10000 7.7 270 18:20 30.09.2019
1044 Clouds 16 1008 67 10000 7.2 270 17:56 30.09.2019
1045 Clouds 16 1008 59 10000 6.7 270 17:37 30.09.2019
1046 Clouds 16 1008 59 10000 6.7 270 17:18 30.09.2019
1047 Clouds 16 1008 63 10000 8.7 280 16:42 30.09.2019
1048 Clouds 16 1007 63 10000 9.3 270 16:20 30.09.2019
1049 Clouds 16 1007 63 10000 9.3 270 16:20 30.09.2019
1050 Clouds 16 1007 63 10000 8.7 270 15:59 30.09.2019
1051 Clouds 16 1007 63 10000 8.7 270 15:59 30.09.2019
1052 Rain 16 1007 59 10000 8.7 290 15:38 30.09.2019
1053 Rain 16 1007 63 10000 9.3 270 15:19 30.09.2019
1054 Rain 16 1006 67 10000 7.7 280 14:58 30.09.2019
1055 Clouds 16 1006 63 10000 9.8 280 14:38 30.09.2019
1056 Clouds 16 1006 63 10000 9.8 280 14:19 30.09.2019
1057 Clouds 16 1006 67 10000 10.3 270 13:58 30.09.2019
1058 Clouds 15 1006 67 10000 9.8 290 13:40 30.09.2019
1059 Clouds 15 1005 72 10000 9.3 270 13:21 30.09.2019
1060 Rain 15 1005 77 10000 9.8 290 12:44 30.09.2019
1061 Rain 14 1004 77 10000 8.7 280 12:25 30.09.2019
1062 Rain 14 1004 87 10000 10.3 270 11:59 30.09.2019
1063 Rain 14 1004 87 10000 10.3 270 11:59 30.09.2019
1064 Rain 14 1004 82 10000 10.3 290 11:40 30.09.2019
1065 Rain 14 1003 87 5000 8.7 280 11:20 30.09.2019
1066 Rain 14 1002 82 10000 10.3 270 10:55 30.09.2019
1067 Rain 13 1002 87 10000 8.7 270 10:37 30.09.2019
1068 Rain 13 1002 87 10000 8.7 270 10:18 30.09.2019
1069 Rain 13 1002 87 10000 9.3 280 09:40 30.09.2019
1070 Rain 13 1002 87 10000 9.3 280 09:40 30.09.2019
1071 Rain 13 999 87 10000 6.2 270 09:21 30.09.2019
1072 Rain 13 999 87 10000 10.8 280 08:51 30.09.2019
1073 Rain 13 998 87 10000 10.3 280 08:33 30.09.2019
1074 Rain 13 996 87 10000 11.3 270 07:47 30.09.2019
1075 Rain 13 996 87 10000 11.3 270 07:47 30.09.2019
1076 Rain 13 994 93 5000 8.7 280 07:29 30.09.2019
1077 Rain 14 991 87 3700 11.3 250 06:59 30.09.2019
1078 Rain 14 994 87 8000 16.5 280 06:41 30.09.2019
1079 Rain 14 991 87 10000 9.8 240 05:56 30.09.2019
1080 Rain 14 991 87 10000 9.8 240 05:56 30.09.2019
1081 Drizzle 15 992 93 10000 8.2 250 05:38 30.09.2019
1082 Rain 15 992 93 4000 6.2 240 02:50 30.09.2019
1083 Rain 15 992 100 8000 5.7 240 01:50 30.09.2019
1084 Rain 15 992 87 10000 5.1 220 00:57 30.09.2019
1085 Rain 15 992 87 10000 5.1 220 00:57 30.09.2019
1086 Rain 15 992 93 10000 4.1 210 00:37 30.09.2019
1087 Rain 15 992 93 10000 4.1 210 00:18 30.09.2019
1088 Rain 15 992 93 10000 4.1 210 00:18 30.09.2019
1089 Rain 15 992 87 10000 7.7 240 23:40 29.09.2019
1090 Rain 15 993 93 10000 4.6 210 23:20 29.09.2019
1091 Rain 15 993 93 5000 2.6 220 22:44 29.09.2019
1092 Rain 15 994 93 10000 4.1 210 22:25 29.09.2019
1093 Rain 15 994 93 10000 4.1 210 22:25 29.09.2019
1094 Rain 15 994 93 10000 4.6 210 21:59 29.09.2019
1095 Rain 15 993 87 4000 6.2 230 21:39 29.09.2019
1096 Rain 15 994 93 6000 4.6 210 21:20 29.09.2019
1097 Rain 15 994 93 6000 4.6 210 21:20 29.09.2019
1098 Rain 15 995 93 10000 4.6 210 20:59 29.09.2019
1099 Rain 15 994 93 4000 6.2 230 20:41 29.09.2019
1100 Rain 15 994 93 4000 6.2 230 20:41 29.09.2019
1101 Rain 15 995 93 10000 5.1 210 20:19 29.09.2019
1102 Rain 15 995 87 10000 5.1 210 19:55 29.09.2019
1103 Rain 15 996 87 10000 4.1 210 19:36 29.09.2019
1104 Rain 15 996 87 10000 4.1 210 19:18 29.09.2019
1105 Rain 15 996 93 10000 4.6 200 18:55 29.09.2019
1106 Rain 15 996 93 10000 5.1 230 18:36 29.09.2019
1107 Rain 15 996 93 10000 4.6 210 18:18 29.09.2019
1108 Rain 15 996 87 8000 8.2 220 17:55 29.09.2019
1109 Rain 15 996 87 8000 8.2 220 17:54 29.09.2019
1110 Rain 15 996 87 8000 8.2 220 17:54 29.09.2019
1111 Rain 15 996 87 8000 8.2 220 17:54 29.09.2019
1112 Rain 15 997 87 6000 7.2 230 17:36 29.09.2019
1113 Rain 15 997 87 6000 7.2 230 17:18 29.09.2019
1114 Rain 16 997 82 6000 9.3 250 16:41 29.09.2019
1115 Rain 16 998 87 10000 4.1 210 16:20 29.09.2019
1116 Rain 16 999 77 10000 5.1 220 15:59 29.09.2019
1117 Clouds 16 999 77 10000 5.7 210 15:38 29.09.2019
1118 Clouds 16 999 77 10000 5.7 210 15:19 29.09.2019
1119 Clouds 16 999 77 10000 4.6 220 14:58 29.09.2019
1120 Clouds 16 999 72 10000 6.7 240 14:38 29.09.2019
1121 Clouds 15 1000 82 10000 3.6 200 14:19 29.09.2019
1122 Drizzle 15 1001 82 10000 3.6 190 13:56 29.09.2019
1123 Rain 15 1001 82 10000 2.6 180 13:37 29.09.2019
1124 Rain 15 1001 82 10000 2.6 180 13:18 29.09.2019
1125 Rain 15 1001 87 10000 2.1 160 12:56 29.09.2019
1126 Rain 15 1002 87 10000 2.6 160 12:38 29.09.2019
1127 Rain 15 1002 87 10000 2.6 160 12:20 29.09.2019
1128 Rain 14 1002 87 8000 2.6 180 11:41 29.09.2019
1129 Rain 14 1003 87 10000 3.1 180 11:20 29.09.2019
1130 Rain 14 1004 93 8000 2.6 170 10:58 29.09.2019
1131 Rain 13 1003 93 10000 3.6 170 10:40 29.09.2019
1132 Rain 13 1004 93 7000 3.6 150 10:21 29.09.2019
1133 Rain 13 1004 93 10000 3.1 170 09:59 29.09.2019
1134 Rain 13 1004 93 6000 4.1 160 09:41 29.09.2019
1135 Rain 13 1005 93 7000 2.6 170 09:19 29.09.2019
1136 Rain 13 1005 87 7000 3.1 210 08:43 29.09.2019
1137 Rain 13 1006 87 10000 2.6 200 08:22 29.09.2019
1138 Rain 13 1006 87 10000 3.6 220 07:45 29.09.2019
1139 Rain 13 1006 87 10000 4.6 230 07:27 29.09.2019
1140 Rain 14 1006 76 10000 4.6 230 06:50 29.09.2019
1141 Rain 14 1007 76 10000 5.1 230 06:22 29.09.2019
1142 Clouds 14 1008 76 10000 4.1 240 04:52 29.09.2019
1143 Clouds 14 1008 76 10000 5.1 240 04:24 29.09.2019
1144 Clouds 14 1008 72 10000 6.2 240 02:59 29.09.2019
1145 Rain 14 1009 77 10000 5.7 240 02:19 29.09.2019
1146 Rain 15 1009 77 10000 5.7 230 01:45 29.09.2019
1147 Clouds 15 1009 77 10000 6.2 230 00:59 29.09.2019
1148 Clouds 15 1009 77 10000 6.2 230 00:59 29.09.2019
1149 Clouds 15 1008 77 10000 8.7 250 00:40 29.09.2019
1150 Clouds 15 1009 77 10000 5.7 230 00:19 29.09.2019
1151 Clouds 15 1009 77 10000 5.7 230 00:19 29.09.2019
1152 Clouds 15 1009 77 10000 6.2 230 23:38 28.09.2019
1153 Clouds 15 1009 77 10000 6.2 230 23:19 28.09.2019
1154 Rain 15 1009 77 10000 7.7 250 22:40 28.09.2019
1155 Clouds 15 1009 77 10000 6.2 230 22:21 28.09.2019
1156 Clouds 15 1009 77 10000 6.2 220 21:58 28.09.2019
1157 Clouds 15 1009 77 10000 6.2 220 21:58 28.09.2019
1158 Rain 15 1008 77 10000 8.7 240 21:40 28.09.2019
1159 Rain 15 1009 77 10000 5.7 220 21:21 28.09.2019
1160 Rain 15 1009 77 10000 5.1 230 20:58 28.09.2019
1161 Rain 15 1009 77 10000 5.1 230 20:58 28.09.2019
1162 Clouds 15 1009 77 10000 5.1 230 20:39 28.09.2019
1163 Clouds 15 1009 77 10000 5.1 230 20:20 28.09.2019
1164 Clouds 15 1009 77 10000 6.2 230 19:56 28.09.2019
1165 Rain 15 1008 77 10000 7.7 240 19:38 28.09.2019
1166 Rain 15 1009 82 10000 3.6 200 19:20 28.09.2019
1167 Rain 15 1009 87 10000 2.6 220 18:57 28.09.2019
1168 Rain 15 1008 87 9000 3.6 230 18:38 28.09.2019
1169 Rain 16 1009 82 8000 3.1 240 18:20 28.09.2019
1170 Rain 16 1009 77 10000 5.7 240 17:55 28.09.2019
1171 Rain 16 1009 77 10000 5.7 240 17:55 28.09.2019
1172 Rain 16 1009 72 10000 6.2 240 17:37 28.09.2019
1173 Rain 16 1009 72 10000 6.2 240 17:18 28.09.2019
1174 Clouds 17 1009 77 10000 6.7 230 16:41 28.09.2019
1175 Clouds 17 1009 63 10000 6.7 240 16:23 28.09.2019
1176 Rain 17 1009 63 10000 6.2 260 15:41 28.09.2019
1177 Rain 17 1009 67 10000 8.7 250 15:23 28.09.2019
1178 Clouds 17 1010 72 10000 7.7 240 14:57 28.09.2019
1179 Rain 17 1009 72 10000 8.2 250 14:38 28.09.2019
1180 Rain 17 1009 82 10000 8.2 220 14:20 28.09.2019
1181 Rain 17 1010 77 10000 5.7 250 13:56 28.09.2019
1182 Clouds 17 1010 77 10000 5.7 240 13:37 28.09.2019
1183 Clouds 17 1010 77 10000 5.7 240 13:37 28.09.2019
1184 Clouds 17 1010 77 10000 5.7 240 13:19 28.09.2019
1185 Rain 16 1009 77 10000 6.2 250 12:40 28.09.2019
1186 Rain 16 1010 87 10000 4.6 220 12:19 28.09.2019
1187 Rain 16 1010 82 10000 5.7 210 11:55 28.09.2019
1188 Rain 16 1010 82 10000 5.7 220 11:36 28.09.2019
1189 Rain 16 1010 82 10000 5.7 220 11:18 28.09.2019
1190 Rain 15 1009 77 10000 5.7 240 10:40 28.09.2019
1191 Rain 15 1009 77 10000 5.1 240 10:20 28.09.2019
1192 Clouds 15 1009 77 10000 4.1 230 09:54 28.09.2019
1193 Rain 15 1009 82 10000 3.6 220 09:36 28.09.2019
1194 Rain 15 1009 82 10000 3.6 220 09:18 28.09.2019
1195 Rain 14 1008 82 10000 5.7 240 08:42 28.09.2019
1196 Rain 14 1009 87 6000 6.2 230 08:23 28.09.2019
1197 Rain 14 1008 77 10000 5.1 220 07:45 28.09.2019
1198 Rain 14 1008 77 10000 3.6 220 07:21 28.09.2019
1199 Clouds 14 1008 77 10000 3.1 210 06:53 28.09.2019
1200 Clouds 14 1008 82 10000 3.6 200 06:31 28.09.2019
1201 Clouds 14 1008 82 10000 3.1 190 05:47 28.09.2019
1202 Clouds 14 1008 82 10000 2.6 190 05:20 28.09.2019
1203 Clear 14 1008 82 10000 3.1 180 04:39 28.09.2019
1204 Clear 14 1008 77 10000 3.1 180 03:56 28.09.2019
1205 Clear 15 1008 77 10000 3.1 180 03:22 28.09.2019
1206 Clear 14 1008 77 10000 3.6 200 02:48 28.09.2019
1207 Clear 14 1008 77 10000 3.1 190 02:30 28.09.2019
1208 Clear 14 1008 77 10000 4.1 190 01:48 28.09.2019
1209 Clear 14 1008 72 10000 3.6 190 01:26 28.09.2019
1210 Clear 14 1008 77 10000 3.6 200 00:52 28.09.2019
1211 Clouds 14 1008 77 10000 4.1 200 00:31 28.09.2019
1212 Rain 14 1008 72 10000 3.6 200 23:58 27.09.2019
1213 Clear 14 1008 72 10000 3.6 190 23:37 27.09.2019
1214 Clear 14 1008 72 10000 3.6 190 23:19 27.09.2019
1215 Clear 14 1008 77 10000 3.1 180 22:45 27.09.2019
1216 Clear 14 1008 77 10000 2.6 180 22:19 27.09.2019
1217 Clear 14 1008 77 10000 2.1 180 21:57 27.09.2019
1218 Clear 15 1008 72 10000 2.1 180 21:37 27.09.2019
1219 Clear 15 1008 72 10000 2.1 180 21:37 27.09.2019
1220 Clear 15 1008 72 10000 2.1 180 21:19 27.09.2019
1221 Clear 15 1008 72 10000 2.1 180 20:55 27.09.2019
1222 Clear 15 1008 72 10000 2.1 200 20:37 27.09.2019
1223 Clear 16 1008 72 10000 2.1 200 20:18 27.09.2019
1224 Clear 16 1008 67 10000 2.1 210 19:43 27.09.2019
1225 Clouds 17 1007 67 10000 2.1 220 19:23 27.09.2019
1226 Clouds 17 1007 63 10000 2.6 240 18:58 27.09.2019
1227 Clouds 18 1007 63 10000 3.6 250 18:39 27.09.2019
1228 Clouds 18 1007 59 10000 3.6 240 18:20 27.09.2019
1229 Clouds 18 1007 59 10000 3.6 240 18:20 27.09.2019
1230 Clouds 18 1007 55 10000 5.1 260 17:54 27.09.2019
1231 Clouds 19 1007 63 10000 4.1 250 17:36 27.09.2019
1232 Clouds 19 1007 63 10000 4.1 250 17:18 27.09.2019
1233 Clouds 19 1007 59 10000 5.1 230 16:54 27.09.2019
1234 Clouds 19 1008 68 10000 3.6 230 16:36 27.09.2019
1235 Clouds 19 1008 68 10000 3.6 230 16:18 27.09.2019
1236 Rain 19 1007 59 10000 6.2 250 15:42 27.09.2019
1237 Rain 18 1007 63 10000 4.6 250 15:20 27.09.2019
1238 Rain 18 1008 68 10000 3.6 260 14:56 27.09.2019
1239 Clouds 18 1007 68 10000 6.2 240 14:38 27.09.2019
1240 Clouds 18 1008 72 10000 4.1 230 14:38 27.09.2019
1241 Clouds 17 1008 72 10000 4.1 230 14:18 27.09.2019
1242 Clouds 17 1008 72 10000 5.1 240 13:56 27.09.2019
1243 Clouds 17 1008 72 10000 5.1 250 13:38 27.09.2019
1244 Clouds 17 1008 72 10000 5.1 250 13:18 27.09.2019
1245 Rain 16 1008 72 10000 5.7 240 12:43 27.09.2019
1246 Rain 16 1008 82 10000 4.6 230 12:21 27.09.2019
1247 Clouds 15 1008 82 10000 4.6 250 11:40 27.09.2019
1248 Rain 15 1008 87 10000 2.6 220 11:22 27.09.2019
1249 Rain 15 1008 87 10000 2.6 210 10:59 27.09.2019
1250 Rain 14 1008 87 10000 3.1 240 10:40 27.09.2019
1251 Rain 14 1008 93 10000 2.1 220 10:20 27.09.2019
1252 Rain 14 1008 93 10000 2.1 220 09:44 27.09.2019
1253 Rain 14 1008 93 10000 2.1 220 09:23 27.09.2019
1254 Rain 14 1008 93 10000 2.1 220 09:23 27.09.2019
1255 Rain 14 1008 93 10000 2.1 220 08:58 27.09.2019
1256 Rain 14 1008 93 10000 3.1 230 08:39 27.09.2019
1257 Rain 14 1008 87 10000 3.6 240 08:20 27.09.2019
1258 Rain 14 1008 87 10000 3.1 210 07:46 27.09.2019
1259 Rain 14 1008 93 10000 3.1 240 07:24 27.09.2019
1260 Rain 15 1008 93 10000 3.1 240 06:43 27.09.2019
1261 Rain 15 1008 87 10000 3.1 230 06:25 27.09.2019
1262 Rain 15 1008 87 10000 4.1 230 05:51 27.09.2019
1263 Rain 15 1008 87 10000 4.6 240 05:33 27.09.2019
1264 Rain 16 1008 100 2800 3.6 240 03:56 27.09.2019
1265 Rain 16 1008 100 10000 3.1 190 03:34 27.09.2019
1266 Rain 16 1008 93 4000 2.6 160 01:52 27.09.2019
1267 Rain 16 1008 93 10000 2.6 170 01:28 27.09.2019
1268 Rain 16 1009 93 10000 2.6 170 00:30 27.09.2019
1269 Rain 16 1009 93 10000 3.1 160 23:56 26.09.2019
1270 Clouds 16 1009 93 10000 3.1 160 23:38 26.09.2019
1271 Clouds 16 1009 93 10000 3.1 160 23:18 26.09.2019
1272 Clouds 16 1009 93 10000 3.1 160 23:18 26.09.2019
1273 Clear 16 1009 93 10000 1.5 150 22:57 26.09.2019
1274 Rain 16 1009 93 10000 2.1 140 22:39 26.09.2019
1275 Rain 16 1009 93 10000 2.1 140 22:18 26.09.2019
1276 Rain 16 1009 93 10000 2.1 140 22:18 26.09.2019
1277 Rain 16 1009 93 10000 3.1 160 21:55 26.09.2019
1278 Drizzle 16 1009 93 10000 3.1 160 21:37 26.09.2019
1279 Drizzle 16 1009 93 10000 3.1 160 21:37 26.09.2019
1280 Drizzle 16 1009 93 10000 3.1 160 21:18 26.09.2019
1281 Rain 16 1009 93 10000 2.6 160 20:57 26.09.2019
1282 Rain 16 1009 93 10000 3.6 190 20:39 26.09.2019
1283 Rain 16 1009 93 10000 2.6 170 20:20 26.09.2019
1284 Rain 16 1009 93 10000 2.6 170 20:20 26.09.2019
1285 Rain 16 1009 93 10000 3.1 170 19:40 26.09.2019
1286 Rain 16 1009 93 10000 3.1 170 19:19 26.09.2019
1287 Rain 16 1009 88 10000 3.6 190 18:59 26.09.2019
1288 Rain 16 1009 88 10000 3.1 170 18:40 26.09.2019
1289 Rain 17 1009 88 10000 3.1 170 18:22 26.09.2019
1290 Rain 17 1010 88 10000 2.6 190 17:57 26.09.2019
1291 Rain 17 1009 88 10000 3.6 190 17:37 26.09.2019
1292 Rain 18 1010 82 10000 4.1 200 17:18 26.09.2019
1293 Rain 18 1009 77 10000 3.6 230 16:40 26.09.2019
1294 Rain 18 1009 77 10000 3.6 230 16:40 26.09.2019
1295 Rain 18 1009 68 10000 5.7 200 16:21 26.09.2019
1296 Rain 18 1009 68 10000 5.7 200 16:21 26.09.2019
1297 Rain 19 1009 68 10000 3.6 210 15:59 26.09.2019
1298 Rain 19 1009 72 10000 5.7 220 15:38 26.09.2019
1299 Rain 19 1009 68 10000 3.1 200 15:20 26.09.2019
1300 Rain 19 1009 68 10000 3.6 180 14:57 26.09.2019
1301 Clouds 19 1009 68 10000 3.1 180 14:38 26.09.2019
1302 Clouds 19 1009 72 10000 4.1 200 14:38 26.09.2019
1303 Clouds 19 1009 68 10000 3.1 180 14:20 26.09.2019
1304 Clouds 19 1010 68 10000 3.6 200 13:41 26.09.2019
1305 Clouds 19 1009 68 10000 5.1 210 13:41 26.09.2019
1306 Clouds 19 1010 72 10000 4.1 200 13:20 26.09.2019
1307 Clouds 19 1009 72 10000 4.6 200 12:59 26.09.2019
1308 Clouds 19 1009 72 10000 5.1 220 12:41 26.09.2019
1309 Clouds 18 1009 72 10000 3.6 210 12:21 26.09.2019
1310 Clouds 18 1009 77 10000 4.6 210 11:43 26.09.2019
1311 Clouds 17 1009 77 10000 3.6 210 11:23 26.09.2019
1312 Clouds 17 1009 82 10000 4.6 190 10:58 26.09.2019
1313 Clouds 16 1009 82 10000 5.1 220 10:40 26.09.2019
1314 Clouds 16 1009 87 10000 2.6 200 10:20 26.09.2019
1315 Clouds 16 1009 87 10000 2.6 200 10:20 26.09.2019
1316 Clouds 16 1009 87 10000 2.6 200 10:20 26.09.2019
1317 Clouds 15 1009 93 10000 2.6 190 09:44 26.09.2019
1318 Clouds 15 1008 93 10000 1.5 170 09:26 26.09.2019
1319 Clouds 14 1008 93 10000 1.5 170 08:57 26.09.2019
1320 Clouds 14 1008 93 10000 3.6 210 08:39 26.09.2019
1321 Clouds 14 1008 93 10000 2.1 160 08:21 26.09.2019
1322 Mist 14 1008 100 10000 3.1 210 07:43 26.09.2019
1323 Mist 14 1008 100 5000 2.1 170 07:21 26.09.2019
1324 Rain 14 1007 93 10000 2.6 200 06:44 26.09.2019
1325 Rain 14 1008 100 7000 1.5 180 06:25 26.09.2019
1326 Rain 13 1007 100 8000 2.6 210 05:44 26.09.2019
1327 Rain 13 1007 100 5000 2.6 210 05:25 26.09.2019
1328 Fog 12 1007 93 10000 1 0 02:53 26.09.2019
1329 Fog 12 1007 93 10000 1 0 01:54 26.09.2019
1330 Fog 12 1007 93 10000 1 0 01:54 26.09.2019
1331 Fog 12 1007 93 10000 1 180 01:29 26.09.2019
1332 Fog 12 1007 93 10000 1 170 00:56 26.09.2019
1333 Fog 12 1007 100 10000 2.1 180 00:37 26.09.2019
1334 Fog 12 1007 93 10000 0.5 0 23:58 25.09.2019
1335 Fog 12 1006 100 10000 2.1 220 23:39 25.09.2019
1336 Fog 13 1007 93 10000 2.1 170 23:18 25.09.2019
1337 Fog 13 1006 93 10000 3.1 190 22:42 25.09.2019
1338 Fog 13 1007 93 10000 1 0 22:20 25.09.2019
1339 Fog 13 1006 93 10000 1.5 200 21:57 25.09.2019
1340 Fog 14 1006 93 10000 3.1 210 21:39 25.09.2019
1341 Rain 14 1006 93 10000 1.5 180 21:19 25.09.2019
1342 Rain 14 1007 93 10000 2.6 220 20:58 25.09.2019
1343 Rain 14 1006 87 10000 2.1 180 20:40 25.09.2019
1344 Rain 15 1006 87 6000 5.1 220 20:21 25.09.2019
1345 Rain 15 1006 87 10000 1 0 19:54 25.09.2019
1346 Rain 16 1006 77 10000 3.1 280 19:36 25.09.2019
1347 Rain 16 1006 82 10000 1 0 19:18 25.09.2019
1348 Rain 17 1005 82 10000 1.5 330 18:55 25.09.2019
1349 Rain 17 1005 68 8000 4.6 260 18:36 25.09.2019
1350 Rain 17 1005 72 10000 3.1 320 18:18 25.09.2019
1351 Rain 17 1005 72 10000 3.1 320 18:18 25.09.2019
1352 Clouds 18 1005 72 10000 2.1 210 17:38 25.09.2019
1353 Clouds 18 1005 72 10000 2.1 210 17:19 25.09.2019
1354 Clouds 18 1005 68 10000 3.6 230 16:46 25.09.2019
1355 Rain 18 1005 72 10000 3.6 260 16:28 25.09.2019
1356 Rain 18 1005 72 10000 3.6 270 15:59 25.09.2019
1357 Clouds 18 1005 68 10000 4.1 270 15:41 25.09.2019
1358 Clouds 18 1005 68 10000 4.6 290 15:23 25.09.2019
1359 Clouds 18 1005 72 10000 3.6 280 14:57 25.09.2019
1360 Clouds 17 1005 72 10000 5.7 300 14:39 25.09.2019
1361 Clouds 17 1005 72 10000 4.6 270 14:21 25.09.2019
1362 Drizzle 16 1005 77 10000 4.1 260 13:41 25.09.2019
1363 Drizzle 16 1006 82 10000 3.6 260 13:22 25.09.2019
1364 Drizzle 16 1005 93 9000 4.6 230 12:59 25.09.2019
1365 Mist 15 1006 87 10000 3.6 250 12:39 25.09.2019
1366 Mist 15 1006 87 10000 3.6 250 12:21 25.09.2019
1367 Mist 15 1005 100 5000 3.1 250 11:55 25.09.2019
1368 Mist 15 1005 100 5000 3.1 250 11:55 25.09.2019
1369 Drizzle 15 1005 100 6000 3.6 250 11:36 25.09.2019
1370 Drizzle 14 1005 100 6000 3.6 250 11:18 25.09.2019
1371 Drizzle 14 1005 93 4300 3.6 270 10:41 25.09.2019
1372 Drizzle 14 1005 93 8000 2.6 250 10:23 25.09.2019
1373 Drizzle 14 1005 93 3200 3.1 240 09:56 25.09.2019
1374 Rain 14 1004 93 5000 3.1 310 09:36 25.09.2019
1375 Rain 14 1004 93 3300 3.1 260 09:18 25.09.2019
1376 Rain 14 1004 93 2300 2.6 220 08:42 25.09.2019
1377 Rain 13 1004 93 6000 2.1 170 08:21 25.09.2019
1378 Rain 13 1004 93 3300 1.5 170 07:56 25.09.2019
1379 Drizzle 13 1004 93 4000 2.1 170 07:37 25.09.2019
1380 Rain 13 1004 93 2800 2.1 120 07:19 25.09.2019
1381 Rain 13 1005 93 5000 1.5 70 06:38 25.09.2019
1382 Rain 13 1005 93 5000 1.5 70 06:18 25.09.2019
1383 Rain 13 1005 93 10000 1 0 05:27 25.09.2019
1384 Rain 13 1005 87 10000 1 60 04:50 25.09.2019
1385 Rain 14 1006 77 10000 1.5 150 02:18 25.09.2019
1386 Clouds 14 1006 72 10000 2.1 140 00:44 25.09.2019
1387 Clear 14 1007 72 10000 1 0 00:24 25.09.2019
1388 Clear 14 1007 72 10000 1.5 140 23:55 24.09.2019
1389 Clear 14 1007 67 10000 1 0 23:36 24.09.2019
1390 Clouds 14 1007 72 10000 1.5 180 23:36 24.09.2019
1391 Clear 14 1007 67 10000 1 0 23:18 24.09.2019
1392 Clouds 15 1007 72 10000 2.1 170 22:39 24.09.2019
1393 Clear 15 1008 59 10000 1.5 180 22:20 24.09.2019
1394 Clear 15 1008 63 10000 1 0 21:56 24.09.2019
1395 Clear 15 1008 59 10000 1 180 21:37 24.09.2019
1396 Clear 15 1008 59 10000 1 180 21:19 24.09.2019
1397 Clear 15 1008 59 10000 1 0 20:57 24.09.2019
1398 Clouds 16 1007 67 10000 1.5 170 20:38 24.09.2019
1399 Clear 16 1008 55 10000 1 0 20:20 24.09.2019
1400 Clouds 18 1007 55 10000 2.6 170 19:43 24.09.2019
1401 Clear 18 1008 48 10000 2.1 190 19:21 24.09.2019
1402 Clear 19 1008 49 10000 2.1 180 18:59 24.09.2019
1403 Clouds 19 1008 48 10000 4.1 200 18:40 24.09.2019
1404 Clear 20 1008 49 10000 3.6 180 18:21 24.09.2019
1405 Clear 20 1008 43 10000 4.6 190 17:57 24.09.2019
1406 Clear 21 1009 46 10000 2.1 170 17:38 24.09.2019
1407 Clear 21 1009 46 10000 2.1 170 17:20 24.09.2019
1408 Clear 21 1009 49 10000 3.1 190 16:56 24.09.2019
1409 Clouds 21 1009 46 10000 4.6 190 16:38 24.09.2019
1410 Clear 21 1009 46 10000 2.6 160 16:18 24.09.2019
1411 Clouds 21 1009 49 10000 3.6 170 15:41 24.09.2019
1412 Clouds 21 1010 52 10000 2.6 170 15:23 24.09.2019
1413 Clouds 20 1010 52 10000 4.1 200 14:43 24.09.2019
1414 Clouds 20 1011 56 10000 2.6 130 14:20 24.09.2019
1415 Clouds 20 1011 60 10000 3.1 180 13:56 24.09.2019
1416 Clouds 20 1011 60 10000 3.1 160 13:37 24.09.2019
1417 Clouds 20 1012 60 10000 2.1 0 13:19 24.09.2019
1418 Clouds 19 1011 60 10000 3.6 190 12:39 24.09.2019
1419 Clouds 19 1012 63 10000 2.6 200 12:19 24.09.2019
1420 Mist 18 1012 72 10000 3.1 180 11:43 24.09.2019
1421 Mist 18 1013 72 10000 1.5 160 11:43 24.09.2019
1422 Mist 17 1013 77 10000 1.5 200 11:22 24.09.2019
1423 Mist 16 1013 82 9000 1.5 170 10:58 24.09.2019
1424 Mist 15 1013 87 10000 1.5 170 10:39 24.09.2019
1425 Mist 15 1013 87 8000 1 0 10:20 24.09.2019
1426 Fog 14 1014 93 7000 1 0 09:46 24.09.2019
1427 Fog 14 1014 93 7000 1 0 09:46 24.09.2019
1428 Mist 14 1014 100 4000 0.5 0 09:27 24.09.2019
1429 Fog 13 1013 93 3700 2.6 230 08:58 24.09.2019
1430 Fog 12 1013 100 500 0.5 70 08:40 24.09.2019
1431 Fog 12 1013 100 500 0.5 70 08:21 24.09.2019
1432 Rain 12 1013 93 500 1.5 170 07:57 24.09.2019
1433 Rain 12 1013 93 250 2.6 190 07:37 24.09.2019
1434 Rain 12 1014 93 250 1 160 07:18 24.09.2019
1435 Fog 12 1013 93 400 1.5 160 06:37 24.09.2019
1436 Fog 12 1014 100 250 0.5 80 06:37 24.09.2019
1437 Fog 12 1014 100 600 2 227.046 05:53 24.09.2019
1438 Fog 13 1014 100 400 1 240 05:21 24.09.2019
1439 Fog 14 1015 93 9000 0.5 0 03:46 24.09.2019
1440 Clouds 14 1015 93 9000 2.31 237.052 03:20 24.09.2019
1441 Rain 14 1015 100 10000 0.5 0 02:43 24.09.2019
1442 Rain 14 1015 93 10000 1 160 01:40 24.09.2019
1443 Clouds 15 1015 93 10000 1.5 140 00:40 24.09.2019
1444 Rain 15 1015 93 10000 0.5 0 00:21 24.09.2019
1445 Rain 15 1015 93 10000 0.5 170 23:41 23.09.2019
1446 Rain 15 1015 93 10000 1 0 23:22 23.09.2019
1447 Rain 15 1015 93 10000 1.5 110 22:40 23.09.2019
1448 Rain 15 1015 93 10000 1 110 22:21 23.09.2019
1449 Rain 15 1015 93 10000 1.5 100 21:59 23.09.2019
1450 Drizzle 15 1015 87 10000 0.5 0 21:41 23.09.2019
1451 Drizzle 15 1015 93 10000 1.5 60 21:20 23.09.2019
1452 Drizzle 15 1015 93 10000 1.5 60 21:20 23.09.2019
1453 Drizzle 15 1015 93 10000 1.5 60 21:20 23.09.2019
1454 Drizzle 15 1015 82 10000 2.1 20 20:56 23.09.2019
1455 Clouds 16 1015 82 10000 0.5 0 20:38 23.09.2019
1456 Clouds 16 1015 82 10000 0.5 0 20:18 23.09.2019
1457 Rain 16 1015 82 10000 1 280 19:40 23.09.2019
1458 Rain 16 1015 77 10000 0.5 260 19:22 23.09.2019
1459 Drizzle 16 1015 77 10000 0.5 0 18:58 23.09.2019
1460 Drizzle 17 1014 77 10000 1.5 280 18:40 23.09.2019
1461 Drizzle 17 1014 77 10000 1.5 280 18:40 23.09.2019
1462 Clouds 17 1014 77 10000 1 0 18:18 23.09.2019
1463 Clouds 17 1014 77 10000 2.1 320 17:56 23.09.2019
1464 Clouds 17 1014 82 10000 2.6 290 17:37 23.09.2019
1465 Clouds 17 1014 82 10000 2.6 290 17:19 23.09.2019
1466 Clouds 17 1014 77 10000 3.1 280 16:54 23.09.2019
1467 Drizzle 17 1014 82 10000 4.1 290 16:36 23.09.2019
1468 Drizzle 17 1014 82 10000 4.1 290 16:36 23.09.2019
1469 Drizzle 17 1014 82 10000 4.1 290 16:18 23.09.2019
1470 Drizzle 17 1014 77 10000 4.6 280 15:54 23.09.2019
1471 Drizzle 17 1014 88 9000 2.1 290 15:36 23.09.2019
1472 Drizzle 17 1014 88 9000 2.1 290 15:18 23.09.2019
1473 Mist 17 1014 93 10000 5.1 280 14:39 23.09.2019
1474 Rain 17 1014 93 10000 5.1 280 14:20 23.09.2019
1475 Rain 16 1013 87 4500 3.1 270 13:58 23.09.2019
1476 Rain 16 1013 87 10000 5.1 270 13:37 23.09.2019
1477 Drizzle 16 1013 87 10000 5.1 270 13:18 23.09.2019
1478 Drizzle 16 1013 88 10000 5.1 300 12:43 23.09.2019
1479 Drizzle 16 1014 93 9000 4.6 280 12:22 23.09.2019
1480 Drizzle 16 1013 82 6000 3.6 270 11:55 23.09.2019
1481 Drizzle 16 1013 93 10000 3.6 270 11:37 23.09.2019
1482 Drizzle 16 1013 93 10000 3.6 270 11:37 23.09.2019
1483 Rain 16 1013 100 2500 4.6 280 11:19 23.09.2019
1484 Rain 16 1013 93 7000 4.1 270 10:49 23.09.2019
1485 Drizzle 16 1012 100 1600 2.6 290 10:21 23.09.2019
1486 Rain 16 1012 100 1600 2.6 290 10:21 23.09.2019
1487 -273 0 0 0 0 0 09:55 23.09.2019
1488 Drizzle 15 1012 88 3000 4.1 280 09:37 23.09.2019
1489 Drizzle 14 1012 88 3000 4.1 280 09:19 23.09.2019
1490 Drizzle 13 1011 88 4500 4.1 280 08:42 23.09.2019
1491 Drizzle 13 1011 87 5000 2.6 290 08:22 23.09.2019
1492 Mist 12 1011 88 5000 5.1 270 07:47 23.09.2019
1493 Clear 11 1010 76 10000 1 0 07:24 23.09.2019
1494 Clear 11 1010 76 10000 2.1 90 06:21 23.09.2019
1495 Clear 11 1010 71 10000 2.1 110 05:46 23.09.2019
1496 Clear 11 1010 76 10000 3.6 90 05:18 23.09.2019
1497 Clear 11 1010 66 10000 2.6 100 04:52 23.09.2019
1498 Clear 14 1009 67 10000 3.1 90 01:29 23.09.2019
1499 Clouds 14 1009 59 10000 1 130 00:42 23.09.2019
1500 Clear 15 1009 67 10000 1.5 100 00:22 23.09.2019
1501 Clouds 15 1009 67 10000 2.1 110 23:46 22.09.2019
1502 Clear 15 1009 62 10000 2.6 100 23:27 22.09.2019
1503 Clear 15 1009 59 10000 2.1 100 22:57 22.09.2019
1504 Clear 15 1009 55 10000 2.1 90 22:38 22.09.2019
1505 Clear 15 1009 55 10000 2.1 90 22:38 22.09.2019
1506 Clear 16 1009 55 10000 2.1 90 22:20 22.09.2019
1507 Clear 17 1009 52 10000 1.5 110 21:43 22.09.2019
1508 Clear 18 1009 45 10000 2.1 110 21:21 22.09.2019
1509 Clear 18 1009 48 10000 3.6 90 20:54 22.09.2019
1510 Clouds 19 1009 52 10000 3.6 120 20:36 22.09.2019
1511 Clear 20 1009 40 10000 2.1 110 20:18 22.09.2019
1512 Clouds 21 1008 52 10000 0.5 90 19:41 22.09.2019
1513 Clear 22 1009 38 10000 2.1 80 19:22 22.09.2019
1514 Clear 25 1009 34 10000 0.5 0 18:58 22.09.2019
1515 Clouds 25 1008 36 10000 2.1 120 18:38 22.09.2019
1516 Clear 25 1009 31 10000 1.5 130 18:19 22.09.2019
1517 Clear 25 1009 31 10000 3.1 140 17:56 22.09.2019
1518 Clear 26 1008 31 10000 4.1 130 17:37 22.09.2019
1519 Clear 26 1009 31 10000 3.1 120 17:18 22.09.2019
1520 Clear 26 1009 31 10000 4.1 150 16:42 22.09.2019
1521 Clear 26 1009 33 10000 3.1 120 16:23 22.09.2019
1522 Clear 26 1010 33 10000 4.6 90 15:47 22.09.2019
1523 Clear 26 1010 33 10000 4.1 100 15:28 22.09.2019
1524 Clear 25 1010 33 10000 3.6 100 14:58 22.09.2019
1525 Clear 25 1010 31 10000 5.1 130 14:40 22.09.2019
1526 Clear 25 1011 36 10000 2.6 0 14:21 22.09.2019
1527 Clear 24 1011 38 10000 3.1 110 13:55 22.09.2019
1528 Clear 24 1011 38 10000 3.6 100 13:36 22.09.2019
1529 Clear 24 1011 38 10000 3.6 100 13:36 22.09.2019
1530 Clear 24 1011 38 10000 3.6 100 13:18 22.09.2019
1531 Clear 23 1011 38 10000 4.6 150 12:42 22.09.2019
1532 Clear 22 1012 43 10000 2.6 120 12:22 22.09.2019
1533 Clear 20 1012 45 10000 2.6 120 11:56 22.09.2019
1534 Clear 20 1012 45 10000 3.1 130 11:38 22.09.2019
1535 Clear 19 1012 55 10000 3.1 100 11:19 22.09.2019
1536 Clear 16 1012 59 9000 3.1 140 10:43 22.09.2019
1537 Clear 15 1013 67 10000 3.1 100 10:20 22.09.2019
1538 Clear 15 1013 71 10000 2.6 100 09:56 22.09.2019
1539 Clear 13 1013 71 8000 2.1 140 09:37 22.09.2019
1540 Clear 11 1013 76 10000 1.5 110 09:19 22.09.2019
1541 Clear 10 1013 81 8000 2.1 120 08:42 22.09.2019
1542 Clear 9 1014 81 10000 2.6 90 08:22 22.09.2019
1543 Clear 8 1014 81 10000 1.5 110 07:49 22.09.2019
1544 Clear 8 1014 81 10000 3.6 90 07:31 22.09.2019
1545 Clear 8 1014 87 10000 1.5 80 06:59 22.09.2019
1546 Clear 8 1014 87 10000 2.1 90 06:38 22.09.2019
1547 Clear 9 1014 76 10000 2.6 100 05:19 22.09.2019
1548 Clear 10 1015 71 10000 2.1 110 02:45 22.09.2019
1549 Clear 10 1016 71 10000 3.1 90 02:25 22.09.2019
1550 Clear 11 1016 76 10000 1 0 01:45 22.09.2019
1551 Clear 12 1016 71 10000 1.5 110 00:54 22.09.2019
1552 Clear 12 1016 71 10000 3.1 110 00:32 22.09.2019
1553 Clear 13 1017 71 10000 2.6 100 23:54 21.09.2019
1554 Clear 13 1017 71 10000 2.6 90 23:36 21.09.2019
1555 Clear 13 1017 67 10000 2.6 90 22:57 21.09.2019
1556 Clear 13 1017 67 10000 2.6 90 22:36 21.09.2019
1557 Clear 14 1017 67 10000 2.6 90 22:18 21.09.2019
1558 Clear 15 1017 51 10000 3.1 100 21:41 21.09.2019
1559 Clear 15 1017 55 10000 2.1 100 21:19 21.09.2019
1560 Clear 15 1018 59 10000 2.1 100 20:56 21.09.2019
1561 Clear 16 1017 55 10000 2.6 100 20:37 21.09.2019
1562 Clear 17 1017 55 10000 2.6 90 20:18 21.09.2019
1563 Clear 18 1018 55 10000 2.6 80 19:45 21.09.2019
1564 Clear 18 1018 55 10000 2.6 80 19:45 21.09.2019
1565 Clear 20 1018 42 10000 3.1 90 19:21 21.09.2019
1566 Clear 22 1018 37 10000 4.6 110 18:41 21.09.2019
1567 Clear 22 1019 37 10000 4.6 80 18:21 21.09.2019
1568 Clouds 22 1018 33 10000 4.1 140 17:43 21.09.2019
1569 Clear 23 1019 33 10000 3.1 100 17:23 21.09.2019
1570 Clear 23 1019 33 10000 3.1 110 16:57 21.09.2019
1571 Clouds 23 1019 33 10000 3.6 140 16:38 21.09.2019
1572 Clear 22 1020 33 10000 3.1 90 16:19 21.09.2019
1573 Clear 22 1020 35 10000 2.1 80 15:44 21.09.2019
1574 Clear 22 1021 35 10000 2.1 0 15:22 21.09.2019
1575 Clear 22 1021 35 10000 2.1 0 14:49 21.09.2019
1576 Clear 21 1021 37 10000 2.6 150 14:31 21.09.2019
1577 Clear 21 1022 35 10000 2.1 140 13:54 21.09.2019
1578 Clouds 20 1021 37 10000 2.6 160 13:36 21.09.2019
1579 Clear 20 1022 42 10000 2.1 190 13:18 21.09.2019
1580 Clouds 19 1022 42 10000 1.5 150 12:41 21.09.2019
1581 Clear 18 1023 42 10000 1.5 170 12:22 21.09.2019
1582 Clear 18 1023 45 10000 2.6 180 11:59 21.09.2019
1583 Clouds 17 1022 51 10000 2.1 180 11:41 21.09.2019
1584 Clear 16 1023 48 10000 2.1 160 11:22 21.09.2019
1585 Clouds 14 1023 67 10000 1 0 10:42 21.09.2019
1586 Clear 13 1023 58 10000 2.1 150 10:23 21.09.2019
1587 Clear 12 1023 66 10000 2.1 130 09:57 21.09.2019
1588 Clear 9 1023 71 10000 1.5 140 09:38 21.09.2019
1589 Clear 9 1023 71 10000 1.5 140 09:20 21.09.2019
1590 Clear 8 1023 87 10000 1.5 110 08:51 21.09.2019
1591 Fog 6 1023 93 10000 2.1 90 08:27 21.09.2019
1592 Fog 5 1023 100 10000 1 120 07:41 21.09.2019
1593 Fog 5 1024 87 10000 2.1 90 07:22 21.09.2019
1594 Fog 5 1023 93 10000 1.5 100 06:49 21.09.2019
1595 Fog 5 1024 93 10000 1.5 140 06:30 21.09.2019
1596 Fog 5 1024 87 10000 1 90 04:50 21.09.2019
1597 Fog 5 1024 87 10000 1 90 04:50 21.09.2019
1598 Fog 6 1024 93 10000 1.5 90 04:32 21.09.2019
1599 Fog 7 1025 93 10000 0.5 0 02:30 21.09.2019
1600 Fog 7 1025 93 10000 1.5 80 01:53 21.09.2019
1601 Fog 7 1025 87 10000 1 70 01:34 21.09.2019
1602 Fog 7 1025 87 10000 1 100 00:40 21.09.2019
1603 Fog 8 1026 87 10000 0.5 0 00:18 21.09.2019
1604 Fog 8 1026 87 10000 0.5 0 00:18 21.09.2019
1605 Clear 8 1025 87 10000 2.1 200 23:42 20.09.2019
1606 Clear 8 1025 87 10000 2.1 200 23:42 20.09.2019
1607 Clear 8 1026 81 10000 0.5 0 23:22 20.09.2019
1608 Clear 10 1026 81 10000 0.5 90 22:41 20.09.2019
1609 Clear 10 1026 87 10000 0.5 190 22:41 20.09.2019
1610 Clear 10 1026 81 10000 1.06 124.709 22:23 20.09.2019
1611 Clear 10 1026 81 10000 0.5 360 21:56 20.09.2019
1612 Clear 10 1026 81 10000 0.5 170 21:37 20.09.2019
1613 Clear 11 1026 76 10000 0.5 230 21:18 20.09.2019
1614 Clear 11 1026 71 10000 0.5 40 20:55 20.09.2019
1615 Clouds 12 1026 76 10000 0.4 293.802 20:36 20.09.2019
1616 Clear 13 1026 66 10000 0.4 293.802 20:18 20.09.2019
1617 Clouds 15 1026 62 10000 0.5 50 19:42 20.09.2019
1618 Clear 16 1027 55 10000 2.1 300 19:21 20.09.2019
1619 Clear 17 1026 48 10000 1.5 280 18:56 20.09.2019
1620 Clouds 17 1026 51 10000 0.4 293.802 18:36 20.09.2019
1621 Clouds 18 1027 45 10000 1.5 290 18:18 20.09.2019
1622 Clouds 18 1027 45 10000 1 310 17:43 20.09.2019
1623 Clouds 18 1027 45 10000 1 0 17:25 20.09.2019
1624 Clouds 18 1027 48 10000 1.5 290 16:43 20.09.2019
1625 Clouds 18 1028 45 10000 1.5 0 16:21 20.09.2019
1626 Clouds 18 1028 48 10000 2.1 240 15:58 20.09.2019
1627 Clouds 18 1028 45 10000 1.5 290 15:40 20.09.2019
1628 Clouds 17 1028 48 10000 2.6 240 15:22 20.09.2019
1629 Clouds 17 1029 48 10000 1 0 14:43 20.09.2019
1630 Clouds 16 1029 51 10000 2.6 0 14:19 20.09.2019
1631 Clouds 16 1029 51 10000 2.6 0 13:48 20.09.2019
1632 Clouds 16 1029 51 10000 2.6 0 13:48 20.09.2019
1633 Clouds 16 1029 58 10000 2.1 0 13:28 20.09.2019
1634 Clouds 15 1029 58 10000 2.1 0 12:58 20.09.2019
1635 Clouds 14 1030 62 10000 2.1 280 12:37 20.09.2019
1636 Clouds 14 1030 62 10000 2.1 280 12:19 20.09.2019
1637 Clouds 14 1030 62 10000 2.1 280 12:19 20.09.2019
1638 Clouds 14 1030 62 10000 2.1 280 12:19 20.09.2019
1639 Clear 14 1030 62 10000 3.1 280 11:50 20.09.2019
1640 Clear 13 1030 66 10000 3.1 260 11:22 20.09.2019
1641 Clear 12 1030 71 10000 2.6 250 10:57 20.09.2019
1642 Clear 12 1030 71 10000 2.6 250 10:57 20.09.2019
1643 Clouds 12 1030 71 10000 2.6 270 10:39 20.09.2019
1644 Clear 10 1030 76 10000 2.1 260 10:19 20.09.2019
1645 Clouds 8 1030 76 10000 1.5 260 09:38 20.09.2019
1646 Clear 7 1030 87 10000 1 0 09:18 20.09.2019
1647 Clear 6 1030 87 10000 0.5 0 08:43 20.09.2019
1648 Fog 5 1029 93 10000 1 0 08:25 20.09.2019
1649 Fog 4 1029 100 10000 1 0 07:47 20.09.2019
1650 Fog 4 1029 93 10000 0.5 280 07:28 20.09.2019
1651 Fog 4 1029 93 10000 0.5 240 06:45 20.09.2019
1652 Fog 4 1029 100 10000 1 0 06:27 20.09.2019
1653 Fog 4 1030 100 10000 0.5 270 05:50 20.09.2019
1654 Clear 5 1030 86 10000 1 0 03:46 20.09.2019
1655 Clear 6 1030 93 10000 0.5 0 03:21 20.09.2019
1656 Clear 6 1030 93 10000 0.5 270 01:45 20.09.2019
1657 Clear 6 1030 86 10000 1 0 01:24 20.09.2019
1658 Clear 7 1030 87 10000 0.5 320 00:31 20.09.2019
1659 Clouds 8 1030 81 10000 2.1 330 23:45 19.09.2019
1660 Clear 8 1030 75 10000 1 260 23:22 19.09.2019
1661 Clear 8 1030 81 10000 1 260 22:57 19.09.2019
1662 Clear 9 1030 75 10000 1 280 22:38 19.09.2019
1663 Clear 9 1030 75 10000 1 280 22:19 19.09.2019
1664 Clear 9 1030 70 10000 1.5 330 21:56 19.09.2019
1665 Clouds 10 1030 71 10000 2.6 340 21:37 19.09.2019
1666 Clear 10 1029 70 10000 1 290 21:18 19.09.2019
1667 Clouds 11 1029 66 10000 2.6 350 20:43 19.09.2019
1668 Clear 11 1029 62 10000 1.5 300 20:22 19.09.2019
1669 Clear 12 1029 58 10000 2.6 300 19:55 19.09.2019
1670 Clouds 13 1029 50 10000 1.5 290 19:37 19.09.2019
1671 Clear 14 1029 50 10000 2.1 290 19:19 19.09.2019
1672 Clouds 15 1029 47 10000 4.1 330 18:42 19.09.2019
1673 Clear 15 1029 44 10000 3.6 300 18:24 19.09.2019
1674 Clouds 16 1029 48 10000 3.1 310 17:54 19.09.2019
1675 Clouds 16 1029 51 10000 2.6 280 17:36 19.09.2019
1676 Clouds 16 1029 51 10000 2.6 280 17:18 19.09.2019
1677 Clouds 16 1029 51 10000 4.6 300 16:56 19.09.2019
1678 Clouds 16 1029 44 10000 4.1 310 16:37 19.09.2019
1679 Clouds 16 1029 44 10000 4.1 310 16:18 19.09.2019
1680 Clouds 16 1029 44 10000 3.6 320 15:38 19.09.2019
1681 Clouds 16 1029 44 10000 3.6 320 15:18 19.09.2019
1682 Clouds 15 1029 44 10000 3.6 330 14:42 19.09.2019
1683 Clouds 15 1030 51 10000 3.1 310 14:23 19.09.2019
1684 Clouds 15 1030 54 10000 5.1 310 13:58 19.09.2019
1685 Clouds 15 1030 44 10000 4.6 290 13:38 19.09.2019
1686 Clouds 15 1030 44 10000 4.6 290 13:38 19.09.2019
1687 Clouds 15 1030 54 10000 4.1 310 13:19 19.09.2019
1688 Clouds 14 1030 58 10000 4.1 300 12:38 19.09.2019
1689 Clouds 14 1030 58 10000 4.1 300 12:19 19.09.2019
1690 Clouds 14 1030 62 10000 3.1 280 11:56 19.09.2019
1691 Clouds 13 1029 66 10000 3.6 270 11:37 19.09.2019
1692 Clouds 13 1029 66 10000 3.6 270 11:18 19.09.2019
1693 Clouds 11 1029 71 10000 3.6 300 10:40 19.09.2019
1694 Clear 10 1029 76 10000 3.1 270 10:21 19.09.2019
1695 Clear 10 1029 76 10000 3.1 270 10:21 19.09.2019
1696 Clear 10 1029 87 10000 2.6 270 09:58 19.09.2019
1697 Clouds 9 1029 76 10000 3.1 280 09:40 19.09.2019
1698 Clear 8 1029 87 10000 2.1 260 09:20 19.09.2019
1699 Clear 8 1028 87 10000 2.1 260 08:51 19.09.2019
1700 Clear 7 1028 93 10000 1.5 250 08:26 19.09.2019
1701 Clear 7 1028 93 10000 2.1 260 07:45 19.09.2019
1702 Clear 7 1028 100 10000 1 0 07:23 19.09.2019
1703 Clear 7 1027 93 10000 2.1 260 06:58 19.09.2019
1704 Fog 6 1027 87 10000 2.6 290 06:38 19.09.2019
1705 Fog 6 1027 93 10000 2.6 250 06:19 19.09.2019
1706 Fog 6 1027 93 10000 2.1 250 05:48 19.09.2019
1707 Fog 7 1027 87 10000 3.1 270 04:19 19.09.2019
1708 Clear 7 1027 93 10000 2.6 260 03:20 19.09.2019
1709 Clouds 7 1027 81 10000 2.6 290 01:40 19.09.2019
1710 Clear 7 1027 93 10000 2.1 270 01:19 19.09.2019
1711 Clouds 8 1026 87 10000 2.6 270 00:42 19.09.2019
1712 Clear 8 1026 87 10000 2.6 260 00:18 19.09.2019
1713 Clear 8 1026 81 10000 3.1 280 23:37 18.09.2019
1714 Clear 8 1026 81 10000 3.1 280 23:19 18.09.2019
1715 Clouds 9 1026 81 10000 3.6 310 22:38 18.09.2019
1716 Clear 9 1026 81 10000 3.6 270 22:19 18.09.2019
1717 Clear 10 1026 76 10000 3.1 280 21:57 18.09.2019
1718 Clear 10 1026 71 10000 2.1 280 21:39 18.09.2019
1719 Clear 11 1026 71 10000 2.1 280 21:18 18.09.2019
1720 Clear 11 1026 71 10000 2.1 310 20:57 18.09.2019
1721 Clear 11 1026 71 10000 2.1 310 20:57 18.09.2019
1722 Clouds 12 1025 62 10000 2.1 300 20:39 18.09.2019
1723 Clouds 12 1025 62 10000 2.1 300 20:20 18.09.2019
1724 Clouds 12 1025 62 10000 2.1 300 20:20 18.09.2019
1725 Clouds 12 1025 62 10000 3.6 310 19:56 18.09.2019
1726 Clouds 13 1025 58 10000 5.1 330 19:37 18.09.2019
1727 Clouds 13 1025 58 10000 5.1 310 19:18 18.09.2019
1728 Clouds 13 1025 58 10000 5.1 310 19:18 18.09.2019
1729 Clouds 14 1025 58 10000 5.1 310 18:54 18.09.2019
1730 Clouds 14 1025 54 10000 6.7 330 18:36 18.09.2019
1731 Clouds 14 1024 58 10000 5.1 290 18:18 18.09.2019
1732 Clouds 14 1024 58 10000 6.2 310 17:54 18.09.2019
1733 Clouds 14 1024 58 10000 5.1 330 17:36 18.09.2019
1734 Clouds 15 1024 54 10000 5.7 320 17:18 18.09.2019
1735 Clouds 15 1025 62 10000 4.6 330 16:42 18.09.2019
1736 Rain 15 1025 66 10000 6.7 280 16:22 18.09.2019
1737 Rain 14 1024 58 10000 7.7 290 15:57 18.09.2019
1738 Rain 15 1025 71 10000 7.7 340 15:39 18.09.2019
1739 Rain 15 1024 54 10000 6.2 290 15:20 18.09.2019
1740 Rain 15 1025 58 10000 4.1 310 14:58 18.09.2019
1741 Rain 15 1024 62 10000 5.7 350 14:40 18.09.2019
1742 Rain 14 1024 54 10000 4.6 300 14:21 18.09.2019
1743 Rain 15 1025 67 10000 5.1 290 13:58 18.09.2019
1744 Rain 15 1025 67 10000 5.1 290 13:58 18.09.2019
1745 Rain 14 1025 81 10000 3.1 310 13:37 18.09.2019
1746 Rain 14 1025 81 10000 3.1 310 13:18 18.09.2019
1747 Rain 14 1025 81 10000 3.1 310 13:18 18.09.2019
1748 Rain 14 1025 71 10000 7.2 350 12:42 18.09.2019
1749 Rain 14 1025 54 10000 6.2 310 12:22 18.09.2019
1750 Clouds 14 1025 62 10000 6.7 310 11:40 18.09.2019
1751 Clouds 13 1025 62 10000 5.1 290 11:20 18.09.2019
1752 Clear 13 1025 62 10000 4.1 280 10:58 18.09.2019
1753 Clouds 13 1025 71 10000 5.1 300 10:39 18.09.2019
1754 Clear 12 1025 71 10000 5.7 280 10:20 18.09.2019
1755 Clear 11 1024 76 10000 5.1 270 09:55 18.09.2019
1756 Clouds 11 1024 76 10000 4.1 280 09:37 18.09.2019
1757 Clear 10 1024 81 10000 3.6 260 09:18 18.09.2019
1758 Clouds 9 1024 87 10000 4.6 280 08:41 18.09.2019
1759 Clouds 9 1024 87 10000 4.6 280 08:41 18.09.2019
1760 Clear 9 1023 87 10000 3.6 260 08:21 18.09.2019
1761 Clouds 8 1023 87 10000 3.6 260 07:45 18.09.2019
1762 Clouds 9 1023 81 10000 3.6 260 07:23 18.09.2019
1763 Clouds 8 1023 87 10000 4.1 270 06:54 18.09.2019
1764 Clouds 8 1022 87 10000 3.6 260 06:26 18.09.2019
1765 Rain 8 1022 87 10000 3.1 260 05:33 18.09.2019
1766 Clouds 9 1022 81 10000 5.7 290 03:42 18.09.2019
1767 Clouds 9 1021 81 10000 5.7 290 02:40 18.09.2019
1768 Clouds 9 1021 76 10000 4.6 270 01:50 18.09.2019
1769 Rain 10 1021 76 10000 5.7 280 00:56 18.09.2019
1770 Clouds 10 1020 76 10000 6.7 280 00:33 18.09.2019
1771 Clouds 10 1020 76 10000 6.2 290 23:48 17.09.2019
1772 Clouds 10 1020 76 10000 6.2 270 23:25 17.09.2019
1773 Rain 10 1020 76 10000 6.2 270 22:59 17.09.2019
1774 Clouds 11 1020 76 10000 6.7 280 22:41 17.09.2019
1775 Clouds 11 1019 71 10000 5.1 270 22:22 17.09.2019
1776 Clouds 11 1019 76 10000 4.6 270 21:54 17.09.2019
1777 Rain 11 1019 81 10000 4.6 270 21:36 17.09.2019
1778 Rain 11 1019 81 10000 4.6 270 21:18 17.09.2019
1779 Rain 11 1019 81 10000 4.6 270 21:18 17.09.2019
1780 Rain 11 1019 76 10000 5.1 280 20:56 17.09.2019
1781 Clouds 11 1018 71 10000 8.2 300 20:38 17.09.2019
1782 Clouds 11 1018 71 10000 8.2 300 20:19 17.09.2019
1783 Rain 12 1018 66 10000 7.2 290 19:57 17.09.2019
1784 Rain 12 1018 66 10000 8.7 290 19:38 17.09.2019
1785 Rain 12 1017 58 10000 9.3 300 19:18 17.09.2019
1786 Rain 13 1018 62 10000 9.3 320 18:43 17.09.2019
1787 Rain 14 1017 54 10000 10.8 300 18:22 17.09.2019
1788 Clouds 14 1017 47 10000 10.3 320 17:56 17.09.2019
1789 Clouds 14 1017 47 10000 10.3 320 17:37 17.09.2019
1790 Clouds 14 1016 54 10000 9.3 330 17:18 17.09.2019
1791 Rain 15 1016 45 10000 11.8 310 16:41 17.09.2019
1792 Rain 15 1016 45 10000 11.8 310 16:41 17.09.2019
1793 Rain 15 1016 44 10000 11.3 300 16:22 17.09.2019
1794 Rain 16 1016 48 10000 11.3 320 15:58 17.09.2019
1795 Clouds 15 1016 51 10000 10.3 290 15:37 17.09.2019
1796 Clouds 15 1016 51 10000 10.3 290 15:19 17.09.2019
1797 -273 0 0 0 0 0 14:56 17.09.2019
1798 Rain 14 1016 76 10000 8.2 280 14:37 17.09.2019
1799 Rain 14 1016 76 10000 8.2 280 14:19 17.09.2019
1800 Rain 14 1016 76 10000 9.3 310 13:42 17.09.2019
1801 Rain 14 1017 76 7000 8.7 300 13:23 17.09.2019
1802 Rain 14 1017 76 7000 8.7 300 13:23 17.09.2019
1803 Rain 14 1017 71 5000 9.8 300 12:56 17.09.2019
1804 Drizzle 14 1016 62 10000 8.7 270 12:37 17.09.2019
1805 Drizzle 15 1016 62 10000 8.7 270 12:18 17.09.2019
1806 Drizzle 15 1016 62 10000 8.7 270 12:18 17.09.2019
1807 Clouds 14 1016 62 10000 8.2 290 11:42 17.09.2019
1808 Clouds 14 1016 62 10000 8.2 290 11:42 17.09.2019
1809 Clouds 14 1016 71 10000 6.7 270 11:22 17.09.2019
1810 Clear 14 1017 71 10000 6.7 260 10:43 17.09.2019
1811 Clear 13 1017 76 10000 6.2 260 10:24 17.09.2019
1812 Clear 13 1017 81 10000 5.7 260 09:59 17.09.2019
1813 Clouds 12 1017 76 10000 6.7 270 09:40 17.09.2019
1814 Clear 12 1017 81 10000 5.1 260 09:21 17.09.2019
1815 Clear 11 1017 81 10000 5.1 260 08:45 17.09.2019
1816 Clear 10 1017 87 10000 4.6 250 08:26 17.09.2019
1817 Rain 10 1017 93 10000 3.6 250 07:56 17.09.2019
1818 Clouds 10 1017 93 10000 3.6 250 07:56 17.09.2019
1819 Clouds 9 1017 87 10000 4.6 270 07:38 17.09.2019
1820 Clouds 9 1017 93 10000 3.1 250 07:19 17.09.2019
1821 Clouds 9 1017 87 10000 3.6 270 06:45 17.09.2019
1822 Clouds 9 1017 93 10000 2.1 250 06:19 17.09.2019
1823 Fog 9 1017 93 10000 3.1 240 05:38 17.09.2019
1824 Fog 10 1018 87 10000 2.6 250 04:26 17.09.2019
1825 Fog 10 1018 93 10000 2.6 250 02:53 17.09.2019
1826 Fog 10 1018 100 10000 2.6 250 02:33 17.09.2019
1827 Fog 11 1019 93 10000 2.6 250 01:24 17.09.2019
1828 Clouds 11 1019 100 10000 2.1 250 00:28 17.09.2019
1829 Clouds 11 1019 87 10000 3.1 280 23:38 16.09.2019
1830 Clouds 12 1019 93 10000 2.6 260 23:18 16.09.2019
1831 Clouds 12 1019 87 10000 2.6 260 22:42 16.09.2019
1832 Clouds 12 1019 87 10000 2.1 250 22:24 16.09.2019
1833 Clear 12 1019 93 10000 2.6 260 21:59 16.09.2019
1834 Clear 12 1019 93 10000 2.6 260 21:59 16.09.2019
1835 Clouds 12 1019 87 10000 2.1 260 21:38 16.09.2019
1836 Clouds 13 1019 87 10000 2.1 260 21:20 16.09.2019
1837 Clouds 13 1019 87 10000 1.5 250 20:55 16.09.2019
1838 Clouds 13 1018 82 10000 2.6 270 20:37 16.09.2019
1839 Clouds 13 1018 82 10000 2.1 270 20:18 16.09.2019
1840 Clouds 14 1018 82 10000 2.6 270 19:54 16.09.2019
1841 Clouds 14 1018 82 10000 2.6 270 19:54 16.09.2019
1842 Clouds 14 1018 82 10000 2.6 280 19:36 16.09.2019
1843 Clouds 14 1018 82 10000 2.6 270 19:36 16.09.2019
1844 Clouds 14 1018 77 10000 3.6 280 19:18 16.09.2019
1845 Rain 14 1018 77 10000 3.1 290 18:42 16.09.2019
1846 Rain 14 1018 77 10000 4.6 280 18:24 16.09.2019
1847 Clouds 15 1018 77 10000 3.6 310 17:43 16.09.2019
1848 Clouds 14 1018 77 10000 2.6 280 17:24 16.09.2019
1849 Clouds 14 1019 82 10000 3.6 290 16:59 16.09.2019
1850 Rain 14 1019 82 10000 2.6 290 16:40 16.09.2019
1851 Rain 14 1019 76 10000 3.1 280 16:21 16.09.2019
1852 Rain 14 1019 82 10000 3.1 280 15:57 16.09.2019
1853 Clouds 14 1019 82 10000 3.6 280 15:38 16.09.2019
1854 Clouds 14 1019 82 10000 3.6 280 15:20 16.09.2019
1855 Clouds 13 1019 82 10000 2.6 250 14:57 16.09.2019
1856 Drizzle 13 1019 82 10000 3.1 310 14:38 16.09.2019
1857 Drizzle 13 1019 82 10000 2.1 280 14:19 16.09.2019
1858 Drizzle 13 1019 87 10000 2.1 320 13:40 16.09.2019
1859 Drizzle 13 1019 93 10000 2.6 340 13:21 16.09.2019
1860 Drizzle 12 1020 100 7000 1.5 360 12:48 16.09.2019
1861 Drizzle 12 1020 93 4500 1 270 12:29 16.09.2019
1862 Rain 12 1020 93 6000 1 0 11:58 16.09.2019
1863 Rain 12 1020 93 10000 2.1 300 11:40 16.09.2019
1864 Rain 12 1020 87 10000 4.1 240 11:21 16.09.2019
1865 Rain 12 1020 93 10000 2.1 240 10:40 16.09.2019
1866 Rain 12 1020 93 10000 2.1 240 10:40 16.09.2019
1867 Rain 12 1020 93 10000 2.1 240 10:40 16.09.2019
1868 Rain 12 1020 87 10000 2.6 240 10:21 16.09.2019
1869 Rain 12 1020 87 10000 1.5 230 09:58 16.09.2019
1870 Rain 12 1020 87 10000 1.5 230 09:58 16.09.2019
1871 Rain 12 1020 93 10000 1.5 250 09:40 16.09.2019
1872 Rain 12 1020 93 10000 1.5 250 09:40 16.09.2019
1873 Rain 12 1020 93 10000 1 0 09:20 16.09.2019
1874 Rain 11 1020 93 10000 1.5 230 08:47 16.09.2019
1875 Rain 11 1020 87 10000 1.5 230 08:28 16.09.2019
1876 Rain 11 1020 87 10000 2.6 240 07:57 16.09.2019
1877 Rain 12 1020 93 10000 2.1 250 07:38 16.09.2019
1878 Rain 12 1020 87 10000 3.1 250 07:20 16.09.2019
1879 Rain 12 1020 87 10000 3.1 250 07:20 16.09.2019
1880 Rain 12 1020 93 10000 3.1 240 06:46 16.09.2019
1881 Rain 12 1020 93 10000 3.1 240 06:46 16.09.2019
1882 Rain 12 1020 93 10000 2.6 240 06:28 16.09.2019
1883 Rain 13 1020 87 10000 2.1 250 05:53 16.09.2019
1884 Rain 13 1020 87 10000 2.1 260 05:32 16.09.2019
1885 Rain 13 1021 87 10000 2.6 260 04:49 16.09.2019
1886 Clear 14 1021 87 10000 2.1 280 02:58 16.09.2019
1887 Clouds 14 1021 82 10000 4.1 310 00:44 16.09.2019
1888 Clouds 15 1021 87 10000 2.6 280 00:26 16.09.2019
1889 Clouds 15 1020 87 10000 3.1 270 23:44 15.09.2019
1890 Drizzle 15 1020 87 10000 3.1 270 23:21 15.09.2019
1891 Drizzle 15 1020 87 10000 3.6 280 22:59 15.09.2019
1892 Drizzle 15 1020 87 10000 4.6 300 22:37 15.09.2019
1893 Rain 16 1020 93 10000 3.1 280 22:18 15.09.2019
1894 Rain 16 1020 93 10000 3.6 290 21:55 15.09.2019
1895 Rain 16 1020 93 10000 3.6 290 21:37 15.09.2019
1896 Rain 16 1020 93 10000 3.6 290 21:37 15.09.2019
1897 Drizzle 16 1020 93 10000 3.6 290 21:18 15.09.2019
1898 Rain 17 1020 93 10000 5.1 320 20:43 15.09.2019
1899 Rain 18 1020 93 4500 5.1 320 20:25 15.09.2019
1900 Drizzle 18 1020 82 5000 6.2 340 19:47 15.09.2019
1901 Drizzle 20 1019 60 10000 7.2 290 19:26 15.09.2019
1902 Drizzle 20 1019 52 10000 6.2 280 18:55 15.09.2019
1903 Drizzle 21 1019 52 10000 6.7 310 18:36 15.09.2019
1904 Clouds 22 1019 43 10000 6.2 280 18:18 15.09.2019
1905 Clouds 23 1019 43 10000 6.7 300 17:41 15.09.2019
1906 Clear 23 1019 35 10000 7.2 280 17:21 15.09.2019
1907 Clear 24 1019 31 10000 6.7 270 16:55 15.09.2019
1908 Clear 23 1019 31 10000 7.7 270 16:36 15.09.2019
1909 Clear 23 1019 31 10000 7.7 270 16:18 15.09.2019
1910 Clear 24 1019 31 10000 7.7 270 16:18 15.09.2019
1911 Clouds 23 1019 31 10000 7.7 280 15:41 15.09.2019
1912 Clear 23 1019 28 10000 7.7 250 15:21 15.09.2019
1913 Clear 23 1019 28 10000 7.7 250 15:21 15.09.2019
1914 Clear 23 1020 30 10000 7.2 260 14:58 15.09.2019
1915 Clouds 22 1020 35 10000 6.7 280 14:40 15.09.2019
1916 Clear 22 1020 35 10000 7.2 260 14:21 15.09.2019
1917 Clear 22 1021 37 10000 6.2 260 13:47 15.09.2019
1918 Clear 21 1021 45 10000 6.7 260 13:25 15.09.2019
1919 Clear 20 1021 42 10000 6.2 250 12:58 15.09.2019
1920 Clouds 20 1021 48 10000 6.7 260 12:39 15.09.2019
1921 Clear 20 1021 48 10000 6.2 250 12:18 15.09.2019
1922 Clouds 19 1021 52 10000 5.1 270 11:42 15.09.2019
1923 Clear 19 1021 52 10000 5.1 250 11:22 15.09.2019
1924 Clear 18 1022 55 10000 5.7 250 10:58 15.09.2019
1925 Clouds 17 1022 55 10000 5.7 260 10:40 15.09.2019
1926 Clear 17 1022 55 10000 4.1 250 10:21 15.09.2019
1927 Clouds 15 1022 62 10000 5.7 260 09:42 15.09.2019
1928 Clouds 15 1022 62 10000 5.7 260 09:42 15.09.2019
1929 Clear 13 1022 71 10000 2.6 230 09:20 15.09.2019
1930 Clear 12 1022 81 10000 0.5 200 08:58 15.09.2019
1931 Clear 12 1022 81 10000 0.5 200 08:58 15.09.2019
1932 Clear 11 1022 87 10000 0.5 0 08:39 15.09.2019
1933 Clear 10 1022 87 10000 0.5 0 08:18 15.09.2019
1934 Fog 9 1022 81 10000 1 0 07:41 15.09.2019
1935 Clouds 9 1022 81 10000 2.1 230 06:44 15.09.2019
1936 Clear 8 1024 87 10000 0.5 0 04:59 15.09.2019
1937 Clear 8 1025 87 10000 0.5 0 03:18 15.09.2019
1938 Clear 8 1026 87 10000 0.5 160 02:18 15.09.2019
1939 Clear 8 1026 76 10000 0.5 0 01:36 15.09.2019
1940 Clear 8 1026 76 10000 0.5 0 01:36 15.09.2019
1941 Clear 9 1027 87 10000 1 160 00:56 15.09.2019
1942 Clear 9 1028 81 10000 2.16 218.075 00:36 15.09.2019
1943 Clear 9 1028 81 10000 1.97 153.018 00:18 15.09.2019
1944 Clear 9 1028 81 10000 0.5 0 23:55 14.09.2019
1945 Clouds 9 1028 87 10000 1 180 23:37 14.09.2019
1946 Clear 10 1028 81 10000 0.5 60 23:18 14.09.2019
1947 Clear 10 1029 81 10000 0.5 0 22:55 14.09.2019
1948 Clear 11 1029 76 10000 0.5 350 22:37 14.09.2019
1949 Clear 11 1029 76 10000 0.5 350 22:18 14.09.2019
1950 Clouds 12 1029 76 10000 1.97 153.018 21:40 14.09.2019
1951 Clear 13 1029 66 10000 0.5 0 21:20 14.09.2019
1952 Clear 13 1029 62 10000 1 140 20:57 14.09.2019
1953 Clear 14 1030 62 10000 1 80 20:38 14.09.2019
1954 Clear 14 1030 62 10000 1 80 20:20 14.09.2019
1955 Clear 16 1030 55 10000 1.5 30 19:46 14.09.2019
1956 Clear 17 1030 45 10000 1 310 19:21 14.09.2019
1957 Clear 18 1030 42 10000 1 0 18:57 14.09.2019
1958 Clear 18 1030 39 10000 1 0 18:38 14.09.2019
1959 Clouds 18 1030 48 10000 1 0 18:37 14.09.2019
1960 Clear 19 1030 39 10000 1 0 18:19 14.09.2019
1961 Clouds 19 1030 45 10000 0.5 260 17:44 14.09.2019
1962 Clear 19 1031 42 10000 1.5 210 17:23 14.09.2019
1963 Clear 19 1031 39 10000 1 0 16:48 14.09.2019
1964 Clear 19 1032 39 10000 1.5 0 16:28 14.09.2019
1965 Clouds 19 1032 39 10000 1.5 0 15:59 14.09.2019
1966 Clouds 19 1032 42 10000 1 250 15:40 14.09.2019
1967 Clouds 19 1033 42 10000 1.5 0 15:21 14.09.2019
1968 Clouds 19 1033 42 10000 1 0 14:44 14.09.2019
1969 Clouds 18 1033 45 10000 1.5 0 14:19 14.09.2019
1970 Clouds 18 1034 45 10000 2.1 0 13:55 14.09.2019
1971 Clouds 18 1034 51 10000 1.5 0 13:37 14.09.2019
1972 Clouds 18 1034 51 10000 1.5 0 13:18 14.09.2019
1973 Clouds 17 1034 55 10000 1 170 12:40 14.09.2019
1974 Clouds 17 1035 55 10000 1 0 12:18 14.09.2019
1975 Clouds 16 1035 63 10000 1.5 150 11:40 14.09.2019
1976 Clouds 15 1035 63 10000 1.5 240 11:20 14.09.2019
1977 Clouds 14 1035 72 10000 1.5 200 10:39 14.09.2019
1978 Clear 13 1035 76 10000 1 0 10:21 14.09.2019
1979 Clear 12 1035 81 10000 0.5 0 09:57 14.09.2019
1980 Clouds 11 1035 87 10000 1 220 09:39 14.09.2019
1981 Clouds 10 1035 87 10000 0.5 0 09:19 14.09.2019
1982 Clear 8 1035 93 10000 0.3 154.118 08:47 14.09.2019
1983 Fog 7 1035 100 10000 0.5 210 08:25 14.09.2019
1984 Fog 6 1035 100 10000 0.5 350 07:48 14.09.2019
1985 Fog 5 1035 93 10000 0.5 0 07:28 14.09.2019
1986 Fog 5 1035 93 10000 0.5 0 07:28 14.09.2019
1987 Fog 5 1035 93 10000 0.3 154.118 06:52 14.09.2019
1988 Fog 6 1035 93 10000 1 220 06:29 14.09.2019
1989 Fog 6 1035 93 10000 0.5 350 05:27 14.09.2019
1990 Fog 7 1035 93 10000 0.5 360 03:46 14.09.2019
1991 Fog 8 1035 93 10000 0.5 0 02:55 14.09.2019
1992 Fog 8 1035 93 10000 0.5 0 01:55 14.09.2019
1993 Clear 9 1035 87 10000 1 290 01:23 14.09.2019
1994 Clear 9 1035 87 10000 0.5 0 00:59 14.09.2019
1995 Clear 10 1035 81 10000 0.5 0 00:39 14.09.2019
1996 Clear 10 1035 81 10000 0.5 0 00:21 14.09.2019
1997 Clear 10 1035 81 10000 0.5 0 00:21 14.09.2019
1998 Clouds 11 1034 87 10000 1 310 23:38 13.09.2019
1999 Clear 11 1034 81 10000 1 260 23:19 13.09.2019
2000 Clear 12 1034 76 10000 1.5 0 22:59 13.09.2019
2001 Clouds 12 1034 81 10000 2.6 350 22:39 13.09.2019
2002 Clear 12 1034 71 10000 1 0 22:20 13.09.2019
2003 Clear 13 1034 66 10000 2.1 320 21:55 13.09.2019
2004 Clouds 14 1034 76 10000 2.6 350 21:37 13.09.2019
2005 Clear 14 1034 62 10000 2.6 330 21:18 13.09.2019
2006 Clear 15 1033 58 10000 3.1 320 20:55 13.09.2019
2007 Clear 16 1033 58 10000 2.6 320 20:36 13.09.2019
2008 Clear 16 1033 58 10000 2.6 320 20:18 13.09.2019
2009 Clouds 17 1033 55 10000 2.1 360 19:42 13.09.2019
2010 Clouds 18 1032 52 0 5.1 350 19:20 13.09.2019
2011 Clouds 18 1032 52 0 5.1 350 18:57 13.09.2019
2012 Clouds 19 1032 52 10000 4.6 360 18:37 13.09.2019
2013 Clear 19 1032 52 10000 5.7 320 18:18 13.09.2019
2014 Clear 19 1032 52 10000 5.7 320 18:18 13.09.2019
2015 Clouds 20 1032 52 10000 5.7 20 17:41 13.09.2019
2016 Clouds 20 1032 49 10000 6.7 330 17:19 13.09.2019
2017 Clouds 20 1031 52 10000 4.6 350 16:43 13.09.2019
2018 Clouds 20 1031 52 10000 6.2 320 16:23 13.09.2019
2019 Clouds 20 1031 52 10000 6.2 320 15:59 13.09.2019
2020 Clouds 21 1031 56 10000 6.2 350 15:40 13.09.2019
2021 Clouds 20 1031 56 10000 6.2 320 15:20 13.09.2019
2022 Clouds 20 1031 60 10000 5.7 350 14:44 13.09.2019
2023 Clouds 20 1030 60 10000 5.1 310 14:22 13.09.2019
2024 Clouds 20 1030 60 10000 6.2 310 13:56 13.09.2019
2025 Clouds 20 1030 60 10000 5.7 310 13:37 13.09.2019
2026 Clouds 19 1030 60 10000 5.7 310 13:19 13.09.2019
2027 Clouds 19 1030 60 10000 5.7 310 13:19 13.09.2019
2028 Rain 19 1030 72 10000 5.7 340 12:44 13.09.2019
2029 Rain 19 1029 77 10000 7.2 340 12:23 13.09.2019
2030 Rain 19 1029 88 10000 5.1 270 11:56 13.09.2019
2031 Rain 19 1029 88 9000 4.6 270 11:20 13.09.2019
2032 Rain 18 1028 93 10000 5.1 290 10:41 13.09.2019
2033 Rain 18 1028 82 9000 4.1 260 10:20 13.09.2019
2034 Drizzle 18 1028 82 10000 4.6 260 09:47 13.09.2019
2035 Clouds 18 1027 82 10000 5.7 260 09:26 13.09.2019
2036 Clouds 18 1027 82 10000 4.6 250 08:59 13.09.2019
2037 Clouds 18 1027 82 10000 5.1 270 08:41 13.09.2019
2038 Clouds 18 1027 82 10000 4.6 250 08:21 13.09.2019
2039 Clouds 18 1027 82 10000 4.6 250 07:56 13.09.2019
2040 Clouds 18 1027 82 10000 4.6 270 07:38 13.09.2019
2041 Clouds 18 1026 77 10000 4.6 250 06:49 13.09.2019
2042 Clouds 18 1026 77 10000 4.1 260 05:50 13.09.2019
2043 Clear 17 1026 72 10000 3.6 240 05:19 13.09.2019
2044 Clouds 18 1026 77 10000 4.1 250 03:41 13.09.2019
2045 Clouds 17 1026 72 10000 3.6 240 02:48 13.09.2019
2046 Clear 17 1026 72 10000 2.1 230 02:18 13.09.2019
2047 Clouds 17 1027 72 10000 2.6 240 01:35 13.09.2019
2048 Clouds 17 1027 77 10000 2.1 250 00:58 13.09.2019
2049 Clear 17 1027 77 10000 2.6 250 00:31 13.09.2019
2050 Clouds 17 1026 72 10000 3.6 260 23:40 12.09.2019
2051 Clouds 17 1027 77 10000 2.1 230 23:20 12.09.2019
2052 Clear 17 1027 77 10000 1.5 230 22:43 12.09.2019
2053 Clouds 17 1027 72 10000 1.5 220 22:24 12.09.2019
2054 Clear 17 1027 77 10000 2.1 210 21:57 12.09.2019
2055 Clouds 18 1027 82 10000 2.1 210 21:38 12.09.2019
2056 Clouds 18 1027 82 10000 2.1 210 21:20 12.09.2019
2057 Clouds 18 1027 77 10000 1.5 200 20:57 12.09.2019
2058 Clouds 19 1026 68 10000 3.1 250 20:39 12.09.2019
2059 Clouds 19 1026 77 10000 1 220 20:20 12.09.2019
2060 Clouds 19 1026 77 10000 1 220 20:20 12.09.2019
2061 Clear 20 1026 72 10000 1 230 19:54 12.09.2019
2062 Clear 21 1026 68 10000 2.1 260 19:36 12.09.2019
2063 Clouds 21 1026 68 10000 2.6 280 19:18 12.09.2019
2064 Clouds 22 1026 68 10000 4.1 300 18:38 12.09.2019
2065 Clouds 22 1026 68 10000 4.1 300 18:19 12.09.2019
2066 Clouds 22 1026 60 10000 3.6 280 17:56 12.09.2019
2067 Clouds 22 1026 64 10000 4.1 310 17:38 12.09.2019
2068 Clouds 22 1026 64 10000 4.1 260 17:19 12.09.2019
2069 Clouds 22 1026 60 10000 4.6 270 16:42 12.09.2019
2070 Clouds 22 1026 60 10000 5.7 250 16:22 12.09.2019
2071 Clouds 22 1026 60 10000 6.2 250 15:45 12.09.2019
2072 Clouds 22 1026 60 10000 6.2 250 15:27 12.09.2019
2073 Clouds 22 1026 68 10000 6.2 260 14:58 12.09.2019
2074 Clouds 22 1026 64 10000 7.2 280 14:40 12.09.2019
2075 Clouds 22 1026 64 10000 7.2 280 14:40 12.09.2019
2076 Clouds 22 1026 68 10000 5.7 240 14:21 12.09.2019
2077 Clouds 21 1026 72 10000 6.7 240 13:39 12.09.2019
2078 Clouds 21 1026 72 10000 6.7 240 13:21 12.09.2019
2079 Clouds 20 1027 77 10000 4.6 250 12:49 12.09.2019
2080 Clouds 19 1027 77 10000 4.1 250 12:20 12.09.2019
2081 Clouds 19 1027 82 10000 6.2 250 12:20 12.09.2019
2082 Clouds 18 1026 82 10000 5.1 240 11:59 12.09.2019
2083 Clouds 18 1026 82 6000 6.2 250 11:40 12.09.2019
2084 Mist 18 1026 82 10000 4.1 240 11:21 12.09.2019
2085 Mist 17 1026 88 10000 2.6 230 10:54 12.09.2019
2086 Mist 17 1026 93 4500 4.1 250 10:36 12.09.2019
2087 Mist 17 1026 93 4500 4.1 250 10:18 12.09.2019
2088 Mist 16 1025 93 4500 3.6 270 09:42 12.09.2019
2089 Drizzle 16 1025 93 9000 3.1 240 09:20 12.09.2019
2090 Drizzle 16 1025 93 9000 2.6 230 08:44 12.09.2019
2091 Mist 15 1025 93 9000 2.6 230 08:23 12.09.2019
2092 Mist 15 1024 93 9000 2.6 230 07:55 12.09.2019
2093 Mist 15 1024 93 10000 3.1 220 07:36 12.09.2019
2094 Mist 15 1024 93 10000 3.1 220 07:18 12.09.2019
2095 Mist 15 1024 93 10000 2.6 220 06:45 12.09.2019
2096 Rain 15 1023 93 9000 2.6 220 05:59 12.09.2019
2097 Rain 15 1023 93 9000 3.1 230 05:39 12.09.2019
2098 Rain 15 1023 93 10000 4.1 240 04:47 12.09.2019
2099 Drizzle 15 1023 87 10000 3.6 250 03:46 12.09.2019
2100 Clouds 14 1022 87 10000 5.7 250 01:43 12.09.2019
2101 Clouds 14 1022 87 10000 4.1 240 01:24 12.09.2019
2102 Clouds 14 1022 93 10000 3.6 240 00:48 12.09.2019
2103 Drizzle 14 1022 87 10000 3.6 240 00:29 12.09.2019
2104 Rain 14 1022 87 10000 4.1 230 23:44 11.09.2019
2105 Rain 14 1022 87 10000 3.6 230 23:25 11.09.2019
2106 Rain 14 1022 87 7000 4.6 230 22:58 11.09.2019
2107 Drizzle 14 1021 87 10000 6.2 240 22:38 11.09.2019
2108 Drizzle 14 1021 87 6000 6.2 240 22:20 11.09.2019
2109 Rain 14 1022 87 9000 3.6 220 21:58 11.09.2019
2110 Rain 14 1022 87 10000 4.1 230 21:40 11.09.2019
2111 Rain 14 1022 87 10000 4.1 230 21:22 11.09.2019
2112 Rain 15 1022 87 10000 4.6 240 20:55 11.09.2019
2113 Rain 15 1021 77 10000 7.2 260 20:37 11.09.2019
2114 Rain 16 1021 77 10000 7.2 260 20:18 11.09.2019
2115 Rain 16 1021 77 10000 2.6 250 19:55 11.09.2019
2116 Rain 17 1021 77 10000 2.6 250 19:37 11.09.2019
2117 Rain 18 1021 77 10000 2.6 250 19:18 11.09.2019
2118 Rain 19 1020 72 10000 4.1 260 18:42 11.09.2019
2119 Rain 20 1020 49 10000 5.7 250 18:23 11.09.2019
2120 Clear 20 1020 49 10000 6.2 250 17:58 11.09.2019
2121 Clouds 21 1020 49 10000 5.7 270 17:39 11.09.2019
2122 Clouds 21 1020 49 10000 5.7 270 17:20 11.09.2019
2123 Clear 21 1020 45 10000 4.6 240 16:54 11.09.2019
2124 Clouds 21 1019 45 10000 5.1 260 16:36 11.09.2019
2125 Clear 21 1020 43 10000 4.1 240 16:36 11.09.2019
2126 Clear 21 1020 43 10000 4.1 240 16:18 11.09.2019
2127 Clear 21 1020 43 10000 6.7 230 15:45 11.09.2019
2128 Clear 21 1020 43 10000 7.2 230 15:22 11.09.2019
2129 Clear 21 1020 40 10000 7.2 240 14:57 11.09.2019
2130 Clear 21 1020 43 10000 6.7 230 14:37 11.09.2019
2131 Clear 21 1020 43 10000 6.7 230 14:18 11.09.2019
2132 Clouds 21 1020 42 10000 7.7 240 13:40 11.09.2019
2133 Clear 20 1020 45 10000 5.7 220 13:22 11.09.2019
2134 Clear 20 1021 45 10000 5.1 210 12:59 11.09.2019
2135 Clouds 20 1020 48 10000 5.7 240 12:40 11.09.2019
2136 Clear 20 1021 48 10000 5.7 220 12:20 11.09.2019
2137 Clouds 18 1020 52 10000 4.1 230 11:41 11.09.2019
2138 Clear 17 1021 52 10000 4.1 210 11:22 11.09.2019
2139 Clear 17 1021 59 10000 3.6 200 10:59 11.09.2019
2140 Clouds 16 1021 59 10000 5.1 230 10:40 11.09.2019
2141 Clear 15 1021 67 10000 3.6 190 10:20 11.09.2019
2142 Clouds 12 1020 67 10000 5.1 210 09:40 11.09.2019
2143 Clear 12 1021 76 10000 1 0 09:20 11.09.2019
2144 Clear 11 1021 76 10000 0.5 0 08:57 11.09.2019
2145 Clear 11 1021 76 10000 0.5 0 08:57 11.09.2019
2146 Fog 10 1020 81 10000 4.1 200 08:38 11.09.2019
2147 Fog 9 1021 81 10000 1.5 160 08:20 11.09.2019
2148 Fog 8 1020 87 10000 3.1 200 07:41 11.09.2019
2149 Fog 7 1021 87 10000 1 0 07:22 11.09.2019
2150 Fog 7 1020 87 10000 0.5 0 06:48 11.09.2019
2151 Fog 8 1020 87 10000 1 0 06:29 11.09.2019
2152 Fog 7 1020 87 10000 2.1 180 05:37 11.09.2019
2153 Fog 7 1020 87 10000 2.1 180 05:37 11.09.2019
2154 Fog 8 1020 93 10000 0.5 0 05:19 11.09.2019
2155 Fog 8 1020 93 10000 1 0 04:23 11.09.2019
2156 Fog 8 1020 93 10000 0.5 0 03:31 11.09.2019
2157 Fog 8 1020 87 10000 1.5 230 02:41 11.09.2019
2158 Fog 9 1020 93 10000 0.5 240 01:50 11.09.2019
2159 Clear 9 1020 87 10000 0.5 0 00:49 11.09.2019
2160 Clear 10 1020 87 10000 0.5 0 00:20 11.09.2019
2161 Clear 10 1019 81 10000 3.6 220 23:41 10.09.2019
2162 Clear 11 1019 81 10000 1.5 230 23:22 10.09.2019
2163 Clear 11 1019 81 10000 1.5 230 23:22 10.09.2019
2164 Clear 11 1019 76 10000 1.5 230 22:59 10.09.2019
2165 Clear 12 1019 81 10000 1.5 290 22:41 10.09.2019
2166 Clear 12 1019 71 10000 1 0 22:19 10.09.2019
2167 Clear 12 1019 71 10000 1 0 22:19 10.09.2019
2168 Clear 12 1019 71 10000 1 0 21:55 10.09.2019
2169 Clouds 13 1019 76 10000 2.6 290 21:37 10.09.2019
2170 Clear 13 1019 67 10000 1.5 270 21:18 10.09.2019
2171 Clear 14 1018 67 10000 2.1 260 20:57 10.09.2019
2172 Clear 14 1018 59 10000 2.6 270 20:38 10.09.2019
2173 Clear 15 1018 59 10000 2.6 270 20:19 10.09.2019
2174 Clear 16 1018 55 10000 2.1 260 19:55 10.09.2019
2175 Clear 17 1018 52 10000 1.5 250 19:37 10.09.2019
2176 Clear 18 1018 52 10000 1.5 250 19:18 10.09.2019
2177 Clouds 18 1017 48 10000 2.6 300 18:45 10.09.2019
2178 Clear 18 1017 45 10000 4.1 270 18:23 10.09.2019
2179 Clear 19 1017 45 10000 5.1 260 17:59 10.09.2019
2180 Clouds 19 1017 45 10000 3.6 280 17:41 10.09.2019
2181 Clouds 19 1017 48 10000 5.1 290 17:20 10.09.2019
2182 Clear 19 1017 42 10000 5.7 260 16:57 10.09.2019
2183 Clouds 19 1017 48 10000 5.7 310 16:38 10.09.2019
2184 Clear 19 1017 39 10000 6.7 270 16:19 10.09.2019
2185 Clear 19 1017 45 10000 5.1 270 15:44 10.09.2019
2186 Clear 18 1016 45 10000 6.7 280 15:23 10.09.2019
2187 Clouds 18 1016 45 10000 7.2 280 14:58 10.09.2019
2188 Clouds 18 1016 42 10000 6.7 280 14:39 10.09.2019
2189 Clouds 19 1016 45 10000 6.7 270 14:21 10.09.2019
2190 Clouds 18 1016 52 10000 6.2 270 13:48 10.09.2019
2191 Clouds 18 1016 52 10000 6.2 280 13:23 10.09.2019
2192 Clouds 18 1016 55 10000 6.7 270 12:55 10.09.2019
2193 Clouds 18 1016 55 10000 6.7 270 12:55 10.09.2019
2194 Clouds 18 1016 52 10000 5.1 270 12:36 10.09.2019
2195 Rain 17 1016 59 10000 6.2 280 12:18 10.09.2019
2196 Rain 16 1016 59 10000 5.1 270 11:42 10.09.2019
2197 Clear 16 1016 59 10000 5.1 270 11:22 10.09.2019
2198 Clear 16 1016 67 10000 4.6 260 10:57 10.09.2019
2199 Clear 14 1016 76 10000 4.1 260 10:36 10.09.2019
2200 Clear 14 1016 76 10000 5.1 250 10:18 10.09.2019
2201 Fog 12 1015 81 10000 4.1 250 09:44 10.09.2019
2202 Fog 11 1015 81 10000 4.1 250 09:20 10.09.2019
2203 Fog 10 1015 87 10000 3.1 260 08:49 10.09.2019
2204 Fog 10 1015 93 10000 3.1 250 08:29 10.09.2019
2205 Fog 10 1015 93 10000 2.6 260 07:59 10.09.2019
2206 Fog 9 1015 93 10000 2.6 250 07:41 10.09.2019
2207 Fog 9 1015 93 10000 2.6 250 07:23 10.09.2019
2208 Clear 9 1014 93 10000 2.6 250 06:42 10.09.2019
2209 Clear 9 1014 93 10000 2.6 250 06:21 10.09.2019
2210 Fog 10 1014 100 10000 2.6 250 04:24 10.09.2019
2211 Clouds 11 1014 93 10000 2.1 250 02:40 10.09.2019
2212 Clouds 11 1014 93 10000 2.1 250 02:21 10.09.2019
2213 Clouds 11 1014 93 10000 2.1 250 02:21 10.09.2019
2214 Clouds 11 1014 93 10000 2.1 250 02:21 10.09.2019
2215 Clouds 11 1014 93 10000 2.1 250 02:21 10.09.2019
2216 Clouds 11 1013 93 10000 3.1 260 01:50 10.09.2019
2217 Fog 11 1013 93 10000 2.6 250 01:23 10.09.2019
2218 Clouds 12 1014 93 7000 2.1 270 00:42 10.09.2019
2219 Clouds 12 1014 93 7000 2.1 270 00:22 10.09.2019
2220 Fog 12 1013 100 4500 1 250 23:40 09.09.2019
2221 Fog 12 1013 100 4500 1 250 23:19 09.09.2019
2222 -273 0 0 0 0 0 22:55 09.09.2019
2223 Rain 13 1013 93 10000 0.5 250 22:55 09.09.2019
2224 Rain 13 1013 93 10000 0.5 250 22:55 09.09.2019
2225 Rain 13 1013 93 10000 1.5 240 22:36 09.09.2019
2226 Rain 13 1013 93 10000 1.5 240 22:18 09.09.2019
2227 Rain 13 1013 93 10000 1 230 21:55 09.09.2019
2228 Rain 13 1013 82 10000 2.6 330 21:37 09.09.2019
2229 Rain 13 1013 87 10000 3.1 260 21:18 09.09.2019
2230 Rain 14 1013 87 10000 3.1 260 20:55 09.09.2019
2231 Rain 14 1013 87 10000 1 0 20:36 09.09.2019
2232 Rain 14 1013 87 10000 1 0 20:18 09.09.2019
2233 Rain 14 1013 87 10000 1 0 20:18 09.09.2019
2234 Rain 14 1013 87 10000 1 0 19:55 09.09.2019
2235 Rain 14 1013 87 10000 1 0 19:37 09.09.2019
2236 Rain 14 1012 87 10000 3.1 260 19:18 09.09.2019
2237 Rain 14 1012 87 10000 3.1 260 19:18 09.09.2019
2238 Rain 15 1012 87 10000 3.1 260 18:54 09.09.2019
2239 Rain 15 1012 87 10000 1.5 330 18:36 09.09.2019
2240 Rain 15 1012 87 10000 1.5 330 18:36 09.09.2019
2241 Rain 15 1012 67 10000 3.1 10 18:18 09.09.2019
2242 Rain 16 1012 67 10000 2.6 330 17:41 09.09.2019
2243 Rain 16 1012 67 10000 2.6 330 17:41 09.09.2019
2244 Rain 16 1012 67 10000 2.6 330 17:22 09.09.2019
2245 Rain 16 1012 67 10000 2.1 280 16:59 09.09.2019
2246 Rain 16 1012 72 7000 2.6 10 16:40 09.09.2019
2247 Clouds 16 1012 67 10000 4.1 270 16:21 09.09.2019
2248 Clouds 17 1012 67 10000 4.1 270 15:56 09.09.2019
2249 Rain 17 1012 67 10000 4.1 270 15:38 09.09.2019
2250 Rain 17 1013 67 10000 4.6 270 15:19 09.09.2019
2251 Rain 16 1013 67 10000 4.6 270 14:57 09.09.2019
2252 Clouds 16 1013 68 10000 3.6 290 14:38 09.09.2019
2253 Clouds 16 1013 72 10000 4.1 290 14:20 09.09.2019
2254 Clouds 16 1013 72 10000 4.6 290 13:45 09.09.2019
2255 Clouds 16 1013 67 10000 4.1 290 13:21 09.09.2019
2256 Clouds 15 1013 72 10000 4.6 300 12:58 09.09.2019
2257 Clouds 15 1013 82 8000 3.6 250 12:40 09.09.2019
2258 Clouds 15 1013 82 8000 3.6 250 12:40 09.09.2019
2259 Clouds 14 1014 87 10000 1.5 240 12:20 09.09.2019
2260 Clouds 14 1014 87 10000 1.5 240 11:48 09.09.2019
2261 Clouds 13 1014 77 8000 3.6 290 11:24 09.09.2019
2262 Clear 13 1014 87 10000 2.1 260 11:00 09.09.2019
2263 Mist 13 1014 87 10000 1.5 290 10:41 09.09.2019
2264 Mist 13 1014 87 10000 1.5 290 10:21 09.09.2019
2265 Mist 12 1014 87 8000 1.5 290 09:57 09.09.2019
2266 Rain 12 1014 87 8000 2.1 290 09:38 09.09.2019
2267 Clouds 12 1014 87 8000 2.1 290 09:19 09.09.2019
2268 Clouds 12 1014 87 8000 2.1 290 09:19 09.09.2019
2269 Clouds 12 1014 93 8000 2.6 290 08:39 09.09.2019
2270 Clouds 12 1014 93 8000 2.6 290 08:20 09.09.2019
2271 Clouds 12 1015 93 8000 2.6 270 08:20 09.09.2019
2272 Clouds 12 1014 93 8000 2.6 290 08:20 09.09.2019
2273 Clouds 11 1014 87 6000 2.6 300 07:47 09.09.2019
2274 Clouds 11 1015 87 6000 2.6 280 07:23 09.09.2019
2275 Clear 11 1015 93 10000 2.6 280 06:57 09.09.2019
2276 Clouds 11 1014 93 10000 1 0 06:36 09.09.2019
2277 Clear 12 1015 93 10000 1.5 150 04:56 09.09.2019
2278 Clear 12 1016 87 10000 2.6 300 02:59 09.09.2019
2279 Clouds 12 1016 87 10000 2.1 270 02:38 09.09.2019
2280 Clouds 13 1016 87 10000 1 280 00:43 09.09.2019
2281 Clouds 13 1017 82 10000 2.6 260 00:22 09.09.2019
2282 Clouds 13 1017 82 10000 1.5 270 23:45 08.09.2019
2283 Clouds 13 1017 87 10000 1.5 240 23:24 08.09.2019
2284 Clear 13 1017 87 10000 0.5 0 22:56 08.09.2019
2285 Clear 14 1017 82 10000 1 0 22:37 08.09.2019
2286 Clear 14 1017 82 10000 0.5 0 22:19 08.09.2019
2287 Clouds 15 1017 71 10000 1.5 330 21:42 08.09.2019
2288 Clouds 15 1017 71 10000 1.5 330 21:23 08.09.2019
2289 Clouds 15 1017 71 10000 2.1 310 20:58 08.09.2019
2290 Clouds 15 1017 67 10000 2.1 300 20:39 08.09.2019
2291 Clouds 16 1017 67 10000 2.1 300 20:20 08.09.2019
2292 Clouds 16 1017 63 10000 2.6 320 19:58 08.09.2019
2293 Clouds 17 1017 63 10000 2.1 330 19:38 08.09.2019
2294 Clouds 17 1017 63 10000 3.1 330 19:19 08.09.2019
2295 Clouds 18 1017 63 10000 3.1 330 18:57 08.09.2019
2296 Clouds 18 1017 52 10000 1.5 350 18:38 08.09.2019
2297 Clouds 19 1017 59 10000 2.6 290 18:18 08.09.2019
2298 Clouds 19 1017 68 10000 3.6 310 17:54 08.09.2019
2299 Thunderstorm 19 1017 59 10000 3.6 310 17:36 08.09.2019
2300 Thunderstorm 19 1017 55 10000 3.1 320 17:18 08.09.2019
2301 Thunderstorm 19 1017 63 10000 1.5 290 16:42 08.09.2019
2302 Thunderstorm 19 1017 63 10000 1.5 290 16:21 08.09.2019
2303 Clouds 19 1017 59 10000 1 0 15:58 08.09.2019
2304 Clouds 19 1017 55 10000 2.6 310 15:39 08.09.2019
2305 Clouds 19 1017 55 10000 2.6 310 15:21 08.09.2019
2306 Clouds 19 1017 59 10000 2.1 0 14:54 08.09.2019
2307 Clouds 19 1017 63 10000 2.6 340 14:36 08.09.2019
2308 Clouds 19 1018 67 10000 2.6 270 14:18 08.09.2019
2309 Clouds 18 1018 72 10000 2.1 310 13:54 08.09.2019
2310 Clouds 18 1018 63 10000 2.1 280 13:36 08.09.2019
2311 Clouds 18 1018 63 10000 2.1 280 13:18 08.09.2019
2312 Clouds 18 1018 55 10000 1 0 12:41 08.09.2019
2313 Clouds 17 1018 67 10000 1 0 12:22 08.09.2019
2314 Clouds 17 1018 72 10000 1 0 11:58 08.09.2019
2315 Clouds 16 1018 77 10000 1 0 11:38 08.09.2019
2316 Clouds 16 1018 77 10000 1 0 11:19 08.09.2019
2317 Clouds 15 1018 82 10000 1 0 10:55 08.09.2019
2318 Clouds 14 1018 82 10000 0.5 0 10:36 08.09.2019
2319 Clouds 13 1018 87 10000 1.5 280 10:18 08.09.2019
2320 Mist 12 1018 93 10000 3.1 290 09:38 08.09.2019
2321 Mist 11 1018 93 10000 3.1 290 09:19 08.09.2019
2322 Mist 10 1018 100 4000 3.1 300 08:40 08.09.2019
2323 Mist 10 1018 100 4000 3.1 300 08:19 08.09.2019
2324 Fog 9 1018 93 4500 0.5 50 07:59 08.09.2019
2325 Fog 9 1018 93 2500 1.96 245.178 07:38 08.09.2019
2326 Fog 8 1018 100 2500 0.5 0 07:19 08.09.2019
2327 Fog 8 1018 100 2500 0.5 0 06:44 08.09.2019
2328 Clear 10 1017 100 250 1 190 05:48 08.09.2019
2329 Clear 9 1018 93 10000 1.82 253.373 05:29 08.09.2019
2330 Clear 10 1018 93 10000 1 0 03:39 08.09.2019
2331 Clear 10 1018 93 10000 1 150 02:51 08.09.2019
2332 Clear 10 1018 93 10000 0.5 30 01:57 08.09.2019
2333 Fog 10 1018 93 10000 0.5 0 01:34 08.09.2019
2334 Fog 10 1018 93 10000 0.5 0 00:50 08.09.2019
2335 Fog 10 1018 93 10000 0.5 360 00:32 08.09.2019
2336 Fog 11 1018 93 10000 1.5 0 23:59 07.09.2019
2337 Rain 11 1018 87 10000 1.5 230 23:37 07.09.2019
2338 Rain 11 1018 87 10000 1.5 230 23:19 07.09.2019
2339 Rain 11 1018 87 10000 1.5 260 22:44 07.09.2019
2340 Rain 11 1018 87 10000 1.5 260 22:25 07.09.2019
2341 Rain 12 1018 87 10000 1 0 21:59 07.09.2019
2342 Rain 12 1018 87 10000 4.1 270 21:39 07.09.2019
2343 Rain 12 1018 87 10000 4.1 270 21:21 07.09.2019
2344 Rain 14 1018 71 10000 5.1 320 20:41 07.09.2019
2345 Rain 14 1018 71 10000 5.1 320 20:22 07.09.2019
2346 Rain 15 1017 67 10000 2.1 160 19:57 07.09.2019
2347 Clouds 16 1017 63 10000 2.6 170 19:38 07.09.2019
2348 Clouds 16 1017 63 10000 2.1 130 19:20 07.09.2019
2349 Clouds 17 1017 63 10000 2.1 130 18:59 07.09.2019
2350 Clouds 17 1017 59 10000 2.6 150 18:40 07.09.2019
2351 Clouds 17 1017 59 10000 2.6 150 18:20 07.09.2019
2352 Clouds 17 1017 59 10000 2.6 150 17:59 07.09.2019
2353 Clouds 17 1017 59 10000 2.6 150 17:59 07.09.2019
2354 Clouds 17 1017 59 10000 2.1 130 17:39 07.09.2019
2355 Clouds 17 1017 63 10000 2.1 0 17:18 07.09.2019
2356 Clouds 17 1017 63 10000 2.1 0 16:57 07.09.2019
2357 Clouds 17 1017 63 10000 2.1 0 16:57 07.09.2019
2358 Clouds 17 1017 72 10000 2.1 0 16:39 07.09.2019
2359 Clouds 17 1017 72 10000 2.1 0 16:19 07.09.2019
2360 Clouds 16 1017 67 10000 1.5 230 15:45 07.09.2019
2361 Clouds 16 1018 77 10000 2.6 190 15:26 07.09.2019
2362 Clouds 16 1018 82 10000 2.6 220 14:56 07.09.2019
2363 Clouds 15 1018 87 10000 2.1 170 14:36 07.09.2019
2364 Drizzle 15 1018 93 10000 2.1 180 14:18 07.09.2019
2365 Drizzle 15 1018 93 10000 2.1 180 13:56 07.09.2019
2366 Drizzle 15 1018 93 10000 2.1 180 13:56 07.09.2019
2367 Drizzle 14 1018 93 3000 1.5 220 13:37 07.09.2019
2368 Drizzle 14 1018 93 3000 1.5 220 13:19 07.09.2019
2369 Rain 14 1018 93 10000 2.1 210 12:43 07.09.2019
2370 Rain 14 1018 82 10000 2.6 230 12:24 07.09.2019
2371 Rain 14 1018 82 10000 3.1 240 11:41 07.09.2019
2372 Rain 14 1018 82 10000 3.1 240 11:22 07.09.2019
2373 Rain 14 1018 82 10000 2.6 230 10:58 07.09.2019
2374 Rain 14 1018 87 10000 2.6 240 10:37 07.09.2019
2375 Rain 14 1018 87 10000 2.6 240 10:19 07.09.2019
2376 Rain 14 1018 82 10000 3.1 220 09:43 07.09.2019
2377 Rain 14 1018 82 10000 3.1 220 09:23 07.09.2019
2378 Rain 13 1018 87 10000 1.5 200 08:57 07.09.2019
2379 Rain 13 1017 82 10000 2.1 290 08:36 07.09.2019
2380 Rain 13 1017 71 10000 1 0 08:18 07.09.2019
2381 Rain 13 1017 67 10000 1 240 07:43 07.09.2019
2382 Rain 13 1017 67 10000 2.6 250 07:22 07.09.2019
2383 Rain 13 1017 58 10000 2.6 230 06:43 07.09.2019
2384 Clear 13 1017 58 10000 1 0 05:41 07.09.2019
2385 Clear 13 1017 58 10000 1 0 05:41 07.09.2019
2386 Clear 13 1017 54 10000 2.6 240 04:26 07.09.2019
2387 Clear 13 1017 54 10000 2.6 200 03:41 07.09.2019
2388 Clear 13 1018 54 10000 2.1 190 02:22 07.09.2019
2389 Clear 13 1018 54 10000 2.1 190 01:33 07.09.2019
2390 Clear 13 1018 54 10000 1.5 190 00:55 07.09.2019
2391 Clear 14 1018 58 10000 2.1 190 00:36 07.09.2019
2392 Clear 14 1018 58 10000 1 0 00:18 07.09.2019
2393 Clear 14 1019 51 10000 1 0 23:38 06.09.2019
2394 Clear 14 1019 51 10000 1 0 23:19 06.09.2019
2395 Clear 15 1019 51 10000 1.5 200 22:57 06.09.2019
2396 Clear 15 1019 51 10000 1.5 200 22:37 06.09.2019
2397 Clear 15 1019 51 10000 1.5 200 22:18 06.09.2019
2398 Clear 15 1019 48 10000 1.5 190 22:18 06.09.2019
2399 Clear 15 1019 48 10000 1.5 190 21:55 06.09.2019
2400 Clear 15 1019 45 10000 1.5 190 21:36 06.09.2019
2401 Clear 15 1019 45 10000 1.5 190 21:18 06.09.2019
2402 Clear 16 1019 45 10000 1.5 230 20:41 06.09.2019
2403 Clear 17 1019 45 10000 1.5 230 20:22 06.09.2019
2404 Clouds 17 1019 39 10000 3.1 250 19:59 06.09.2019
2405 Clear 18 1019 39 10000 3.6 200 19:41 06.09.2019
2406 Clear 18 1019 39 10000 3.6 200 19:41 06.09.2019
2407 Clear 18 1019 39 10000 3.6 200 19:21 06.09.2019
2408 Clear 19 1019 39 10000 3.1 210 18:56 06.09.2019
2409 Clouds 19 1019 39 10000 3.6 220 18:37 06.09.2019
2410 Clear 19 1020 42 10000 4.6 250 18:19 06.09.2019
2411 Clear 20 1020 40 10000 4.1 230 17:40 06.09.2019
2412 Clear 20 1020 40 10000 4.1 230 17:20 06.09.2019
2413 Clouds 20 1020 42 10000 4.6 260 16:43 06.09.2019
2414 Clouds 19 1021 42 10000 3.6 240 16:20 06.09.2019
2415 Clouds 19 1021 42 10000 3.6 240 15:59 06.09.2019
2416 Clouds 19 1022 45 10000 3.6 230 15:41 06.09.2019
2417 Clouds 19 1022 45 10000 3.6 230 15:22 06.09.2019
2418 Clouds 19 1022 48 10000 4.1 240 14:46 06.09.2019
2419 Clouds 18 1022 51 10000 4.6 220 14:19 06.09.2019
2420 Clouds 18 1022 51 10000 5.1 260 13:44 06.09.2019
2421 Clouds 18 1023 51 10000 4.6 220 13:23 06.09.2019
2422 Clouds 17 1023 51 10000 5.1 210 12:57 06.09.2019
2423 Clouds 17 1024 55 10000 5.7 220 12:37 06.09.2019
2424 Clouds 17 1024 55 10000 5.7 220 12:18 06.09.2019
2425 Clouds 16 1024 55 10000 5.7 250 11:41 06.09.2019
2426 Clouds 15 1024 58 10000 4.6 240 11:23 06.09.2019
2427 Clouds 14 1024 62 10000 4.6 230 10:56 06.09.2019
2428 Clouds 14 1024 62 10000 4.6 230 10:56 06.09.2019
2429 Clouds 14 1024 67 10000 5.1 240 10:38 06.09.2019
2430 Clear 13 1024 71 10000 3.6 220 10:18 06.09.2019
2431 Clear 12 1024 76 10000 2.6 230 09:38 06.09.2019
2432 Clear 11 1024 76 10000 2.6 230 09:19 06.09.2019
2433 Clear 11 1024 76 10000 3.1 210 08:55 06.09.2019
2434 Fog 9 1024 87 10000 2.1 200 08:37 06.09.2019
2435 Fog 9 1024 87 10000 2.1 200 08:18 06.09.2019
2436 Fog 8 1024 87 10000 2.1 200 07:44 06.09.2019
2437 Fog 8 1024 87 10000 2.1 200 07:25 06.09.2019
2438 Fog 8 1024 87 10000 2.1 200 07:25 06.09.2019
2439 Fog 7 1024 87 10000 2.1 240 06:53 06.09.2019
2440 Clear 8 1024 93 10000 1.5 260 05:58 06.09.2019
2441 Clear 8 1024 87 10000 2.1 250 04:58 06.09.2019
2442 Clear 9 1024 87 10000 2.6 250 04:33 06.09.2019
2443 Clear 9 1024 87 10000 2.1 230 03:29 06.09.2019
2444 Clear 10 1024 81 10000 2.6 240 01:49 06.09.2019
2445 Clear 11 1023 76 10000 3.1 260 00:23 06.09.2019
2446 Clouds 11 1023 87 10000 2.1 240 00:23 06.09.2019
2447 Clouds 11 1023 76 10000 4.1 270 23:44 05.09.2019
2448 Clouds 12 1023 76 10000 3.1 250 23:24 05.09.2019
2449 Clouds 12 1023 71 10000 3.6 270 22:47 05.09.2019
2450 Clouds 12 1022 76 10000 2.6 270 22:28 05.09.2019
2451 Clear 13 1022 71 10000 3.1 260 21:58 05.09.2019
2452 Rain 13 1022 66 10000 3.6 270 21:40 05.09.2019
2453 Rain 13 1022 66 10000 3.6 270 21:21 05.09.2019
2454 Rain 14 1021 62 10000 4.6 300 20:58 05.09.2019
2455 Rain 14 1021 62 10000 4.6 300 20:58 05.09.2019
2456 Clouds 14 1021 58 10000 6.7 310 20:40 05.09.2019
2457 Clouds 14 1021 58 10000 6.7 310 20:22 05.09.2019
2458 Clouds 15 1020 62 10000 6.7 290 19:59 05.09.2019
2459 Rain 15 1020 62 10000 6.7 290 19:41 05.09.2019
2460 Rain 15 1020 62 10000 6.7 290 19:22 05.09.2019
2461 Rain 15 1019 67 10000 5.7 280 18:56 05.09.2019
2462 Rain 16 1019 67 10000 7.7 290 18:38 05.09.2019
2463 Rain 16 1019 63 10000 6.7 280 18:18 05.09.2019
2464 Rain 16 1018 55 10000 6.7 300 17:40 05.09.2019
2465 Rain 16 1018 55 10000 6.7 300 17:40 05.09.2019
2466 Rain 16 1018 55 10000 6.7 300 17:22 05.09.2019
2467 -273 0 0 0 0 0 16:58 05.09.2019
2468 Rain 17 1017 59 10000 8.2 280 16:40 05.09.2019
2469 Rain 17 1017 59 10000 8.2 280 16:19 05.09.2019
2470 Rain 17 1016 55 10000 6.2 290 15:40 05.09.2019
2471 Rain 17 1018 87 10000 6.2 310 15:19 05.09.2019
2472 Rain 18 1018 87 10000 6.2 310 14:59 05.09.2019
2473 Rain 18 1016 52 5000 6.2 260 14:40 05.09.2019
2474 Clouds 18 1016 52 10000 8.2 270 14:20 05.09.2019
2475 Clouds 18 1015 59 10000 7.7 260 13:43 05.09.2019
2476 Clouds 18 1015 59 10000 7.7 260 13:23 05.09.2019
2477 Clouds 18 1015 67 10000 7.2 290 12:47 05.09.2019
2478 Clouds 17 1014 59 10000 9.3 240 12:27 05.09.2019
2479 Clouds 17 1014 67 10000 8.7 260 11:58 05.09.2019
2480 Clouds 16 1014 67 10000 8.2 260 11:40 05.09.2019
2481 Clouds 16 1014 67 10000 8.2 260 11:19 05.09.2019
2482 Clouds 16 1014 67 10000 8.2 260 11:19 05.09.2019
2483 Clouds 16 1013 72 10000 8.7 250 10:42 05.09.2019
2484 Clouds 16 1013 72 10000 8.7 250 10:22 05.09.2019
2485 Clouds 15 1013 67 10000 10.3 240 09:58 05.09.2019
2486 Clouds 15 1013 67 10000 10.3 240 09:58 05.09.2019
2487 Clouds 15 1013 77 10000 6.7 240 09:40 05.09.2019
2488 Clouds 15 1013 82 10000 6.2 240 09:18 05.09.2019
2489 Fog 14 1012 82 10000 7.2 240 08:46 05.09.2019
2490 Clear 13 1013 76 10000 4.1 220 08:26 05.09.2019
2491 Rain 13 1012 76 10000 6.2 240 07:46 05.09.2019
2492 Rain 12 1012 82 10000 3.1 190 07:28 05.09.2019
2493 Fog 12 1012 82 10000 3.1 190 06:58 05.09.2019
2494 Fog 12 1012 93 10000 1.5 200 06:31 05.09.2019
2495 Fog 12 1012 93 10000 1.5 200 06:31 05.09.2019
2496 Clouds 12 1012 87 10000 4.1 230 05:51 05.09.2019
2497 Clear 12 1012 87 10000 2.1 220 05:32 05.09.2019
2498 Clear 13 1013 87 10000 3.1 240 04:53 05.09.2019
2499 Clear 13 1013 87 10000 3.6 240 04:28 05.09.2019
2500 Clouds 14 1012 87 10000 3.1 270 03:40 05.09.2019
2501 Clouds 15 1013 77 10000 6.2 290 02:51 05.09.2019
2502 Clouds 15 1012 82 10000 3.6 260 02:27 05.09.2019
2503 Clouds 15 1012 87 10000 3.6 250 01:37 05.09.2019
2504 Clouds 16 1012 87 10000 4.1 260 00:46 05.09.2019
2505 Clouds 16 1012 87 10000 4.1 250 00:21 05.09.2019
2506 Clouds 16 1012 87 10000 4.1 250 23:56 04.09.2019
2507 Rain 16 1012 87 10000 4.6 260 23:37 04.09.2019
2508 Rain 16 1012 87 10000 4.6 260 23:18 04.09.2019
2509 Rain 16 1012 82 10000 1.5 250 22:42 04.09.2019
2510 Rain 16 1012 82 10000 2.1 250 22:19 04.09.2019
2511 Rain 17 1012 82 8000 1.5 240 21:40 04.09.2019
2512 Rain 17 1012 72 10000 1.5 240 21:20 04.09.2019
2513 Rain 17 1012 72 10000 1.5 240 21:20 04.09.2019
2514 Rain 17 1012 72 10000 1.5 240 21:20 04.09.2019
2515 Rain 18 1012 72 10000 3.6 270 20:57 04.09.2019
2516 Rain 19 1012 77 10000 8.7 280 20:39 04.09.2019
2517 Clouds 20 1011 52 10000 3.6 270 20:19 04.09.2019
2518 Clouds 20 1011 52 10000 3.6 270 19:57 04.09.2019
2519 Clouds 20 1011 52 10000 3.6 270 19:38 04.09.2019
2520 Clouds 22 1011 49 10000 3.1 260 19:19 04.09.2019
2521 Clouds 23 1011 49 10000 4.1 260 18:39 04.09.2019
2522 Clouds 23 1011 46 10000 5.1 250 18:20 04.09.2019
2523 Clouds 23 1011 46 10000 5.1 250 18:20 04.09.2019
2524 Clouds 23 1011 46 10000 5.1 250 17:54 04.09.2019
2525 Clouds 23 1011 43 10000 5.7 250 17:36 04.09.2019
2526 Clouds 23 1011 43 10000 5.7 250 17:36 04.09.2019
2527 Clouds 23 1011 43 10000 5.7 250 17:18 04.09.2019
2528 Clouds 23 1012 46 10000 5.7 240 16:42 04.09.2019
2529 Clouds 23 1012 46 10000 5.7 240 16:24 04.09.2019
2530 Clouds 23 1012 43 10000 5.1 230 15:56 04.09.2019
2531 Clouds 23 1013 46 10000 5.1 220 15:38 04.09.2019
2532 Clouds 23 1013 46 10000 5.1 220 15:20 04.09.2019
2533 Clouds 22 1013 46 10000 5.1 230 14:55 04.09.2019
2534 Clouds 22 1014 49 10000 4.6 220 14:36 04.09.2019
2535 Clouds 21 1014 52 10000 5.1 190 14:18 04.09.2019
2536 Clouds 21 1014 49 10000 5.7 180 13:40 04.09.2019
2537 Clouds 20 1014 56 10000 4.6 190 13:21 04.09.2019
2538 Clouds 20 1015 52 10000 4.6 210 12:56 04.09.2019
2539 Clouds 19 1015 52 10000 5.1 180 12:37 04.09.2019
2540 Clouds 19 1015 52 10000 5.1 180 12:37 04.09.2019
2541 Clouds 19 1016 55 10000 3.6 200 12:18 04.09.2019
2542 Clouds 18 1016 55 10000 3.6 220 11:41 04.09.2019
2543 Clouds 18 1016 55 10000 3.6 220 11:21 04.09.2019
2544 Clouds 18 1016 59 10000 4.1 220 10:59 04.09.2019
2545 Clouds 18 1017 63 10000 3.6 200 10:40 04.09.2019
2546 Clouds 17 1017 63 10000 3.6 200 10:21 04.09.2019
2547 Clouds 17 1017 72 10000 2.6 190 09:46 04.09.2019
2548 Clouds 16 1017 72 10000 2.6 190 09:22 04.09.2019
2549 Clouds 16 1017 72 10000 3.1 180 08:58 04.09.2019
2550 Clouds 16 1018 72 10000 2.6 180 08:39 04.09.2019
2551 Clouds 16 1018 72 10000 2.6 180 08:19 04.09.2019
2552 Clouds 15 1017 72 10000 3.6 210 07:46 04.09.2019
2553 Clouds 15 1018 72 10000 4.1 190 07:28 04.09.2019
2554 Clouds 14 1018 82 10000 1.5 190 06:39 04.09.2019
2555 Clouds 14 1019 82 10000 2.1 190 04:57 04.09.2019
2556 Clouds 14 1020 87 10000 1.5 200 04:25 04.09.2019
2557 Clouds 14 1020 82 10000 2.6 220 03:45 04.09.2019
2558 Clear 15 1021 82 10000 1.5 240 01:22 04.09.2019
2559 Clouds 15 1021 77 10000 1.5 250 00:50 04.09.2019
2560 Clouds 15 1021 77 10000 1.5 250 00:31 04.09.2019
2561 Clouds 16 1021 77 10000 2.6 250 23:54 03.09.2019
2562 Clear 16 1022 72 10000 3.1 250 23:27 03.09.2019
2563 Clear 17 1022 72 10000 4.1 250 22:57 03.09.2019
2564 Clear 17 1022 72 10000 3.1 250 22:39 03.09.2019
2565 Clear 17 1022 72 10000 3.1 250 22:21 03.09.2019
2566 Clear 17 1022 72 10000 3.1 250 21:56 03.09.2019
2567 Clouds 17 1022 72 10000 3.1 260 21:36 03.09.2019
2568 Clouds 17 1022 68 10000 4.1 250 21:18 03.09.2019
2569 Clouds 18 1022 68 10000 4.1 250 20:42 03.09.2019
2570 Clouds 18 1022 68 10000 4.1 250 20:24 03.09.2019
2571 Clouds 18 1022 68 10000 4.1 250 20:24 03.09.2019
2572 Clouds 18 1022 68 10000 4.1 250 20:24 03.09.2019
2573 Clouds 18 1022 68 10000 3.6 250 19:55 03.09.2019
2574 Clouds 18 1022 63 10000 5.1 250 19:37 03.09.2019
2575 Clouds 18 1021 68 10000 5.1 260 19:18 03.09.2019
2576 Clouds 19 1021 63 10000 5.7 260 18:44 03.09.2019
2577 Clouds 19 1021 59 10000 6.2 260 18:25 03.09.2019
2578 Clouds 19 1021 59 10000 6.2 260 18:25 03.09.2019
2579 Clouds 19 1022 68 10000 4.6 250 17:57 03.09.2019
2580 Clouds 19 1021 63 10000 5.1 250 17:39 03.09.2019
2581 Clouds 19 1022 63 10000 4.6 250 17:19 03.09.2019
2582 Clouds 19 1021 56 10000 5.7 270 16:43 03.09.2019
2583 Clouds 19 1022 59 10000 5.7 260 16:23 03.09.2019
2584 Clouds 19 1021 63 10000 4.1 260 15:59 03.09.2019
2585 Clouds 19 1021 59 10000 6.2 270 15:39 03.09.2019
2586 Clouds 19 1021 59 10000 6.2 270 15:20 03.09.2019
2587 Clouds 19 1021 59 10000 4.6 250 14:57 03.09.2019
2588 Clouds 19 1022 59 10000 5.7 250 14:39 03.09.2019
2589 Clouds 19 1022 59 10000 5.7 250 14:20 03.09.2019
2590 Clouds 19 1022 59 10000 5.1 260 13:56 03.09.2019
2591 Clouds 19 1021 59 10000 7.2 240 13:37 03.09.2019
2592 Clouds 19 1021 59 10000 7.2 240 13:37 03.09.2019
2593 Clouds 18 1022 63 10000 5.7 250 13:19 03.09.2019
2594 Clouds 18 1021 63 10000 6.7 260 12:48 03.09.2019
2595 Clouds 18 1021 55 10000 6.2 230 12:29 03.09.2019
2596 Clouds 17 1022 55 10000 3.6 230 11:57 03.09.2019
2597 Clouds 17 1022 59 10000 4.6 220 11:38 03.09.2019
2598 Drizzle 16 1022 59 10000 3.6 220 11:18 03.09.2019
2599 Rain 16 1022 67 10000 2.6 230 10:40 03.09.2019
2600 Rain 16 1022 67 10000 2.6 230 10:22 03.09.2019
2601 Rain 16 1022 67 10000 2.6 230 10:22 03.09.2019
2602 Rain 15 1022 62 10000 3.1 200 09:53 03.09.2019
2603 Rain 15 1021 62 10000 3.1 200 09:33 03.09.2019
2604 Rain 15 1021 62 10000 3.1 200 08:59 03.09.2019
2605 Rain 14 1021 62 10000 2.6 200 08:39 03.09.2019
2606 Rain 14 1021 67 10000 2.6 190 08:20 03.09.2019
2607 Rain 13 1021 67 10000 4.1 210 07:43 03.09.2019
2608 Rain 13 1021 67 10000 4.1 210 07:43 03.09.2019
2609 Rain 13 1021 67 10000 2.6 190 07:24 03.09.2019
2610 Rain 13 1021 67 10000 2.1 190 06:55 03.09.2019
2611 Rain 13 1021 67 10000 2.1 190 06:37 03.09.2019
2612 Clouds 12 1022 67 10000 4.1 220 03:44 03.09.2019
2613 Clear 11 1022 71 10000 1.5 190 02:52 03.09.2019
2614 Clear 11 1023 71 10000 1.5 200 02:32 03.09.2019
2615 Clear 11 1023 66 10000 1 0 01:59 03.09.2019
2616 Clear 10 1023 66 10000 1 0 01:41 03.09.2019
2617 Clear 11 1023 66 10000 1 0 01:22 03.09.2019
2618 Clear 11 1023 71 10000 0.5 0 00:31 03.09.2019
2619 Clear 11 1023 81 10000 1 0 23:57 02.09.2019
2620 Clear 12 1023 76 10000 0.5 0 23:36 02.09.2019
2621 Clear 12 1023 76 10000 0.5 0 23:18 02.09.2019
2622 Clear 12 1023 76 10000 0.5 0 22:55 02.09.2019
2623 Clear 12 1023 76 10000 0.5 0 22:55 02.09.2019
2624 Clear 13 1023 76 10000 0.5 90 22:36 02.09.2019
2625 Clear 13 1023 76 10000 0.5 90 22:18 02.09.2019
2626 Clear 14 1023 67 10000 1.23 243.331 21:55 02.09.2019
2627 Clear 14 1023 62 10000 0.5 90 21:36 02.09.2019
2628 Clear 15 1023 62 10000 0.5 90 21:18 02.09.2019
2629 Clouds 16 1022 59 10000 0.5 310 20:41 02.09.2019
2630 Clear 17 1022 55 10000 1.5 340 20:22 02.09.2019
2631 Clouds 16 1022 59 10000 0.5 310 20:22 02.09.2019
2632 Clear 18 1022 55 10000 1.5 340 19:57 02.09.2019
2633 Clear 18 1022 55 10000 1.5 340 19:57 02.09.2019
2634 Clear 18 1022 52 10000 2.6 340 19:39 02.09.2019
2635 Clear 18 1022 52 10000 2.6 340 19:39 02.09.2019
2636 Clear 19 1022 48 10000 4.1 330 19:21 02.09.2019
2637 Clear 20 1022 45 10000 5.7 310 18:42 02.09.2019
2638 Clear 20 1022 45 10000 5.7 310 18:42 02.09.2019
2639 Clear 20 1022 45 10000 5.7 310 18:23 02.09.2019
2640 Clear 20 1022 45 10000 5.1 310 17:59 02.09.2019
2641 Clear 20 1021 37 10000 5.1 280 17:40 02.09.2019
2642 Clear 21 1021 37 10000 5.1 280 17:21 02.09.2019
2643 Clear 21 1022 40 10000 5.1 310 16:59 02.09.2019
2644 -273 0 0 0 0 0 16:38 02.09.2019
2645 Clear 21 1022 35 10000 5.7 270 16:20 02.09.2019
2646 Clouds 21 1022 42 10000 5.1 300 15:45 02.09.2019
2647 Clear 20 1022 43 10000 6.2 280 15:27 02.09.2019
2648 Clouds 20 1022 45 10000 5.1 260 14:57 02.09.2019
2649 Clouds 20 1022 45 10000 5.7 250 14:39 02.09.2019
2650 Clouds 20 1022 45 10000 5.7 250 14:21 02.09.2019
2651 Clouds 19 1022 48 10000 6.2 290 13:56 02.09.2019
2652 Clouds 19 1021 42 10000 5.7 250 13:36 02.09.2019
2653 Clouds 19 1022 52 10000 5.1 270 13:18 02.09.2019
2654 Clouds 19 1021 48 10000 6.2 250 12:43 02.09.2019
2655 Clouds 18 1022 55 10000 4.6 280 12:24 02.09.2019
2656 Clouds 18 1022 52 10000 5.1 270 11:58 02.09.2019
2657 Clouds 17 1021 55 10000 5.1 280 11:38 02.09.2019
2658 Clouds 17 1021 55 10000 5.1 280 11:20 02.09.2019
2659 Clouds 17 1021 55 10000 5.1 280 11:20 02.09.2019
2660 Clouds 17 1021 63 10000 5.7 270 10:56 02.09.2019
2661 Clear 16 1021 67 10000 4.6 250 10:37 02.09.2019
2662 Clear 15 1021 71 10000 3.6 260 10:18 02.09.2019
2663 Clear 14 1021 71 10000 4.1 250 09:43 02.09.2019
2664 Clear 14 1021 71 10000 4.1 250 09:22 02.09.2019
2665 Clear 13 1020 81 10000 3.1 250 08:44 02.09.2019
2666 Clear 12 1020 81 10000 3.1 250 08:23 02.09.2019
2667 Clear 12 1020 81 10000 3.1 260 07:58 02.09.2019
2668 Clouds 11 1020 93 10000 2.6 220 07:39 02.09.2019
2669 Fog 11 1020 81 10000 3.1 250 07:21 02.09.2019
2670 Fog 10 1019 81 10000 2.6 240 06:43 02.09.2019
2671 Fog 10 1019 81 10000 2.1 250 05:54 02.09.2019
2672 Fog 10 1019 81 10000 2.1 250 05:54 02.09.2019
2673 Fog 10 1019 81 10000 2.1 250 05:54 02.09.2019
2674 Fog 10 1019 81 10000 2.1 250 05:54 02.09.2019
2675 Fog 10 1019 93 10000 1.5 250 05:27 02.09.2019
2676 Fog 11 1019 87 10000 2.6 250 04:53 02.09.2019
2677 Fog 12 1018 82 10000 2.1 250 02:42 02.09.2019
2678 Fog 12 1018 87 10000 1.5 290 01:43 02.09.2019
2679 Clear 13 1018 82 10000 1.5 250 00:46 02.09.2019
2680 Rain 13 1018 82 10000 1.5 250 00:26 02.09.2019
2681 Clouds 13 1017 82 10000 2.1 280 23:39 01.09.2019
2682 Clouds 13 1017 82 10000 2.1 280 23:20 01.09.2019
2683 Clouds 14 1017 71 10000 1 240 22:57 01.09.2019
2684 Clouds 14 1017 71 10000 1 240 22:57 01.09.2019
2685 Clouds 14 1016 71 10000 1 280 22:39 01.09.2019
2686 Clouds 15 1016 67 10000 2.1 310 22:18 01.09.2019
2687 Clouds 15 1016 67 10000 2.1 310 21:55 01.09.2019
2688 Clouds 15 1016 63 10000 1 250 21:37 01.09.2019
2689 Clouds 16 1016 59 10000 2.1 290 21:18 01.09.2019
2690 Clouds 16 1016 59 10000 2.1 290 20:55 01.09.2019
2691 Clouds 17 1016 59 10000 2.1 290 20:36 01.09.2019
2692 Clouds 17 1015 52 10000 3.6 290 20:18 01.09.2019
2693 Clouds 18 1015 48 10000 5.7 290 19:41 01.09.2019
2694 Clouds 18 1015 52 10000 4.6 280 19:21 01.09.2019
2695 Clouds 18 1015 52 10000 4.6 280 19:21 01.09.2019
2696 Clouds 18 1015 52 10000 4.6 280 18:57 01.09.2019
2697 Clouds 18 1015 52 10000 4.6 280 18:57 01.09.2019
2698 Drizzle 18 1014 52 10000 4.1 270 18:38 01.09.2019
2699 Rain 18 1014 48 10000 4.1 270 18:20 01.09.2019
2700 Clouds 19 1014 48 10000 4.1 270 17:54 01.09.2019
2701 Clouds 18 1014 59 10000 2.6 270 17:36 01.09.2019
2702 Rain 19 1014 63 10000 3.6 270 17:18 01.09.2019
2703 Rain 19 1014 63 10000 4.6 270 16:39 01.09.2019
2704 Clouds 19 1014 59 10000 5.7 280 16:18 01.09.2019
2705 Rain 20 1014 59 10000 5.7 300 15:45 01.09.2019
2706 Rain 20 1013 63 10000 6.2 280 15:26 01.09.2019
2707 Rain 21 1013 68 10000 5.1 290 14:55 01.09.2019
2708 Rain 21 1013 68 10000 6.2 280 14:37 01.09.2019
2709 Rain 21 1013 64 10000 6.7 290 14:18 01.09.2019
2710 Rain 21 1013 68 10000 6.2 310 13:41 01.09.2019
2711 Clouds 21 1013 68 10000 7.7 300 13:23 01.09.2019
2712 Rain 21 1012 77 7000 7.2 310 12:45 01.09.2019
2713 Clouds 21 1012 64 10000 5.7 290 12:26 01.09.2019
2714 Clouds 21 1012 68 10000 6.2 300 11:59 01.09.2019
2715 Clouds 20 1012 72 10000 5.7 300 11:39 01.09.2019
2716 Clouds 20 1011 72 10000 5.1 300 11:19 01.09.2019
2717 Clouds 20 1012 72 10000 5.7 300 11:19 01.09.2019
2718 Rain 20 1011 72 9000 5.1 300 10:45 01.09.2019
2719 Clouds 20 1011 77 10000 4.6 290 10:23 01.09.2019
2720 Clouds 20 1011 77 10000 5.7 280 09:56 01.09.2019
2721 Clouds 20 1010 77 10000 6.7 270 09:38 01.09.2019
2722 Clouds 20 1010 77 10000 6.7 270 09:19 01.09.2019
2723 Clouds 19 1010 82 10000 5.1 280 08:42 01.09.2019
2724 Clouds 19 1010 82 10000 5.1 280 08:21 01.09.2019
2725 Clouds 20 1009 82 10000 6.2 270 07:42 01.09.2019
2726 Clouds 20 1009 82 10000 6.2 270 07:21 01.09.2019
2727 Clouds 20 1008 77 10000 6.2 270 06:39 01.09.2019
2728 Clouds 20 1008 77 10000 5.7 270 05:59 01.09.2019
2729 Clouds 20 1008 77 10000 5.7 270 05:59 01.09.2019
2730 Clouds 20 1008 77 10000 5.7 270 05:59 01.09.2019
2731 Clear 20 1008 68 10000 2.1 180 04:53 01.09.2019
2732 Clouds 21 1007 77 10000 1.5 0 03:50 01.09.2019
2733 Clear 21 1007 73 10000 1 230 03:32 01.09.2019
2734 Clear 22 1008 64 10000 3.6 280 02:40 01.09.2019
2735 Clear 22 1008 60 10000 5.7 260 02:19 01.09.2019
2736 Rain 22 1007 68 10000 0.5 170 01:29 01.09.2019
2737 Clear 22 1007 57 10000 2.1 170 00:57 01.09.2019
2738 Clear 23 1007 57 10000 2.1 170 00:38 01.09.2019
2739 Clear 23 1007 53 10000 2.1 170 00:19 01.09.2019
2740 Clear 23 1008 50 10000 1 0 23:41 31.08.2019
2741 Clear 24 1008 50 10000 1 0 23:21 31.08.2019
2742 Clear 24 1008 50 10000 1 0 22:55 31.08.2019
2743 Clear 24 1008 60 10000 1.5 100 22:37 31.08.2019
2744 Clear 24 1008 60 10000 1.5 100 22:19 31.08.2019
2745 Rain 25 1008 57 10000 2.6 150 21:42 31.08.2019
2746 Clear 25 1009 50 10000 1 80 21:22 31.08.2019
2747 Clear 26 1009 45 10000 1 0 20:59 31.08.2019
2748 Clear 27 1009 40 10000 1.5 150 20:41 31.08.2019
2749 Clear 28 1009 40 10000 1.5 150 20:22 31.08.2019
2750 Clouds 31 1009 35 10000 2.1 150 19:41 31.08.2019
2751 Clear 30 1009 38 10000 2.6 140 19:22 31.08.2019
2752 Clear 31 1009 38 10000 2.6 140 18:55 31.08.2019
2753 Clear 31 1009 35 10000 4.1 150 18:37 31.08.2019
2754 Clear 31 1010 38 10000 3.1 150 18:19 31.08.2019
2755 Clear 32 1010 38 10000 3.1 150 17:54 31.08.2019
2756 Clear 32 1011 40 10000 2.1 150 17:36 31.08.2019
2757 Clear 32 1011 40 10000 2.1 150 17:36 31.08.2019
2758 Clear 32 1011 40 10000 2.1 150 17:18 31.08.2019
2759 Clear 32 1012 40 10000 4.1 180 16:42 31.08.2019
2760 Clear 32 1012 40 10000 4.1 180 16:23 31.08.2019
2761 Clear 32 1012 40 10000 4.1 180 15:59 31.08.2019
2762 Clear 32 1013 40 10000 3.6 170 15:40 31.08.2019
2763 Clear 32 1013 42 10000 3.6 160 15:18 31.08.2019
2764 Clear 31 1014 40 10000 2.6 170 14:42 31.08.2019
2765 Clear 31 1014 40 10000 2.6 170 14:24 31.08.2019
2766 Clear 31 1014 45 10000 4.1 170 13:57 31.08.2019
2767 Clear 31 1014 45 10000 4.1 170 13:57 31.08.2019
2768 Clear 31 1014 42 8000 3.6 170 13:37 31.08.2019
2769 Clear 30 1015 48 10000 3.1 140 13:18 31.08.2019
2770 Clouds 29 1015 48 10000 3.6 140 12:42 31.08.2019
2771 Clear 28 1015 54 10000 4.1 160 12:21 31.08.2019
2772 Clear 28 1015 54 10000 4.1 160 11:59 31.08.2019
2773 Clear 27 1016 57 10000 3.6 160 11:41 31.08.2019
2774 Clear 26 1016 57 10000 3.6 160 11:23 31.08.2019
2775 Clear 25 1016 61 10000 2.6 130 10:55 31.08.2019
2776 Clear 24 1016 69 10000 2.1 130 10:36 31.08.2019
2777 Clear 23 1017 73 10000 2.1 120 10:18 31.08.2019
2778 Clear 21 1017 77 10000 2.1 120 09:40 31.08.2019
2779 Clear 21 1017 77 10000 2.1 120 09:40 31.08.2019
2780 Clear 20 1017 77 10000 2.1 120 09:21 31.08.2019
2781 Fog 18 1017 93 5000 1.5 110 08:45 31.08.2019
2782 Fog 17 1017 88 9000 0.5 0 08:27 31.08.2019
2783 Fog 16 1017 93 4300 0.5 110 07:43 31.08.2019
2784 Fog 15 1017 93 9000 1.5 80 07:23 31.08.2019
2785 Fog 15 1017 93 9000 1.5 80 06:59 31.08.2019
2786 Fog 15 1018 93 9000 1.5 100 06:26 31.08.2019
2787 Fog 15 1018 93 10000 1 140 05:49 31.08.2019
2788 Fog 15 1018 93 9000 1 0 05:27 31.08.2019
2789 Fog 15 1019 93 10000 0.5 0 04:28 31.08.2019
2790 Fog 16 1019 100 10000 0.5 60 03:42 31.08.2019
2791 Clear 16 1020 93 10000 0.5 0 02:20 31.08.2019
2792 Clear 17 1020 93 10000 1.41 66.866 01:47 31.08.2019
2793 Clear 17 1020 93 10000 2 70.694 01:28 31.08.2019
2794 Clear 17 1021 93 10000 0.5 0 00:45 31.08.2019
2795 Clear 17 1021 93 10000 0.5 0 00:26 31.08.2019
2796 Clouds 18 1021 88 10000 1.45 29.491 23:48 30.08.2019
2797 Clear 18 1021 82 10000 0.5 0 23:19 30.08.2019
2798 Clear 18 1021 82 10000 1 0 22:57 30.08.2019
2799 Clear 19 1021 82 10000 0.5 0 22:37 30.08.2019
2800 Clear 19 1021 82 10000 0.5 310 22:19 30.08.2019
2801 Clear 20 1021 82 10000 0.5 310 21:56 30.08.2019
2802 Clear 20 1021 77 10000 1 0 21:36 30.08.2019
2803 Clear 21 1021 77 10000 1 0 21:18 30.08.2019
2804 Clear 23 1021 68 10000 1 10 20:43 30.08.2019
2805 Clouds 23 1021 60 10000 2.1 340 20:22 30.08.2019
2806 Clear 23 1021 68 10000 1 10 20:22 30.08.2019
2807 Clouds 24 1021 60 10000 2.1 340 19:59 30.08.2019
2808 Clouds 24 1021 60 10000 2.1 340 19:41 30.08.2019
2809 Clouds 25 1021 57 10000 2.1 300 19:22 30.08.2019
2810 Clouds 25 1021 57 10000 2.1 300 18:58 30.08.2019
2811 Clouds 25 1021 57 10000 3.1 280 18:40 30.08.2019
2812 Clouds 26 1021 53 10000 2.6 300 18:20 30.08.2019
2813 Clouds 26 1021 53 10000 2.6 300 17:56 30.08.2019
2814 Clouds 26 1021 53 10000 2.6 300 17:56 30.08.2019
2815 Clouds 26 1021 50 10000 2.1 0 17:37 30.08.2019
2816 Clouds 26 1021 50 10000 2.1 0 17:37 30.08.2019
2817 Clouds 26 1021 50 10000 2.1 0 17:37 30.08.2019
2818 Clear 26 1021 50 10000 1 0 17:18 30.08.2019
2819 Clear 26 1022 50 10000 1.5 0 16:43 30.08.2019
2820 Clear 26 1022 50 10000 1.5 0 16:25 30.08.2019
2821 Clear 26 1022 53 10000 1.5 320 15:54 30.08.2019
2822 Clear 26 1022 53 10000 1.5 300 15:36 30.08.2019
2823 Clear 26 1022 53 10000 1.5 300 15:18 30.08.2019
2824 Clear 25 1023 57 10000 2.1 0 14:42 30.08.2019
2825 Clear 25 1023 57 10000 2.1 0 14:23 30.08.2019
2826 Clouds 25 1023 56 10000 1.5 0 13:45 30.08.2019
2827 Clear 24 1023 57 10000 2.1 0 13:23 30.08.2019
2828 Clear 24 1023 60 10000 1.5 0 12:59 30.08.2019
2829 Clouds 24 1023 60 10000 2.1 280 12:41 30.08.2019
2830 Clear 23 1023 64 10000 2.1 280 12:22 30.08.2019
2831 Clear 22 1023 68 10000 2.6 290 11:43 30.08.2019
2832 Clear 22 1023 68 10000 2.6 290 11:25 30.08.2019
2833 Clear 21 1023 77 10000 2.1 280 10:57 30.08.2019
2834 Clear 20 1023 82 10000 2.6 290 10:36 30.08.2019
2835 Clear 20 1023 82 10000 2.6 290 10:18 30.08.2019
2836 Clouds 19 1023 88 10000 1 0 09:42 30.08.2019
2837 Clouds 18 1023 93 9000 0.5 0 09:20 30.08.2019
2838 Clouds 18 1023 93 9000 0.5 0 08:57 30.08.2019
2839 Clouds 18 1023 93 9000 0.5 0 08:57 30.08.2019
2840 Clouds 18 1023 93 9000 1 0 08:38 30.08.2019
2841 Clouds 17 1023 93 9000 1 0 08:20 30.08.2019
2842 Mist 16 1022 87 10000 2.1 200 07:42 30.08.2019
2843 Mist 16 1022 93 6000 0.5 0 07:23 30.08.2019
2844 Mist 16 1022 93 10000 2.6 260 06:47 30.08.2019
2845 Mist 16 1022 100 5000 0.5 180 06:29 30.08.2019
2846 Fog 16 1021 87 10000 1.5 230 05:46 30.08.2019
2847 Fog 17 1022 87 10000 0.5 290 03:59 30.08.2019
2848 Fog 17 1022 93 10000 1.93 252.513 03:38 30.08.2019
2849 Fog 17 1022 93 10000 1.93 252.513 03:38 30.08.2019
2850 Fog 17 1022 93 10000 1.39 252.074 03:18 30.08.2019
2851 Fog 17 1022 87 10000 0.5 0 02:29 30.08.2019
2852 Fog 18 1021 88 10000 1.5 290 01:29 30.08.2019
2853 Fog 18 1021 88 10000 1 220 00:38 30.08.2019
2854 Fog 18 1021 88 10000 0.5 0 00:18 30.08.2019
2855 Clear 18 1021 88 10000 0.5 230 23:41 29.08.2019
2856 Clear 19 1021 88 10000 0.5 230 23:21 29.08.2019
2857 Clouds 19 1020 82 10000 2.6 180 22:44 29.08.2019
2858 Clear 20 1020 88 10000 0.5 180 22:25 29.08.2019
2859 Clear 20 1020 82 10000 0.5 0 21:56 29.08.2019
2860 Clear 21 1020 77 10000 0.5 0 21:38 29.08.2019
2861 Clear 21 1020 73 10000 0.5 0 21:20 29.08.2019
2862 Clear 22 1020 73 10000 0.5 0 20:43 29.08.2019
2863 Clear 23 1020 68 10000 1.5 300 20:21 29.08.2019
2864 Clouds 23 1019 64 10000 2.1 290 19:59 29.08.2019
2865 Clouds 24 1019 64 10000 2.1 290 19:40 29.08.2019
2866 Clouds 24 1019 60 10000 3.6 300 19:21 29.08.2019
2867 Clouds 24 1019 60 10000 4.1 290 18:44 29.08.2019
2868 Clouds 25 1019 60 10000 5.7 300 18:21 29.08.2019
2869 Clouds 25 1019 64 10000 4.1 300 17:57 29.08.2019
2870 Clouds 25 1019 64 10000 4.1 300 17:39 29.08.2019
2871 Clouds 25 1019 57 10000 4.1 280 17:19 29.08.2019
2872 Clouds 26 1019 61 10000 4.6 270 16:57 29.08.2019
2873 Clouds 26 1019 61 10000 4.6 270 16:39 29.08.2019
2874 Clouds 26 1018 61 10000 5.7 250 16:21 29.08.2019
2875 Clouds 25 1019 65 10000 5.1 250 15:39 29.08.2019
2876 Clouds 25 1019 65 10000 5.1 250 15:21 29.08.2019
2877 Clouds 25 1018 61 10000 4.1 240 14:50 29.08.2019
2878 Clouds 24 1018 64 10000 4.1 280 14:26 29.08.2019
2879 Clouds 24 1018 73 10000 4.6 270 13:59 29.08.2019
2880 Clouds 24 1018 73 10000 3.6 270 13:41 29.08.2019
2881 Clear 23 1018 73 10000 3.1 220 13:21 29.08.2019
2882 Clouds 23 1018 69 10000 4.6 270 12:59 29.08.2019
2883 Clouds 22 1018 78 10000 3.6 210 12:41 29.08.2019
2884 Clear 21 1018 83 10000 2.1 190 12:22 29.08.2019
2885 Rain 21 1018 83 10000 2.1 190 11:59 29.08.2019
2886 Rain 20 1018 88 10000 3.1 170 11:40 29.08.2019
2887 Rain 20 1018 88 10000 3.1 170 11:20 29.08.2019
2888 Rain 20 1018 93 10000 1.5 160 11:20 29.08.2019
2889 Rain 19 1017 88 10000 4.1 200 10:45 29.08.2019
2890 Rain 19 1018 93 7000 1 0 10:25 29.08.2019
2891 Rain 18 1017 93 8000 3.1 210 09:57 29.08.2019
2892 Rain 19 1017 88 10000 2.1 50 09:39 29.08.2019
2893 Rain 19 1017 88 10000 2.1 50 09:18 29.08.2019
2894 Rain 18 1017 100 10000 1.5 330 08:41 29.08.2019
2895 Rain 18 1017 100 10000 1.5 330 08:23 29.08.2019
2896 Rain 18 1017 93 8000 4.6 290 07:53 29.08.2019
2897 Fog 18 1016 93 7000 2.1 270 07:33 29.08.2019
2898 Fog 17 1015 93 7000 0.5 180 06:56 29.08.2019
2899 Mist 17 1015 100 4500 1.5 130 06:37 29.08.2019
2900 Fog 17 1015 100 7000 1 0 05:51 29.08.2019
2901 Fog 17 1015 93 7000 3.6 280 05:21 29.08.2019
2902 Mist 17 1014 93 7000 0.5 280 04:47 29.08.2019
2903 Mist 18 1014 93 7000 1 240 04:26 29.08.2019
2904 Clear 19 1015 93 10000 0.5 0 01:54 29.08.2019
2905 Clouds 19 1015 93 10000 1 0 01:35 29.08.2019
2906 Rain 20 1015 88 10000 1.5 0 00:47 29.08.2019
2907 Rain 20 1015 88 10000 1.5 0 00:23 29.08.2019
2908 Rain 21 1015 68 10000 2.1 190 23:57 28.08.2019
2909 Rain 21 1014 68 10000 2.6 330 23:38 28.08.2019
2910 Rain 21 1014 68 10000 2.6 330 23:19 28.08.2019
2911 Thunderstorm 22 1014 64 10000 1 0 22:39 28.08.2019
2912 Clear 22 1014 64 10000 1 0 22:19 28.08.2019
2913 Clear 22 1014 60 10000 1 0 21:59 28.08.2019
2914 Fog 22 1013 60 10000 2.1 160 21:41 28.08.2019
2915 Fog 22 1013 60 10000 2.1 160 21:22 28.08.2019
2916 Clear 24 1013 57 10000 0.5 0 20:56 28.08.2019
2917 Clouds 24 1013 64 10000 1 0 20:38 28.08.2019
2918 Rain 25 1013 57 10000 1 0 20:19 28.08.2019
2919 Rain 26 1013 53 10000 1 0 19:42 28.08.2019
2920 Rain 26 1013 53 10000 1 0 19:21 28.08.2019
2921 Thunderstorm 26 1013 53 10000 2.6 270 18:57 28.08.2019
2922 Rain 26 1013 57 10000 5.7 300 18:37 28.08.2019
2923 Rain 29 1012 64 10000 5.1 350 18:18 28.08.2019
2924 Thunderstorm 30 1013 39 10000 7.2 260 17:37 28.08.2019
2925 Thunderstorm 30 1013 39 10000 7.2 260 17:19 28.08.2019
2926 Thunderstorm 31 1012 38 10000 6.2 220 16:44 28.08.2019
2927 Thunderstorm 32 1012 31 10000 2.1 270 16:23 28.08.2019
2928 Rain 32 1012 27 10000 1.5 0 15:59 28.08.2019
2929 Thunderstorm 33 1012 26 10000 2.6 0 15:37 28.08.2019
2930 Thunderstorm 33 1012 33 10000 3.1 220 15:19 28.08.2019
2931 Thunderstorm 33 1012 33 10000 3.1 220 14:57 28.08.2019
2932 Clear 32 1013 31 10000 1 0 14:38 28.08.2019
2933 Clear 32 1013 31 10000 1 0 14:20 28.08.2019
2934 Clear 32 1013 36 10000 2.6 240 13:58 28.08.2019
2935 Clear 31 1013 35 10000 1 0 13:37 28.08.2019
2936 Clear 31 1013 40 10000 1.5 0 13:19 28.08.2019
2937 Clear 30 1013 42 10000 2.6 220 12:42 28.08.2019
2938 Clear 30 1013 42 10000 2.6 220 12:23 28.08.2019
2939 Clear 29 1013 48 10000 1.5 270 11:55 28.08.2019
2940 Clear 28 1013 48 10000 1.5 210 11:36 28.08.2019
2941 Clear 27 1013 54 10000 1.5 180 11:18 28.08.2019
2942 Clear 26 1013 57 10000 2.1 160 10:41 28.08.2019
2943 Clear 25 1013 57 10000 2.1 160 10:21 28.08.2019
2944 Clear 24 1013 61 10000 2.1 170 09:58 28.08.2019
2945 Clear 24 1013 61 10000 2.1 170 09:58 28.08.2019
2946 Clear 23 1013 64 10000 1.5 160 09:40 28.08.2019
2947 Clear 22 1013 64 10000 1.5 140 09:18 28.08.2019
2948 Clear 21 1014 68 10000 1 0 08:39 28.08.2019
2949 Clear 20 1014 68 10000 1 0 08:20 28.08.2019
2950 Clear 19 1013 82 10000 1 0 07:42 28.08.2019
2951 Clear 18 1013 82 10000 1 0 07:24 28.08.2019
2952 Fog 18 1013 82 10000 1 120 06:51 28.08.2019
2953 Fog 18 1014 88 9000 1 70 06:32 28.08.2019
2954 Clear 18 1013 77 10000 1.5 90 05:42 28.08.2019
2955 Clear 19 1014 72 10000 1.5 110 02:48 28.08.2019
2956 Clear 20 1015 73 10000 2.1 100 01:32 28.08.2019
2957 Clear 20 1015 77 10000 2.1 110 00:59 28.08.2019
2958 Clouds 20 1015 68 10000 2.1 70 00:40 28.08.2019
2959 Clear 21 1015 68 10000 2.6 100 23:59 27.08.2019
2960 Clear 22 1015 64 10000 1.5 110 23:39 27.08.2019
2961 Clear 22 1015 64 10000 1.5 110 23:21 27.08.2019
2962 Clouds 23 1014 57 10000 2.1 150 22:42 27.08.2019
2963 Clear 23 1015 57 10000 2.6 110 22:23 27.08.2019
2964 Clear 23 1015 53 10000 3.1 100 21:57 27.08.2019
2965 Clear 23 1015 50 10000 3.6 90 21:39 27.08.2019
2966 Clear 24 1015 50 10000 3.6 90 21:21 27.08.2019
2967 Clear 25 1014 47 10000 2.6 100 20:59 27.08.2019
2968 Rain 26 1014 39 10000 1.5 130 20:40 27.08.2019
2969 Rain 26 1015 39 10000 3.1 150 20:20 27.08.2019
2970 Rain 26 1015 39 10000 3.1 150 19:56 27.08.2019
2971 Rain 26 1014 54 10000 4.1 140 19:38 27.08.2019
2972 Thunderstorm 28 1014 45 10000 3.6 150 19:20 27.08.2019
2973 Thunderstorm 28 1014 42 10000 3.6 130 18:42 27.08.2019
2974 Clear 30 1014 40 10000 6.2 90 18:19 27.08.2019
2975 Thunderstorm 30 1014 40 10000 6.2 90 17:56 27.08.2019
2976 Thunderstorm 30 1014 38 10000 3.6 100 17:38 27.08.2019
2977 Thunderstorm 31 1014 38 10000 3.6 100 17:18 27.08.2019
2978 Thunderstorm 32 1014 38 10000 5.1 100 16:46 27.08.2019
2979 Thunderstorm 32 1015 38 10000 5.1 90 16:27 27.08.2019
2980 Clear 31 1015 40 10000 3.6 90 15:57 27.08.2019
2981 Clear 32 1015 38 10000 3.1 110 15:39 27.08.2019
2982 Clear 32 1015 38 10000 3.1 110 15:20 27.08.2019
2983 Clear 32 1016 38 10000 2.6 0 14:43 27.08.2019
2984 Clear 32 1016 38 10000 2.6 0 14:24 27.08.2019
2985 Clear 31 1016 40 10000 2.6 0 13:57 27.08.2019
2986 Clear 31 1017 42 10000 2.1 120 13:38 27.08.2019
2987 Clear 31 1017 42 10000 2.1 120 13:20 27.08.2019
2988 Clear 30 1017 48 10000 3.1 130 12:41 27.08.2019
2989 Clear 29 1017 48 10000 3.1 130 12:20 27.08.2019
2990 Clear 29 1017 48 10000 3.1 120 11:56 27.08.2019
2991 Clear 28 1017 51 10000 3.1 110 11:37 27.08.2019
2992 Clear 27 1017 57 10000 2.6 100 11:18 27.08.2019
2993 Clear 26 1017 61 10000 2.6 100 10:40 27.08.2019
2994 Clear 25 1017 64 10000 2.6 100 10:19 27.08.2019
2995 Clear 24 1017 64 10000 2.6 100 09:54 27.08.2019
2996 Clear 23 1017 64 10000 2.6 100 09:36 27.08.2019
2997 Clear 22 1017 73 10000 3.1 90 09:18 27.08.2019
2998 Clear 20 1017 77 10000 2.1 100 08:41 27.08.2019
2999 Clear 20 1017 77 10000 2.1 100 08:41 27.08.2019
3000 Clear 20 1017 77 10000 2.1 100 08:23 27.08.2019
3001 Clear 18 1017 82 10000 3.1 90 07:41 27.08.2019
3002 Clear 18 1017 77 10000 1.5 90 07:20 27.08.2019
3003 Clear 18 1017 77 10000 1.5 90 06:55 27.08.2019
3004 Clouds 18 1017 77 10000 1.5 60 06:28 27.08.2019
3005 Clear 18 1017 72 10000 1 120 05:52 27.08.2019
3006 Clear 18 1017 72 10000 2.6 100 05:20 27.08.2019
3007 Clear 19 1017 68 10000 2.6 100 03:40 27.08.2019
3008 Clear 20 1017 60 10000 2.1 80 02:26 27.08.2019
3009 Clear 20 1017 72 10000 2.1 80 01:44 27.08.2019
3010 Clear 20 1018 60 10000 2.6 90 01:23 27.08.2019
3011 Clear 21 1017 60 10000 1.5 90 00:45 27.08.2019
3012 Clear 21 1017 60 10000 1.5 90 00:25 27.08.2019
3013 Clear 23 1017 53 10000 1.5 100 23:40 26.08.2019
3014 Clear 23 1017 53 10000 1.5 100 23:21 26.08.2019
3015 Clear 24 1018 50 10000 2.1 110 22:54 26.08.2019
3016 Clear 24 1017 53 10000 2.1 70 22:36 26.08.2019
3017 Clear 24 1017 53 10000 2.1 70 22:36 26.08.2019
3018 Clear 24 1017 53 10000 2.1 70 22:18 26.08.2019
3019 Clear 24 1017 53 10000 2.1 70 22:18 26.08.2019
3020 Clear 25 1017 50 10000 2.6 70 21:38 26.08.2019
3021 Clear 26 1017 47 10000 1.5 80 21:20 26.08.2019
3022 Clear 27 1017 44 10000 1 0 20:57 26.08.2019
3023 Clear 28 1017 44 10000 1 0 20:38 26.08.2019
3024 Clear 29 1017 42 10000 2.6 80 20:19 26.08.2019
3025 Clear 30 1017 35 10000 3.1 90 19:44 26.08.2019
3026 Clear 31 1017 33 10000 4.1 80 19:20 26.08.2019
3027 Clear 31 1017 31 10000 3.6 90 18:59 26.08.2019
3028 Clear 32 1017 31 10000 3.6 90 18:38 26.08.2019
3029 Clear 32 1017 31 10000 3.6 90 18:38 26.08.2019
3030 Clear 32 1017 31 10000 3.6 100 18:19 26.08.2019
3031 Clear 32 1017 31 10000 3.6 100 18:19 26.08.2019
3032 Clear 32 1017 29 10000 3.6 80 17:44 26.08.2019
3033 Clouds 33 1017 29 10000 3.1 140 17:20 26.08.2019
3034 Clear 33 1017 31 10000 3.6 100 16:58 26.08.2019
3035 Clear 32 1017 31 10000 3.6 100 16:40 26.08.2019
3036 Clear 33 1018 31 10000 3.1 110 16:19 26.08.2019
3037 Clear 33 1018 31 10000 3.1 110 16:19 26.08.2019
3038 Clear 32 1018 33 10000 3.1 100 15:59 26.08.2019
3039 Clear 32 1018 33 10000 3.1 100 15:41 26.08.2019
3040 Clear 33 1018 33 10000 3.1 120 15:21 26.08.2019
3041 Clear 32 1019 35 10000 3.6 100 14:44 26.08.2019
3042 Clear 32 1019 35 10000 3.6 100 14:23 26.08.2019
3043 Clear 32 1019 38 10000 5.1 90 13:57 26.08.2019
3044 Clear 31 1019 38 10000 5.1 90 13:38 26.08.2019
3045 Clear 31 1019 40 10000 4.6 90 13:19 26.08.2019
3046 Clear 31 1019 42 10000 5.1 90 12:43 26.08.2019
3047 Clear 30 1019 45 10000 4.6 90 12:23 26.08.2019
3048 Clear 29 1020 48 10000 3.6 110 11:45 26.08.2019
3049 Clear 28 1020 51 10000 3.6 110 11:27 26.08.2019
3050 Clear 27 1020 54 10000 3.6 90 10:59 26.08.2019
3051 Clear 27 1020 54 10000 3.6 90 10:41 26.08.2019
3052 Clear 26 1020 57 10000 2.6 90 10:19 26.08.2019
3053 Clear 24 1020 60 10000 2.6 100 09:47 26.08.2019
3054 Clear 24 1020 60 10000 2.6 100 09:47 26.08.2019
3055 Clear 23 1019 64 10000 3.1 90 09:26 26.08.2019
3056 Clear 22 1019 68 10000 2.6 100 08:59 26.08.2019
3057 Clear 21 1019 68 10000 2.6 100 08:41 26.08.2019
3058 Clear 20 1019 72 10000 3.1 80 08:22 26.08.2019
3059 Clear 19 1019 77 10000 3.6 80 07:46 26.08.2019
3060 Fog 18 1019 77 10000 2.6 90 07:25 26.08.2019
3061 Fog 18 1019 77 10000 2.1 90 06:59 26.08.2019
3062 Clear 18 1019 77 10000 2.1 90 06:39 26.08.2019
3063 Clear 18 1019 77 10000 1.5 70 06:20 26.08.2019
3064 Clear 18 1019 77 10000 1.5 90 05:48 26.08.2019
3065 Clear 19 1019 77 10000 3.1 100 04:22 26.08.2019
3066 Clear 21 1019 73 10000 3.6 90 02:42 26.08.2019
3067 Clear 22 1019 69 10000 2.6 80 01:25 26.08.2019
3068 Clear 22 1019 69 10000 1.5 60 00:45 26.08.2019
3069 Clear 23 1019 69 10000 1.5 50 00:27 26.08.2019
3070 Clear 23 1019 64 10000 0.5 0 23:46 25.08.2019
3071 Clear 24 1019 64 10000 0.5 100 23:21 25.08.2019
3072 Clear 24 1019 64 10000 1 0 22:59 25.08.2019
3073 Clear 24 1019 64 10000 1 0 22:40 25.08.2019
3074 Clear 24 1019 64 10000 0.5 0 22:21 25.08.2019
3075 Clear 24 1019 64 10000 1 0 21:58 25.08.2019
3076 Clear 26 1019 64 10000 1 0 21:40 25.08.2019
3077 Clear 26 1019 69 10000 1 340 21:19 25.08.2019
3078 Clear 27 1019 61 10000 1 0 20:56 25.08.2019
3079 Clear 28 1019 61 10000 1 0 20:38 25.08.2019
3080 Clear 28 1019 58 10000 1.5 360 20:19 25.08.2019
3081 Clear 30 1019 51 10000 1.5 10 19:41 25.08.2019
3082 Clear 30 1018 45 10000 1.5 10 19:23 25.08.2019
3083 Clear 30 1018 40 10000 2.1 30 18:59 25.08.2019
3084 Clear 31 1018 40 10000 2.6 70 18:40 25.08.2019
3085 Clear 31 1018 40 10000 2.6 70 18:22 25.08.2019
3086 Clear 31 1018 40 10000 1.5 0 17:59 25.08.2019
3087 Clear 31 1018 40 10000 1.5 0 17:40 25.08.2019
3088 Clear 31 1018 40 10000 2.6 50 17:20 25.08.2019
3089 Clear 31 1018 38 10000 2.1 120 16:41 25.08.2019
3090 Clear 31 1019 40 10000 2.1 210 16:23 25.08.2019
3091 Clear 31 1019 38 10000 2.1 100 15:56 25.08.2019
3092 Clear 31 1019 38 10000 2.1 100 15:37 25.08.2019
3093 Clear 31 1019 38 10000 2.1 100 15:37 25.08.2019
3094 Clear 30 1019 40 10000 2.1 80 15:19 25.08.2019
3095 Clear 30 1019 42 10000 3.1 80 14:39 25.08.2019
3096 Clear 30 1019 42 10000 2.6 0 14:21 25.08.2019
3097 Clear 30 1019 45 10000 2.1 0 13:45 25.08.2019
3098 Clear 29 1020 45 10000 1.5 0 13:22 25.08.2019
3099 Clear 29 1020 45 10000 2.6 90 12:56 25.08.2019
3100 Clear 28 1020 45 10000 2.6 90 12:38 25.08.2019
3101 Clear 27 1020 47 10000 2.1 80 12:20 25.08.2019
3102 Clear 27 1020 50 10000 2.1 90 11:55 25.08.2019
3103 Clear 26 1020 50 10000 2.1 90 11:36 25.08.2019
3104 Clear 26 1020 50 10000 2.1 90 11:36 25.08.2019
3105 Clear 26 1020 53 10000 2.1 80 11:18 25.08.2019
3106 Clear 26 1020 53 10000 2.1 80 11:18 25.08.2019
3107 Clear 24 1020 53 10000 2.1 80 10:40 25.08.2019
3108 Clear 23 1020 56 10000 2.6 80 10:21 25.08.2019
3109 Clear 22 1020 60 10000 2.6 90 09:57 25.08.2019
3110 Clear 22 1020 60 10000 2.6 90 09:39 25.08.2019
3111 Clear 21 1020 64 10000 2.6 90 09:20 25.08.2019
3112 Clear 19 1020 68 10000 1.5 80 08:42 25.08.2019
3113 Clear 18 1020 72 10000 2.1 90 08:22 25.08.2019
3114 Clear 17 1020 72 10000 1.5 90 07:45 25.08.2019
3115 Clear 16 1020 77 10000 1.5 90 07:23 25.08.2019
3116 Clear 15 1020 77 10000 1.5 100 06:31 25.08.2019
3117 Clear 16 1020 72 10000 3.1 80 04:53 25.08.2019
3118 Clear 17 1020 72 10000 3.1 80 03:37 25.08.2019
3119 Clear 18 1020 72 10000 2.1 80 02:40 25.08.2019
3120 Clear 18 1020 68 10000 1.5 80 01:42 25.08.2019
3121 Clear 19 1020 64 10000 2.6 80 00:40 25.08.2019
3122 Clear 20 1020 64 10000 2.1 100 00:21 25.08.2019
3123 Clear 20 1020 60 10000 2.1 100 23:52 24.08.2019
3124 Clear 20 1020 64 10000 2.6 90 23:23 24.08.2019
3125 Clear 20 1020 64 10000 2.6 90 23:23 24.08.2019
3126 Clear 20 1020 60 10000 2.6 70 22:56 24.08.2019
3127 Clear 21 1020 60 10000 2.6 70 22:38 24.08.2019
3128 Clear 21 1020 60 10000 2.1 70 22:19 24.08.2019
3129 Clear 22 1020 53 10000 2.6 70 21:56 24.08.2019
3130 Clear 23 1020 53 10000 2.6 70 21:38 24.08.2019
3131 Clear 24 1020 49 10000 1.5 60 21:19 24.08.2019
3132 Clear 24 1020 47 10000 2.1 70 20:55 24.08.2019
3133 Clear 25 1020 47 10000 2.1 70 20:37 24.08.2019
3134 Clear 26 1020 41 10000 3.6 80 20:18 24.08.2019
3135 Clear 27 1020 37 10000 4.6 90 19:55 24.08.2019
3136 Clear 28 1020 37 10000 4.6 90 19:37 24.08.2019
3137 Clear 28 1020 34 10000 5.1 90 19:18 24.08.2019
3138 Clear 29 1021 34 10000 3.6 100 18:41 24.08.2019
3139 Clear 29 1021 32 10000 4.6 100 18:21 24.08.2019
3140 Clear 29 1021 32 10000 4.1 110 17:44 24.08.2019
3141 Clear 29 1021 32 10000 4.1 130 17:24 24.08.2019
3142 Clear 29 1021 32 10000 4.1 90 16:51 24.08.2019
3143 Clear 29 1021 35 10000 3.6 100 16:21 24.08.2019
3144 Clear 29 1022 34 10000 5.7 100 15:59 24.08.2019
3145 Clear 29 1022 34 10000 5.7 100 15:59 24.08.2019
3146 Clear 29 1022 34 10000 5.7 100 15:40 24.08.2019
3147 Clear 29 1022 37 10000 5.1 110 15:22 24.08.2019
3148 Clear 28 1022 37 10000 5.1 90 14:43 24.08.2019
3149 Clear 28 1022 37 10000 5.1 100 14:22 24.08.2019
3150 Clear 28 1023 39 10000 4.6 90 13:57 24.08.2019
3151 Clear 28 1023 39 10000 4.6 90 13:57 24.08.2019
3152 Clear 27 1023 39 10000 4.6 90 13:39 24.08.2019
3153 Clear 27 1023 39 10000 3.6 100 13:21 24.08.2019
3154 Clear 27 1023 41 10000 5.7 100 12:55 24.08.2019
3155 Clear 27 1023 41 10000 5.7 100 12:37 24.08.2019
3156 Clear 26 1023 41 10000 5.7 100 12:19 24.08.2019
3157 Clear 26 1024 44 10000 3.6 90 11:43 24.08.2019
3158 Clear 25 1024 50 10000 2.6 80 11:22 24.08.2019
3159 Clear 24 1024 49 10000 3.1 100 10:50 24.08.2019
3160 Clear 21 1024 56 10000 3.1 100 10:24 24.08.2019
3161 Clear 21 1024 63 10000 2.6 100 09:45 24.08.2019
3162 Clear 19 1024 68 10000 2.6 80 09:22 24.08.2019
3163 Clear 18 1024 72 10000 2.1 90 08:58 24.08.2019
3164 Clear 16 1024 72 10000 2.1 90 08:40 24.08.2019
3165 Clear 16 1024 82 10000 3.1 90 08:21 24.08.2019
3166 Clear 15 1024 82 10000 2.6 90 07:49 24.08.2019
3167 Clear 13 1024 82 10000 1.5 80 07:27 24.08.2019
3168 Clear 13 1024 82 10000 0.5 0 06:29 24.08.2019
3169 Clear 13 1024 82 10000 0.5 0 05:42 24.08.2019
3170 Clear 14 1024 77 10000 1 100 04:46 24.08.2019
3171 Clear 14 1024 72 10000 1.5 110 03:37 24.08.2019
3172 Clear 16 1024 67 10000 3.1 90 02:26 24.08.2019
3173 Clear 17 1024 63 10000 4.1 50 01:31 24.08.2019
3174 Clear 17 1024 63 10000 3.6 60 00:53 24.08.2019
3175 Clear 18 1024 63 10000 3.6 50 00:26 24.08.2019
3176 Clear 18 1024 59 10000 3.6 40 23:58 23.08.2019
3177 Clear 18 1024 59 10000 3.6 40 23:37 23.08.2019
3178 Clear 19 1024 56 10000 3.6 40 23:18 23.08.2019
3179 Clear 19 1024 52 10000 4.1 30 22:42 23.08.2019
3180 Clear 20 1024 52 10000 3.6 20 22:23 23.08.2019
3181 Clear 21 1024 52 10000 3.1 20 21:40 23.08.2019
3182 Clear 22 1024 49 10000 3.1 20 21:21 23.08.2019
3183 Clear 23 1024 41 10000 3.1 10 20:57 23.08.2019
3184 Clear 24 1024 41 10000 3.1 10 20:38 23.08.2019
3185 Clear 25 1024 38 10000 3.6 10 20:19 23.08.2019
3186 Clear 25 1024 38 10000 3.6 10 20:19 23.08.2019
3187 Clear 26 1024 36 10000 2.6 350 19:43 23.08.2019
3188 Clear 27 1024 30 10000 1.5 10 19:18 23.08.2019
3189 Clear 28 1024 28 10000 1.5 0 18:46 23.08.2019
3190 Clear 28 1024 28 10000 0.5 0 18:28 23.08.2019
3191 Clear 28 1024 28 10000 1.5 0 17:56 23.08.2019
3192 Clear 29 1024 28 10000 1.5 0 17:38 23.08.2019
3193 Clear 29 1024 28 10000 1.5 0 17:20 23.08.2019
3194 Clear 28 1025 30 10000 2.1 300 16:47 23.08.2019
3195 Clear 28 1025 30 10000 2.1 280 16:29 23.08.2019
3196 Clear 28 1025 30 10000 1.5 0 15:56 23.08.2019
3197 Clear 28 1025 30 10000 1.5 0 15:37 23.08.2019
3198 Clear 28 1025 32 10000 1.5 320 15:19 23.08.2019
3199 Clear 28 1025 32 10000 2.1 250 14:41 23.08.2019
3200 Clear 28 1026 32 10000 2.1 0 14:21 23.08.2019
3201 Clear 28 1026 32 10000 2.1 280 13:57 23.08.2019
3202 Clear 27 1026 32 10000 2.1 280 13:39 23.08.2019
3203 Clear 27 1026 34 10000 1 0 13:20 23.08.2019
3204 Clear 27 1026 36 10000 1 330 12:57 23.08.2019
3205 Clear 26 1026 36 10000 1 330 12:38 23.08.2019
3206 Clear 25 1026 41 10000 1.5 320 12:20 23.08.2019
3207 Clear 25 1026 41 10000 1 0 11:55 23.08.2019
3208 Clear 25 1026 41 10000 1 0 11:55 23.08.2019
3209 Clear 24 1026 41 10000 1 0 11:36 23.08.2019
3210 Clear 23 1026 44 10000 1 0 11:18 23.08.2019
3211 Clear 22 1026 53 10000 0.5 0 10:42 23.08.2019
3212 Clear 21 1026 60 10000 1 0 10:21 23.08.2019
3213 Clear 20 1026 63 10000 1 0 09:56 23.08.2019
3214 Clear 18 1026 63 10000 1 0 09:38 23.08.2019
3215 Clear 18 1026 68 10000 1 0 09:18 23.08.2019
3216 Clear 16 1026 67 10000 0.5 0 08:40 23.08.2019
3217 Clouds 14 1026 76 10000 0.61 245.291 08:19 23.08.2019
3218 Fog 12 1026 82 10000 0.5 120 07:43 23.08.2019
3219 Fog 11 1026 87 10000 1 0 07:24 23.08.2019
3220 Fog 11 1026 87 10000 0.61 245.291 06:57 23.08.2019
3221 Fog 11 1026 87 10000 0.61 245.291 06:37 23.08.2019
3222 Fog 10 1026 87 10000 0.5 0 06:19 23.08.2019
3223 Clear 11 1025 81 10000 0.5 0 05:33 23.08.2019
3224 Clear 12 1025 87 10000 0.5 0 04:20 23.08.2019
3225 Clear 12 1025 82 10000 0.5 0 02:53 23.08.2019
3226 Clear 13 1025 76 10000 0.5 0 02:22 23.08.2019
3227 Clear 14 1025 76 10000 1.73 320.381 01:39 23.08.2019
3228 Clear 14 1025 76 10000 0.5 0 00:45 23.08.2019
3229 Clear 15 1025 76 10000 0.5 0 00:19 23.08.2019
3230 Clear 15 1025 67 10000 0.5 0 23:47 22.08.2019
3231 Clear 16 1025 59 10000 0.5 0 23:24 22.08.2019
3232 Clear 17 1025 55 10000 0.5 350 22:56 22.08.2019
3233 Clear 17 1025 55 10000 0.5 350 22:38 22.08.2019
3234 Clear 18 1025 52 10000 0.5 0 22:19 22.08.2019
3235 Clear 19 1025 55 10000 0.5 90 21:55 22.08.2019
3236 Clear 20 1025 55 10000 0.5 90 21:36 22.08.2019
3237 Clear 20 1024 49 10000 1.33 187.612 21:18 22.08.2019
3238 Clear 21 1024 36 10000 1 0 20:54 22.08.2019
3239 Clear 21 1024 36 10000 1 0 20:54 22.08.2019
3240 Clear 23 1024 36 10000 1 0 20:36 22.08.2019
3241 Clear 24 1024 33 10000 1.5 200 20:18 22.08.2019
3242 Clear 27 1024 31 10000 2.1 220 19:40 22.08.2019
3243 Clear 26 1024 31 10000 1 0 19:21 22.08.2019
3244 Clear 26 1024 30 10000 2.1 230 18:59 22.08.2019
3245 Clear 26 1024 30 10000 2.1 230 18:40 22.08.2019
3246 Clear 27 1024 30 10000 2.6 180 18:20 22.08.2019
3247 Clear 27 1024 28 10000 2.1 140 17:58 22.08.2019
3248 Clear 27 1024 28 10000 2.1 140 17:58 22.08.2019
3249 Clear 27 1024 28 10000 2.1 140 17:39 22.08.2019
3250 Clear 27 1025 29 0 3.6 200 17:19 22.08.2019
3251 Clear 27 1025 26 10000 3.1 190 16:56 22.08.2019
3252 Clear 27 1025 26 10000 3.1 190 16:37 22.08.2019
3253 Clear 27 1025 29 10000 2.6 190 16:19 22.08.2019
3254 Clear 27 1025 29 10000 4.1 170 15:42 22.08.2019
3255 Clear 27 1025 29 10000 4.1 220 15:24 22.08.2019
3256 Clear 26 1025 29 10000 4.1 220 15:24 22.08.2019
3257 Clear 27 1025 29 10000 4.1 220 15:24 22.08.2019
3258 Clear 26 1025 29 10000 4.6 190 14:59 22.08.2019
3259 Clear 26 1025 29 10000 4.6 190 14:59 22.08.2019
3260 Clear 26 1025 29 10000 4.6 190 14:59 22.08.2019
3261 Clear 26 1025 29 10000 4.6 190 14:59 22.08.2019
3262 Clear 26 1025 29 10000 4.6 190 14:41 22.08.2019
3263 Clear 26 1025 31 10000 4.1 200 14:22 22.08.2019
3264 Clear 26 1026 31 10000 4.6 170 13:58 22.08.2019
3265 Clear 25 1026 31 10000 4.6 170 13:39 22.08.2019
3266 Clear 25 1026 31 10000 3.6 190 13:19 22.08.2019
3267 Clear 25 1026 33 10000 4.6 200 12:56 22.08.2019
3268 Clear 25 1026 33 10000 4.6 200 12:38 22.08.2019
3269 Clear 24 1026 38 10000 4.1 180 12:19 22.08.2019
3270 Clear 23 1026 38 10000 3.1 170 11:42 22.08.2019
3271 Clear 23 1026 43 10000 3.6 180 11:20 22.08.2019
3272 Clear 22 1027 46 10000 2.6 170 10:58 22.08.2019
3273 Clear 20 1027 46 10000 2.6 170 10:40 22.08.2019
3274 Clear 20 1027 49 10000 3.1 170 10:21 22.08.2019
3275 Clear 19 1026 48 10000 3.6 160 09:56 22.08.2019
3276 Clear 17 1026 48 10000 3.6 160 09:38 22.08.2019
3277 Clear 16 1027 55 10000 3.1 160 09:20 22.08.2019
3278 Clear 15 1026 63 10000 2.1 120 08:42 22.08.2019
3279 Clear 13 1027 81 10000 2.1 100 08:22 22.08.2019
3280 Clear 12 1027 81 10000 2.1 100 07:58 22.08.2019
3281 Clear 10 1027 87 10000 3.1 90 07:39 22.08.2019
3282 Clear 10 1027 87 10000 3.1 90 07:19 22.08.2019
3283 Clear 10 1027 81 10000 2.6 90 06:47 22.08.2019
3284 Clear 9 1027 87 10000 1.5 80 06:22 22.08.2019
3285 Clear 9 1027 81 10000 1.5 70 05:29 22.08.2019
3286 Clear 10 1027 81 10000 1.5 100 03:44 22.08.2019
3287 Clear 11 1027 76 10000 1 80 02:37 22.08.2019
3288 Clear 11 1028 81 10000 1.5 110 01:39 22.08.2019
3289 Clear 12 1028 71 10000 1 80 00:57 22.08.2019
3290 Clear 12 1028 71 10000 1 80 00:39 22.08.2019
3291 Clear 13 1028 67 10000 0.5 90 00:20 22.08.2019
3292 Clear 13 1028 67 10000 1.5 80 23:42 21.08.2019
3293 Clear 14 1028 67 10000 1 70 23:24 21.08.2019
3294 Clear 14 1028 67 10000 0.5 20 22:58 21.08.2019
3295 Clear 15 1028 67 10000 0.5 20 22:39 21.08.2019
3296 Clear 15 1028 67 10000 1 90 22:20 21.08.2019
3297 Clear 15 1028 59 10000 1 0 21:56 21.08.2019
3298 Clear 16 1028 59 10000 1 0 21:38 21.08.2019
3299 Clear 17 1027 52 10000 1 80 21:19 21.08.2019
3300 Clear 18 1027 52 10000 1 0 20:56 21.08.2019
3301 Clear 19 1027 52 10000 1 0 20:37 21.08.2019
3302 Clear 19 1027 52 10000 1.5 340 20:19 21.08.2019
3303 Clear 21 1027 43 10000 2.1 300 19:42 21.08.2019
3304 Clear 21 1027 37 10000 2.6 300 19:24 21.08.2019
3305 Clear 22 1027 37 10000 3.6 290 18:57 21.08.2019
3306 Clear 22 1027 37 10000 3.6 290 18:38 21.08.2019
3307 Clear 22 1028 35 10000 3.6 280 18:20 21.08.2019
3308 Clear 22 1028 37 10000 1.5 230 17:45 21.08.2019
3309 Clear 22 1028 37 10000 3.1 280 17:22 21.08.2019
3310 Clear 23 1027 37 10000 3.6 300 16:58 21.08.2019
3311 Clear 22 1027 37 10000 3.6 300 16:39 21.08.2019
3312 Clear 22 1028 37 10000 2.1 300 16:20 21.08.2019
3313 Clear 22 1028 40 10000 3.1 270 15:56 21.08.2019
3314 Clear 22 1028 40 10000 3.1 270 15:38 21.08.2019
3315 Clear 21 1028 37 10000 3.1 270 15:19 21.08.2019
3316 Clear 21 1028 37 10000 3.1 270 15:19 21.08.2019
3317 -273 0 0 0 0 0 14:55 21.08.2019
3318 Clear 21 1028 40 10000 3.1 250 14:37 21.08.2019
3319 Clear 21 1028 40 10000 3.6 290 14:18 21.08.2019
3320 Clouds 21 1028 43 10000 4.1 270 13:43 21.08.2019
3321 Clouds 21 1028 43 10000 4.1 270 13:43 21.08.2019
3322 Clouds 21 1028 46 10000 3.6 270 13:20 21.08.2019
3323 Clouds 20 1028 49 10000 4.6 290 12:57 21.08.2019
3324 Clouds 20 1028 49 10000 4.6 290 12:39 21.08.2019
3325 Clouds 19 1029 52 10000 4.1 280 12:19 21.08.2019
3326 Clouds 19 1028 63 10000 3.6 280 11:45 21.08.2019
3327 Clouds 18 1029 67 10000 3.1 280 11:24 21.08.2019
3328 Clouds 18 1029 67 10000 4.1 290 10:59 21.08.2019
3329 Clouds 17 1029 67 10000 4.1 290 10:40 21.08.2019
3330 Clouds 17 1029 72 10000 3.1 260 10:22 21.08.2019
3331 Clear 16 1028 77 10000 3.1 260 09:58 21.08.2019
3332 Clear 16 1028 77 10000 3.1 260 09:40 21.08.2019
3333 Clear 15 1028 82 10000 2.6 260 09:21 21.08.2019
3334 Fog 14 1028 87 10000 2.6 250 08:50 21.08.2019
3335 Fog 13 1028 87 10000 1 0 08:26 21.08.2019
3336 Fog 12 1028 100 3000 1 240 07:46 21.08.2019
3337 Fog 11 1027 93 10000 1.5 250 07:26 21.08.2019
3338 Fog 11 1027 93 10000 1 0 06:59 21.08.2019
3339 Fog 11 1027 93 10000 1 0 06:41 21.08.2019
3340 Fog 11 1027 87 10000 2.1 260 06:18 21.08.2019
3341 Fog 11 1026 87 10000 3.6 260 05:29 21.08.2019
3342 Fog 12 1026 93 10000 3.1 260 04:42 21.08.2019
3343 Fog 13 1026 82 10000 2.6 250 02:44 21.08.2019
3344 Fog 14 1025 82 10000 2.1 250 01:34 21.08.2019
3345 Fog 15 1025 82 10000 1.5 240 00:42 21.08.2019
3346 Fog 15 1025 82 10000 2.1 290 00:21 21.08.2019
3347 Fog 15 1025 72 10000 4.1 300 23:45 20.08.2019
3348 Clear 15 1024 63 10000 3.6 290 23:20 20.08.2019
3349 Clear 16 1024 67 10000 3.6 280 22:59 20.08.2019
3350 Rain 16 1024 67 10000 3.6 280 22:40 20.08.2019
3351 Rain 16 1024 63 10000 4.1 300 22:22 20.08.2019
3352 Clear 17 1023 59 10000 2.6 210 21:58 20.08.2019
3353 Clear 18 1023 59 10000 2.6 210 21:39 20.08.2019
3354 Clear 18 1023 52 10000 2.1 210 21:20 20.08.2019
3355 Clear 19 1023 52 10000 1.5 210 20:59 20.08.2019
3356 Clear 19 1023 52 10000 1.5 210 20:59 20.08.2019
3357 Clear 19 1023 52 10000 1.5 210 20:41 20.08.2019
3358 Clear 20 1022 49 10000 1.5 230 20:22 20.08.2019
3359 Clear 20 1022 52 10000 2.1 230 19:40 20.08.2019
3360 Clouds 20 1022 46 10000 3.1 250 19:22 20.08.2019
3361 Clear 21 1022 46 10000 3.1 250 18:57 20.08.2019
3362 Clear 21 1022 46 10000 3.1 250 18:39 20.08.2019
3363 Clear 21 1022 46 10000 3.1 250 18:39 20.08.2019
3364 Clear 21 1022 43 10000 3.6 240 18:19 20.08.2019
3365 Clear 21 1022 43 10000 3.6 240 17:56 20.08.2019
3366 Clear 22 1022 40 10000 3.1 230 17:38 20.08.2019
3367 Clear 22 1022 40 10000 4.1 260 17:19 20.08.2019
3368 Clouds 21 1022 40 10000 3.6 250 16:44 20.08.2019
3369 Clear 21 1022 46 10000 3.6 260 16:25 20.08.2019
3370 Clouds 21 1022 43 10000 5.1 240 15:43 20.08.2019
3371 Clouds 21 1022 52 10000 2.6 260 15:19 20.08.2019
3372 Clouds 21 1022 52 10000 2.6 260 14:59 20.08.2019
3373 Clouds 21 1022 52 10000 3.6 250 14:41 20.08.2019
3374 Clouds 21 1022 52 10000 3.6 250 14:21 20.08.2019
3375 Clouds 21 1022 49 10000 2.6 240 13:56 20.08.2019
3376 Clouds 21 1022 52 10000 3.6 260 13:37 20.08.2019
3377 Clouds 21 1022 52 10000 3.6 260 13:19 20.08.2019
3378 Clouds 21 1022 56 10000 4.6 280 12:50 20.08.2019
3379 Clouds 20 1022 56 10000 3.1 270 12:26 20.08.2019
3380 Clouds 20 1022 55 10000 3.1 250 11:58 20.08.2019
3381 Clouds 20 1022 55 10000 3.1 250 11:58 20.08.2019
3382 Clouds 20 1022 55 10000 3.1 250 11:58 20.08.2019
3383 Clouds 20 1022 59 10000 3.1 260 11:38 20.08.2019
3384 Clouds 19 1022 59 10000 3.1 260 11:18 20.08.2019
3385 Clouds 19 1022 59 10000 4.1 260 10:56 20.08.2019
3386 Clouds 18 1021 59 10000 4.6 250 10:38 20.08.2019
3387 Clear 18 1021 67 10000 4.1 240 10:19 20.08.2019
3388 Clouds 17 1021 63 10000 4.6 270 09:43 20.08.2019
3389 Clear 17 1021 67 10000 3.1 220 09:24 20.08.2019
3390 Fog 15 1021 72 10000 1.5 190 08:43 20.08.2019
3391 Fog 15 1020 67 10000 4.6 260 08:43 20.08.2019
3392 Fog 14 1021 72 10000 1.5 190 08:25 20.08.2019
3393 Fog 13 1020 76 10000 2.6 170 07:59 20.08.2019
3394 Fog 13 1020 76 10000 2.6 170 07:59 20.08.2019
3395 Fog 13 1020 76 10000 1 0 07:41 20.08.2019
3396 Fog 12 1020 76 10000 1 0 07:22 20.08.2019
3397 Fog 12 1020 87 10000 1 0 06:56 20.08.2019
3398 Fog 11 1020 82 10000 1 0 06:24 20.08.2019
3399 Mist 11 1019 87 10000 4.6 230 05:49 20.08.2019
3400 Clear 11 1019 82 10000 0.5 0 04:57 20.08.2019
3401 Clear 12 1019 87 10000 1 0 03:52 20.08.2019
3402 Clear 13 1019 82 10000 1.5 270 02:36 20.08.2019
3403 Clear 13 1019 76 10000 2.6 270 01:36 20.08.2019
3404 Clear 14 1018 76 10000 1 210 00:51 20.08.2019
3405 Clear 14 1018 76 10000 0.5 160 00:31 20.08.2019
3406 Clear 14 1018 76 10000 0.5 210 23:57 19.08.2019
3407 Clear 14 1018 63 10000 1 0 23:38 19.08.2019
3408 Clear 15 1018 63 10000 1 0 23:18 19.08.2019
3409 Clear 15 1018 59 10000 1.5 190 22:41 19.08.2019
3410 Clear 16 1018 59 10000 1.5 190 22:22 19.08.2019
3411 Clouds 16 1018 55 10000 1.5 200 21:58 19.08.2019
3412 Clouds 18 1017 52 10000 2.1 220 21:39 19.08.2019
3413 Clouds 18 1017 52 10000 2.1 220 21:21 19.08.2019
3414 Clouds 19 1017 49 10000 2.6 260 20:59 19.08.2019
3415 Clouds 20 1017 49 10000 3.1 240 20:39 19.08.2019
3416 Clouds 20 1017 49 10000 3.1 240 20:39 19.08.2019
3417 Clouds 20 1017 46 10000 3.1 240 20:20 19.08.2019
3418 Clouds 21 1017 46 10000 3.1 240 19:58 19.08.2019
3419 Clouds 21 1017 46 10000 3.1 240 19:39 19.08.2019
3420 Clouds 22 1016 40 10000 4.1 230 19:19 19.08.2019
3421 Clouds 22 1016 40 10000 4.1 230 19:19 19.08.2019
3422 Clouds 22 1016 43 10000 4.6 230 18:44 19.08.2019
3423 Clouds 22 1016 43 10000 4.6 230 18:26 19.08.2019
3424 Clouds 23 1016 46 10000 5.7 240 17:58 19.08.2019
3425 Clouds 22 1016 46 10000 5.7 240 17:40 19.08.2019
3426 Clouds 22 1016 49 10000 4.1 240 17:20 19.08.2019
3427 Clouds 22 1016 49 10000 4.1 240 16:58 19.08.2019
3428 Clouds 22 1016 49 10000 4.1 240 16:37 19.08.2019
3429 Clouds 22 1016 43 10000 6.7 250 16:19 19.08.2019
3430 Clouds 22 1016 46 10000 7.2 250 15:55 19.08.2019
3431 Clouds 22 1016 46 10000 7.2 250 15:36 19.08.2019
3432 Clouds 22 1016 46 10000 7.2 250 15:18 19.08.2019
3433 Clouds 22 1016 49 10000 6.2 240 14:40 19.08.2019
3434 Clouds 21 1015 49 10000 6.7 250 14:21 19.08.2019
3435 Clouds 21 1015 52 10000 5.7 250 13:57 19.08.2019
3436 Clouds 21 1015 52 10000 5.7 250 13:57 19.08.2019
3437 Clouds 21 1015 52 10000 5.7 250 13:37 19.08.2019
3438 Clouds 21 1015 52 10000 5.7 250 13:37 19.08.2019
3439 Clouds 21 1015 56 10000 7.2 230 13:19 19.08.2019
3440 Clouds 20 1015 56 10000 6.7 250 12:44 19.08.2019
3441 Clouds 20 1015 59 10000 7.2 240 12:24 19.08.2019
3442 Clouds 19 1015 68 10000 5.1 240 11:57 19.08.2019
3443 Clouds 19 1015 68 10000 5.1 240 11:37 19.08.2019
3444 Clouds 19 1014 68 10000 5.1 240 11:18 19.08.2019
3445 Clouds 18 1014 72 10000 5.7 240 10:40 19.08.2019
3446 Clouds 18 1014 72 10000 6.2 230 10:19 19.08.2019
3447 Clouds 17 1014 72 10000 5.7 240 09:57 19.08.2019
3448 Clouds 17 1014 72 10000 5.7 240 09:39 19.08.2019
3449 Clouds 17 1014 72 10000 5.7 240 09:39 19.08.2019
3450 Clouds 17 1014 72 10000 6.2 230 09:21 19.08.2019
3451 Mist 16 1013 72 10000 6.2 230 08:46 19.08.2019
3452 Mist 16 1013 77 10000 5.1 230 08:25 19.08.2019
3453 Rain 15 1013 77 10000 3.1 230 07:59 19.08.2019
3454 Rain 15 1013 77 10000 3.1 230 07:40 19.08.2019
3455 Rain 15 1013 82 0 3.1 220 07:21 19.08.2019
3456 Mist 15 1012 82 10000 3.1 230 06:40 19.08.2019
3457 Rain 15 1012 82 10000 4.1 240 05:28 19.08.2019
3458 Mist 15 1012 87 10000 3.6 230 04:34 19.08.2019
3459 Mist 15 1011 87 10000 3.1 200 03:58 19.08.2019
3460 Mist 15 1010 87 10000 1.5 190 03:18 19.08.2019
3461 Fog 15 1010 93 10000 2.6 210 01:45 19.08.2019
3462 Fog 15 1010 93 10000 2.1 220 00:59 19.08.2019
3463 Clear 15 1010 93 10000 2.1 220 00:37 19.08.2019
3464 Clear 15 1010 93 10000 2.6 240 00:18 19.08.2019
3465 Clear 16 1010 93 10000 2.1 240 23:39 18.08.2019
3466 Clear 16 1009 93 10000 2.1 230 23:20 18.08.2019
3467 Clear 16 1009 93 10000 2.1 250 22:40 18.08.2019
3468 Clear 16 1009 93 10000 1.5 260 22:21 18.08.2019
3469 Clouds 16 1009 93 10000 3.1 260 21:57 18.08.2019
3470 Clouds 17 1009 93 10000 3.1 260 21:39 18.08.2019
3471 Clouds 17 1008 93 10000 3.1 260 21:20 18.08.2019
3472 Clouds 17 1008 88 10000 3.1 270 20:57 18.08.2019
3473 Clouds 17 1008 88 10000 3.1 270 20:38 18.08.2019
3474 Rain 18 1007 93 10000 4.1 280 20:20 18.08.2019
3475 Rain 17 1007 93 10000 4.6 290 19:42 18.08.2019
3476 Clouds 18 1007 88 10000 3.6 270 19:23 18.08.2019
3477 Clouds 18 1006 88 10000 4.6 270 18:57 18.08.2019
3478 Clouds 18 1006 88 10000 4.6 270 18:39 18.08.2019
3479 Clouds 18 1006 88 10000 3.1 260 18:21 18.08.2019
3480 Clouds 18 1005 93 10000 2.1 290 17:54 18.08.2019
3481 Rain 18 1005 93 10000 2.1 290 17:36 18.08.2019
3482 Rain 18 1005 93 10000 2.1 290 17:18 18.08.2019
3483 Rain 18 1005 88 10000 1.5 280 16:43 18.08.2019
3484 Rain 18 1004 93 7000 1 0 16:23 18.08.2019
3485 Rain 18 1005 93 7000 2.1 330 15:59 18.08.2019
3486 Rain 18 1005 93 7000 2.1 330 15:39 18.08.2019
3487 Rain 19 1004 93 7000 2.1 360 15:20 18.08.2019
3488 Rain 19 1005 93 7000 2.1 330 14:57 18.08.2019
3489 Rain 19 1005 93 7000 2.1 330 14:38 18.08.2019
3490 Rain 19 1005 93 7000 2.1 300 14:19 18.08.2019
3491 Rain 19 1005 93 7000 3.1 270 13:56 18.08.2019
3492 Rain 18 1005 93 7000 3.1 270 13:38 18.08.2019
3493 Rain 18 1005 82 10000 2.1 220 13:19 18.08.2019
3494 Drizzle 18 1005 82 10000 4.1 230 12:41 18.08.2019
3495 Drizzle 18 1006 88 10000 3.1 230 12:22 18.08.2019
3496 Rain 18 1006 93 10000 2.6 230 11:55 18.08.2019
3497 Rain 18 1006 93 10000 2.6 230 11:36 18.08.2019
3498 Rain 18 1006 93 10000 3.1 250 11:18 18.08.2019
3499 Rain 18 1006 93 10000 3.1 210 10:41 18.08.2019
3500 Rain 18 1006 93 7000 4.1 200 10:21 18.08.2019
3501 Rain 18 1006 93 9000 3.1 190 09:51 18.08.2019
3502 Rain 18 1006 88 10000 2.1 180 09:23 18.08.2019
3503 Rain 18 1006 82 10000 3.1 180 08:55 18.08.2019
3504 Rain 18 1006 82 10000 3.1 180 08:37 18.08.2019
3505 Rain 18 1006 82 10000 2.6 180 08:18 18.08.2019
3506 Rain 18 1006 88 10000 2.6 190 07:44 18.08.2019
3507 Rain 18 1006 88 10000 2.6 190 07:25 18.08.2019
3508 Clouds 19 1006 77 10000 3.6 200 05:48 18.08.2019
3509 Clouds 19 1006 77 10000 3.1 190 04:53 18.08.2019
3510 Clouds 19 1007 82 10000 2.6 200 03:36 18.08.2019
3511 Clouds 19 1007 82 10000 3.6 190 02:46 18.08.2019
3512 Clouds 19 1007 82 10000 2.6 190 02:23 18.08.2019
3513 Clouds 19 1007 82 10000 3.6 210 01:31 18.08.2019
3514 Clouds 19 1008 82 10000 3.6 230 00:56 18.08.2019
3515 Clouds 19 1008 82 10000 3.6 230 00:37 18.08.2019
3516 Clouds 19 1008 82 10000 3.1 230 00:18 18.08.2019
3517 Clouds 19 1008 82 10000 3.1 210 23:56 17.08.2019
3518 Rain 19 1008 82 10000 3.1 210 23:36 17.08.2019
3519 Rain 19 1008 82 10000 3.6 210 23:18 17.08.2019
3520 Rain 19 1008 82 10000 3.6 210 23:18 17.08.2019
3521 Rain 19 1008 82 10000 3.6 220 22:41 17.08.2019
3522 Clouds 19 1008 77 10000 3.6 220 22:23 17.08.2019
3523 Rain 20 1008 68 10000 5.1 220 21:59 17.08.2019
3524 Rain 21 1008 68 10000 5.1 220 21:40 17.08.2019
3525 Clouds 21 1008 68 10000 1.5 220 21:21 17.08.2019
3526 Clouds 21 1008 68 10000 0.5 0 20:40 17.08.2019
3527 Clouds 22 1008 68 10000 1.5 310 20:21 17.08.2019
3528 Clouds 22 1008 60 10000 1.5 260 19:58 17.08.2019
3529 Clouds 22 1008 60 10000 1.5 260 19:39 17.08.2019
3530 Clouds 22 1008 60 10000 4.1 250 19:20 17.08.2019
3531 Clouds 22 1008 60 10000 3.6 250 18:41 17.08.2019
3532 Clouds 22 1008 56 10000 5.1 230 18:19 17.08.2019
3533 Clouds 23 1007 56 10000 4.1 230 17:58 17.08.2019
3534 Clouds 23 1007 56 10000 4.1 230 17:40 17.08.2019
3535 Clouds 23 1008 56 10000 6.2 250 17:21 17.08.2019
3536 Clouds 23 1007 56 10000 4.6 240 16:45 17.08.2019
3537 Clouds 23 1008 53 10000 5.7 250 16:26 17.08.2019
3538 Clouds 23 1008 53 10000 4.1 250 15:59 17.08.2019
3539 Clouds 23 1008 53 10000 4.1 250 15:40 17.08.2019
3540 Clouds 23 1008 53 10000 7.2 250 15:21 17.08.2019
3541 Clouds 23 1008 53 10000 5.1 220 14:43 17.08.2019
3542 Clouds 23 1008 56 10000 5.7 230 14:24 17.08.2019
3543 Clouds 23 1008 60 10000 6.2 230 13:56 17.08.2019
3544 Clouds 23 1008 60 10000 6.2 230 13:37 17.08.2019
3545 Clouds 23 1008 56 10000 5.1 220 13:18 17.08.2019
3546 Clouds 22 1008 56 10000 4.1 220 12:42 17.08.2019
3547 Clouds 22 1008 56 10000 3.6 220 12:19 17.08.2019
3548 Clouds 22 1008 56 10000 4.6 210 11:57 17.08.2019
3549 Clouds 21 1008 56 10000 4.6 210 11:36 17.08.2019
3550 Rain 20 1008 60 10000 4.1 230 11:18 17.08.2019
3551 Rain 20 1008 60 10000 3.6 210 10:39 17.08.2019
3552 Rain 20 1008 64 10000 3.1 190 10:19 17.08.2019
3553 Clear 19 1008 68 10000 4.1 190 09:50 17.08.2019
3554 Rain 18 1008 72 10000 3.1 170 09:31 17.08.2019
3555 Rain 18 1008 68 10000 3.6 170 08:54 17.08.2019
3556 Rain 17 1008 68 10000 3.1 150 08:26 17.08.2019
3557 Rain 17 1008 72 10000 2.1 140 07:53 17.08.2019
3558 Clear 17 1009 72 10000 2.1 110 07:22 17.08.2019
3559 Clear 17 1009 72 10000 2.1 110 07:22 17.08.2019
3560 Clear 16 1009 68 10000 2.1 150 06:55 17.08.2019
3561 Rain 16 1010 72 10000 2.6 190 05:57 17.08.2019
3562 Rain 17 1010 63 10000 3.1 170 04:31 17.08.2019
3563 Clear 17 1010 63 10000 2.6 170 03:36 17.08.2019
3564 Clear 17 1012 63 10000 1.5 170 01:48 17.08.2019
3565 Clear 17 1012 63 10000 1.5 190 01:29 17.08.2019
3566 Clear 17 1012 63 10000 2.1 170 00:55 17.08.2019
3567 Clear 16 1012 63 10000 2.1 170 00:31 17.08.2019
3568 Clouds 16 1012 68 10000 2.6 190 23:52 16.08.2019
3569 Clear 16 1013 59 10000 0.5 0 23:30 16.08.2019
3570 Clear 16 1013 55 10000 1 0 22:58 16.08.2019
3571 Clear 16 1013 55 10000 1 0 22:39 16.08.2019
3572 Clear 17 1013 59 10000 1 140 22:19 16.08.2019
3573 Clear 17 1013 59 10000 1 0 21:42 16.08.2019
3574 Clear 18 1013 63 10000 1 0 21:21 16.08.2019
3575 Clear 19 1013 52 10000 1 150 20:58 16.08.2019
3576 Clear 20 1013 52 10000 1 150 20:39 16.08.2019
3577 Clear 21 1013 49 10000 1.5 210 20:19 16.08.2019
3578 Clear 21 1014 46 10000 2.1 250 19:44 16.08.2019
3579 Clear 22 1014 46 10000 2.1 240 19:23 16.08.2019
3580 Clear 22 1014 43 10000 3.6 250 18:55 16.08.2019
3581 Clear 22 1014 43 10000 3.6 250 18:36 16.08.2019
3582 Clear 22 1014 46 10000 2.6 240 18:18 16.08.2019
3583 Clear 22 1014 43 10000 3.1 220 17:43 16.08.2019
3584 Clear 22 1014 43 10000 4.1 250 17:24 16.08.2019
3585 Clear 22 1015 40 10000 3.6 230 16:56 16.08.2019
3586 Clear 22 1015 40 10000 3.6 230 16:37 16.08.2019
3587 Clear 22 1015 43 10000 4.1 240 16:18 16.08.2019
3588 Clear 22 1015 40 10000 4.1 230 15:40 16.08.2019
3589 Clear 22 1015 46 10000 4.6 250 15:21 16.08.2019
3590 Clear 22 1015 46 10000 4.6 250 15:21 16.08.2019
3591 Clouds 22 1016 46 10000 4.1 250 14:58 16.08.2019
3592 Clouds 21 1016 46 10000 4.1 250 14:39 16.08.2019
3593 Clouds 21 1016 52 10000 4.6 260 14:19 16.08.2019
3594 Clouds 21 1016 56 10000 4.1 260 13:42 16.08.2019
3595 Clouds 20 1016 56 10000 4.6 260 13:23 16.08.2019
3596 Clouds 20 1016 59 10000 3.1 260 12:58 16.08.2019
3597 Clouds 19 1016 59 10000 3.1 260 12:37 16.08.2019
3598 Clouds 19 1016 59 10000 3.1 260 12:37 16.08.2019
3599 Clouds 19 1016 63 10000 4.1 260 12:19 16.08.2019
3600 Clouds 19 1016 68 10000 3.6 260 11:42 16.08.2019
3601 Clouds 18 1016 72 10000 4.6 240 11:24 16.08.2019
3602 Clouds 18 1016 72 10000 4.6 260 10:44 16.08.2019
3603 Clouds 18 1016 77 10000 4.6 250 10:26 16.08.2019
3604 Clouds 17 1016 77 10000 4.6 260 09:57 16.08.2019
3605 Clouds 16 1016 77 10000 4.6 260 09:37 16.08.2019
3606 Rain 16 1016 82 10000 4.1 250 09:18 16.08.2019
3607 Clouds 15 1016 82 10000 4.1 240 08:41 16.08.2019
3608 Clouds 15 1016 82 10000 4.1 260 08:21 16.08.2019
3609 Clouds 15 1015 82 10000 4.6 250 07:55 16.08.2019
3610 Clouds 14 1015 82 10000 4.6 250 07:33 16.08.2019
3611 Clouds 14 1015 87 10000 3.1 250 06:59 16.08.2019
3612 Clouds 14 1015 87 10000 3.1 240 06:31 16.08.2019
3613 Clear 14 1015 87 0 2.6 250 05:42 16.08.2019
3614 Clouds 15 1015 87 10000 4.1 250 04:31 16.08.2019
3615 Clear 15 1014 87 10000 4.1 250 02:46 16.08.2019
3616 Clear 15 1014 87 10000 4.1 260 01:34 16.08.2019
3617 Clear 15 1013 87 10000 3.6 260 00:59 16.08.2019
3618 Fog 15 1013 87 10000 3.6 260 00:40 16.08.2019
3619 Fog 15 1013 87 10000 2.6 250 00:21 16.08.2019
3620 Rain 15 1013 87 10000 4.1 260 23:45 15.08.2019
3621 Rain 15 1013 87 10000 4.1 260 23:45 15.08.2019
3622 Rain 16 1012 82 10000 4.1 260 23:22 15.08.2019
3623 Rain 16 1012 82 10000 3.6 250 22:58 15.08.2019
3624 Clouds 16 1012 82 10000 3.6 250 22:39 15.08.2019
3625 Clouds 16 1012 82 10000 3.6 250 22:39 15.08.2019
3626 Clouds 16 1012 82 10000 4.6 250 22:20 15.08.2019
3627 Clouds 16 1011 88 10000 2.1 220 21:54 15.08.2019
3628 Rain 16 1011 88 10000 2.1 220 21:36 15.08.2019
3629 Rain 17 1011 88 10000 2.6 220 21:18 15.08.2019
3630 Rain 17 1011 88 10000 2.6 230 20:42 15.08.2019
3631 Clear 17 1010 82 10000 2.6 230 20:21 15.08.2019
3632 Clear 17 1010 82 10000 2.6 230 20:21 15.08.2019
3633 Clear 17 1010 82 10000 3.6 240 19:57 15.08.2019
3634 Rain 17 1010 82 10000 3.6 240 19:38 15.08.2019
3635 Rain 17 1010 88 10000 3.1 240 19:20 15.08.2019
3636 Rain 17 1010 88 10000 2.6 240 18:47 15.08.2019
3637 Rain 17 1010 93 10000 2.6 240 18:23 15.08.2019
3638 Rain 18 1010 93 10000 3.1 260 17:57 15.08.2019
3639 Rain 18 1010 93 10000 3.1 260 17:57 15.08.2019
3640 Rain 19 1010 93 10000 3.1 260 17:37 15.08.2019
3641 Rain 19 1009 88 10000 4.1 290 17:19 15.08.2019
3642 Rain 20 1009 93 5000 6.2 310 16:48 15.08.2019
3643 Rain 21 1008 60 10000 4.1 230 16:27 15.08.2019
3644 Rain 21 1008 72 10000 3.1 240 15:59 15.08.2019
3645 Rain 21 1008 72 10000 3.1 240 15:38 15.08.2019
3646 Rain 21 1008 72 10000 3.1 240 15:38 15.08.2019
3647 Rain 21 1008 72 10000 6.2 250 15:19 15.08.2019
3648 Clouds 20 1008 68 10000 5.1 240 14:43 15.08.2019
3649 Rain 20 1008 68 10000 4.6 230 14:23 15.08.2019
3650 Rain 20 1008 68 10000 4.6 220 13:58 15.08.2019
3651 Rain 20 1008 68 10000 4.6 220 13:40 15.08.2019
3652 Rain 19 1008 72 10000 5.7 220 13:21 15.08.2019
3653 Drizzle 19 1008 72 10000 5.7 220 12:57 15.08.2019
3654 Drizzle 19 1008 72 10000 5.7 220 12:39 15.08.2019
3655 Rain 18 1008 77 10000 5.1 210 12:19 15.08.2019
3656 Rain 18 1008 77 10000 5.1 200 11:57 15.08.2019
3657 Rain 18 1008 77 10000 5.1 200 11:36 15.08.2019
3658 Rain 18 1009 82 10000 4.1 190 11:18 15.08.2019
3659 Rain 17 1009 87 10000 4.6 200 10:54 15.08.2019
3660 Rain 16 1009 87 10000 4.6 200 10:36 15.08.2019
3661 Rain 16 1008 87 10000 5.1 210 10:18 15.08.2019
3662 Rain 16 1009 87 10000 2.6 160 09:41 15.08.2019
3663 Rain 16 1009 87 10000 3.1 180 09:21 15.08.2019
3664 Rain 15 1009 82 10000 4.1 180 08:38 15.08.2019
3665 Rain 15 1009 82 10000 3.6 160 08:19 15.08.2019
3666 Drizzle 14 1010 87 10000 3.1 150 07:50 15.08.2019
3667 Drizzle 14 1010 87 10000 3.1 150 07:32 15.08.2019
3668 Rain 14 1010 87 10000 2.1 0 06:57 15.08.2019
3669 Rain 14 1010 87 10000 2.1 0 06:39 15.08.2019
3670 Rain 14 1011 82 10000 2.6 150 06:21 15.08.2019
3671 Rain 14 1011 77 10000 1.5 140 05:29 15.08.2019
3672 Rain 14 1012 72 10000 2.1 120 04:50 15.08.2019
3673 Rain 15 1012 67 10000 1.5 140 03:48 15.08.2019
3674 Rain 16 1013 51 10000 3.1 160 02:47 15.08.2019
3675 Rain 16 1013 51 10000 2.6 160 01:58 15.08.2019
3676 Clear 16 1013 51 10000 2.6 160 01:38 15.08.2019
3677 Clear 15 1014 51 10000 1.5 150 00:42 15.08.2019
3678 Clear 15 1014 51 10000 1.5 160 00:22 15.08.2019
3679 Clear 15 1014 51 10000 1.5 160 23:59 14.08.2019
3680 Clear 15 1014 51 10000 1.5 160 23:40 14.08.2019
3681 Clear 15 1014 48 10000 1.5 150 23:20 14.08.2019
3682 Clear 14 1015 48 10000 1.5 160 22:57 14.08.2019
3683 Clear 14 1015 48 10000 1.5 160 22:57 14.08.2019
3684 Clear 15 1015 48 10000 1.5 160 22:39 14.08.2019
3685 Clear 15 1015 51 10000 1 140 22:21 14.08.2019
3686 Clear 16 1015 48 10000 0.5 0 21:56 14.08.2019
3687 Clear 17 1015 48 10000 0.5 0 21:37 14.08.2019
3688 Clear 18 1015 45 10000 1.5 190 21:18 14.08.2019
3689 Clear 19 1015 40 10000 1.5 180 20:42 14.08.2019
3690 Clear 20 1015 40 10000 1.5 190 20:22 14.08.2019
3691 Clear 21 1015 40 10000 2.6 230 19:56 14.08.2019
3692 Clear 21 1015 40 10000 2.6 230 19:38 14.08.2019
3693 Clear 21 1015 37 10000 3.1 260 19:20 14.08.2019
3694 Clear 22 1015 33 10000 2.1 270 18:57 14.08.2019
3695 Clear 22 1015 33 10000 2.1 270 18:38 14.08.2019
3696 Clear 22 1015 33 10000 3.1 260 18:20 14.08.2019
3697 Clear 21 1016 35 10000 3.6 300 17:56 14.08.2019
3698 Clear 22 1016 35 10000 3.6 300 17:37 14.08.2019
3699 Clear 22 1016 33 10000 4.6 280 17:19 14.08.2019
3700 Clear 22 1016 35 10000 4.6 280 16:43 14.08.2019
3701 Clear 21 1016 32 10000 5.1 270 16:20 14.08.2019
3702 Clear 21 1016 37 10000 4.6 260 15:55 14.08.2019
3703 Clear 20 1016 37 10000 4.6 260 15:37 14.08.2019
3704 Clear 20 1017 40 10000 4.6 270 15:18 14.08.2019
3705 Clear 20 1017 35 10000 5.1 240 14:40 14.08.2019
3706 Clear 20 1017 45 10000 4.6 260 14:19 14.08.2019
3707 Clouds 20 1017 42 10000 4.6 270 13:56 14.08.2019
3708 Clouds 20 1017 42 10000 4.6 270 13:56 14.08.2019
3709 Clouds 19 1017 42 10000 4.6 270 13:38 14.08.2019
3710 Clouds 19 1017 45 10000 5.1 260 13:20 14.08.2019
3711 Clouds 19 1017 45 10000 4.6 280 12:56 14.08.2019
3712 Clouds 18 1017 45 10000 4.6 280 12:37 14.08.2019
3713 Clouds 18 1017 48 10000 4.6 250 12:19 14.08.2019
3714 Clouds 18 1018 52 10000 3.6 260 11:45 14.08.2019
3715 Clouds 16 1018 59 10000 4.6 270 11:23 14.08.2019
3716 Clouds 16 1018 59 10000 4.1 270 10:58 14.08.2019
3717 Clouds 15 1018 59 10000 4.1 270 10:38 14.08.2019
3718 Clouds 15 1018 63 10000 4.6 240 10:20 14.08.2019
3719 Clear 14 1018 67 10000 3.6 260 09:44 14.08.2019
3720 Clouds 13 1018 76 10000 4.1 250 09:21 14.08.2019
3721 Clouds 13 1018 76 10000 4.1 250 09:21 14.08.2019
3722 Clouds 13 1018 76 10000 3.6 240 08:45 14.08.2019
3723 Mist 12 1018 82 10000 3.1 240 08:27 14.08.2019
3724 Mist 12 1018 81 10000 2.1 240 07:57 14.08.2019
3725 Fog 11 1018 81 10000 2.1 240 07:38 14.08.2019
3726 Fog 11 1018 81 10000 2.1 240 07:38 14.08.2019
3727 Fog 10 1017 93 10000 1.5 240 06:53 14.08.2019
3728 Fog 10 1017 93 10000 1.5 240 06:35 14.08.2019
3729 Fog 11 1017 87 10000 2.6 240 05:33 14.08.2019
3730 Clear 11 1017 87 10000 2.1 220 03:58 14.08.2019
3731 Clear 12 1017 81 10000 2.1 210 02:39 14.08.2019
3732 Clear 12 1017 81 10000 2.1 200 02:18 14.08.2019
3733 Clear 12 1017 81 10000 2.1 210 01:30 14.08.2019
3734 Clear 13 1017 81 10000 3.1 240 00:38 14.08.2019
3735 Clear 14 1017 76 10000 3.1 240 23:43 13.08.2019
3736 Rain 14 1017 76 10000 3.1 240 23:20 13.08.2019
3737 Rain 14 1017 71 10000 3.6 240 22:56 13.08.2019
3738 Rain 14 1017 71 10000 3.6 240 22:38 13.08.2019
3739 Rain 14 1017 71 10000 3.6 240 22:38 13.08.2019
3740 Rain 14 1017 62 10000 4.6 250 22:19 13.08.2019
3741 Rain 14 1017 62 10000 3.6 250 21:55 13.08.2019
3742 Rain 15 1017 62 10000 3.6 250 21:36 13.08.2019
3743 Rain 15 1017 76 10000 2.6 250 21:18 13.08.2019
3744 Rain 16 1017 67 10000 2.1 260 20:43 13.08.2019
3745 Rain 16 1017 67 10000 2.6 280 20:20 13.08.2019
3746 Rain 17 1017 63 10000 5.7 290 19:56 13.08.2019
3747 Rain 17 1017 63 10000 5.7 290 19:38 13.08.2019
3748 Rain 18 1016 51 10000 6.2 250 19:20 13.08.2019
3749 Rain 18 1016 52 10000 4.1 250 18:41 13.08.2019
3750 Rain 18 1016 52 10000 4.1 250 18:41 13.08.2019
3751 Clouds 18 1016 48 10000 6.2 250 18:22 13.08.2019
3752 Clouds 19 1016 59 10000 4.1 270 17:54 13.08.2019
3753 Rain 18 1016 59 10000 4.1 270 17:36 13.08.2019
3754 Rain 18 1016 63 10000 4.1 270 17:18 13.08.2019
3755 Rain 19 1016 63 10000 5.1 300 16:54 13.08.2019
3756 Rain 19 1016 63 10000 5.1 300 16:54 13.08.2019
3757 Rain 19 1016 72 10000 4.1 260 16:36 13.08.2019
3758 Rain 19 1015 48 10000 7.2 270 16:18 13.08.2019
3759 Clouds 19 1016 52 10000 6.2 300 15:38 13.08.2019
3760 Clouds 19 1015 52 10000 4.6 260 15:20 13.08.2019
3761 Clouds 19 1016 48 10000 5.7 260 14:48 13.08.2019
3762 Rain 19 1016 59 10000 5.1 260 14:21 13.08.2019
3763 Rain 18 1016 59 10000 5.7 250 13:59 13.08.2019
3764 Rain 18 1016 59 10000 5.7 250 13:41 13.08.2019
3765 Clouds 17 1016 63 10000 6.2 250 13:21 13.08.2019
3766 Clouds 17 1016 67 10000 6.2 260 12:57 13.08.2019
3767 Clouds 17 1016 67 10000 6.2 260 12:39 13.08.2019
3768 Clouds 16 1016 67 10000 7.7 280 12:21 13.08.2019
3769 Rain 16 1015 82 10000 6.7 250 11:43 13.08.2019
3770 Clouds 16 1015 82 10000 5.7 240 11:23 13.08.2019
3771 Rain 15 1015 77 10000 7.2 230 10:58 13.08.2019
3772 Rain 15 1015 77 10000 7.2 230 10:38 13.08.2019
3773 Rain 15 1015 77 10000 7.2 230 10:38 13.08.2019
3774 Rain 15 1014 77 10000 4.6 240 10:20 13.08.2019
3775 Rain 15 1014 72 10000 4.1 240 09:56 13.08.2019
3776 Rain 15 1014 72 10000 4.1 240 09:38 13.08.2019
3777 Rain 15 1014 77 10000 5.7 240 09:19 13.08.2019
3778 Clouds 14 1014 77 10000 5.1 230 08:41 13.08.2019
3779 Clouds 14 1014 82 10000 4.6 240 08:21 13.08.2019
3780 Clear 14 1014 82 10000 4.1 220 07:47 13.08.2019
3781 Clear 14 1014 82 10000 3.1 220 07:28 13.08.2019
3782 Clear 13 1014 87 10000 2.6 220 06:44 13.08.2019
3783 Fog 13 1014 87 10000 0.5 0 05:59 13.08.2019
3784 Clear 12 1014 87 10000 0.5 0 05:32 13.08.2019
3785 Fog 14 1014 82 10000 2.6 250 02:22 13.08.2019
3786 Clouds 14 1014 82 10000 2.1 240 01:41 13.08.2019
3787 Clear 15 1014 82 10000 3.1 240 00:52 13.08.2019
3788 Clear 15 1014 82 10000 1.5 250 00:22 13.08.2019
3789 Clear 15 1014 77 10000 2.6 210 23:44 12.08.2019
3790 Rain 15 1014 77 10000 3.6 240 23:21 12.08.2019
3791 Clear 15 1014 77 10000 3.1 250 22:55 12.08.2019
3792 Rain 16 1014 77 10000 3.1 250 22:37 12.08.2019
3793 Rain 16 1014 77 10000 2.6 230 22:18 12.08.2019
3794 Rain 16 1014 82 10000 2.1 200 21:54 12.08.2019
3795 Rain 16 1014 82 10000 2.1 200 21:36 12.08.2019
3796 Rain 16 1014 82 10000 2.1 180 21:18 12.08.2019
3797 Rain 18 1013 77 10000 2.1 280 20:41 12.08.2019
3798 Rain 18 1013 72 10000 4.6 230 20:21 12.08.2019
3799 Rain 20 1012 40 10000 3.1 210 19:58 12.08.2019
3800 Rain 21 1012 40 10000 3.1 210 19:39 12.08.2019
3801 Rain 22 1011 40 10000 3.1 230 19:21 12.08.2019
3802 Rain 23 1012 38 10000 3.6 240 18:59 12.08.2019
3803 Thunderstorm 24 1012 38 10000 3.6 240 18:39 12.08.2019
3804 Thunderstorm 24 1012 36 10000 5.1 250 18:20 12.08.2019
3805 Clear 24 1012 36 10000 4.1 240 17:55 12.08.2019
3806 Clear 24 1012 36 10000 5.1 250 17:37 12.08.2019
3807 Clear 24 1012 36 10000 5.1 250 17:19 12.08.2019
3808 Clear 24 1013 33 10000 5.1 230 16:40 12.08.2019
3809 Clear 24 1013 36 10000 6.2 250 16:20 12.08.2019
3810 Clear 24 1013 36 10000 5.7 270 15:59 12.08.2019
3811 Clear 24 1013 36 10000 5.7 270 15:59 12.08.2019
3812 -273 0 0 0 0 0 15:41 12.08.2019
3813 Clear 24 1013 36 10000 5.7 270 15:39 12.08.2019
3814 Clear 24 1013 38 10000 5.1 240 15:21 12.08.2019
3815 Clear 24 1013 38 10000 6.2 250 14:55 12.08.2019
3816 Clear 24 1013 38 10000 6.2 250 14:37 12.08.2019
3817 Clear 24 1014 40 10000 5.7 250 14:18 12.08.2019
3818 Clear 23 1014 41 10000 6.2 240 13:42 12.08.2019
3819 Clear 23 1014 43 10000 5.1 260 13:23 12.08.2019
3820 Clouds 22 1014 43 10000 6.2 250 12:44 12.08.2019
3821 Clouds 22 1015 46 10000 7.7 240 12:23 12.08.2019
3822 Clouds 22 1015 49 10000 6.2 250 11:58 12.08.2019
3823 Clouds 22 1015 49 10000 6.2 250 11:39 12.08.2019
3824 Clouds 21 1014 49 10000 7.2 250 11:21 12.08.2019
3825 Clouds 21 1014 52 10000 4.6 240 10:41 12.08.2019
3826 Clouds 20 1015 56 10000 4.6 230 10:23 12.08.2019
3827 Clear 19 1015 59 10000 4.1 230 09:56 12.08.2019
3828 Clear 19 1015 59 10000 4.1 230 09:37 12.08.2019
3829 Clouds 18 1015 59 10000 3.6 220 09:19 12.08.2019
3830 Clear 18 1015 63 10000 4.6 220 08:42 12.08.2019
3831 Clear 17 1014 67 10000 3.1 220 08:24 12.08.2019
3832 Clear 17 1015 63 10000 3.1 210 07:59 12.08.2019
3833 Clear 16 1015 63 10000 3.1 210 07:41 12.08.2019
3834 Clear 16 1014 67 10000 2.6 200 07:20 12.08.2019
3835 Clear 16 1014 67 10000 2.6 230 06:44 12.08.2019
3836 Clear 17 1014 63 10000 3.1 240 04:40 12.08.2019
3837 Clear 18 1014 55 10000 2.6 220 02:44 12.08.2019
3838 Clear 18 1014 52 10000 2.6 250 01:52 12.08.2019
3839 Clear 18 1013 52 10000 2.6 260 01:20 12.08.2019
3840 Clear 18 1013 52 10000 2.6 250 00:56 12.08.2019
3841 Clear 19 1013 52 10000 2.6 250 00:38 12.08.2019
3842 Clear 19 1013 52 10000 3.1 260 00:18 12.08.2019
3843 Clear 19 1013 55 10000 2.1 250 23:41 11.08.2019
3844 Clear 19 1013 52 10000 0.5 0 23:20 11.08.2019
3845 Clear 19 1013 55 10000 1 260 22:58 11.08.2019
3846 Clear 20 1013 55 10000 1 260 22:39 11.08.2019
3847 Clear 20 1013 49 10000 1.5 260 22:19 11.08.2019
3848 Clear 20 1013 46 10000 2.1 260 21:58 11.08.2019
3849 Clear 21 1013 46 10000 2.1 260 21:39 11.08.2019
3850 Clear 21 1013 43 10000 2.1 250 21:20 11.08.2019
3851 Clear 22 1012 46 10000 1.5 240 20:45 11.08.2019
3852 Clear 22 1012 43 10000 1.5 260 20:26 11.08.2019
3853 Clear 23 1012 40 10000 0.5 0 19:59 11.08.2019
3854 Clear 23 1012 40 10000 0.5 0 19:41 11.08.2019
3855 Clear 23 1012 43 10000 1 0 19:18 11.08.2019
3856 Clear 24 1012 40 10000 1.5 280 18:41 11.08.2019
3857 Clear 24 1013 40 10000 3.1 270 18:21 11.08.2019
3858 Clear 24 1013 40 10000 3.6 280 17:57 11.08.2019
3859 Clear 24 1013 40 10000 3.6 280 17:39 11.08.2019
3860 Clear 25 1013 38 10000 4.1 260 17:20 11.08.2019
3861 Clear 25 1013 36 10000 4.1 250 16:55 11.08.2019
3862 Clear 25 1013 36 10000 4.1 250 16:37 11.08.2019
3863 Clear 25 1013 36 10000 4.1 260 16:18 11.08.2019
3864 Clear 25 1013 36 10000 4.1 260 16:18 11.08.2019
3865 Clear 25 1013 36 10000 4.6 270 15:42 11.08.2019
3866 Clear 25 1013 38 10000 4.6 250 15:23 11.08.2019
3867 Clear 25 1014 41 10000 5.1 260 14:56 11.08.2019
3868 Clear 25 1014 41 10000 5.1 260 14:38 11.08.2019
3869 Clear 24 1014 38 10000 5.7 250 14:19 11.08.2019
3870 Clear 24 1014 38 10000 5.7 250 14:19 11.08.2019
3871 Clear 25 1014 41 10000 5.7 250 13:44 11.08.2019
3872 Clear 24 1014 41 10000 5.7 260 13:24 11.08.2019
3873 Clear 24 1014 41 10000 5.7 260 13:24 11.08.2019
3874 Clear 24 1014 38 10000 6.7 230 12:48 11.08.2019
3875 Clear 23 1015 43 10000 6.7 240 12:23 11.08.2019
3876 Clouds 23 1015 43 10000 5.7 230 11:56 11.08.2019
3877 Clouds 23 1015 43 10000 5.7 230 11:38 11.08.2019
3878 Clouds 22 1015 49 10000 5.7 230 11:20 11.08.2019
3879 Clear 22 1015 49 10000 6.2 230 10:41 11.08.2019
3880 Clear 21 1015 52 10000 5.7 230 10:22 11.08.2019
3881 Clear 21 1015 52 10000 4.6 230 09:59 11.08.2019
3882 Clear 21 1015 52 10000 4.6 230 09:38 11.08.2019
3883 Clear 20 1015 55 10000 4.6 220 09:20 11.08.2019
3884 Clear 19 1015 55 10000 4.1 200 08:45 11.08.2019
3885 -273 0 0 0 0 0 08:26 11.08.2019
3886 Clear 18 1015 59 10000 3.1 210 07:54 11.08.2019
3887 Clear 17 1015 55 10000 3.1 200 07:23 11.08.2019
3888 Clear 17 1015 59 10000 3.1 210 06:44 11.08.2019
3889 Clear 17 1014 55 10000 4.1 240 05:39 11.08.2019
3890 Clear 18 1014 59 10000 2.1 210 03:43 11.08.2019
3891 Clear 18 1013 59 10000 1.5 240 02:49 11.08.2019
3892 Clear 19 1013 52 10000 3.1 200 01:39 11.08.2019
3893 Clear 19 1013 52 10000 3.1 200 01:20 11.08.2019
3894 Clear 19 1013 52 10000 2.6 200 00:48 11.08.2019
3895 Clear 20 1013 49 10000 3.6 210 00:28 11.08.2019
3896 Clear 20 1013 49 10000 3.1 210 23:45 10.08.2019
3897 Clear 20 1013 49 10000 3.6 220 23:27 10.08.2019
3898 Clear 21 1012 49 10000 3.1 220 22:44 10.08.2019
3899 Clear 21 1012 49 10000 3.1 220 22:25 10.08.2019
3900 Clear 22 1012 46 10000 2.6 230 21:58 10.08.2019
3901 Clear 22 1012 46 10000 2.6 230 21:38 10.08.2019
3902 Clear 23 1012 43 10000 4.6 240 21:20 10.08.2019
3903 Clear 23 1011 44 10000 5.7 240 20:56 10.08.2019
3904 Clear 24 1011 44 10000 5.7 240 20:37 10.08.2019
3905 Clear 24 1011 44 10000 5.7 250 20:18 10.08.2019
3906 Clear 25 1011 44 10000 7.7 240 19:39 10.08.2019
3907 Clear 25 1010 41 10000 7.2 250 19:21 10.08.2019
3908 Clear 25 1010 36 10000 9.3 240 18:41 10.08.2019
3909 Clear 25 1010 38 10000 7.7 250 18:23 10.08.2019
3910 Clear 25 1010 36 10000 9.3 250 17:46 10.08.2019
3911 Clear 26 1010 39 10000 8.2 230 17:25 10.08.2019
3912 Clear 26 1010 39 10000 8.2 240 16:48 10.08.2019
3913 Clear 25 1009 39 10000 7.7 240 16:29 10.08.2019
3914 Clear 25 1009 41 10000 7.7 240 15:59 10.08.2019
3915 Clear 25 1009 41 10000 7.7 240 15:40 10.08.2019
3916 Clear 25 1009 44 10000 6.2 240 15:21 10.08.2019
3917 Clear 25 1009 41 10000 8.7 240 14:43 10.08.2019
3918 Clear 24 1009 50 10000 8.2 240 14:19 10.08.2019
3919 Clear 24 1009 47 10000 7.7 240 13:40 10.08.2019
3920 Clouds 24 1009 47 10000 8.7 240 13:19 10.08.2019
3921 Clouds 24 1009 50 10000 6.7 230 12:43 10.08.2019
3922 Clouds 24 1009 53 10000 7.2 250 12:23 10.08.2019
3923 Clouds 24 1009 53 10000 7.2 240 11:57 10.08.2019
3924 Clouds 24 1009 53 10000 7.2 240 11:39 10.08.2019
3925 Clouds 23 1009 56 10000 7.7 240 11:20 10.08.2019
3926 Clouds 23 1009 53 10000 6.7 240 10:39 10.08.2019
3927 Clouds 23 1008 56 10000 8.2 250 10:20 10.08.2019
3928 Clouds 23 1008 56 10000 8.2 250 10:20 10.08.2019
3929 Clouds 23 1008 60 10000 8.2 240 09:59 10.08.2019
3930 Clouds 22 1008 60 10000 8.2 240 09:39 10.08.2019
3931 Clouds 22 1008 60 10000 6.2 230 09:21 10.08.2019
3932 Clouds 22 1008 64 10000 7.2 230 08:39 10.08.2019
3933 Clouds 21 1008 68 10000 5.7 230 08:20 10.08.2019
3934 Clear 21 1008 68 10000 5.1 220 07:53 10.08.2019
3935 Fog 20 1007 72 10000 4.1 220 07:27 10.08.2019
3936 Fog 20 1007 72 10000 4.6 230 06:48 10.08.2019
3937 Fog 20 1007 68 10000 4.6 230 06:21 10.08.2019
3938 Fog 20 1007 68 10000 5.7 240 05:24 10.08.2019
3939 Clear 20 1006 77 10000 1 210 04:21 10.08.2019
3940 Clear 20 1006 77 10000 2.6 200 02:54 10.08.2019
3941 Clear 20 1007 78 10000 5.7 180 02:23 10.08.2019
3942 Rain 20 1007 83 10000 2.1 170 01:40 10.08.2019
3943 Rain 20 1007 78 10000 4.1 200 01:20 10.08.2019
3944 Rain 21 1005 78 10000 3.1 0 00:44 10.08.2019
3945 Clear 21 1007 78 10000 2.6 180 00:22 10.08.2019
3946 Rain 21 1007 78 10000 4.6 190 23:43 09.08.2019
3947 Rain 21 1006 69 10000 3.1 150 23:23 09.08.2019
3948 Rain 21 1006 68 10000 3.6 120 22:57 09.08.2019
3949 Rain 21 1006 68 10000 3.6 120 22:38 09.08.2019
3950 Rain 21 1007 64 10000 2.6 130 22:20 09.08.2019
3951 Clear 21 1007 64 10000 2.1 0 21:41 09.08.2019
3952 Clear 22 1007 68 10000 2.1 120 21:23 09.08.2019
3953 Clear 22 1007 78 10000 2.6 100 20:59 09.08.2019
3954 Rain 22 1007 78 10000 2.6 100 20:40 09.08.2019
3955 Rain 22 1007 73 10000 2.6 110 20:21 09.08.2019
3956 Rain 22 1007 69 10000 2.6 110 19:56 09.08.2019
3957 Rain 22 1007 69 10000 2.6 110 19:38 09.08.2019
3958 Rain 22 1007 69 10000 2.6 110 19:38 09.08.2019
3959 Rain 22 1008 69 10000 3.1 110 19:18 09.08.2019
3960 Rain 23 1008 64 10000 2.6 110 18:40 09.08.2019
3961 Rain 24 1008 64 10000 2.1 170 18:22 09.08.2019
3962 Rain 25 1008 53 10000 2.6 230 17:56 09.08.2019
3963 Rain 25 1008 53 10000 2.6 230 17:56 09.08.2019
3964 Rain 26 1008 53 10000 2.6 230 17:38 09.08.2019
3965 Rain 26 1008 42 10000 3.6 170 17:19 09.08.2019
3966 Rain 27 1008 44 10000 4.6 180 16:40 09.08.2019
3967 Rain 27 1008 44 10000 4.1 160 16:21 09.08.2019
3968 Rain 27 1008 44 10000 3.1 160 15:56 09.08.2019
3969 Clear 27 1008 44 10000 3.1 160 15:37 09.08.2019
3970 Clear 27 1009 42 10000 3.6 180 15:19 09.08.2019
3971 Clear 27 1009 44 10000 3.6 140 14:44 09.08.2019
3972 Clear 27 1010 44 10000 3.1 160 14:22 09.08.2019
3973 Clear 27 1010 44 10000 3.6 130 13:57 09.08.2019
3974 Clear 26 1010 44 10000 3.6 130 13:39 09.08.2019
3975 Clear 26 1010 44 10000 3.1 130 13:19 09.08.2019
3976 Clouds 26 1010 47 10000 4.1 150 12:45 09.08.2019
3977 Clear 24 1011 50 10000 3.6 120 12:23 09.08.2019
3978 -273 0 0 0 0 0 11:57 09.08.2019
3979 Clear 23 1011 53 10000 2.6 120 11:37 09.08.2019
3980 Clear 23 1011 53 10000 2.6 120 11:18 09.08.2019
3981 Clear 22 1011 56 10000 2.6 110 10:40 09.08.2019
3982 Clear 22 1011 60 10000 2.6 110 10:21 09.08.2019
3983 Clear 21 1011 60 10000 2.1 120 09:45 09.08.2019
3984 Clear 19 1011 60 10000 2.1 130 09:20 09.08.2019
3985 Clear 18 1012 72 10000 1.5 130 08:56 09.08.2019
3986 Clear 16 1012 72 10000 1.5 130 08:37 09.08.2019
3987 Clear 16 1012 77 10000 1.5 100 08:18 09.08.2019
3988 Clear 14 1012 87 10000 1 0 07:43 09.08.2019
3989 Fog 13 1012 87 10000 1 0 07:22 09.08.2019
3990 Fog 13 1012 87 10000 1 0 06:55 09.08.2019
3991 Fog 12 1012 93 10000 0.5 80 06:27 09.08.2019
3992 Fog 12 1012 93 10000 0.5 0 05:50 09.08.2019
3993 Clear 14 1012 87 10000 0.5 350 02:33 09.08.2019
3994 Clear 15 1012 82 10000 0.5 320 01:45 09.08.2019
3995 Clear 16 1012 82 10000 0.5 0 00:45 09.08.2019
3996 Clear 16 1012 77 10000 1 220 00:26 09.08.2019
3997 Clear 17 1012 77 10000 1 0 23:59 08.08.2019
3998 Clear 17 1012 77 10000 1 0 23:59 08.08.2019
3999 Clear 17 1012 77 10000 1 0 23:38 08.08.2019
4000 Clear 18 1012 68 10000 1 230 23:19 08.08.2019
4001 Clear 18 1011 68 10000 1 200 22:57 08.08.2019
4002 Clear 19 1011 68 10000 1 200 22:36 08.08.2019
4003 Clear 18 1011 68 10000 1 200 22:36 08.08.2019
4004 Clear 19 1011 63 10000 0.5 270 22:18 08.08.2019
4005 Clear 19 1011 60 10000 2.1 280 21:55 08.08.2019
4006 Clear 21 1011 60 10000 2.1 280 21:37 08.08.2019
4007 Clear 21 1011 56 10000 2.6 290 21:18 08.08.2019
4008 Clear 22 1011 53 10000 3.1 290 20:42 08.08.2019
4009 Clear 23 1010 46 10000 3.1 270 20:22 08.08.2019
4010 Clear 23 1010 46 10000 4.6 270 19:57 08.08.2019
4011 Clear 23 1010 46 10000 4.6 270 19:38 08.08.2019
4012 Clear 24 1010 46 10000 5.1 270 19:19 08.08.2019
4013 Clear 24 1010 44 10000 7.2 280 18:41 08.08.2019
4014 Clear 24 1010 44 10000 6.7 260 18:21 08.08.2019
4015 Clear 25 1010 44 10000 6.2 270 17:55 08.08.2019
4016 Clear 25 1010 44 10000 6.2 270 17:36 08.08.2019
4017 Clear 25 1010 44 10000 6.2 270 17:36 08.08.2019
4018 Clear 24 1010 44 10000 7.2 260 17:18 08.08.2019
4019 Thunderstorm 25 1010 41 10000 6.7 260 16:42 08.08.2019
4020 Thunderstorm 24 1010 44 10000 7.7 250 16:24 08.08.2019
4021 Clear 25 1010 44 10000 6.2 250 15:58 08.08.2019
4022 Clear 24 1010 44 10000 6.2 250 15:39 08.08.2019
4023 Clear 24 1010 44 10000 6.2 250 15:39 08.08.2019
4024 Clouds 24 1010 47 10000 6.7 260 15:20 08.08.2019
4025 Clouds 24 1010 47 10000 6.7 260 15:20 08.08.2019
4026 Clouds 23 1010 49 10000 7.2 250 14:41 08.08.2019
4027 Clouds 24 1010 47 10000 6.2 270 14:22 08.08.2019
4028 Clouds 24 1010 49 10000 7.2 270 13:57 08.08.2019
4029 Clouds 24 1010 49 10000 7.2 270 13:37 08.08.2019
4030 Clouds 23 1010 53 10000 6.2 250 13:18 08.08.2019
4031 Clouds 23 1010 53 10000 7.2 260 12:39 08.08.2019
4032 Clouds 23 1010 53 10000 6.7 250 12:19 08.08.2019
4033 Clouds 22 1010 56 10000 5.7 250 11:48 08.08.2019
4034 Clouds 21 1010 60 10000 5.1 240 11:27 08.08.2019
4035 Clouds 21 1010 60 10000 6.2 250 10:59 08.08.2019
4036 Clouds 21 1010 60 10000 6.2 250 10:59 08.08.2019
4037 Clouds 21 1010 60 10000 6.2 250 10:40 08.08.2019
4038 Clouds 20 1010 60 10000 7.2 250 10:20 08.08.2019
4039 Clouds 19 1009 63 10000 6.7 250 09:44 08.08.2019
4040 Clouds 19 1009 68 10000 6.2 240 09:25 08.08.2019
4041 Clear 18 1009 72 0 4.1 220 08:54 08.08.2019
4042 Clear 18 1009 72 0 4.1 220 08:36 08.08.2019
4043 Clouds 17 1009 77 10000 3.6 210 08:18 08.08.2019
4044 Fog 16 1009 77 10000 2.6 210 07:39 08.08.2019
4045 Fog 15 1009 77 10000 2.6 200 07:19 08.08.2019
4046 Fog 15 1009 82 10000 2.6 190 06:46 08.08.2019
4047 Fog 14 1009 77 10000 2.1 190 06:19 08.08.2019
4048 Fog 14 1009 82 10000 1 0 05:51 08.08.2019
4049 Fog 15 1009 82 10000 1.5 200 04:43 08.08.2019
4050 Fog 15 1009 93 10000 0.5 200 03:51 08.08.2019
4051 Fog 15 1008 93 10000 0.5 0 01:59 08.08.2019
4052 Fog 16 1008 87 10000 0.5 110 01:24 08.08.2019
4053 Fog 16 1008 93 10000 2.48 256.193 00:25 08.08.2019
4054 Fog 17 1008 93 10000 0.5 0 23:42 07.08.2019
4055 Clear 17 1008 93 10000 0.5 0 23:19 07.08.2019
4056 Clear 17 1007 88 10000 1 0 22:55 07.08.2019
4057 Rain 18 1007 88 10000 1 0 22:36 07.08.2019
4058 Rain 18 1007 88 10000 1 0 22:36 07.08.2019
4059 Rain 18 1007 88 10000 1 160 22:18 07.08.2019
4060 Rain 18 1007 88 10000 1 160 22:18 07.08.2019
4061 Rain 19 1008 77 8000 4.1 280 21:54 07.08.2019
4062 Rain 19 1007 88 10000 1.5 350 21:36 07.08.2019
4063 Rain 20 1007 82 10000 1 0 21:18 07.08.2019
4064 Rain 21 1007 68 10000 1.5 290 20:41 07.08.2019
4065 Rain 21 1007 68 10000 1.5 290 20:41 07.08.2019
4066 Rain 22 1006 60 10000 1.5 10 20:23 07.08.2019
4067 Rain 22 1006 64 10000 2.1 340 19:56 07.08.2019
4068 Rain 22 1006 64 10000 2.1 340 19:38 07.08.2019
4069 Rain 23 1006 60 10000 3.1 320 19:19 07.08.2019
4070 Clear 23 1006 53 10000 6.7 320 18:41 07.08.2019
4071 Clear 24 1006 43 10000 5.1 240 18:20 07.08.2019
4072 Clear 24 1006 43 10000 5.1 240 18:20 07.08.2019
4073 Clear 24 1006 41 10000 4.6 260 17:57 07.08.2019
4074 Clear 24 1006 41 10000 4.6 260 17:38 07.08.2019
4075 Clear 24 1006 41 10000 6.2 260 17:19 07.08.2019
4076 Clear 24 1006 41 10000 5.7 250 16:56 07.08.2019
4077 Clear 24 1006 41 10000 5.7 250 16:38 07.08.2019
4078 Clear 24 1006 44 10000 5.7 260 16:19 07.08.2019
4079 Clear 24 1006 44 10000 5.7 270 15:43 07.08.2019
4080 Clear 24 1006 47 10000 6.2 260 15:22 07.08.2019
4081 Clear 24 1006 41 10000 6.2 250 14:57 07.08.2019
4082 Clear 24 1006 41 10000 6.2 250 14:39 07.08.2019
4083 Clouds 24 1006 44 10000 6.7 260 14:21 07.08.2019
4084 Clouds 23 1006 49 10000 7.2 250 13:40 07.08.2019
4085 Clouds 23 1006 49 10000 7.2 250 13:19 07.08.2019
4086 Clouds 23 1006 56 10000 6.2 240 12:58 07.08.2019
4087 Clouds 23 1006 56 10000 6.2 240 12:39 07.08.2019
4088 Clouds 22 1006 60 10000 5.1 260 12:20 07.08.2019
4089 Clouds 21 1006 64 10000 5.7 270 11:58 07.08.2019
4090 Clouds 21 1006 64 10000 5.7 270 11:40 07.08.2019
4091 Clouds 21 1006 68 10000 5.7 260 11:18 07.08.2019
4092 Clouds 20 1006 77 10000 5.1 250 10:41 07.08.2019
4093 Rain 20 1006 77 10000 5.7 250 10:20 07.08.2019
4094 Rain 20 1006 82 10000 4.6 250 09:59 07.08.2019
4095 Rain 20 1006 82 10000 4.6 250 09:40 07.08.2019
4096 Rain 20 1006 77 10000 3.1 230 09:20 07.08.2019
4097 Rain 19 1006 77 10000 2.6 220 08:45 07.08.2019
4098 Rain 18 1006 72 10000 1.5 150 08:25 07.08.2019
4099 Rain 18 1006 82 10000 0.5 0 07:51 07.08.2019
4100 Clear 18 1006 82 10000 1.5 150 07:31 07.08.2019
4101 Clear 17 1006 82 10000 1 0 06:48 07.08.2019
4102 Clear 17 1006 93 10000 2.6 90 06:26 07.08.2019
4103 Clouds 17 1006 88 10000 1 110 05:43 07.08.2019
4104 Rain 17 1006 82 10000 1 0 04:41 07.08.2019
4105 Clear 17 1007 68 10000 1 0 03:18 07.08.2019
4106 Rain 17 1007 68 10000 0.5 0 02:39 07.08.2019
4107 Clear 17 1008 77 10000 0.5 210 01:52 07.08.2019
4108 Clear 17 1008 72 10000 0.5 0 01:22 07.08.2019
4109 Clear 17 1008 67 10000 1.07 318.834 00:24 07.08.2019
4110 Clear 17 1008 63 10000 0.5 0 23:59 06.08.2019
4111 Clear 18 1008 63 10000 0.5 0 23:38 06.08.2019
4112 Clear 18 1008 63 10000 0.5 0 23:20 06.08.2019
4113 Clear 19 1008 56 10000 1 220 22:40 06.08.2019
4114 Clear 20 1008 56 10000 1.5 260 22:21 06.08.2019
4115 Clear 20 1008 52 10000 2.6 250 21:57 06.08.2019
4116 Clear 21 1008 52 10000 2.6 250 21:38 06.08.2019
4117 Clear 21 1008 49 10000 2.6 250 21:19 06.08.2019
4118 Clear 22 1008 49 10000 3.1 260 20:46 06.08.2019
4119 Clear 22 1008 49 10000 3.6 280 20:27 06.08.2019
4120 Clear 23 1008 46 10000 4.6 280 19:56 06.08.2019
4121 Clear 23 1008 46 10000 4.6 280 19:37 06.08.2019
4122 Clear 24 1008 43 10000 5.1 270 19:18 06.08.2019
4123 Clear 24 1008 41 10000 6.2 260 18:41 06.08.2019
4124 Clear 24 1008 41 10000 6.2 260 18:21 06.08.2019
4125 Clear 25 1008 41 10000 5.7 270 17:57 06.08.2019
4126 Clear 25 1008 41 10000 5.7 270 17:37 06.08.2019
4127 Clear 25 1009 41 10000 5.1 270 17:19 06.08.2019
4128 Clear 24 1009 44 10000 5.1 270 16:47 06.08.2019
4129 Clear 25 1009 44 10000 6.2 270 16:25 06.08.2019
4130 Clouds 24 1009 47 10000 5.1 270 15:59 06.08.2019
4131 Clouds 24 1009 47 10000 5.1 270 15:40 06.08.2019
4132 Clouds 24 1009 49 10000 7.2 240 15:21 06.08.2019
4133 Clouds 24 1009 53 10000 6.2 240 14:54 06.08.2019
4134 Rain 24 1009 53 10000 6.2 240 14:36 06.08.2019
4135 Rain 24 1009 60 10000 6.2 250 14:18 06.08.2019
4136 Clouds 22 1009 64 10000 5.7 250 13:45 06.08.2019
4137 Clouds 22 1009 68 10000 5.1 240 13:26 06.08.2019
4138 Clouds 21 1010 77 10000 4.1 230 12:59 06.08.2019
4139 Rain 20 1010 77 10000 4.1 230 12:40 06.08.2019
4140 Rain 20 1010 82 10000 4.1 230 12:21 06.08.2019
4141 Rain 20 1010 93 10000 3.6 230 11:45 06.08.2019
4142 Rain 20 1010 93 4000 5.1 260 11:20 06.08.2019
4143 Rain 20 1010 77 10000 4.6 290 10:58 06.08.2019
4144 Rain 20 1010 77 10000 4.6 290 10:39 06.08.2019
4145 Rain 20 1010 77 10000 4.6 290 10:39 06.08.2019
4146 Rain 20 1010 82 4000 4.1 270 10:21 06.08.2019
4147 Rain 20 1010 68 10000 2.1 210 09:41 06.08.2019
4148 Clouds 20 1010 68 10000 2.6 200 09:21 06.08.2019
4149 Clear 20 1009 68 10000 1.5 200 08:51 06.08.2019
4150 Clear 19 1009 72 10000 1 0 08:28 06.08.2019
4151 Mist 18 1009 77 10000 0.5 0 07:59 06.08.2019
4152 Fog 17 1010 82 10000 1 0 07:29 06.08.2019
4153 Fog 17 1010 77 10000 1 0 06:44 06.08.2019
4154 Fog 17 1010 82 10000 0.5 0 06:22 06.08.2019
4155 Fog 16 1010 93 10000 1.5 200 05:23 06.08.2019
4156 Fog 17 1010 93 8000 0.5 0 02:48 06.08.2019
4157 Fog 18 1010 88 10000 1.7 246.061 01:25 06.08.2019
4158 Fog 18 1010 93 10000 1.5 260 00:51 06.08.2019
4159 Fog 19 1010 88 10000 1 210 23:59 05.08.2019
4160 Fog 18 1010 93 10000 1 220 23:20 05.08.2019
4161 Fog 19 1010 93 10000 2.82 262.51 22:42 05.08.2019
4162 Fog 19 1010 88 10000 0.5 0 22:23 05.08.2019
4163 Fog 19 1010 88 10000 1 0 21:58 05.08.2019
4164 Clouds 19 1010 88 10000 1 0 21:40 05.08.2019
4165 Clouds 20 1009 88 10000 1 0 21:20 05.08.2019
4166 Rain 20 1009 88 10000 1 0 20:57 05.08.2019
4167 Rain 20 1009 88 10000 1 0 20:38 05.08.2019
4168 Rain 20 1009 77 10000 1 0 20:20 05.08.2019
4169 Rain 21 1009 88 10000 1 0 19:43 05.08.2019
4170 Rain 22 1009 88 10000 4.1 90 19:25 05.08.2019
4171 Rain 22 1009 93 2500 6.2 10 18:59 05.08.2019
4172 Rain 23 1009 93 2500 6.2 10 18:40 05.08.2019
4173 Thunderstorm 26 1008 50 10000 2.1 100 18:19 05.08.2019
4174 Thunderstorm 26 1008 50 10000 2.1 100 18:19 05.08.2019
4175 Thunderstorm 26 1008 60 6000 5.1 300 17:46 05.08.2019
4176 Clouds 26 1009 42 10000 3.1 250 17:27 05.08.2019
4177 Clouds 26 1009 44 10000 3.1 270 16:47 05.08.2019
4178 Clouds 26 1009 50 10000 2.6 270 16:27 05.08.2019
4179 Clouds 26 1009 53 10000 2.6 260 15:57 05.08.2019
4180 Clouds 26 1009 53 10000 2.6 260 15:39 05.08.2019
4181 Clouds 26 1009 53 10000 2.6 260 15:39 05.08.2019
4182 Clear 25 1009 50 10000 3.1 260 15:20 05.08.2019
4183 Rain 25 1009 53 10000 3.6 260 14:39 05.08.2019
4184 Rain 24 1009 53 10000 2.6 240 14:19 05.08.2019
4185 Rain 24 1009 53 10000 3.6 250 13:44 05.08.2019
4186 Clear 23 1010 60 10000 2.6 210 13:23 05.08.2019
4187 Clear 23 1010 56 10000 2.6 170 12:49 05.08.2019
4188 Clear 22 1010 60 10000 2.1 140 12:20 05.08.2019
4189 Clear 22 1010 60 10000 1.5 150 11:48 05.08.2019
4190 Clear 21 1010 60 10000 1.5 200 11:28 05.08.2019
4191 Clear 21 1010 60 10000 3.1 160 10:59 05.08.2019
4192 Clear 21 1010 60 10000 3.1 160 10:41 05.08.2019
4193 Clear 20 1010 56 10000 2.1 130 10:21 05.08.2019
4194 Clear 20 1010 56 10000 2.6 130 09:43 05.08.2019
4195 Rain 19 1010 64 10000 2.1 150 09:24 05.08.2019
4196 Rain 18 1011 68 10000 2.1 160 08:51 05.08.2019
4197 Clear 18 1011 68 10000 2.1 0 08:28 05.08.2019
4198 Clear 18 1011 68 10000 2.1 120 07:59 05.08.2019
4199 Clear 17 1011 68 10000 2.1 120 07:41 05.08.2019
4200 Clear 17 1011 68 10000 2.1 120 07:20 05.08.2019
4201 Rain 17 1011 68 10000 1.5 120 06:32 05.08.2019
4202 Rain 17 1012 68 10000 2.6 110 05:51 05.08.2019
4203 Rain 17 1012 68 10000 2.6 110 05:51 05.08.2019
4204 Rain 17 1012 68 10000 1.5 110 05:19 05.08.2019
4205 Clear 17 1012 63 10000 2.6 110 04:25 05.08.2019
4206 Clear 17 1013 63 10000 1.5 120 03:30 05.08.2019
4207 Clear 16 1013 59 10000 1.5 130 02:35 05.08.2019
4208 Clear 16 1013 63 10000 1 0 01:34 05.08.2019
4209 Clear 17 1013 63 10000 1.5 120 00:42 05.08.2019
4210 Clear 17 1014 63 10000 1 0 00:21 05.08.2019
4211 Clear 17 1014 60 10000 1 0 23:57 04.08.2019
4212 Clear 17 1014 60 10000 1 0 23:39 04.08.2019
4213 Clear 18 1014 60 10000 1.5 120 23:19 04.08.2019
4214 Clear 18 1014 60 10000 1.5 110 22:54 04.08.2019
4215 Clear 18 1014 60 10000 1.5 110 22:54 04.08.2019
4216 Clear 18 1014 60 10000 1.5 110 22:36 04.08.2019
4217 Clear 19 1014 56 10000 1 90 22:18 04.08.2019
4218 Clear 19 1014 52 10000 1.5 90 21:42 04.08.2019
4219 Clear 21 1014 49 10000 1 70 21:20 04.08.2019
4220 Clear 21 1014 49 10000 1 70 21:20 04.08.2019
4221 Clear 22 1014 49 10000 0.5 230 20:44 04.08.2019
4222 Clear 23 1014 44 10000 1 0 20:19 04.08.2019
4223 Clear 24 1014 44 10000 1.5 0 19:58 04.08.2019
4224 Clear 24 1014 44 10000 1.5 0 19:38 04.08.2019
4225 Clear 24 1014 44 10000 2.1 230 19:19 04.08.2019
4226 Clear 24 1014 41 10000 3.1 290 18:42 04.08.2019
4227 Clear 24 1015 41 10000 1.5 0 18:20 04.08.2019
4228 Clear 24 1015 41 10000 1.5 0 17:45 04.08.2019
4229 Clear 24 1015 41 10000 1.5 0 17:25 04.08.2019
4230 Clouds 24 1015 44 10000 1.5 0 16:59 04.08.2019
4231 Clouds 24 1015 44 10000 1.5 0 16:38 04.08.2019
4232 Clouds 24 1016 46 10000 3.1 320 16:19 04.08.2019
4233 Clouds 24 1016 46 10000 2.6 230 15:42 04.08.2019
4234 Clouds 23 1016 49 10000 2.6 290 15:21 04.08.2019
4235 Clouds 22 1016 53 10000 2.1 230 14:45 04.08.2019
4236 Clouds 22 1017 49 10000 2.1 0 14:26 04.08.2019
4237 Clouds 22 1017 53 10000 1.5 0 13:47 04.08.2019
4238 Clouds 21 1017 60 10000 2.1 240 13:28 04.08.2019
4239 Clouds 21 1017 56 10000 2.1 250 12:59 04.08.2019
4240 Clouds 21 1017 56 10000 2.1 250 12:40 04.08.2019
4241 Clouds 20 1017 60 10000 3.1 280 12:22 04.08.2019
4242 Clouds 20 1017 63 10000 2.6 260 11:49 04.08.2019
4243 Clouds 20 1017 68 10000 2.6 260 11:23 04.08.2019
4244 Clouds 19 1017 72 10000 2.6 240 10:54 04.08.2019
4245 Clouds 19 1017 77 10000 2.6 220 10:36 04.08.2019
4246 Clouds 19 1017 77 10000 2.6 220 10:18 04.08.2019
4247 Clouds 18 1017 82 10000 1.5 240 09:41 04.08.2019
4248 Clouds 17 1017 82 10000 1.5 250 09:20 04.08.2019
4249 Clouds 16 1017 87 10000 1 0 08:41 04.08.2019
4250 Clouds 16 1017 87 10000 0.5 0 08:20 04.08.2019
4251 Clouds 16 1017 93 10000 0.5 0 07:45 04.08.2019
4252 Clouds 15 1017 93 10000 0.5 0 06:47 04.08.2019
4253 Fog 15 1017 93 10000 1 0 06:24 04.08.2019
4254 Fog 15 1017 93 10000 1 0 06:24 04.08.2019
4255 Clear 14 1017 87 10000 2.1 310 03:44 04.08.2019
4256 Clouds 16 1017 82 10000 2.1 300 02:20 04.08.2019
4257 Clouds 16 1017 82 10000 1.5 300 01:33 04.08.2019
4258 Clouds 17 1017 77 10000 2.1 320 00:44 04.08.2019
4259 -273 0 0 0 0 0 00:26 04.08.2019
4260 Clouds 18 1017 72 10000 2.1 330 23:56 03.08.2019
4261 Clouds 18 1017 72 10000 2.1 330 23:38 03.08.2019
4262 Clouds 18 1017 72 10000 3.1 320 23:18 03.08.2019
4263 Rain 19 1017 72 10000 3.1 330 22:42 03.08.2019
4264 Rain 19 1016 72 10000 3.1 330 22:20 03.08.2019
4265 Rain 19 1016 72 10000 2.6 330 21:40 03.08.2019
4266 Rain 19 1016 72 10000 2.6 330 21:40 03.08.2019
4267 Clouds 20 1016 68 10000 4.1 330 21:22 03.08.2019
4268 Clouds 21 1016 68 10000 3.1 320 20:46 03.08.2019
4269 Clouds 22 1015 68 10000 4.6 300 20:26 03.08.2019
4270 Clouds 22 1015 73 10000 1.5 310 19:57 03.08.2019
4271 Rain 22 1015 73 10000 1.5 310 19:39 03.08.2019
4272 Rain 22 1015 82 10000 1 0 19:21 03.08.2019
4273 Rain 22 1016 72 10000 3.6 360 18:46 03.08.2019
4274 Rain 23 1015 73 10000 2.1 350 18:26 03.08.2019
4275 Clouds 23 1015 68 10000 1.5 340 17:46 03.08.2019
4276 Rain 23 1015 73 10000 2.1 10 17:20 03.08.2019
4277 Rain 23 1015 73 10000 2.6 330 16:40 03.08.2019
4278 Rain 23 1015 64 10000 3.6 340 16:21 03.08.2019
4279 Rain 23 1015 68 10000 2.6 360 15:59 03.08.2019
4280 Rain 23 1015 68 10000 2.6 360 15:39 03.08.2019
4281 Clouds 23 1015 53 10000 4.6 270 15:20 03.08.2019
4282 Clouds 23 1016 53 10000 4.6 260 14:37 03.08.2019
4283 Clouds 23 1016 64 10000 4.1 270 14:18 03.08.2019
4284 Clouds 23 1016 64 10000 4.1 270 14:18 03.08.2019
4285 Rain 23 1016 53 10000 7.7 290 13:47 03.08.2019
4286 Clouds 22 1016 60 10000 4.1 260 13:23 03.08.2019
4287 Clouds 22 1016 50 10000 2.1 0 12:56 03.08.2019
4288 Clouds 22 1016 50 10000 2.1 0 12:37 03.08.2019
4289 Clouds 22 1016 53 10000 2.1 0 12:19 03.08.2019
4290 Clouds 20 1016 56 10000 2.6 330 11:40 03.08.2019
4291 Clouds 20 1016 64 10000 2.1 340 11:22 03.08.2019
4292 Mist 18 1016 68 10000 2.6 330 10:39 03.08.2019
4293 Mist 18 1016 82 9000 2.1 280 10:20 03.08.2019
4294 Mist 17 1015 88 6000 2.6 270 09:38 03.08.2019
4295 Mist 16 1015 93 3200 2.6 290 09:18 03.08.2019
4296 Fog 16 1015 100 800 2.6 300 08:44 03.08.2019
4297 Fog 15 1015 100 400 2.6 310 07:40 03.08.2019
4298 Fog 15 1014 100 600 2.6 300 06:58 03.08.2019
4299 Mist 14 1014 100 2200 2.1 300 06:20 03.08.2019
4300 Fog 15 1014 100 9000 1 0 03:35 03.08.2019
4301 Fog 15 1014 93 10000 1 250 02:26 03.08.2019
4302 Clear 16 1014 87 10000 1 340 00:59 03.08.2019
4303 Clear 16 1014 87 10000 1 340 00:32 03.08.2019
4304 Rain 17 1014 88 10000 1 0 23:42 02.08.2019
4305 Rain 17 1014 82 10000 2.1 220 23:20 02.08.2019
4306 Rain 17 1014 93 10000 3.6 300 22:59 02.08.2019
4307 Rain 17 1014 93 10000 3.6 300 22:40 02.08.2019
4308 Rain 18 1014 82 10000 1 50 22:22 02.08.2019
4309 Clouds 18 1014 82 10000 2.1 90 21:56 02.08.2019
4310 Thunderstorm 18 1014 82 10000 2.1 90 21:38 02.08.2019
4311 Thunderstorm 19 1013 77 10000 4.1 90 21:20 02.08.2019
4312 Thunderstorm 19 1013 72 10000 3.6 120 20:43 02.08.2019
4313 Thunderstorm 20 1013 68 10000 2.6 150 20:23 02.08.2019
4314 Thunderstorm 21 1013 56 10000 4.1 40 19:55 02.08.2019
4315 Thunderstorm 21 1012 44 10000 3.1 340 19:33 02.08.2019
4316 Thunderstorm 23 1012 41 10000 2.6 340 18:57 02.08.2019
4317 Thunderstorm 24 1012 41 10000 2.6 340 18:38 02.08.2019
4318 Thunderstorm 25 1012 41 10000 3.1 300 18:18 02.08.2019
4319 Thunderstorm 25 1013 39 10000 2.1 240 17:39 02.08.2019
4320 Thunderstorm 25 1013 39 10000 2.1 240 17:20 02.08.2019
4321 Clouds 25 1013 41 10000 3.6 260 16:40 02.08.2019
4322 Clouds 25 1013 39 10000 4.1 280 16:21 02.08.2019
4323 Clouds 25 1013 39 10000 2.6 0 15:57 02.08.2019
4324 Rain 25 1013 39 10000 2.6 0 15:37 02.08.2019
4325 Rain 25 1014 39 10000 2.6 0 15:18 02.08.2019
4326 Rain 24 1014 41 10000 3.6 310 14:43 02.08.2019
4327 Thunderstorm 24 1014 44 10000 4.1 300 14:18 02.08.2019
4328 Clouds 25 1014 44 10000 2.1 0 13:46 02.08.2019
4329 Rain 24 1014 47 10000 2.6 0 13:21 02.08.2019
4330 Rain 24 1014 47 10000 3.1 290 12:44 02.08.2019
4331 Rain 23 1015 49 10000 2.1 240 12:20 02.08.2019
4332 Clouds 23 1015 53 10000 3.1 290 11:42 02.08.2019
4333 Clouds 22 1015 60 10000 2.6 320 11:23 02.08.2019
4334 Clouds 22 1015 64 10000 2.1 290 10:48 02.08.2019
4335 Clouds 21 1015 64 10000 2.6 300 10:24 02.08.2019
4336 Clouds 20 1015 64 10000 3.1 290 09:58 02.08.2019
4337 Clouds 20 1015 64 10000 3.1 290 09:40 02.08.2019
4338 Clear 19 1015 72 10000 2.1 270 09:22 02.08.2019
4339 Clear 18 1015 77 10000 2.1 260 08:41 02.08.2019
4340 Clear 17 1015 82 10000 1.5 250 08:20 02.08.2019
4341 Clear 17 1015 82 10000 1.5 220 07:45 02.08.2019
4342 Clear 16 1015 87 10000 1 240 07:26 02.08.2019
4343 Clear 15 1015 87 10000 1 0 06:37 02.08.2019
4344 Clear 16 1015 87 10000 0.5 0 05:47 02.08.2019
4345 Clear 16 1015 82 10000 1 0 03:42 02.08.2019
4346 Clear 16 1015 77 10000 1.5 250 03:23 02.08.2019
4347 Clear 17 1016 77 10000 1.5 260 01:44 02.08.2019
4348 Clear 17 1016 72 10000 0.5 0 00:34 02.08.2019
4349 Clear 18 1015 63 10000 1 0 23:45 01.08.2019
4350 Clear 19 1015 68 10000 0.5 0 23:27 01.08.2019
4351 Clear 19 1015 68 10000 0.5 330 22:46 01.08.2019
4352 Clear 20 1015 56 10000 0.5 0 22:25 01.08.2019
4353 Clear 20 1015 56 10000 0.5 80 21:59 01.08.2019
4354 Clear 21 1015 56 10000 0.5 80 21:41 01.08.2019
4355 Clear 21 1015 49 10000 0.5 0 21:23 01.08.2019
4356 Clear 23 1015 46 10000 1.5 270 20:47 01.08.2019
4357 Clear 23 1015 49 10000 1 250 20:23 01.08.2019
4358 Clear 23 1015 41 10000 1.5 280 19:59 01.08.2019
4359 Clear 23 1015 41 10000 1.5 280 19:37 01.08.2019
4360 Clear 23 1015 41 10000 1.5 250 19:18 01.08.2019
4361 Clear 24 1015 41 10000 2.1 230 18:43 01.08.2019
4362 Clear 24 1015 41 10000 2.6 210 18:24 01.08.2019
4363 Clear 24 1015 41 10000 2.6 210 18:24 01.08.2019
4364 Clear 24 1015 38 10000 3.1 0 17:49 01.08.2019
4365 Clouds 24 1015 38 10000 1.5 240 17:30 01.08.2019
4366 Clear 24 1016 41 10000 1.5 190 16:45 01.08.2019
4367 Clear 24 1016 41 10000 2.6 230 16:23 01.08.2019
4368 Clear 24 1016 43 10000 2.1 220 15:54 01.08.2019
4369 Clear 24 1016 43 10000 2.1 220 15:36 01.08.2019
4370 Clear 24 1016 43 10000 3.1 210 15:18 01.08.2019
4371 Clear 24 1016 41 10000 3.6 260 14:41 01.08.2019
4372 Clear 24 1016 38 10000 3.6 200 14:19 01.08.2019
4373 Clear 23 1016 41 10000 2.6 210 13:56 01.08.2019
4374 Clear 23 1016 41 10000 2.6 210 13:38 01.08.2019
4375 Clear 23 1016 41 10000 3.1 220 13:20 01.08.2019
4376 Clear 22 1016 43 10000 2.1 260 12:42 01.08.2019
4377 Clouds 22 1017 40 10000 2.6 0 12:23 01.08.2019
4378 Clouds 22 1017 46 10000 3.6 270 11:43 01.08.2019
4379 Clouds 22 1017 53 10000 2.6 260 11:24 01.08.2019
4380 Clouds 21 1017 60 10000 2.6 240 10:46 01.08.2019
4381 Clouds 20 1017 59 10000 2.1 270 10:28 01.08.2019
4382 Clear 20 1017 63 10000 1.5 240 09:59 01.08.2019
4383 Clear 19 1017 63 10000 1.5 240 09:41 01.08.2019
4384 Clear 19 1017 63 10000 1.5 240 09:41 01.08.2019
4385 Clouds 19 1017 72 10000 1.5 240 09:22 01.08.2019
4386 Clouds 18 1017 72 10000 1.5 240 08:44 01.08.2019
4387 Clouds 17 1017 72 10000 1.5 180 08:20 01.08.2019
4388 Clouds 16 1017 72 10000 1 0 07:49 01.08.2019
4389 Fog 15 1017 77 10000 1 0 07:25 01.08.2019
4390 Fog 14 1017 87 10000 2.29 228.396 06:48 01.08.2019
4391 Fog 14 1017 93 10000 1 90 05:51 01.08.2019
4392 Fog 15 1017 87 10000 0.5 0 04:24 01.08.2019
4393 Fog 15 1017 77 10000 2.1 160 02:33 01.08.2019
4394 Clear 16 1017 82 10000 0.5 310 00:43 01.08.2019
4395 Fog 16 1017 82 10000 0.5 0 00:24 01.08.2019
4396 Fog 16 1017 77 10000 1 0 23:43 31.07.2019
4397 Fog 17 1017 77 10000 1.5 310 23:21 31.07.2019
4398 Fog 17 1017 72 10000 1.5 360 22:56 31.07.2019
4399 Fog 18 1017 72 10000 1.5 360 22:38 31.07.2019
4400 Fog 18 1016 68 10000 2.1 300 22:19 31.07.2019
4401 Clear 19 1016 63 10000 2.1 320 21:38 31.07.2019
4402 Clear 19 1016 63 10000 2.6 300 21:18 31.07.2019
4403 Clouds 21 1015 56 10000 5.1 300 20:43 31.07.2019
4404 Rain 21 1015 53 10000 7.2 290 20:21 31.07.2019
4405 Rain 22 1014 46 10000 8.2 290 19:42 31.07.2019
4406 Rain 23 1014 41 10000 5.7 280 19:23 31.07.2019
4407 Rain 24 1014 38 10000 6.2 270 18:53 31.07.2019
4408 Clouds 25 1014 41 10000 3.1 220 18:26 31.07.2019
4409 Clouds 25 1014 38 10000 2.6 250 17:59 31.07.2019
4410 Clouds 25 1014 38 10000 2.6 250 17:40 31.07.2019
4411 Clouds 25 1014 38 10000 2.6 250 17:40 31.07.2019
4412 Clouds 25 1014 38 10000 4.1 250 17:19 31.07.2019
4413 Clouds 26 1014 38 10000 3.6 250 16:43 31.07.2019
4414 Clouds 25 1014 41 10000 2.6 260 16:20 31.07.2019
4415 Clear 25 1014 39 10000 2.1 230 15:45 31.07.2019
4416 Clear 25 1014 41 10000 4.1 240 15:25 31.07.2019
4417 Clouds 25 1014 44 10000 3.1 240 14:54 31.07.2019
4418 Clouds 25 1014 44 10000 3.1 240 14:36 31.07.2019
4419 Clouds 25 1015 44 10000 3.6 230 14:18 31.07.2019
4420 Clouds 24 1015 50 10000 3.1 270 13:42 31.07.2019
4421 Clouds 24 1015 50 10000 3.1 250 13:23 31.07.2019
4422 Clouds 23 1015 60 10000 2.6 250 12:45 31.07.2019
4423 Clouds 23 1015 64 10000 3.1 260 12:27 31.07.2019
4424 Clouds 22 1015 56 10000 5.1 260 11:59 31.07.2019
4425 Rain 22 1015 77 10000 1.5 270 11:38 31.07.2019
4426 Rain 22 1015 72 10000 6.7 240 11:19 31.07.2019
4427 Rain 21 1015 64 10000 5.1 250 10:41 31.07.2019
4428 Clouds 21 1014 72 10000 4.1 260 10:20 31.07.2019
4429 Clear 20 1014 72 10000 3.1 260 09:44 31.07.2019
4430 Clear 20 1014 82 10000 3.1 250 09:24 31.07.2019
4431 Mist 19 1014 82 10000 2.6 240 08:56 31.07.2019
4432 Clouds 19 1014 82 10000 2.6 240 08:37 31.07.2019
4433 Rain 19 1014 82 10000 1.5 210 08:19 31.07.2019
4434 Fog 18 1013 88 10000 0.5 0 07:34 31.07.2019
4435 Fog 17 1013 93 10000 0.5 0 06:31 31.07.2019
4436 Rain 18 1012 88 10000 1 0 04:50 31.07.2019
4437 Clear 20 1012 64 10000 2.1 220 01:32 31.07.2019
4438 Clear 22 1012 60 10000 3.6 90 23:58 30.07.2019
4439 Clear 22 1012 60 10000 3.6 90 23:39 30.07.2019
4440 Clear 22 1011 60 10000 4.6 90 23:18 30.07.2019
4441 Clear 22 1011 57 10000 4.1 80 22:45 30.07.2019
4442 Clear 23 1011 50 10000 4.6 70 22:25 30.07.2019
4443 Clear 24 1010 44 10000 1.5 80 21:39 30.07.2019
4444 Clear 25 1010 44 10000 1 0 21:20 30.07.2019
4445 Clear 26 1010 39 10000 1.5 50 20:59 30.07.2019
4446 Clear 27 1010 39 10000 1.5 50 20:41 30.07.2019
4447 Clear 28 1010 32 10000 2.6 30 20:23 30.07.2019
4448 -273 0 0 0 0 0 19:56 30.07.2019
4449 Clear 29 1010 32 10000 3.6 290 19:36 30.07.2019
4450 Clear 29 1010 30 10000 3.6 260 18:48 30.07.2019
4451 Clear 29 1010 32 10000 3.1 250 18:27 30.07.2019
4452 Clear 29 1010 33 10000 3.6 0 17:59 30.07.2019
4453 Clear 29 1010 33 10000 3.6 0 17:41 30.07.2019
4454 Clear 29 1010 33 10000 3.1 260 17:19 30.07.2019
4455 Clear 29 1010 35 10000 1 0 16:46 30.07.2019
4456 Clear 29 1011 35 10000 2.6 210 16:20 30.07.2019
4457 Clear 29 1011 37 10000 3.1 0 15:44 30.07.2019
4458 Clear 28 1011 35 10000 2.6 0 15:23 30.07.2019
4459 Clear 28 1011 37 10000 3.1 260 14:59 30.07.2019
4460 Clear 28 1011 37 10000 3.1 260 14:40 30.07.2019
4461 Clear 28 1011 42 10000 2.6 0 14:18 30.07.2019
4462 Clear 28 1011 37 10000 2.1 0 13:41 30.07.2019
4463 Clouds 27 1012 47 10000 2.1 0 13:23 30.07.2019
4464 Clouds 27 1012 47 10000 3.1 320 12:57 30.07.2019
4465 Clouds 26 1012 47 10000 3.1 320 12:38 30.07.2019
4466 Clouds 26 1012 47 10000 2.1 290 12:19 30.07.2019
4467 Clear 24 1012 50 10000 1.5 0 11:38 30.07.2019
4468 Clear 24 1012 50 10000 1.5 0 11:19 30.07.2019
4469 Clear 23 1012 53 10000 1 0 10:42 30.07.2019
4470 Clear 22 1012 56 10000 2.1 0 10:23 30.07.2019
4471 Clear 22 1013 56 10000 1.5 310 09:49 30.07.2019
4472 Clear 20 1012 64 10000 2.1 350 09:31 30.07.2019
4473 Clear 20 1012 68 10000 2.1 320 08:47 30.07.2019
4474 Clear 19 1012 72 10000 2.1 310 08:28 30.07.2019
4475 Clear 18 1012 72 10000 1.5 330 07:47 30.07.2019
4476 Clear 18 1012 72 10000 1.5 330 07:47 30.07.2019
4477 Clear 18 1012 72 10000 1 0 07:28 30.07.2019
4478 Clear 18 1012 72 10000 1.5 270 06:47 30.07.2019
4479 Clear 18 1012 72 10000 1.5 310 05:56 30.07.2019
4480 Clouds 18 1012 72 10000 2.6 310 05:32 30.07.2019
4481 Clear 19 1012 72 10000 2.57 290.439 01:40 30.07.2019
4482 Clear 19 1012 72 10000 2.1 320 00:41 30.07.2019
4483 Clear 20 1011 68 10000 2.6 320 00:20 30.07.2019
4484 Clear 20 1011 68 10000 2.6 300 23:44 29.07.2019
4485 Clear 20 1012 68 10000 2.6 310 23:25 29.07.2019
4486 Clear 20 1011 73 10000 3.1 310 22:57 29.07.2019
4487 Clear 21 1011 73 10000 3.1 310 22:38 29.07.2019
4488 Clear 21 1011 77 10000 1.5 350 22:19 29.07.2019
4489 Clear 21 1011 77 10000 1.5 350 22:19 29.07.2019
4490 Clouds 21 1011 77 10000 1.5 350 21:55 29.07.2019
4491 Clouds 22 1011 77 10000 1.5 350 21:37 29.07.2019
4492 Clouds 22 1011 73 10000 2.6 340 21:18 29.07.2019
4493 Clouds 23 1011 73 10000 3.1 340 20:43 29.07.2019
4494 Clouds 23 1011 69 10000 3.6 350 20:22 29.07.2019
4495 Clouds 23 1010 69 10000 3.6 350 19:54 29.07.2019
4496 Clouds 23 1010 69 10000 3.6 350 19:36 29.07.2019
4497 Clouds 23 1010 64 10000 4.1 360 19:18 29.07.2019
4498 Clouds 23 1010 64 10000 4.1 360 19:18 29.07.2019
4499 Clouds 24 1010 61 10000 5.1 330 18:41 29.07.2019
4500 Clouds 24 1010 61 10000 4.1 310 18:21 29.07.2019
4501 Clouds 23 1010 64 10000 4.1 320 17:49 29.07.2019
4502 Clouds 23 1010 64 10000 4.1 300 17:31 29.07.2019
4503 Rain 23 1010 64 10000 4.6 300 16:57 29.07.2019
4504 Mist 23 1010 64 10000 4.6 300 16:38 29.07.2019
4505 Mist 22 1010 69 10000 5.1 300 16:20 29.07.2019
4506 Rain 22 1010 69 10000 4.6 300 15:49 29.07.2019
4507 Rain 22 1011 73 10000 3.1 300 15:30 29.07.2019
4508 Rain 21 1011 77 10000 3.1 300 14:44 29.07.2019
4509 Rain 21 1011 77 10000 2.6 290 14:21 29.07.2019
4510 Rain 21 1011 77 10000 2.6 290 14:21 29.07.2019
4511 Rain 21 1011 73 10000 2.6 290 13:55 29.07.2019
4512 Rain 21 1011 73 10000 2.6 290 13:36 29.07.2019
4513 Rain 21 1010 73 10000 3.6 280 13:18 29.07.2019
4514 Rain 21 1010 73 10000 4.1 280 12:40 29.07.2019
4515 Rain 20 1010 73 10000 4.1 280 12:21 29.07.2019
4516 Rain 20 1010 77 10000 4.1 280 11:42 29.07.2019
4517 Mist 20 1010 77 10000 5.1 280 11:20 29.07.2019
4518 Mist 20 1010 77 10000 4.6 270 10:44 29.07.2019
4519 Mist 20 1010 77 10000 5.1 280 10:23 29.07.2019
4520 Mist 20 1010 82 10000 5.1 280 09:45 29.07.2019
4521 Mist 20 1009 88 10000 5.7 280 09:24 29.07.2019
4522 -273 0 0 0 0 0 08:56 29.07.2019
4523 Mist 20 1009 88 10000 5.1 280 08:27 29.07.2019
4524 Mist 20 1009 88 10000 4.6 280 07:55 29.07.2019
4525 Mist 20 1008 88 10000 4.6 270 07:31 29.07.2019
4526 Mist 20 1008 88 10000 6.2 290 06:43 29.07.2019
4527 Mist 20 1008 88 10000 4.6 280 05:38 29.07.2019
4528 Rain 20 1007 77 10000 5.7 280 04:24 29.07.2019
4529 Rain 21 1006 77 10000 3.1 270 01:54 29.07.2019
4530 Fog 21 1006 77 10000 3.1 270 01:35 29.07.2019
4531 Rain 21 1006 73 10000 3.6 240 00:59 29.07.2019
4532 Rain 22 1005 73 10000 3.1 260 00:30 29.07.2019
4533 Fog 22 1005 68 10000 2.6 260 23:51 28.07.2019
4534 Clear 23 1005 68 10000 2.6 260 23:33 28.07.2019
4535 Clear 22 1004 68 10000 2.1 300 22:57 28.07.2019
4536 Clear 23 1004 68 10000 2.1 300 22:36 28.07.2019
4537 Clear 23 1004 57 10000 2.1 280 22:18 28.07.2019
4538 Clear 25 1004 57 10000 2.1 270 21:42 28.07.2019
4539 Clouds 26 1003 54 10000 3.1 270 21:18 28.07.2019
4540 Rain 27 1003 51 10000 1 0 20:43 28.07.2019
4541 Rain 27 1003 42 10000 2.6 180 20:24 28.07.2019
4542 Thunderstorm 29 1002 39 10000 0.5 0 19:41 28.07.2019
4543 Thunderstorm 29 1002 39 10000 2.1 120 19:21 28.07.2019
4544 Thunderstorm 29 1002 37 10000 3.6 80 18:46 28.07.2019
4545 Clear 29 1001 37 10000 3.6 90 18:28 28.07.2019
4546 Clear 29 1001 37 10000 1.5 0 17:57 28.07.2019
4547 Clear 29 1001 37 10000 1.5 0 17:38 28.07.2019
4548 Clear 29 1001 37 10000 3.1 70 17:19 28.07.2019
4549 Clear 30 1001 37 10000 2.1 130 16:45 28.07.2019
4550 Clear 29 1001 39 10000 3.6 100 16:25 28.07.2019
4551 Clear 29 1001 40 10000 3.6 100 15:48 28.07.2019
4552 Clear 28 1001 42 10000 5.1 90 15:27 28.07.2019
4553 Clear 29 1001 45 10000 4.6 80 14:56 28.07.2019
4554 Clear 28 1001 45 10000 4.6 80 14:36 28.07.2019
4555 Clear 28 1001 44 10000 5.1 90 14:18 28.07.2019
4556 Clear 28 1001 44 10000 5.1 90 14:18 28.07.2019
4557 Clear 28 1001 44 10000 5.1 90 14:18 28.07.2019
4558 Clear 27 1001 45 10000 3.6 110 13:39 28.07.2019
4559 Clear 27 1001 47 10000 4.1 80 13:20 28.07.2019
4560 Clear 27 1001 47 10000 4.6 90 12:45 28.07.2019
4561 Clear 26 1001 50 10000 4.1 70 12:27 28.07.2019
4562 Clear 25 1001 50 10000 3.1 0 11:50 28.07.2019
4563 Clouds 25 1002 53 10000 4.1 80 11:29 28.07.2019
4564 Clouds 24 1002 53 10000 4.1 60 10:59 28.07.2019
4565 Clouds 23 1002 53 10000 4.1 60 10:38 28.07.2019
4566 Clouds 23 1002 56 10000 3.1 80 10:18 28.07.2019
4567 Clear 22 1002 60 10000 4.1 70 09:40 28.07.2019
4568 Clear 21 1002 60 10000 5.1 80 09:21 28.07.2019
4569 Clear 21 1002 64 10000 5.1 70 08:42 28.07.2019
4570 Clear 20 1002 68 10000 5.1 70 08:22 28.07.2019
4571 Clear 18 1002 72 10000 3.6 70 07:42 28.07.2019
4572 Clear 18 1002 72 10000 3.6 70 07:24 28.07.2019
4573 Clear 17 1002 77 10000 4.1 70 06:35 28.07.2019
4574 Clear 18 1001 77 10000 3.1 70 05:20 28.07.2019
4575 Clear 20 1002 68 10000 4.1 70 02:37 28.07.2019
4576 Clear 21 1002 64 10000 5.1 80 01:43 28.07.2019
4577 Clear 21 1003 60 10000 5.7 70 00:56 28.07.2019
4578 Clear 22 1003 60 10000 5.7 70 00:37 28.07.2019
4579 Clear 22 1003 53 10000 6.7 70 23:53 27.07.2019
4580 Clear 23 1003 49 10000 4.6 60 23:28 27.07.2019
4581 Clear 23 1003 47 10000 4.6 70 22:47 27.07.2019
4582 Clear 23 1003 47 10000 5.7 70 22:28 27.07.2019
4583 Clear 24 1003 41 10000 5.1 80 21:59 27.07.2019
4584 Clear 25 1003 41 10000 5.1 80 21:37 27.07.2019
4585 Clear 26 1003 39 10000 5.1 80 21:18 27.07.2019
4586 Clear 27 1003 36 10000 6.2 80 20:44 27.07.2019
4587 Clear 27 1003 34 10000 6.7 80 20:19 27.07.2019
4588 Clear 28 1003 32 10000 6.7 80 19:41 27.07.2019
4589 Clear 28 1003 34 10000 7.2 80 19:22 27.07.2019
4590 Clear 28 1003 34 10000 7.7 80 18:48 27.07.2019
4591 Clear 29 1003 30 10000 7.2 90 18:30 27.07.2019
4592 Clear 29 1003 32 10000 8.2 90 17:51 27.07.2019
4593 Clear 29 1003 32 10000 7.7 90 17:32 27.07.2019
4594 Clear 29 1004 32 10000 8.2 70 16:56 27.07.2019
4595 Clear 29 1004 32 10000 8.2 70 16:37 27.07.2019
4596 Clear 29 1004 32 10000 8.2 80 16:18 27.07.2019
4597 Clear 29 1004 32 10000 8.2 90 15:43 27.07.2019
4598 Clear 29 1004 32 10000 7.2 100 15:19 27.07.2019
4599 Clear 29 1005 32 10000 9.3 80 14:45 27.07.2019
4600 Clear 29 1005 32 10000 7.7 90 14:26 27.07.2019
4601 Clear 28 1005 39 10000 8.2 80 13:50 27.07.2019
4602 Clear 28 1006 37 10000 7.2 100 13:24 27.07.2019
4603 Clear 28 1006 37 10000 9.8 90 12:51 27.07.2019
4604 Clear 27 1006 37 10000 9.8 90 12:32 27.07.2019
4605 Clear 27 1006 42 10000 7.2 90 11:57 27.07.2019
4606 Clear 27 1006 42 10000 7.2 90 11:38 27.07.2019
4607 Clear 26 1007 44 10000 7.2 90 11:20 27.07.2019
4608 Clear 25 1007 47 10000 7.2 80 10:41 27.07.2019
4609 Clear 25 1007 50 10000 6.2 100 10:21 27.07.2019
4610 Clear 23 1007 53 10000 6.2 100 09:41 27.07.2019
4611 Clear 23 1007 60 10000 6.7 90 09:23 27.07.2019
4612 Clear 22 1007 64 10000 5.7 90 08:49 27.07.2019
4613 Clear 21 1007 68 10000 4.6 90 08:29 27.07.2019
4614 Clear 20 1007 72 10000 5.1 90 07:55 27.07.2019
4615 Clear 19 1007 77 10000 4.1 90 07:29 27.07.2019
4616 Clear 18 1007 77 10000 4.6 80 06:56 27.07.2019
4617 Clear 18 1007 77 10000 3.1 80 06:31 27.07.2019
4618 Clear 17 1007 77 10000 3.6 90 05:52 27.07.2019
4619 Clear 18 1007 72 10000 4.6 80 05:24 27.07.2019
4620 Clear 18 1008 68 10000 3.6 70 04:31 27.07.2019
4621 Clear 20 1009 60 10000 3.1 100 02:58 27.07.2019
4622 Clear 20 1009 60 10000 3.6 90 02:32 27.07.2019
4623 Clear 21 1009 52 10000 5.7 80 01:47 27.07.2019
4624 Clear 22 1009 46 10000 6.2 70 01:00 27.07.2019
4625 Clear 23 1009 46 10000 5.7 70 00:32 27.07.2019
4626 Clear 24 1009 44 10000 6.2 70 23:54 26.07.2019
4627 Clear 24 1009 41 10000 7.2 80 23:33 26.07.2019
4628 Clear 25 1010 39 10000 7.7 70 22:56 26.07.2019
4629 Clear 26 1010 39 10000 7.7 70 22:38 26.07.2019
4630 Clear 26 1009 39 10000 6.7 70 22:20 26.07.2019
4631 Clear 27 1009 36 10000 7.2 70 21:48 26.07.2019
4632 Clear 28 1009 34 10000 6.2 70 21:19 26.07.2019
4633 Clear 29 1009 35 10000 7.2 70 20:42 26.07.2019
4634 Clear 30 1009 33 10000 7.2 80 20:23 26.07.2019
4635 Clear 30 1010 31 10000 7.2 80 19:43 26.07.2019
4636 Clear 31 1010 31 10000 7.2 80 19:25 26.07.2019
4637 Clear 31 1010 27 10000 6.7 80 18:57 26.07.2019
4638 Clear 31 1010 27 10000 6.7 80 18:37 26.07.2019
4639 Clear 32 1010 29 10000 6.2 100 18:19 26.07.2019
4640 Clear 32 1010 31 10000 9.3 80 17:44 26.07.2019
4641 Clear 32 1010 27 10000 7.2 80 17:19 26.07.2019
4642 Clear 32 1011 31 10000 9.3 80 16:57 26.07.2019
4643 Clear 32 1011 31 10000 9.3 80 16:38 26.07.2019
4644 Clear 32 1011 29 10000 8.2 80 16:19 26.07.2019
4645 Clear 32 1011 33 10000 8.2 80 15:45 26.07.2019
4646 Clear 32 1012 33 10000 6.7 90 15:27 26.07.2019
4647 Clear 32 1012 35 10000 9.3 90 14:59 26.07.2019
4648 Clear 31 1012 35 10000 9.3 90 14:41 26.07.2019
4649 Clear 31 1013 35 10000 6.2 80 14:21 26.07.2019
4650 Clear 31 1013 35 10000 6.7 90 13:40 26.07.2019
4651 Clear 30 1013 37 10000 5.7 100 13:22 26.07.2019
4652 Clear 30 1013 37 10000 5.7 110 12:47 26.07.2019
4653 Clouds 29 1013 42 10000 6.7 80 12:20 26.07.2019
4654 Clear 28 1014 42 10000 7.2 90 11:40 26.07.2019
4655 Clear 27 1014 47 10000 7.7 90 11:20 26.07.2019
4656 Clear 27 1014 53 10000 5.7 90 10:55 26.07.2019
4657 Clear 26 1014 53 10000 5.7 90 10:37 26.07.2019
4658 Clear 25 1014 50 10000 4.6 90 09:55 26.07.2019
4659 Clear 24 1014 50 10000 4.6 90 09:37 26.07.2019
4660 Clear 22 1015 56 10000 4.6 90 08:44 26.07.2019
4661 Clear 21 1015 60 10000 4.6 90 08:23 26.07.2019
4662 Clear 21 1015 60 10000 4.1 90 07:59 26.07.2019
4663 Clear 20 1014 64 10000 4.1 90 07:29 26.07.2019
4664 Clear 20 1014 64 10000 4.1 90 06:53 26.07.2019
4665 Clear 20 1014 60 10000 3.1 100 05:23 26.07.2019
4666 Clear 21 1015 56 10000 4.1 80 04:28 26.07.2019
4667 Clear 22 1015 60 10000 4.1 90 03:43 26.07.2019
4668 Clear 25 1015 53 10000 3.6 90 01:43 26.07.2019
4669 Clear 26 1015 44 10000 4.6 90 00:47 26.07.2019
4670 Clear 27 1015 39 10000 4.1 90 23:59 25.07.2019
4671 Clear 28 1015 42 10000 3.1 80 23:25 25.07.2019
4672 Clear 28 1015 37 10000 2.6 80 22:58 25.07.2019
4673 Clear 29 1015 37 10000 2.6 80 22:39 25.07.2019
4674 Clear 29 1015 35 10000 3.1 80 22:20 25.07.2019
4675 Clear 29 1015 33 10000 3.6 70 21:45 25.07.2019
4676 Clear 31 1015 33 10000 3.6 70 21:22 25.07.2019
4677 Clear 32 1015 27 10000 4.1 90 20:48 25.07.2019
4678 Clear 33 1015 27 10000 4.6 80 20:29 25.07.2019
4679 Clear 34 1014 24 10000 6.2 80 19:54 25.07.2019
4680 Clear 34 1014 24 10000 6.2 80 19:36 25.07.2019
4681 Clear 35 1014 22 10000 4.1 100 19:18 25.07.2019
4682 Clear 36 1014 20 10000 4.1 90 18:39 25.07.2019
4683 Clear 36 1015 20 10000 4.1 90 18:20 25.07.2019
4684 Clear 36 1015 20 10000 3.1 120 17:44 25.07.2019
4685 Clear 36 1015 19 10000 3.6 110 17:24 25.07.2019
4686 Clear 37 1015 20 10000 3.1 80 16:45 25.07.2019
4687 Clear 37 1015 20 10000 4.1 80 16:26 25.07.2019
4688 -273 0 0 0 0 0 15:56 25.07.2019
4689 Clear 37 1015 20 10000 2.6 120 15:36 25.07.2019
4690 Clear 37 1015 21 10000 2.6 110 15:18 25.07.2019
4691 Clear 36 1016 22 10000 3.1 140 14:41 25.07.2019
4692 Clear 36 1016 23 10000 4.6 90 14:22 25.07.2019
4693 Clear 36 1016 25 10000 3.6 0 13:43 25.07.2019
4694 Clear 36 1016 23 10000 3.1 120 13:25 25.07.2019
4695 Clear 36 1016 23 10000 3.1 120 13:25 25.07.2019
4696 Clear 35 1016 26 10000 4.1 100 12:46 25.07.2019
4697 Clear 34 1016 26 10000 3.1 100 12:27 25.07.2019
4698 Clear 33 1016 28 10000 2.6 110 11:43 25.07.2019
4699 Clear 33 1016 29 10000 2.6 130 11:23 25.07.2019
4700 Clear 31 1016 35 10000 2.6 140 10:45 25.07.2019
4701 Clear 30 1017 39 10000 2.6 110 10:26 25.07.2019
4702 Clear 29 1017 42 10000 2.6 100 09:52 25.07.2019
4703 Clear 27 1017 42 10000 2.6 100 09:34 25.07.2019
4704 Clear 25 1017 50 10000 3.1 110 08:53 25.07.2019
4705 Clear 24 1017 50 10000 3.1 110 08:33 25.07.2019
4706 Clear 23 1017 53 10000 3.6 90 07:42 25.07.2019
4707 Clear 22 1017 60 10000 4.1 80 07:24 25.07.2019
4708 Clear 21 1016 60 10000 2.6 100 06:40 25.07.2019
4709 Clear 21 1016 60 10000 3.1 100 05:37 25.07.2019
4710 Clear 21 1016 60 10000 3.1 100 04:53 25.07.2019
4711 Clear 22 1016 64 10000 3.6 90 03:24 25.07.2019
4712 Clear 24 1016 57 10000 2.6 90 01:21 25.07.2019
4713 Clear 25 1016 57 10000 3.1 90 00:35 25.07.2019
4714 Clear 26 1016 50 10000 1.5 70 23:59 24.07.2019
4715 Clear 26 1016 50 10000 1.5 70 23:40 24.07.2019
4716 Clear 27 1015 47 10000 2.6 90 23:22 24.07.2019
4717 Clear 26 1015 47 10000 2.6 90 22:45 24.07.2019
4718 Clear 28 1015 42 10000 2.1 80 22:22 24.07.2019
4719 Clear 29 1015 37 10000 2.6 90 21:56 24.07.2019
4720 Clear 30 1015 37 10000 2.6 90 21:38 24.07.2019
4721 Clear 31 1015 37 10000 2.6 90 21:38 24.07.2019
4722 Clear 31 1015 33 10000 2.6 90 21:19 24.07.2019
4723 Clear 32 1014 28 10000 2.1 110 20:46 24.07.2019
4724 Clear 33 1014 26 10000 1.5 110 20:28 24.07.2019
4725 Clear 34 1014 24 10000 2.6 110 19:58 24.07.2019
4726 Clear 35 1014 24 10000 2.6 110 19:40 24.07.2019
4727 Clear 35 1014 24 10000 2.6 110 19:40 24.07.2019
4728 Clear 35 1014 23 10000 2.1 120 19:20 24.07.2019
4729 Clear 35 1014 23 10000 1.5 0 18:43 24.07.2019
4730 Clear 35 1015 23 10000 2.6 0 18:24 24.07.2019
4731 Clear 35 1015 23 10000 3.1 110 17:47 24.07.2019
4732 Clear 36 1015 25 10000 3.6 100 17:22 24.07.2019
4733 Clear 35 1015 25 10000 3.1 0 16:44 24.07.2019
4734 Clear 36 1015 25 10000 2.1 0 16:23 24.07.2019
4735 Clear 35 1015 25 10000 2.6 0 15:59 24.07.2019
4736 Clear 35 1015 25 10000 2.6 0 15:37 24.07.2019
4737 Clear 35 1015 26 10000 3.6 200 15:19 24.07.2019
4738 Clear 35 1015 26 10000 2.6 170 14:44 24.07.2019
4739 Clear 34 1016 26 10000 2.6 90 14:20 24.07.2019
4740 Clear 33 1016 28 10000 2.6 110 13:40 24.07.2019
4741 Clear 33 1016 28 10000 3.1 130 13:19 24.07.2019
4742 Clear 33 1016 31 10000 2.6 0 12:52 24.07.2019
4743 Clear 32 1016 31 10000 2.6 0 12:34 24.07.2019
4744 Clear 31 1017 35 10000 3.1 130 11:41 24.07.2019
4745 Clear 30 1017 37 10000 2.6 110 11:21 24.07.2019
4746 Clear 29 1017 42 10000 3.1 100 10:49 24.07.2019
4747 Clear 28 1017 47 10000 3.1 100 10:27 24.07.2019
4748 Clear 27 1017 47 10000 2.6 100 09:59 24.07.2019
4749 Clear 26 1017 47 10000 2.6 100 09:41 24.07.2019
4750 Clear 25 1017 53 10000 3.1 110 09:21 24.07.2019
4751 Clear 23 1017 57 10000 3.1 100 08:42 24.07.2019
4752 Clear 22 1017 64 10000 3.1 100 07:52 24.07.2019
4753 Clear 21 1017 64 10000 3.1 100 07:31 24.07.2019
4754 Clear 19 1017 77 10000 3.6 100 06:56 24.07.2019
4755 Clear 18 1017 77 10000 3.1 90 06:28 24.07.2019
4756 Clear 19 1018 72 10000 3.1 90 04:56 24.07.2019
4757 Clear 20 1018 68 10000 2.1 100 01:48 24.07.2019
4758 Clear 21 1019 64 10000 2.6 80 00:58 24.07.2019
4759 Clear 22 1019 60 10000 3.1 80 00:30 24.07.2019
4760 Clear 22 1019 57 10000 2.6 80 23:52 23.07.2019
4761 Clear 23 1019 57 10000 2.6 50 23:26 23.07.2019
4762 Clear 23 1019 53 10000 2.6 40 22:58 23.07.2019
4763 Clear 24 1019 53 10000 2.6 40 22:37 23.07.2019
4764 Clear 24 1018 53 10000 3.1 40 22:18 23.07.2019
4765 Clear 24 1018 53 10000 3.1 40 22:18 23.07.2019
4766 Clear 26 1018 44 10000 2.6 40 21:44 23.07.2019
4767 Clear 26 1018 44 10000 2.6 40 21:44 23.07.2019
4768 Clear 28 1018 45 10000 2.1 20 21:25 23.07.2019
4769 Clear 30 1018 35 10000 1.5 20 20:49 23.07.2019
4770 Clear 31 1019 31 10000 1.5 350 20:29 23.07.2019
4771 Clear 31 1019 33 10000 1.5 10 19:44 23.07.2019
4772 Clear 32 1019 31 10000 2.1 50 19:24 23.07.2019
4773 Clear 32 1019 31 10000 2.1 360 18:57 23.07.2019
4774 Clear 32 1019 31 10000 2.1 360 18:39 23.07.2019
4775 Clear 32 1019 31 10000 1 0 18:19 23.07.2019
4776 Clear 32 1019 29 10000 2.6 330 17:42 23.07.2019
4777 Clear 32 1019 29 10000 2.6 330 17:42 23.07.2019
4778 Clear 32 1019 31 10000 1.5 0 17:21 23.07.2019
4779 Clear 32 1020 33 10000 2.6 240 16:44 23.07.2019
4780 Clear 32 1020 33 10000 2.6 250 16:25 23.07.2019
4781 Clear 31 1020 33 10000 1.5 0 15:51 23.07.2019
4782 Clear 31 1020 35 10000 2.1 270 15:32 23.07.2019
4783 Clear 30 1021 33 10000 2.6 0 14:55 23.07.2019
4784 Clear 30 1021 33 10000 2.6 0 14:36 23.07.2019
4785 Clear 30 1021 33 10000 2.1 0 14:18 23.07.2019
4786 Clear 29 1021 35 10000 1.5 0 13:42 23.07.2019
4787 Clear 30 1021 39 10000 2.1 240 13:23 23.07.2019
4788 Clear 29 1022 45 10000 1.5 0 12:54 23.07.2019
4789 Clear 28 1022 45 10000 1.5 0 12:36 23.07.2019
4790 Clear 28 1022 48 10000 2.1 280 12:18 23.07.2019
4791 Clear 26 1022 47 10000 2.6 0 11:41 23.07.2019
4792 Clear 26 1022 51 10000 1.5 0 11:20 23.07.2019
4793 Clear 25 1022 54 10000 1 0 10:43 23.07.2019
4794 Clear 25 1022 57 10000 1 0 10:22 23.07.2019
4795 Clear 24 1022 61 10000 1.5 0 09:42 23.07.2019
4796 Clear 23 1022 69 10000 1 0 09:22 23.07.2019
4797 Clear 22 1022 73 10000 1 0 08:44 23.07.2019
4798 Clear 20 1022 77 10000 1 0 08:20 23.07.2019
4799 Clear 20 1022 77 10000 0.5 0 07:57 23.07.2019
4800 Fog 18 1022 77 10000 0.5 0 07:37 23.07.2019
4801 Fog 17 1022 88 10000 0.5 10 06:52 23.07.2019
4802 Fog 16 1022 88 10000 0.5 10 06:34 23.07.2019
4803 Fog 16 1022 93 10000 0.5 0 04:26 23.07.2019
4804 Clear 18 1022 82 10000 0.5 320 01:37 23.07.2019
4805 Clear 20 1022 77 10000 0.5 160 00:37 23.07.2019
4806 Clear 20 1022 72 10000 0.5 320 00:18 23.07.2019
4807 Clear 21 1022 73 10000 0.5 0 23:39 22.07.2019
4808 Clear 21 1022 64 10000 1 0 23:19 22.07.2019
4809 Clear 21 1022 64 10000 1.5 250 22:45 22.07.2019
4810 Clear 22 1022 60 10000 1.5 260 22:23 22.07.2019
4811 Clear 23 1021 57 10000 1.5 290 21:44 22.07.2019
4812 Clear 24 1021 53 10000 2.1 250 21:23 22.07.2019
4813 Clear 25 1021 50 10000 4.1 280 20:57 22.07.2019
4814 Clear 25 1021 50 10000 4.1 280 20:33 22.07.2019
4815 Clear 26 1021 44 10000 5.1 280 19:59 22.07.2019
4816 Clear 26 1021 44 10000 5.1 280 19:40 22.07.2019
4817 Clear 26 1021 44 10000 4.6 270 19:21 22.07.2019
4818 Clouds 25 1021 44 10000 4.6 250 18:47 22.07.2019
4819 Rain 26 1021 44 10000 4.6 260 18:28 22.07.2019
4820 Rain 26 1021 42 10000 6.2 270 17:57 22.07.2019
4821 Clear 26 1021 44 10000 4.6 260 17:38 22.07.2019
4822 Clouds 26 1022 47 10000 6.2 250 17:19 22.07.2019
4823 Clouds 26 1021 44 10000 5.7 260 16:40 22.07.2019
4824 Clouds 26 1021 44 10000 5.1 260 16:21 22.07.2019
4825 Clouds 26 1022 47 10000 4.1 240 15:44 22.07.2019
4826 Clouds 25 1022 47 10000 5.7 270 15:20 22.07.2019
4827 Clouds 24 1022 50 10000 5.7 260 14:44 22.07.2019
4828 Clouds 24 1022 47 10000 6.2 250 14:25 22.07.2019
4829 Clouds 24 1022 50 10000 4.6 260 13:52 22.07.2019
4830 Clouds 24 1022 50 10000 4.6 260 13:32 22.07.2019
4831 Clouds 23 1022 53 10000 3.6 270 12:55 22.07.2019
4832 Clear 23 1023 53 10000 2.1 0 12:32 22.07.2019
4833 Rain 22 1023 56 10000 2.1 250 11:57 22.07.2019
4834 Clear 22 1023 56 10000 1.5 240 11:39 22.07.2019
4835 Clear 21 1023 56 10000 1.5 240 11:19 22.07.2019
4836 Clear 21 1023 56 10000 2.1 230 10:38 22.07.2019
4837 Clouds 21 1022 56 10000 2.1 230 10:19 22.07.2019
4838 Clouds 19 1023 60 10000 2.1 190 09:40 22.07.2019
4839 Clouds 19 1022 60 10000 1.5 180 09:21 22.07.2019
4840 Clouds 17 1022 72 10000 1 0 08:39 22.07.2019
4841 Clouds 16 1022 77 10000 1 0 08:20 22.07.2019
4842 Clouds 15 1022 82 10000 1.5 160 07:53 22.07.2019
4843 Clouds 15 1022 87 10000 0.5 0 07:27 22.07.2019
4844 Clear 13 1023 87 10000 1.2 204.282 05:30 22.07.2019
4845 Clear 14 1023 87 10000 1 310 03:45 22.07.2019
4846 Clear 15 1023 82 10000 1 300 01:28 22.07.2019
4847 Clear 15 1023 77 10000 0.5 310 00:49 22.07.2019
4848 Clear 16 1023 77 10000 1.98 307.604 00:21 22.07.2019
4849 Clear 16 1022 77 10000 1 210 23:49 21.07.2019
4850 Clear 17 1022 63 10000 1 0 22:59 21.07.2019
4851 Clear 18 1022 63 10000 1 0 22:40 21.07.2019
4852 Clear 19 1022 59 10000 1.5 300 22:21 21.07.2019
4853 Clear 19 1021 56 10000 2.1 310 21:49 21.07.2019
4854 -273 0 0 0 0 0 21:26 21.07.2019
4855 Clear 22 1021 46 10000 3.6 310 20:59 21.07.2019
4856 Clear 23 1021 46 10000 3.6 310 20:41 21.07.2019
4857 Clear 23 1021 46 10000 4.6 310 20:22 21.07.2019
4858 Clear 23 1021 46 10000 6.2 300 19:52 21.07.2019
4859 Clear 24 1020 44 10000 5.7 280 19:29 21.07.2019
4860 Clear 24 1020 44 10000 6.2 280 18:53 21.07.2019
4861 Clear 25 1020 44 10000 6.2 280 18:34 21.07.2019
4862 Clear 25 1020 41 10000 6.2 280 17:58 21.07.2019
4863 Clear 25 1020 41 10000 6.2 280 17:40 21.07.2019
4864 Clear 25 1020 44 10000 5.1 270 17:19 21.07.2019
4865 Clear 25 1020 41 10000 6.7 270 16:41 21.07.2019
4866 Clear 25 1020 41 10000 5.7 270 16:22 21.07.2019
4867 Clear 25 1020 44 10000 6.7 270 15:42 21.07.2019
4868 Clear 25 1020 41 10000 6.7 270 15:21 21.07.2019
4869 Clouds 24 1019 47 10000 6.7 260 14:51 21.07.2019
4870 Clouds 24 1019 50 10000 6.7 270 14:25 21.07.2019
4871 Clouds 24 1019 50 10000 6.7 270 13:53 21.07.2019
4872 Clouds 23 1019 50 10000 6.7 270 13:34 21.07.2019
4873 Clouds 23 1019 60 10000 5.7 260 12:57 21.07.2019
4874 Clouds 22 1019 60 10000 5.7 260 12:39 21.07.2019
4875 Clouds 22 1018 60 10000 5.7 240 12:20 21.07.2019
4876 Clouds 21 1018 64 10000 6.2 260 11:45 21.07.2019
4877 Clouds 21 1018 68 10000 5.7 240 11:25 21.07.2019
4878 Clouds 20 1018 68 10000 5.1 240 10:43 21.07.2019
4879 Clouds 20 1018 77 10000 4.1 250 10:24 21.07.2019
4880 Clouds 19 1017 77 10000 5.1 240 09:52 21.07.2019
4881 Clouds 19 1017 77 10000 5.1 240 09:32 21.07.2019
4882 Clouds 18 1017 82 10000 5.1 250 08:49 21.07.2019
4883 Clouds 18 1017 88 10000 3.6 250 08:28 21.07.2019
4884 Clouds 17 1016 93 10000 2.1 230 07:40 21.07.2019
4885 Clouds 16 1015 93 10000 3.1 240 06:59 21.07.2019
4886 Clouds 16 1015 93 10000 2.1 230 05:54 21.07.2019
4887 Fog 16 1013 93 50 1.5 240 02:59 21.07.2019
4888 Fog 16 1013 93 10000 1 0 01:50 21.07.2019
4889 Clouds 17 1013 93 3000 1.5 80 00:42 21.07.2019
4890 Clouds 17 1013 93 3000 1.5 80 00:19 21.07.2019
4891 Clear 17 1013 93 10000 1 120 23:44 20.07.2019
4892 Clear 17 1013 93 10000 1 0 23:21 20.07.2019
4893 Clouds 17 1012 88 10000 1.5 130 22:48 20.07.2019
4894 Thunderstorm 18 1012 93 10000 1.5 130 22:23 20.07.2019
4895 Thunderstorm 18 1012 88 10000 2.6 140 21:57 20.07.2019
4896 Thunderstorm 18 1012 88 10000 2.6 140 21:39 20.07.2019
4897 Thunderstorm 18 1012 93 10000 2.6 120 21:20 20.07.2019
4898 Rain 18 1012 93 10000 2.6 50 20:41 20.07.2019
4899 Thunderstorm 18 1014 93 1000 6.2 260 20:21 20.07.2019
4900 Rain 19 1011 82 10000 1 0 19:46 20.07.2019
4901 Thunderstorm 19 1011 88 10000 0.5 0 19:21 20.07.2019
4902 Thunderstorm 20 1011 88 10000 3.6 40 18:44 20.07.2019
4903 Thunderstorm 20 1012 88 10000 1 0 18:22 20.07.2019
4904 Thunderstorm 22 1012 88 10000 1.5 280 17:55 20.07.2019
4905 Thunderstorm 23 1010 68 8000 8.7 290 17:25 20.07.2019
4906 Clear 27 1010 42 10000 5.1 190 16:45 20.07.2019
4907 Clear 27 1010 40 10000 4.6 190 16:27 20.07.2019
4908 Clear 29 1010 39 10000 5.1 170 15:58 20.07.2019
4909 Clear 28 1010 39 10000 5.1 170 15:39 20.07.2019
4910 Clear 29 1010 42 10000 4.1 180 15:20 20.07.2019
4911 Clear 29 1011 42 10000 4.6 190 14:48 20.07.2019
4912 Clear 28 1011 42 10000 4.1 190 14:28 20.07.2019
4913 Clear 29 1011 42 10000 4.1 170 13:40 20.07.2019
4914 Clear 28 1011 39 10000 4.1 200 13:21 20.07.2019
4915 Clear 28 1011 39 10000 4.1 220 12:59 20.07.2019
4916 Clear 27 1012 44 10000 4.6 190 12:26 20.07.2019
4917 Clear 27 1012 47 10000 4.1 190 11:59 20.07.2019
4918 Clear 26 1012 47 10000 4.1 190 11:37 20.07.2019
4919 Clear 26 1012 50 10000 6.2 180 11:19 20.07.2019
4920 Clear 25 1012 50 10000 4.1 170 10:37 20.07.2019
4921 Clear 24 1012 53 10000 3.6 170 10:18 20.07.2019
4922 Clear 24 1012 53 10000 3.6 170 10:18 20.07.2019
4923 Clear 23 1012 56 10000 4.1 160 09:45 20.07.2019
4924 Clear 21 1012 64 10000 3.1 150 09:22 20.07.2019
4925 Clear 20 1013 68 10000 2.6 150 08:46 20.07.2019
4926 Clear 19 1013 72 10000 2.1 150 08:20 20.07.2019
4927 Clear 16 1013 82 10000 1 0 07:21 20.07.2019
4928 Clear 15 1013 82 10000 1.5 120 06:42 20.07.2019
4929 Clear 14 1013 87 10000 2.1 110 04:57 20.07.2019
4930 Clear 14 1013 87 10000 1.5 110 04:29 20.07.2019
4931 Clear 16 1014 72 10000 1.5 150 01:21 20.07.2019
4932 Clear 16 1014 68 10000 1 120 00:47 20.07.2019
4933 Clear 17 1014 72 10000 0.5 0 00:21 20.07.2019
4934 Clear 17 1014 72 10000 0.5 0 23:45 19.07.2019
4935 Clear 18 1014 72 10000 1 80 23:26 19.07.2019
4936 Clear 18 1014 64 10000 0.5 130 22:50 19.07.2019
4937 Clear 19 1014 60 10000 0.5 0 22:26 19.07.2019
4938 Clear 20 1013 56 10000 1.5 180 21:53 19.07.2019
4939 Clear 22 1013 56 10000 1.5 180 21:34 19.07.2019
4940 Clear 22 1013 49 10000 1 0 20:59 19.07.2019
4941 Clear 23 1013 49 10000 1 0 20:40 19.07.2019
4942 Clear 23 1013 49 10000 1.5 220 20:22 19.07.2019
4943 Clear 24 1013 47 10000 2.1 250 19:35 19.07.2019
4944 Clear 24 1013 41 10000 2.6 300 18:47 19.07.2019
4945 Clear 24 1013 44 10000 3.6 310 18:25 19.07.2019
4946 Clear 24 1013 41 10000 2.6 260 17:57 19.07.2019
4947 Clear 24 1013 41 10000 4.1 250 17:32 19.07.2019
4948 Clouds 24 1013 41 10000 3.6 270 16:58 19.07.2019
4949 Clouds 24 1013 41 10000 3.6 270 16:40 19.07.2019
4950 Clouds 25 1013 41 10000 3.1 300 16:18 19.07.2019
4951 Clouds 24 1013 44 10000 3.6 320 15:44 19.07.2019
4952 Clouds 24 1013 53 10000 2.6 310 15:25 19.07.2019
4953 Clouds 24 1013 53 10000 5.7 320 14:45 19.07.2019
4954 Clouds 24 1013 53 10000 5.7 320 14:45 19.07.2019
4955 Clouds 24 1013 53 10000 4.1 260 14:25 19.07.2019
4956 Clouds 24 1013 53 10000 3.1 280 13:57 19.07.2019
4957 Clouds 23 1013 53 10000 3.1 280 13:38 19.07.2019
4958 Clouds 23 1013 64 10000 3.1 280 13:20 19.07.2019
4959 Clouds 22 1013 60 10000 3.6 280 12:44 19.07.2019
4960 Clouds 22 1013 68 10000 3.1 300 12:25 19.07.2019
4961 Clouds 21 1013 64 10000 3.6 280 11:46 19.07.2019
4962 Clouds 21 1013 64 10000 3.6 260 11:19 19.07.2019
4963 Clouds 21 1013 68 10000 3.6 290 10:48 19.07.2019
4964 Clouds 20 1013 68 10000 4.1 270 10:23 19.07.2019
4965 Clouds 20 1013 72 10000 4.1 270 09:59 19.07.2019
4966 Clouds 19 1013 72 10000 4.1 270 09:41 19.07.2019
4967 Clouds 19 1013 77 10000 3.6 260 09:22 19.07.2019
4968 Clouds 19 1013 77 10000 4.6 250 08:49 19.07.2019
4969 Clear 18 1012 72 10000 4.6 250 08:22 19.07.2019
4970 Clouds 18 1012 77 10000 2.1 230 07:29 19.07.2019
4971 Clouds 17 1012 77 10000 2.1 260 06:26 19.07.2019
4972 Clouds 18 1012 77 10000 3.6 270 02:56 19.07.2019
4973 Clear 19 1011 56 10000 2.1 230 01:21 19.07.2019
4974 Clear 19 1011 56 10000 2.6 210 00:46 19.07.2019
4975 Clear 20 1011 52 10000 2.6 210 23:59 18.07.2019
4976 Clear 20 1011 52 10000 2.6 210 23:40 18.07.2019
4977 Clear 20 1011 49 10000 2.6 230 23:22 18.07.2019
4978 Clear 20 1011 49 10000 2.1 190 22:41 18.07.2019
4979 Clear 21 1010 46 10000 1 160 22:20 18.07.2019
4980 Clear 21 1010 46 10000 0.5 0 21:49 18.07.2019
4981 Clear 22 1010 46 10000 0.5 0 21:31 18.07.2019
4982 Clear 23 1010 44 10000 0.5 0 20:55 18.07.2019
4983 Clear 24 1010 44 10000 0.5 0 20:36 18.07.2019
4984 Clear 24 1010 41 10000 1 0 20:18 18.07.2019
4985 Clear 25 1010 36 10000 1.5 250 19:45 18.07.2019
4986 Clear 25 1010 34 10000 3.1 220 19:20 18.07.2019
4987 Clear 25 1010 36 10000 1.5 240 18:49 18.07.2019
4988 Clear 25 1010 36 10000 3.1 220 18:21 18.07.2019
4989 Clear 26 1010 29 10000 3.6 220 17:45 18.07.2019
4990 Clear 26 1010 31 10000 2.1 0 17:25 18.07.2019
4991 Clouds 26 1010 36 10000 3.1 130 16:58 18.07.2019
4992 Clear 26 1011 30 10000 3.1 240 16:40 18.07.2019
4993 Clear 25 1011 36 10000 2.1 0 16:19 18.07.2019
4994 Clear 25 1011 36 10000 2.6 170 15:53 18.07.2019
4995 Clear 25 1011 36 10000 2.6 170 15:34 18.07.2019
4996 Clear 25 1011 36 10000 2.1 0 14:55 18.07.2019
4997 Clear 25 1011 33 10000 3.1 0 14:36 18.07.2019
4998 Clear 25 1011 34 10000 1.5 180 13:52 18.07.2019
4999 Clear 24 1011 38 10000 2.1 150 13:31 18.07.2019
5000 Clear 24 1011 41 10000 2.6 130 12:57 18.07.2019
5001 Clear 24 1011 41 10000 2.1 0 12:37 18.07.2019
5002 Clear 23 1011 41 10000 2.1 0 12:18 18.07.2019
5003 Clear 23 1011 41 10000 2.1 0 12:18 18.07.2019
5004 Clear 23 1012 41 10000 1.5 0 11:46 18.07.2019
5005 Clear 22 1012 44 10000 1.5 130 11:22 18.07.2019
5006 Clear 22 1012 49 10000 1 0 10:51 18.07.2019
5007 Clear 19 1012 60 10000 1.5 170 09:50 18.07.2019
5008 Clear 18 1012 63 10000 1.5 110 09:27 18.07.2019
5009 Clear 17 1012 72 10000 1.5 80 08:53 18.07.2019
5010 Clear 16 1012 77 10000 1.5 100 08:25 18.07.2019
5011 Clear 15 1012 77 10000 0.5 0 07:58 18.07.2019
5012 Clouds 15 1012 72 10000 1.5 70 07:35 18.07.2019
5013 Clear 13 1012 82 10000 1.24 159.422 06:51 18.07.2019
5014 Clear 13 1013 87 10000 0.5 0 06:26 18.07.2019
5015 Clear 12 1013 87 10000 0.5 0 03:41 18.07.2019
5016 Clear 13 1013 82 10000 0.5 0 02:23 18.07.2019
5017 Clear 13 1013 76 10000 1 0 01:36 18.07.2019
5018 Clear 15 1013 72 10000 0.5 0 23:59 17.07.2019
5019 Clear 16 1013 72 10000 0.5 0 23:22 17.07.2019
5020 Clear 16 1014 72 10000 1 290 22:59 17.07.2019
5021 Clear 16 1014 72 10000 1 290 22:41 17.07.2019
5022 Clear 17 1013 67 10000 1 340 22:22 17.07.2019
5023 Clear 18 1013 59 10000 1.5 340 21:56 17.07.2019
5024 Clear 19 1013 59 10000 1.5 340 21:37 17.07.2019
5025 Clear 20 1013 52 10000 1.5 340 21:19 17.07.2019
5026 Clear 20 1013 49 10000 2.6 330 20:55 17.07.2019
5027 Clear 21 1013 49 10000 3.6 330 20:36 17.07.2019
5028 Clear 21 1013 49 10000 3.6 330 20:18 17.07.2019
5029 Clear 21 1013 49 10000 3.6 330 20:18 17.07.2019
5030 Clouds 21 1013 40 10000 2.1 260 19:40 17.07.2019
5031 Clouds 21 1013 40 10000 2.1 260 19:40 17.07.2019
5032 Clear 22 1013 46 10000 3.1 330 19:19 17.07.2019
5033 Clear 22 1013 43 10000 2.6 0 18:44 17.07.2019
5034 Clear 23 1014 43 10000 2.6 360 18:21 17.07.2019
5035 Clear 23 1014 43 10000 2.6 360 18:21 17.07.2019
5036 Clouds 23 1014 40 10000 3.1 310 17:56 17.07.2019
5037 Clouds 23 1014 40 10000 3.1 310 17:56 17.07.2019
5038 Clear 23 1014 40 10000 3.6 340 17:38 17.07.2019
5039 Clear 23 1014 40 10000 3.6 340 17:19 17.07.2019
5040 Clouds 22 1014 43 10000 3.1 10 16:40 17.07.2019
5041 Clouds 23 1014 43 10000 3.1 10 16:19 17.07.2019
5042 Clouds 22 1014 43 10000 3.1 260 15:51 17.07.2019
5043 Clouds 21 1014 43 10000 3.1 300 15:29 17.07.2019
5044 Clouds 21 1015 46 10000 3.6 310 14:56 17.07.2019
5045 Clouds 21 1015 46 10000 2.6 0 14:37 17.07.2019
5046 Clouds 21 1015 49 10000 2.6 290 14:19 17.07.2019
5047 Clouds 20 1015 49 10000 3.1 280 13:45 17.07.2019
5048 Clouds 20 1015 55 10000 2.6 0 13:25 17.07.2019
5049 Clouds 19 1015 59 10000 4.1 290 12:44 17.07.2019
5050 Clouds 18 1015 59 10000 4.1 290 12:23 17.07.2019
5051 Clouds 18 1015 59 10000 4.1 290 11:57 17.07.2019
5052 Clouds 18 1015 67 10000 4.6 330 11:38 17.07.2019
5053 Clouds 17 1015 63 10000 3.6 300 11:19 17.07.2019
5054 Clouds 17 1015 67 10000 3.1 310 10:43 17.07.2019
5055 Clouds 16 1015 72 10000 3.6 290 10:20 17.07.2019
5056 Clouds 16 1016 72 10000 3.1 300 09:44 17.07.2019
5057 Clouds 15 1016 72 10000 3.1 300 09:26 17.07.2019
5058 Clouds 15 1016 82 10000 2.1 350 08:44 17.07.2019
5059 Clouds 15 1016 82 10000 2.1 350 08:22 17.07.2019
5060 Clouds 14 1016 87 10000 2.1 340 07:51 17.07.2019
5061 Clouds 14 1016 87 10000 2.1 340 07:51 17.07.2019
5062 Clouds 14 1016 87 9000 1.5 300 07:26 17.07.2019
5063 Clouds 14 1016 87 10000 1.5 320 06:58 17.07.2019
5064 Clouds 14 1016 87 10000 1.5 310 06:31 17.07.2019
5065 Clouds 14 1016 93 10000 2.1 290 05:57 17.07.2019
5066 Clouds 14 1016 87 10000 2.1 350 05:32 17.07.2019
5067 Clouds 14 1016 87 10000 2.1 320 04:48 17.07.2019
5068 Clouds 14 1016 87 10000 1.5 280 03:39 17.07.2019
5069 Clouds 14 1016 87 10000 2.1 280 02:25 17.07.2019
5070 Clouds 14 1016 87 10000 2.6 280 01:28 17.07.2019
5071 Clouds 14 1017 82 10000 1.5 290 00:59 17.07.2019
5072 Clouds 14 1016 82 10000 2.6 270 00:37 17.07.2019
5073 Clouds 14 1016 82 10000 4.1 300 00:19 17.07.2019
5074 Clouds 15 1016 82 10000 2.6 270 23:40 16.07.2019
5075 Clouds 15 1016 82 10000 3.1 270 23:20 16.07.2019
5076 Clouds 15 1016 82 10000 3.6 270 22:43 16.07.2019
5077 Clouds 16 1016 82 10000 3.6 270 22:24 16.07.2019
5078 Clouds 16 1016 77 10000 2.6 290 21:47 16.07.2019
5079 Clouds 17 1016 77 10000 3.1 280 21:25 16.07.2019
5080 Clouds 17 1016 77 10000 3.1 280 21:25 16.07.2019
5081 Clouds 17 1016 77 10000 4.1 270 20:58 16.07.2019
5082 Clouds 17 1016 77 10000 4.6 270 20:40 16.07.2019
5083 Clouds 17 1016 77 10000 4.6 270 20:21 16.07.2019
5084 Clouds 17 1016 77 10000 5.1 270 19:53 16.07.2019
5085 Clouds 17 1016 77 10000 5.1 270 19:29 16.07.2019
5086 Clouds 17 1016 77 10000 5.1 270 18:58 16.07.2019
5087 Clouds 17 1016 77 10000 6.2 270 18:39 16.07.2019
5088 Clouds 17 1016 82 10000 5.7 280 18:20 16.07.2019
5089 Clouds 17 1017 72 10000 6.2 260 17:44 16.07.2019
5090 Clouds 17 1017 72 10000 6.2 260 17:24 16.07.2019
5091 Drizzle 17 1017 72 10000 4.1 270 16:49 16.07.2019
5092 Drizzle 17 1017 72 10000 4.1 270 16:25 16.07.2019
5093 Drizzle 17 1016 77 8000 3.6 250 15:56 16.07.2019
5094 Drizzle 17 1017 77 10000 6.2 270 15:38 16.07.2019
5095 Drizzle 17 1017 77 10000 6.2 270 15:18 16.07.2019
5096 Clouds 16 1017 77 10000 5.1 270 14:46 16.07.2019
5097 Clouds 16 1017 77 10000 5.1 270 14:27 16.07.2019
5098 Drizzle 16 1017 77 10000 5.7 280 13:57 16.07.2019
5099 Drizzle 16 1017 77 10000 5.7 280 13:57 16.07.2019
5100 Drizzle 16 1017 77 10000 6.2 280 13:37 16.07.2019
5101 Drizzle 16 1017 82 10000 5.7 270 13:18 16.07.2019
5102 Drizzle 15 1017 87 9000 5.7 280 12:42 16.07.2019
5103 Drizzle 15 1017 82 10000 6.2 270 12:19 16.07.2019
5104 Drizzle 15 1017 87 10000 5.7 290 11:45 16.07.2019
5105 Drizzle 15 1017 82 10000 5.1 270 11:25 16.07.2019
5106 Drizzle 14 1017 93 10000 4.6 270 10:59 16.07.2019
5107 Drizzle 14 1017 87 5000 4.6 270 10:41 16.07.2019
5108 Drizzle 14 1017 87 5000 4.6 270 10:19 16.07.2019
5109 Drizzle 14 1017 93 8000 5.1 290 09:43 16.07.2019
5110 Drizzle 14 1017 93 8000 4.6 290 09:20 16.07.2019
5111 Drizzle 13 1017 93 3500 4.1 270 08:47 16.07.2019
5112 Drizzle 13 1016 93 4000 3.6 290 08:27 16.07.2019
5113 Drizzle 13 1016 93 4000 3.6 290 08:27 16.07.2019
5114 Drizzle 13 1016 93 5000 3.6 270 07:51 16.07.2019
5115 Drizzle 13 1016 93 3000 4.1 280 07:32 16.07.2019
5116 Drizzle 13 1016 93 4000 4.6 290 06:58 16.07.2019
5117 Drizzle 13 1016 93 6000 4.1 290 06:36 16.07.2019
5118 Rain 13 1017 87 10000 4.1 280 05:51 16.07.2019
5119 Drizzle 13 1017 82 10000 5.1 280 05:26 16.07.2019
5120 Clouds 13 1017 82 10000 5.7 300 04:32 16.07.2019
5121 Clouds 13 1017 82 10000 5.7 290 03:42 16.07.2019
5122 Clouds 13 1017 76 10000 4.6 320 02:44 16.07.2019
5123 Clouds 13 1017 82 10000 3.6 270 02:22 16.07.2019
5124 Clouds 13 1017 76 10000 2.6 280 01:24 16.07.2019
5125 Clouds 13 1017 81 10000 3.6 280 00:23 16.07.2019
5126 Clouds 13 1017 76 10000 3.1 290 23:58 15.07.2019
5127 Clouds 14 1017 76 10000 3.6 300 23:38 15.07.2019
5128 Clouds 14 1017 71 10000 4.1 300 23:18 15.07.2019
5129 Clouds 15 1017 71 10000 4.1 310 22:43 15.07.2019
5130 Clouds 15 1017 71 10000 4.1 310 22:20 15.07.2019
5131 Clouds 15 1017 71 10000 4.1 310 22:20 15.07.2019
5132 Clouds 15 1017 63 10000 2.6 280 21:57 15.07.2019
5133 Clouds 15 1017 59 10000 3.1 270 21:38 15.07.2019
5134 Clouds 16 1017 59 10000 3.1 270 21:19 15.07.2019
5135 Clouds 17 1017 55 10000 3.6 300 20:42 15.07.2019
5136 Clouds 17 1017 59 10000 4.1 270 20:22 15.07.2019
5137 Clouds 17 1017 55 10000 4.1 310 19:56 15.07.2019
5138 Clouds 17 1017 59 10000 5.1 280 19:38 15.07.2019
5139 Clouds 17 1017 59 10000 4.6 260 19:18 15.07.2019
5140 Clouds 17 1017 59 10000 5.7 290 18:43 15.07.2019
5141 Clouds 17 1018 59 10000 5.7 270 18:20 15.07.2019
5142 Clouds 17 1018 59 10000 5.7 270 17:55 15.07.2019
5143 Clouds 16 1018 63 10000 5.1 290 17:37 15.07.2019
5144 Clouds 16 1018 63 10000 5.1 290 17:19 15.07.2019
5145 Clouds 16 1018 63 10000 5.1 280 16:39 15.07.2019
5146 Clouds 16 1018 63 10000 5.1 280 16:21 15.07.2019
5147 Clouds 16 1018 67 10000 5.1 280 15:58 15.07.2019
5148 Clouds 16 1018 72 10000 5.7 270 15:37 15.07.2019
5149 Clouds 16 1018 72 10000 5.7 270 15:19 15.07.2019
5150 Clouds 16 1018 67 10000 5.7 310 14:45 15.07.2019
5151 Clouds 16 1018 63 10000 5.7 280 14:26 15.07.2019
5152 Clouds 15 1018 63 10000 4.6 280 13:57 15.07.2019
5153 Clouds 15 1018 67 10000 4.6 280 13:36 15.07.2019
5154 Clouds 15 1018 67 10000 4.6 280 13:18 15.07.2019
5155 Drizzle 15 1018 67 10000 4.1 310 12:41 15.07.2019
5156 Drizzle 15 1018 67 10000 4.1 310 12:21 15.07.2019
5157 Clouds 15 1018 72 10000 4.6 310 11:43 15.07.2019
5158 Clouds 14 1018 71 10000 4.6 280 11:25 15.07.2019
5159 Drizzle 14 1018 71 10000 3.6 300 10:48 15.07.2019
5160 Drizzle 14 1018 76 10000 4.1 280 10:29 15.07.2019
5161 Drizzle 14 1018 71 10000 3.6 270 09:54 15.07.2019
5162 Clouds 14 1018 76 10000 4.1 280 09:36 15.07.2019
5163 Clouds 14 1018 76 10000 4.1 280 09:18 15.07.2019
5164 Clouds 13 1018 82 10000 3.6 300 08:41 15.07.2019
5165 Clouds 13 1018 82 10000 3.6 300 08:23 15.07.2019
5166 Clouds 13 1018 82 10000 3.6 300 08:23 15.07.2019
5167 Clouds 13 1018 82 10000 2.6 280 07:41 15.07.2019
5168 Clouds 13 1018 76 10000 3.6 320 07:19 15.07.2019
5169 Clouds 13 1018 87 10000 2.1 270 06:39 15.07.2019
5170 Clouds 13 1018 76 5000 2.6 310 05:47 15.07.2019
5171 Clouds 13 1018 87 10000 2.1 250 05:27 15.07.2019
5172 Clouds 13 1018 82 5000 2.6 300 04:42 15.07.2019
5173 Clouds 13 1018 87 5000 1 290 03:48 15.07.2019
5174 Rain 14 1018 82 4600 4.1 350 02:45 15.07.2019
5175 Drizzle 14 1018 82 5000 3.1 320 01:44 15.07.2019
5176 Drizzle 14 1019 82 10000 2.1 320 01:26 15.07.2019
5177 Drizzle 14 1019 77 6000 3.1 340 00:51 15.07.2019
5178 Clouds 14 1019 82 10000 3.1 310 00:20 15.07.2019
5179 Clouds 15 1019 77 10000 1.5 280 23:55 14.07.2019
5180 Clouds 15 1019 82 10000 1.5 290 23:36 14.07.2019
5181 Clouds 15 1019 82 10000 1.5 290 23:18 14.07.2019
5182 Clouds 15 1019 77 10000 2.1 290 22:41 14.07.2019
5183 Clouds 15 1019 77 10000 2.1 290 22:22 14.07.2019
5184 Clouds 15 1019 77 10000 2.1 290 22:22 14.07.2019
5185 Clouds 15 1018 72 10000 2.6 340 21:59 14.07.2019
5186 Clouds 16 1018 77 10000 1.5 320 21:41 14.07.2019
5187 Clouds 16 1018 72 10000 1.5 330 21:18 14.07.2019
5188 Clouds 16 1018 72 10000 1.5 330 20:55 14.07.2019
5189 Clouds 16 1018 72 10000 1.5 330 20:55 14.07.2019
5190 Clouds 16 1018 72 10000 2.6 300 20:36 14.07.2019
5191 Clouds 16 1018 72 10000 2.6 300 20:18 14.07.2019
5192 Clouds 16 1018 72 10000 2.6 320 19:43 14.07.2019
5193 Clouds 16 1018 72 10000 3.6 300 19:24 14.07.2019
5194 Clouds 16 1018 67 10000 3.1 320 18:57 14.07.2019
5195 Clouds 17 1018 67 10000 3.1 310 18:38 14.07.2019
5196 Clouds 17 1018 72 10000 4.1 310 18:18 14.07.2019
5197 Clouds 17 1018 67 10000 2.6 340 17:47 14.07.2019
5198 Clouds 17 1018 67 10000 3.1 290 17:20 14.07.2019
5199 Clouds 16 1018 72 6000 3.6 340 16:46 14.07.2019
5200 Clouds 16 1018 72 10000 4.1 310 16:24 14.07.2019
5201 Clouds 16 1019 72 10000 3.1 310 15:54 14.07.2019
5202 Clouds 16 1019 72 10000 3.6 310 15:29 14.07.2019
5203 Clouds 16 1019 72 6000 4.1 310 14:49 14.07.2019
5204 Clouds 16 1019 77 10000 3.1 280 14:21 14.07.2019
5205 Clouds 16 1018 72 6000 2.6 290 13:49 14.07.2019
5206 Clouds 16 1019 82 10000 3.1 300 13:26 14.07.2019
5207 Clouds 16 1018 82 10000 5.1 310 12:59 14.07.2019
5208 Clouds 16 1018 82 10000 3.1 320 12:40 14.07.2019
5209 Clouds 15 1019 72 10000 3.1 350 12:21 14.07.2019
5210 Clouds 15 1019 72 10000 3.1 350 11:51 14.07.2019
5211 Clouds 15 1018 87 10000 3.1 310 11:22 14.07.2019
5212 Clouds 15 1018 87 10000 3.1 330 10:50 14.07.2019
5213 Rain 15 1018 87 10000 3.1 320 10:23 14.07.2019
5214 Drizzle 14 1018 93 4500 4.6 340 09:51 14.07.2019
5215 Clouds 14 1018 93 10000 4.1 300 09:30 14.07.2019
5216 Drizzle 14 1018 93 2500 3.6 300 08:57 14.07.2019
5217 Drizzle 14 1018 93 2800 3.1 290 08:39 14.07.2019
5218 Drizzle 13 1017 93 3100 3.1 340 07:47 14.07.2019
5219 Drizzle 13 1018 93 10000 2.6 280 07:22 14.07.2019
5220 Drizzle 13 1017 87 6000 4.6 320 05:47 14.07.2019
5221 Drizzle 13 1017 87 6000 3.1 320 05:25 14.07.2019
5222 Clouds 13 1017 82 10000 3.1 290 03:44 14.07.2019
5223 Clouds 14 1017 82 10000 3.1 290 03:25 14.07.2019
5224 Clouds 14 1017 82 10000 3.6 290 02:25 14.07.2019
5225 Clouds 14 1017 87 10000 3.1 290 01:57 14.07.2019
5226 Clouds 14 1018 87 10000 2.1 300 01:30 14.07.2019
5227 Clouds 14 1017 87 10000 1 0 00:42 14.07.2019
5228 Clouds 15 1017 82 10000 1 350 00:21 14.07.2019
5229 Clouds 15 1017 82 10000 1 350 23:59 13.07.2019
5230 Clouds 15 1017 87 10000 1 360 23:41 13.07.2019
5231 Clouds 15 1017 87 10000 1 360 23:22 13.07.2019
5232 Clouds 15 1017 87 10000 3.1 340 22:42 13.07.2019
5233 Clouds 16 1017 87 10000 3.1 340 22:22 13.07.2019
5234 Clear 16 1017 87 5000 2.1 360 21:49 13.07.2019
5235 Clouds 17 1017 82 10000 3.1 310 21:22 13.07.2019
5236 Clouds 17 1016 77 10000 3.1 320 20:53 13.07.2019
5237 Clouds 17 1016 77 10000 5.1 320 20:33 13.07.2019
5238 Clouds 18 1016 72 10000 5.1 320 19:53 13.07.2019
5239 Clouds 18 1016 77 10000 6.2 320 19:31 13.07.2019
5240 Clouds 18 1016 77 10000 6.7 320 18:56 13.07.2019
5241 Clouds 18 1016 82 10000 6.2 310 18:38 13.07.2019
5242 Clouds 18 1016 77 10000 5.7 320 18:18 13.07.2019
5243 Clouds 18 1016 82 10000 6.7 290 17:37 13.07.2019
5244 Clouds 18 1016 82 10000 6.7 290 17:19 13.07.2019
5245 Clouds 18 1015 82 10000 6.7 300 16:43 13.07.2019
5246 Clouds 18 1015 82 10000 6.7 300 16:24 13.07.2019
5247 Thunderstorm 19 1016 88 5000 6.7 310 15:46 13.07.2019
5248 Clouds 19 1015 72 10000 6.2 300 15:24 13.07.2019
5249 Rain 19 1015 88 4700 7.2 320 14:47 13.07.2019
5250 Rain 19 1015 77 10000 6.2 290 14:28 13.07.2019
5251 Rain 19 1015 77 10000 6.2 290 13:58 13.07.2019
5252 Rain 18 1016 93 10000 5.1 310 13:40 13.07.2019
5253 Rain 18 1014 88 6000 2.6 290 13:19 13.07.2019
5254 Mist 17 1015 88 10000 5.7 300 12:40 13.07.2019
5255 Mist 17 1015 88 10000 5.7 300 12:22 13.07.2019
5256 Mist 17 1015 93 5000 5.1 320 11:57 13.07.2019
5257 Drizzle 17 1014 82 8000 1 0 11:20 13.07.2019
5258 Drizzle 16 1015 93 8000 4.6 310 10:55 13.07.2019
5259 Drizzle 16 1014 93 3900 4.6 320 10:37 13.07.2019
5260 Drizzle 16 1014 93 3900 4.6 320 10:18 13.07.2019
5261 Mist 15 1013 100 10000 3.6 290 09:41 13.07.2019
5262 Mist 15 1013 100 10000 3.6 290 09:20 13.07.2019
5263 Mist 15 1014 93 3800 5.7 300 08:45 13.07.2019
5264 Mist 15 1014 93 3800 5.7 300 08:26 13.07.2019
5265 Mist 15 1013 93 8000 3.6 280 07:30 13.07.2019
5266 Drizzle 15 1013 100 3000 3.6 280 06:50 13.07.2019
5267 Drizzle 14 1012 93 3200 3.1 270 06:22 13.07.2019
5268 Mist 14 1012 93 8000 3.6 270 05:33 13.07.2019
5269 Drizzle 14 1012 93 6000 3.1 280 04:24 13.07.2019
5270 Clouds 14 1012 93 9000 3.1 260 03:57 13.07.2019
5271 Clouds 14 1012 87 10000 4.1 310 03:39 13.07.2019
5272 Clear 15 1012 93 10000 2.6 280 02:18 13.07.2019
5273 Clouds 15 1012 93 10000 2.6 290 01:41 13.07.2019
5274 Clouds 15 1012 93 10000 3.6 320 01:19 13.07.2019
5275 Clouds 15 1012 93 10000 3.6 320 00:54 13.07.2019
5276 Clouds 15 1011 93 10000 3.1 290 00:20 13.07.2019
5277 Rain 15 1011 87 10000 2.1 290 23:48 12.07.2019
5278 Rain 15 1011 87 10000 3.6 270 23:29 12.07.2019
5279 Rain 15 1011 93 10000 3.1 300 22:46 12.07.2019
5280 Rain 16 1011 87 10000 3.1 290 22:24 12.07.2019
5281 Rain 16 1011 87 10000 3.1 290 22:24 12.07.2019
5282 Rain 16 1010 88 10000 3.1 260 21:43 12.07.2019
5283 Rain 16 1010 88 10000 3.1 260 21:22 12.07.2019
5284 Rain 16 1010 88 10000 3.6 260 20:57 12.07.2019
5285 Rain 17 1010 88 10000 1.5 240 20:38 12.07.2019
5286 Rain 17 1010 88 10000 1.5 240 20:20 12.07.2019
5287 Thunderstorm 17 1010 93 10000 1.5 250 19:42 12.07.2019
5288 Thunderstorm 17 1010 93 10000 1.5 250 19:23 12.07.2019
5289 Thunderstorm 18 1010 88 10000 1 340 18:46 12.07.2019
5290 Thunderstorm 18 1010 88 7000 6.2 290 18:21 12.07.2019
5291 Thunderstorm 18 1009 82 10000 3.1 250 17:53 12.07.2019
5292 Thunderstorm 19 1009 72 10000 3.6 210 17:29 12.07.2019
5293 Thunderstorm 21 1009 68 10000 4.1 230 16:51 12.07.2019
5294 Thunderstorm 23 1009 49 10000 2.6 260 16:23 12.07.2019
5295 Rain 22 1009 53 10000 4.1 300 15:54 12.07.2019
5296 Rain 22 1009 53 10000 4.1 300 15:36 12.07.2019
5297 Clouds 23 1009 53 10000 3.6 310 15:18 12.07.2019
5298 Rain 22 1009 60 10000 4.6 290 14:43 12.07.2019
5299 Rain 22 1009 60 10000 4.6 290 14:20 12.07.2019
5300 Rain 22 1009 53 10000 4.1 290 13:43 12.07.2019
5301 Rain 21 1010 60 10000 4.1 320 13:20 12.07.2019
5302 Rain 21 1010 60 10000 4.1 270 12:41 12.07.2019
5303 Rain 21 1010 60 10000 4.1 270 12:21 12.07.2019
5304 Rain 20 1010 64 10000 3.6 300 11:45 12.07.2019
5305 Rain 20 1010 68 10000 5.1 270 11:24 12.07.2019
5306 Mist 19 1010 77 10000 3.6 290 10:55 12.07.2019
5307 Mist 19 1011 82 10000 3.1 270 10:37 12.07.2019
5308 Mist 18 1011 82 10000 3.1 270 10:18 12.07.2019
5309 Mist 18 1011 82 8000 3.6 290 09:46 12.07.2019
5310 Mist 17 1011 82 10000 2.6 270 09:23 12.07.2019
5311 Mist 16 1011 87 10000 3.1 250 08:42 12.07.2019
5312 Mist 16 1011 87 10000 3.1 250 08:21 12.07.2019
5313 Mist 16 1010 87 9000 2.1 250 07:47 12.07.2019
5314 Mist 15 1010 93 7000 2.1 220 07:28 12.07.2019
5315 Mist 15 1010 93 10000 1 0 06:29 12.07.2019
5316 Rain 15 1010 87 10000 1.5 270 05:50 12.07.2019
5317 Clouds 15 1010 93 5000 2.6 260 03:46 12.07.2019
5318 Rain 16 1011 93 4600 3.1 250 01:48 12.07.2019
5319 Rain 16 1011 93 8000 1 220 01:28 12.07.2019
5320 Rain 16 1011 93 10000 0.64 232.086 00:34 12.07.2019
5321 Rain 16 1011 88 8000 1 150 23:54 11.07.2019
5322 Rain 17 1011 88 6000 0.5 0 23:36 11.07.2019
5323 Rain 17 1011 88 6000 0.5 0 23:36 11.07.2019
5324 Rain 17 1011 93 6000 1.5 90 23:18 11.07.2019
5325 Rain 17 1011 93 7000 1 100 22:41 11.07.2019
5326 Rain 17 1011 93 7000 1 100 22:22 11.07.2019
5327 Rain 18 1011 88 10000 0.5 0 21:43 11.07.2019
5328 Rain 18 1011 88 10000 0.5 0 21:20 11.07.2019
5329 Rain 18 1011 88 10000 0.5 0 21:20 11.07.2019
5330 Rain 18 1012 88 10000 1.5 280 20:56 11.07.2019
5331 Rain 18 1012 88 10000 1.5 270 20:38 11.07.2019
5332 Clouds 19 1011 77 10000 1 0 20:19 11.07.2019
5333 Clouds 19 1011 77 10000 1 0 19:47 11.07.2019
5334 Rain 19 1011 77 10000 2.1 290 19:25 11.07.2019
5335 Rain 19 1011 82 10000 1.5 280 18:54 11.07.2019
5336 Rain 19 1012 88 10000 3.1 280 18:36 11.07.2019
5337 Rain 20 1012 88 10000 2.1 300 18:18 11.07.2019
5338 Rain 20 1012 77 10000 4.6 280 17:42 11.07.2019
5339 Rain 20 1012 77 10000 4.6 280 17:23 11.07.2019
5340 Rain 20 1012 60 10000 2.6 300 16:51 11.07.2019
5341 Rain 21 1012 60 10000 2.6 300 16:24 11.07.2019
5342 Drizzle 21 1012 60 10000 2.6 280 15:54 11.07.2019
5343 Drizzle 21 1012 60 10000 2.6 280 15:54 11.07.2019
5344 Drizzle 21 1012 60 10000 2.6 280 15:54 11.07.2019
5345 Clouds 21 1012 53 10000 1.5 0 15:36 11.07.2019
5346 Clouds 21 1012 56 10000 2.1 0 15:18 11.07.2019
5347 Rain 21 1012 60 10000 3.1 260 14:43 11.07.2019
5348 Rain 21 1012 60 10000 2.1 230 14:21 11.07.2019
5349 Clouds 20 1012 64 10000 2.1 210 13:47 11.07.2019
5350 Clouds 20 1013 60 10000 1.5 0 13:26 11.07.2019
5351 Clouds 20 1013 63 10000 2.1 110 12:45 11.07.2019
5352 Clouds 19 1013 63 10000 2.1 110 12:27 11.07.2019
5353 Clouds 19 1013 63 10000 2.1 0 11:55 11.07.2019
5354 Clouds 18 1014 68 10000 1.5 0 11:37 11.07.2019
5355 Clouds 17 1014 67 10000 1.5 190 11:18 11.07.2019
5356 Clouds 17 1013 77 10000 1.5 200 10:45 11.07.2019
5357 Clouds 16 1014 72 10000 2.1 190 10:19 11.07.2019
5358 Clouds 16 1014 77 10000 2.1 180 09:44 11.07.2019
5359 Clouds 16 1014 77 10000 2.1 180 09:24 11.07.2019
5360 Clouds 15 1014 82 10000 2.1 180 08:51 11.07.2019
5361 Clouds 15 1014 87 10000 1 0 08:24 11.07.2019
5362 Rain 14 1014 87 10000 1 0 07:52 11.07.2019
5363 Rain 14 1014 82 10000 0.5 0 07:32 11.07.2019
5364 Rain 13 1015 82 10000 0.5 0 06:30 11.07.2019
5365 Rain 13 1015 87 5000 1.5 210 05:48 11.07.2019
5366 Rain 13 1015 87 10000 0.5 0 05:28 11.07.2019
5367 Rain 13 1015 87 10000 0.5 0 04:53 11.07.2019
5368 Rain 14 1016 76 10000 2.6 270 02:38 11.07.2019
5369 Rain 16 1016 59 6000 1.5 270 00:50 11.07.2019
5370 Clouds 16 1017 59 10000 0.5 290 23:56 10.07.2019
5371 Clear 16 1017 63 10000 1 0 23:31 10.07.2019
5372 Clear 16 1017 63 10000 0.5 0 22:59 10.07.2019
5373 Clear 17 1017 55 10000 1 0 22:41 10.07.2019
5374 Clear 17 1017 55 10000 1 0 22:19 10.07.2019
5375 Clouds 18 1016 55 10000 1.5 360 21:44 10.07.2019
5376 Clear 18 1017 48 10000 1.5 350 21:26 10.07.2019
5377 Clear 18 1017 48 10000 2.6 330 20:54 10.07.2019
5378 Clear 19 1017 45 10000 3.6 320 20:36 10.07.2019
5379 Clear 19 1017 45 10000 3.6 320 20:18 10.07.2019
5380 Clouds 20 1017 45 10000 2.6 320 19:42 10.07.2019
5381 Clouds 20 1017 45 10000 4.6 310 19:21 10.07.2019
5382 Clouds 20 1017 45 10000 3.6 300 18:48 10.07.2019
5383 Clouds 20 1017 49 10000 4.1 340 18:25 10.07.2019
5384 Clear 20 1018 49 10000 2.6 250 17:59 10.07.2019
5385 Clear 20 1018 48 10000 3.1 340 17:40 10.07.2019
5386 Clear 20 1018 48 10000 3.1 340 17:19 10.07.2019
5387 Clear 20 1018 45 10000 3.1 290 16:22 10.07.2019
5388 Clear 20 1019 48 10000 2.6 0 15:58 10.07.2019
5389 Clouds 20 1019 48 10000 3.6 260 15:39 10.07.2019
5390 Clouds 20 1019 48 10000 3.6 260 15:18 10.07.2019
5391 Clouds 19 1019 48 10000 4.1 280 14:39 10.07.2019
5392 Clouds 19 1019 48 10000 4.1 280 14:20 10.07.2019
5393 Clouds 18 1019 48 10000 2.6 260 13:43 10.07.2019
5394 Clouds 18 1019 48 10000 2.6 260 13:19 10.07.2019
5395 Clouds 17 1020 55 10000 3.1 270 12:43 10.07.2019
5396 Clouds 17 1020 55 10000 3.1 270 12:43 10.07.2019
5397 Clouds 16 1020 55 10000 3.1 270 12:22 10.07.2019
5398 Clouds 16 1020 59 10000 3.6 280 11:56 10.07.2019
5399 Clouds 16 1020 59 10000 3.6 280 11:56 10.07.2019
5400 Clouds 16 1020 59 10000 3.6 280 11:56 10.07.2019
5401 Clouds 15 1020 59 10000 3.6 280 11:38 10.07.2019
5402 Clouds 15 1020 59 10000 3.6 280 11:20 10.07.2019
5403 Clouds 15 1020 62 10000 2.6 290 10:40 10.07.2019
5404 Clouds 15 1020 62 10000 2.6 290 10:19 10.07.2019
5405 Clouds 15 1020 62 10000 2.6 290 10:19 10.07.2019
5406 Clouds 14 1020 67 10000 2.6 290 09:42 10.07.2019
5407 Clouds 14 1020 67 10000 2.6 290 09:20 10.07.2019
5408 Clouds 13 1020 67 10000 2.6 270 08:49 10.07.2019
5409 Clouds 13 1020 76 10000 2.6 250 08:28 10.07.2019
5410 Clouds 13 1020 76 10000 2.1 270 07:53 10.07.2019
5411 Clouds 12 1020 76 10000 2.1 280 07:28 10.07.2019
5412 Clouds 12 1020 76 10000 1.5 280 06:41 10.07.2019
5413 Clouds 11 1020 81 10000 2.1 260 05:42 10.07.2019
5414 Clouds 11 1020 81 10000 1.5 260 04:34 10.07.2019
5415 Clouds 11 1020 81 10000 1.5 270 02:40 10.07.2019
5416 Clouds 11 1020 76 10000 2.6 310 00:44 10.07.2019
5417 Clouds 11 1020 71 10000 1.5 290 23:57 09.07.2019
5418 Clouds 12 1020 71 10000 2.1 310 23:38 09.07.2019
5419 Clouds 12 1020 71 10000 2.1 310 23:19 09.07.2019
5420 Clouds 13 1019 66 10000 3.1 320 22:40 09.07.2019
5421 Clouds 13 1019 66 10000 3.1 320 22:21 09.07.2019
5422 Clouds 14 1019 62 10000 3.1 330 21:47 09.07.2019
5423 Clouds 15 1019 58 10000 3.6 330 21:27 09.07.2019
5424 Clouds 15 1019 55 10000 5.1 320 20:57 09.07.2019
5425 Clouds 16 1019 55 10000 5.1 330 20:39 09.07.2019
5426 Clouds 16 1019 55 10000 5.1 330 20:21 09.07.2019
5427 Clouds 16 1019 51 10000 5.1 330 19:39 09.07.2019
5428 Clouds 16 1019 51 10000 5.1 330 19:19 09.07.2019
5429 Rain 17 1019 51 10000 5.1 330 18:40 09.07.2019
5430 Rain 17 1019 51 10000 5.1 330 18:22 09.07.2019
5431 Clouds 17 1018 48 10000 5.7 310 17:44 09.07.2019
5432 Clouds 17 1018 48 10000 5.7 310 17:22 09.07.2019
5433 Clouds 17 1019 51 10000 4.6 310 16:58 09.07.2019
5434 Clouds 17 1018 51 10000 5.1 310 16:40 09.07.2019
5435 Rain 17 1018 51 10000 5.1 310 16:22 09.07.2019
5436 Rain 17 1019 59 10000 3.6 310 15:42 09.07.2019
5437 Rain 17 1019 51 10000 5.1 290 15:23 09.07.2019
5438 Rain 16 1019 63 10000 3.6 300 14:45 09.07.2019
5439 Rain 16 1019 63 10000 3.1 290 14:23 09.07.2019
5440 Rain 16 1019 67 10000 6.2 310 13:57 09.07.2019
5441 Rain 16 1019 55 10000 5.7 280 13:38 09.07.2019
5442 Rain 16 1019 55 10000 5.7 280 13:19 09.07.2019
5443 Rain 15 1019 58 10000 5.1 300 12:39 09.07.2019
5444 Rain 15 1019 58 10000 4.1 300 12:19 09.07.2019
5445 Rain 15 1019 58 10000 4.1 300 11:56 09.07.2019
5446 Clouds 15 1019 62 10000 4.6 300 11:37 09.07.2019
5447 Clouds 14 1019 62 10000 4.6 300 11:19 09.07.2019
5448 Clouds 14 1019 62 10000 6.2 310 10:47 09.07.2019
5449 Clouds 14 1019 71 10000 4.1 300 10:25 09.07.2019
5450 Clouds 13 1019 76 10000 5.1 290 09:38 09.07.2019
5451 Drizzle 13 1019 76 10000 5.1 290 09:20 09.07.2019
5452 Rain 12 1019 76 10000 4.1 320 08:44 09.07.2019
5453 Rain 12 1019 81 10000 3.6 280 08:19 09.07.2019
5454 Clear 17 1017 63 10000 4.1 270 03:49 05.07.2019
5455 Clear 17 1017 63 10000 4.1 270 03:24 05.07.2019
5456 Clear 17 1017 67 10000 3.6 270 02:52 05.07.2019
5457 Clear 17 1017 63 10000 2.6 270 02:26 05.07.2019
5458 Clear 17 1017 63 10000 2.6 250 01:36 05.07.2019
5459 Clear 17 1018 59 10000 2.6 260 00:52 05.07.2019
5460 Clear 17 1018 63 10000 2.1 250 00:31 05.07.2019
5461 Clear 17 1018 59 10000 1.5 260 23:44 04.07.2019
5462 Clear 17 1018 55 10000 1.5 250 23:19 04.07.2019
5463 Clear 17 1018 59 10000 1.5 260 23:19 04.07.2019
5464 Clouds 18 1018 55 10000 2.1 270 22:42 04.07.2019
5465 Clear 18 1019 55 10000 1.5 260 22:23 04.07.2019
5466 Clouds 21 1019 46 10000 3.1 310 21:45 04.07.2019
5467 Clear 20 1019 49 10000 2.6 270 21:26 04.07.2019
5468 Clear 21 1019 43 10000 3.1 270 20:59 04.07.2019
5469 Clear 21 1019 43 10000 4.1 260 20:38 04.07.2019
5470 Clear 21 1019 43 10000 4.1 260 20:20 04.07.2019
5471 Clear 22 1020 40 10000 3.1 260 19:42 04.07.2019
5472 Clear 22 1020 40 10000 3.1 260 19:22 04.07.2019
5473 Clear 22 1020 40 10000 4.1 270 18:56 04.07.2019
5474 Clear 22 1021 40 10000 3.6 260 18:36 04.07.2019
5475 Clear 22 1021 37 10000 4.1 260 18:18 04.07.2019
5476 Clear 22 1021 38 10000 3.1 260 17:42 04.07.2019
5477 Clear 22 1021 38 10000 3.1 260 17:19 04.07.2019
5478 Clear 22 1022 40 10000 4.1 250 15:57 04.07.2019
5479 Clear 21 1022 40 10000 3.6 0 15:39 04.07.2019
5480 Clear 21 1022 40 10000 3.6 0 15:18 04.07.2019
5481 Clear 20 1023 40 10000 4.6 260 14:41 04.07.2019
5482 Clear 20 1023 40 10000 4.6 260 14:22 04.07.2019
5483 Clear 21 1023 40 10000 3.1 0 13:58 04.07.2019
5484 Clear 20 1024 42 10000 4.1 250 13:39 04.07.2019
5485 Clear 19 1024 42 10000 4.1 250 13:20 04.07.2019
5486 Clouds 19 1024 42 10000 4.6 0 12:40 04.07.2019
5487 Clouds 18 1024 42 10000 4.6 0 12:21 04.07.2019
5488 Clouds 18 1024 48 10000 4.1 260 11:57 04.07.2019
5489 Clouds 17 1025 48 10000 4.1 260 11:37 04.07.2019
5490 Clouds 17 1025 48 10000 4.1 260 11:18 04.07.2019
5491 Clouds 16 1025 51 10000 3.1 0 10:39 04.07.2019
5492 Clouds 16 1025 54 10000 4.1 250 10:18 04.07.2019
5493 Clear 15 1025 62 10000 3.1 260 09:39 04.07.2019
5494 Clear 14 1025 62 10000 3.1 260 09:20 04.07.2019
5495 Clear 14 1025 62 10000 3.1 270 08:55 04.07.2019
5496 Clear 13 1025 71 10000 2.6 250 08:19 04.07.2019
5497 Clear 11 1025 81 10000 1.5 260 07:43 04.07.2019
5498 Clear 10 1025 81 10000 1.5 260 07:21 04.07.2019
5499 Fog 9 1025 93 10000 0.5 260 06:38 04.07.2019
5500 Fog 7 1025 93 10000 1 250 05:50 04.07.2019
5501 Clear 7 1025 87 10000 1 270 05:31 04.07.2019
5502 Clear 9 1025 81 10000 1 0 02:41 04.07.2019
5503 Clear 10 1025 71 10000 1 270 01:28 04.07.2019
5504 Clear 11 1025 71 10000 2.1 250 00:57 04.07.2019
5505 Clear 12 1025 66 10000 2.6 250 23:56 03.07.2019
5506 Clear 13 1025 62 10000 2.6 0 23:21 03.07.2019
5507 Clear 13 1024 62 10000 3.1 250 22:59 03.07.2019
5508 Clear 15 1024 58 10000 3.6 250 22:39 03.07.2019
5509 Clear 15 1024 58 10000 3.6 250 22:21 03.07.2019
5510 Clear 16 1024 51 10000 3.6 250 21:56 03.07.2019
5511 Clear 17 1024 51 10000 4.1 340 21:37 03.07.2019
5512 Clear 17 1024 51 10000 4.1 340 21:37 03.07.2019
5513 Clear 17 1024 51 10000 4.1 340 21:19 03.07.2019
5514 Clear 18 1023 42 10000 6.2 250 20:41 03.07.2019
5515 Clear 18 1023 42 10000 6.2 250 20:23 03.07.2019
5516 Clouds 19 1023 39 10000 6.2 340 19:50 03.07.2019
5517 Clear 19 1023 39 10000 5.1 0 19:31 03.07.2019
5518 Clouds 19 1023 34 10000 5.7 350 18:47 03.07.2019
5519 Clear 19 1023 34 10000 7.2 250 18:25 03.07.2019
5520 Clear 20 1023 39 10000 6.2 250 17:55 03.07.2019
5521 Clouds 20 1023 37 10000 6.7 310 17:36 03.07.2019
5522 Clouds 20 1023 37 10000 6.7 310 17:18 03.07.2019
5523 Clear 20 1024 40 10000 6.2 260 16:43 03.07.2019
5524 Clear 20 1024 40 10000 6.2 260 16:20 03.07.2019
5525 Clear 20 1024 39 10000 6.2 270 15:47 03.07.2019
5526 Clear 19 1024 40 10000 5.7 260 15:29 03.07.2019
5527 Clear 19 1024 40 10000 6.2 250 14:52 03.07.2019
5528 Clear 19 1024 42 10000 6.2 250 14:23 03.07.2019
5529 Clear 19 1024 42 10000 6.7 260 13:50 03.07.2019
5530 Clear 19 1024 39 10000 4.6 270 13:31 03.07.2019
5531 Rain 19 1024 42 10000 4.1 290 12:54 03.07.2019
5532 Clouds 18 1024 52 10000 4.1 260 12:21 03.07.2019
5533 Rain 18 1024 51 10000 4.6 260 11:58 03.07.2019
5534 Clouds 17 1024 59 10000 3.6 260 11:39 03.07.2019
5535 Clouds 17 1024 59 10000 3.6 260 11:20 03.07.2019
5536 Rain 17 1024 59 10000 4.6 270 10:41 03.07.2019
5537 Rain 16 1024 67 10000 3.6 290 10:22 03.07.2019
5538 Clouds 16 1024 67 10000 4.1 310 09:42 03.07.2019
5539 Clouds 15 1024 67 10000 3.1 270 09:21 03.07.2019
5540 Clear 14 1024 67 10000 3.1 280 08:53 03.07.2019
5541 Clear 14 1024 67 10000 3.1 280 08:53 03.07.2019
5542 Clear 14 1024 76 10000 2.1 270 08:32 03.07.2019
5543 Fog 12 1023 87 10000 2.1 260 07:53 03.07.2019
5544 Fog 11 1023 87 10000 1 0 07:35 03.07.2019
5545 Fog 10 1023 87 10000 1 0 06:52 03.07.2019
5546 Fog 8 1023 87 10000 0.5 250 05:53 03.07.2019
5547 Fog 8 1023 93 10000 1 270 05:21 03.07.2019
5548 Clear 9 1023 87 10000 0.5 250 03:36 03.07.2019
5549 Clear 10 1023 81 10000 0.5 260 02:38 03.07.2019
5550 Clear 11 1023 71 10000 2.1 260 01:23 03.07.2019
5551 Clear 11 1023 71 10000 2.6 250 00:57 03.07.2019
5552 Clear 12 1023 71 10000 2.6 250 00:36 03.07.2019
5553 Clear 13 1022 71 10000 1 260 23:46 02.07.2019
5554 Clear 14 1022 71 10000 1 260 23:21 02.07.2019
5555 Clear 14 1022 66 10000 2.1 250 22:59 02.07.2019
5556 Clear 15 1022 62 10000 2.6 250 22:40 02.07.2019
5557 Clear 15 1022 58 10000 1.5 250 22:22 02.07.2019
5558 Clear 16 1022 58 10000 1.5 250 21:56 02.07.2019
5559 Clear 17 1022 55 10000 3.6 250 21:37 02.07.2019
5560 Clear 17 1022 51 10000 4.6 250 21:18 02.07.2019
5561 Clear 18 1022 52 10000 4.6 250 20:41 02.07.2019
5562 Clear 19 1022 55 10000 5.7 0 20:23 02.07.2019
5563 Clear 18 1022 52 10000 6.7 0 19:45 02.07.2019
5564 Clear 19 1021 42 10000 5.7 0 19:25 02.07.2019
5565 Clear 19 1021 42 10000 6.7 250 18:59 02.07.2019
5566 Clear 19 1021 42 10000 6.7 250 18:41 02.07.2019
5567 Clear 19 1021 42 10000 6.7 250 18:41 02.07.2019
5568 Clear 20 1021 42 10000 5.7 250 18:18 02.07.2019
5569 Clear 20 1021 37 10000 5.7 0 17:37 02.07.2019
5570 Clear 20 1021 37 10000 5.7 0 17:19 02.07.2019
5571 Clear 21 1022 35 10000 4.6 260 16:46 02.07.2019
5572 Clear 21 1022 35 10000 4.6 260 16:27 02.07.2019
5573 Clear 21 1022 37 10000 5.7 260 15:42 02.07.2019
5574 Clear 20 1022 37 10000 5.7 260 15:42 02.07.2019
5575 Clear 20 1022 37 10000 5.7 260 15:23 02.07.2019
5576 Clouds 20 1022 32 10000 6.2 320 14:49 02.07.2019
5577 Clouds 20 1021 34 10000 7.7 290 14:28 02.07.2019
5578 Clear 20 1022 35 10000 8.2 260 13:45 02.07.2019
5579 Clear 20 1022 37 10000 8.2 260 13:20 02.07.2019
5580 Clouds 19 1022 40 10000 6.7 250 12:45 02.07.2019
5581 Clouds 19 1021 39 10000 8.7 270 12:25 02.07.2019
5582 Clouds 18 1021 45 10000 7.7 330 11:56 02.07.2019
5583 Clouds 18 1021 48 10000 8.2 310 11:37 02.07.2019
5584 Clouds 18 1021 45 10000 7.2 300 11:18 02.07.2019
5585 Rain 18 1021 48 10000 6.2 290 10:44 02.07.2019
5586 Rain 18 1021 48 10000 6.2 290 10:24 02.07.2019
5587 Clouds 17 1020 55 10000 6.2 290 09:44 02.07.2019
5588 Clouds 16 1020 63 10000 7.2 300 09:21 02.07.2019
5589 Clouds 16 1020 72 10000 6.2 320 08:42 02.07.2019
5590 Clouds 16 1020 72 10000 6.2 300 08:20 02.07.2019
5591 Clouds 16 1020 72 10000 6.2 300 07:53 02.07.2019
5592 Clouds 15 1019 77 10000 5.7 280 07:21 02.07.2019
5593 Clouds 15 1019 77 10000 5.7 280 07:21 02.07.2019
5594 Clouds 15 1019 77 10000 4.1 270 06:47 02.07.2019
5595 Clouds 14 1019 76 10000 4.1 260 05:58 02.07.2019
5596 Clear 14 1018 71 10000 3.6 260 03:53 02.07.2019
5597 Clear 16 1019 63 10000 3.1 250 01:27 02.07.2019
5598 Clouds 17 1018 55 10000 5.7 310 23:47 01.07.2019
5599 Clear 17 1018 52 10000 4.6 300 23:20 01.07.2019
5600 Clouds 18 1018 52 10000 6.2 320 22:45 01.07.2019
5601 Clear 19 1017 52 10000 5.7 320 22:27 01.07.2019
5602 Clouds 21 1017 49 10000 6.7 340 21:47 01.07.2019
5603 Clear 21 1016 45 10000 6.7 300 21:26 01.07.2019
5604 Clear 22 1016 43 10000 8.2 300 20:51 01.07.2019
5605 Clear 23 1016 38 10000 8.7 290 20:22 01.07.2019
5606 Clear 23 1016 38 10000 8.7 290 19:58 01.07.2019
5607 Clear 23 1015 38 10000 8.2 300 19:39 01.07.2019
5608 Clear 24 1015 38 10000 8.2 300 19:21 01.07.2019
5609 Clouds 25 1015 36 10000 9.8 310 18:51 01.07.2019
5610 Clear 25 1014 36 10000 8.2 280 18:29 01.07.2019
5611 Clear 25 1014 36 10000 8.2 280 18:29 01.07.2019
5612 Clear 25 1014 31 10000 8.7 280 17:57 01.07.2019
5613 Clear 25 1014 31 10000 7.7 270 17:39 01.07.2019
5614 Clear 25 1014 31 10000 7.7 270 17:19 01.07.2019
5615 Clear 25 1014 36 10000 7.2 270 16:44 01.07.2019
5616 Clear 25 1014 36 10000 8.2 260 16:24 01.07.2019
5617 Clear 26 1014 34 10000 8.7 290 15:46 01.07.2019
5618 Clear 25 1014 38 10000 7.7 280 15:26 01.07.2019
5619 Clear 25 1015 41 10000 7.7 280 14:45 01.07.2019
5620 Clear 25 1014 41 10000 6.7 280 14:24 01.07.2019
5621 Clear 25 1014 44 10000 6.7 250 13:55 01.07.2019
5622 Clear 24 1014 44 10000 6.7 250 13:37 01.07.2019
5623 Clear 25 1015 41 10000 6.7 260 13:18 01.07.2019
5624 Clear 24 1015 41 10000 7.2 260 12:40 01.07.2019
5625 Clear 24 1015 41 10000 7.2 260 12:40 01.07.2019
5626 Clear 24 1015 44 10000 6.2 270 12:22 01.07.2019
5627 Clouds 24 1015 44 10000 7.7 260 11:56 01.07.2019
5628 Clouds 24 1015 44 10000 7.7 260 11:56 01.07.2019
5629 Clouds 24 1015 44 10000 7.7 260 11:37 01.07.2019
5630 Clouds 23 1015 46 10000 6.7 250 11:18 01.07.2019
5631 Clouds 23 1015 56 10000 6.7 280 10:42 01.07.2019
5632 Clouds 22 1015 53 10000 6.2 260 10:20 01.07.2019
5633 Clouds 21 1015 56 10000 5.7 250 09:42 01.07.2019
5634 Clouds 20 1015 56 10000 5.1 250 09:24 01.07.2019
5635 Clear 19 1015 60 10000 3.6 250 08:42 01.07.2019
5636 Clear 19 1015 68 10000 3.1 230 08:21 01.07.2019
5637 Clear 18 1015 77 10000 1.5 210 07:34 01.07.2019
5638 Clear 17 1015 82 10000 1.5 210 06:48 01.07.2019
5639 Clear 16 1015 82 10000 2.65 233.641 04:39 01.07.2019
5640 Clear 19 1015 63 10000 2.6 300 00:55 01.07.2019
5641 Clear 20 1015 63 10000 2.1 290 00:34 01.07.2019
5642 Clear 20 1015 63 10000 2.1 290 00:34 01.07.2019
5643 Clear 21 1015 60 10000 2.1 330 23:59 30.06.2019
5644 Clear 22 1015 56 10000 3.1 320 23:25 30.06.2019
5645 Clear 22 1015 56 10000 3.1 320 23:25 30.06.2019
5646 Clear 22 1014 49 10000 3.6 330 22:55 30.06.2019
5647 Clear 24 1014 46 10000 4.6 330 22:23 30.06.2019
5648 Clear 26 1013 50 10000 4.6 320 21:58 30.06.2019
5649 Clear 27 1013 50 10000 4.6 320 21:40 30.06.2019
5650 Clear 27 1013 50 10000 6.7 340 21:18 30.06.2019
5651 Clear 28 1013 54 10000 5.7 320 20:41 30.06.2019
5652 Clear 29 1012 51 10000 5.7 290 20:23 30.06.2019
5653 Clear 29 1012 48 10000 6.7 280 19:51 30.06.2019
5654 Clear 30 1012 43 10000 5.7 280 19:25 30.06.2019
5655 Clear 31 1012 43 10000 5.1 270 18:53 30.06.2019
5656 Clear 32 1012 43 10000 8.2 300 18:22 30.06.2019
5657 Clear 34 1012 43 10000 8.7 280 17:41 30.06.2019
5658 Clear 34 1011 41 10000 9.3 290 17:20 30.06.2019
5659 Clear 34 1011 38 10000 8.2 280 16:56 30.06.2019
5660 Clear 36 1011 36 10000 9.3 290 16:33 30.06.2019
5661 Clear 35 1011 32 10000 8.2 260 15:58 30.06.2019
5662 Clear 35 1011 30 10000 7.7 260 15:36 30.06.2019
5663 Clear 35 1011 30 10000 7.7 260 15:18 30.06.2019
5664 Clear 35 1011 26 10000 7.7 250 14:43 30.06.2019
5665 Clear 35 1011 26 10000 7.7 250 14:24 30.06.2019
5666 Clear 34 1011 26 10000 5.7 220 13:43 30.06.2019
5667 Clear 34 1011 26 10000 4.6 230 13:20 30.06.2019
5668 Clear 33 1011 29 10000 4.1 230 12:48 30.06.2019
5669 Clear 32 1011 31 10000 4.1 230 12:24 30.06.2019
5670 Clear 32 1011 31 10000 4.1 200 11:48 30.06.2019
5671 Clear 31 1011 33 10000 4.6 200 11:26 30.06.2019
5672 Clear 30 1012 35 10000 4.6 210 10:59 30.06.2019
5673 Clear 30 1012 35 10000 4.6 210 10:38 30.06.2019
5674 Clear 29 1012 37 10000 4.6 190 10:19 30.06.2019
5675 Clear 29 1012 37 10000 3.6 190 09:44 30.06.2019
5676 Clear 29 1012 37 10000 3.6 190 09:44 30.06.2019
5677 Clear 25 1012 36 10000 3.6 190 09:23 30.06.2019
5678 Clear 25 1012 39 10000 3.1 180 08:58 30.06.2019
5679 Clear 24 1012 44 10000 2.6 160 08:32 30.06.2019
5680 Clear 23 1012 46 10000 3.1 160 07:58 30.06.2019
5681 Clear 20 1012 49 10000 2.6 150 07:29 30.06.2019
5682 Clear 18 1013 52 10000 2.6 140 06:41 30.06.2019
5683 Clear 15 1013 77 10000 1 0 05:33 30.06.2019
5684 Clear 17 1014 68 10000 2.1 110 02:53 30.06.2019
5685 Clear 18 1015 64 10000 1.5 110 01:30 30.06.2019
5686 Clear 19 1015 56 10000 1.5 120 00:32 30.06.2019
5687 Clear 20 1015 56 10000 1.5 120 23:55 29.06.2019
5688 Clear 21 1016 49 10000 1.5 110 23:25 29.06.2019
5689 Clear 21 1016 47 10000 2.1 90 22:57 29.06.2019
5690 Clear 23 1016 47 10000 2.1 90 22:38 29.06.2019
5691 Clear 24 1016 44 10000 1.5 100 22:19 29.06.2019
5692 Clear 30 1016 32 10000 1 0 21:42 29.06.2019
5693 Clear 27 1016 30 10000 1.5 150 21:22 29.06.2019
5694 Clear 30 1016 30 10000 1.5 170 20:41 29.06.2019
5695 Clear 30 1017 27 10000 1.5 0 20:23 29.06.2019
5696 Clear 31 1017 25 10000 1.5 180 19:48 29.06.2019
5697 Clear 31 1017 25 10000 2.1 180 19:23 29.06.2019
5698 Clear 31 1017 25 10000 1.5 0 18:51 29.06.2019
5699 Clear 31 1017 25 10000 2.6 0 18:26 29.06.2019
5700 Clear 31 1018 25 10000 2.1 0 17:42 29.06.2019
5701 Clear 31 1018 24 10000 2.1 200 17:23 29.06.2019
5702 Clear 31 1018 25 10000 2.1 0 16:58 29.06.2019
5703 Clear 31 1018 25 10000 2.1 0 16:36 29.06.2019
5704 Clear 30 1019 27 10000 2.6 100 15:50 29.06.2019
5705 Clear 30 1019 25 10000 2.6 0 15:30 29.06.2019
5706 Clear 28 1020 27 10000 2.1 0 14:44 29.06.2019
5707 Clear 28 1020 28 10000 2.6 0 14:25 29.06.2019
5708 Clear 28 1020 28 10000 2.6 0 13:47 29.06.2019
5709 Clear 27 1021 30 10000 3.1 100 13:26 29.06.2019
5710 Clear 27 1021 34 10000 2.6 100 12:52 29.06.2019
5711 Clear 26 1021 36 10000 1.5 0 12:34 29.06.2019
5712 Clear 26 1021 39 10000 2.1 0 11:54 29.06.2019
5713 Clear 25 1021 41 10000 2.1 0 11:34 29.06.2019
5714 Clear 24 1022 44 10000 2.6 150 10:57 29.06.2019
5715 Clear 23 1022 44 10000 2.6 150 10:38 29.06.2019
5716 Clear 23 1022 46 10000 2.6 180 10:20 29.06.2019
5717 Clear 21 1022 49 10000 2.1 150 09:44 29.06.2019
5718 Clear 19 1022 60 10000 1.5 90 08:50 29.06.2019
5719 Clear 16 1022 77 10000 2.1 80 07:59 29.06.2019
5720 Fog 15 1022 77 10000 2.1 80 07:36 29.06.2019
5721 Fog 13 1022 82 10000 1 90 06:45 29.06.2019
5722 Fog 12 1023 87 10000 1 0 06:23 29.06.2019
5723 Clear 13 1023 77 10000 0.5 0 02:51 29.06.2019
5724 Clear 14 1023 72 10000 0.5 0 01:21 29.06.2019
5725 Clear 16 1023 72 10000 1 0 00:24 29.06.2019
5726 Clear 17 1023 67 10000 1 0 23:27 28.06.2019
5727 Clear 17 1023 63 10000 0.5 0 22:57 28.06.2019
5728 Clear 19 1023 63 10000 0.5 0 22:37 28.06.2019
5729 Clear 20 1023 49 10000 1.5 340 21:53 28.06.2019
5730 Clear 22 1023 46 10000 2.1 350 21:25 28.06.2019
5731 Clear 23 1023 41 10000 2.6 350 20:49 28.06.2019
5732 Clear 23 1023 41 10000 2.6 350 20:28 28.06.2019
5733 Clear 24 1023 38 10000 2.6 340 19:54 28.06.2019
5734 Clear 24 1023 38 10000 3.1 320 19:30 28.06.2019
5735 Clear 24 1023 38 10000 3.1 340 18:59 28.06.2019
5736 Clear 24 1023 38 10000 3.1 340 18:38 28.06.2019
5737 Clouds 24 1024 38 10000 3.1 20 18:20 28.06.2019
5738 Clear 24 1024 38 10000 2.1 0 17:30 28.06.2019
5739 Clear 24 1024 41 10000 3.1 0 16:51 28.06.2019
5740 Clear 24 1024 41 10000 2.6 0 16:27 28.06.2019
5741 Clear 23 1025 41 10000 3.1 320 15:48 28.06.2019
5742 Clear 23 1025 41 10000 3.1 320 15:48 28.06.2019
5743 Clear 22 1025 46 10000 3.1 30 15:26 28.06.2019
5744 Clear 22 1025 46 10000 2.1 0 14:56 28.06.2019
5745 Clear 22 1025 46 10000 2.1 0 14:56 28.06.2019
5746 Clear 21 1025 46 10000 2.1 0 14:37 28.06.2019
5747 Clear 21 1025 49 10000 2.1 0 14:18 28.06.2019
5748 Clouds 21 1025 52 10000 3.1 0 13:44 28.06.2019
5749 Clouds 21 1026 52 10000 2.6 340 13:21 28.06.2019
5750 Clouds 19 1026 55 10000 2.1 0 12:48 28.06.2019
5751 Clouds 18 1026 59 10000 3.1 290 11:56 28.06.2019
5752 -273 0 0 0 0 0 11:27 28.06.2019
5753 Clouds 16 1026 67 10000 3.1 340 10:46 28.06.2019
5754 Clouds 16 1026 67 10000 3.1 310 10:23 28.06.2019
5755 Clouds 16 1026 67 10000 3.1 310 10:23 28.06.2019
5756 Clouds 15 1026 67 10000 2.6 330 09:49 28.06.2019
5757 Clouds 15 1026 67 10000 3.1 310 09:30 28.06.2019
5758 Clouds 15 1026 71 10000 3.1 300 08:49 28.06.2019
5759 Clouds 14 1026 71 10000 2.1 350 08:27 28.06.2019
5760 Clouds 14 1026 71 10000 3.1 330 07:53 28.06.2019
5761 Clouds 14 1026 71 10000 3.1 330 07:35 28.06.2019
5762 Clouds 14 1026 71 10000 1.5 330 06:33 28.06.2019
5763 Clouds 14 1026 76 10000 3.1 320 01:42 28.06.2019
5764 Clouds 14 1026 72 10000 3.1 310 00:44 28.06.2019
5765 Clouds 14 1026 67 10000 2.6 320 23:55 27.06.2019
5766 Clouds 15 1026 67 10000 2.6 320 23:37 27.06.2019
5767 Clouds 15 1026 71 10000 3.6 320 23:18 27.06.2019
5768 Clouds 15 1026 71 10000 3.1 300 22:41 27.06.2019
5769 Clouds 15 1026 67 10000 3.6 330 22:22 27.06.2019
5770 Clouds 16 1026 67 10000 6.2 330 21:49 27.06.2019
5771 Clouds 17 1026 67 10000 5.1 330 21:31 27.06.2019
5772 Clouds 18 1026 63 10000 6.2 340 20:57 27.06.2019
5773 Clouds 18 1026 63 10000 6.2 340 20:39 27.06.2019
5774 Clouds 19 1026 59 10000 6.2 340 20:19 27.06.2019
5775 Clouds 20 1026 55 10000 6.2 330 19:44 27.06.2019
5776 Clouds 20 1026 56 10000 6.2 340 19:25 27.06.2019
5777 Clouds 20 1026 52 10000 6.7 330 18:43 27.06.2019
5778 Clouds 21 1026 56 10000 6.2 340 18:21 27.06.2019
5779 Clouds 22 1026 56 10000 5.7 320 17:44 27.06.2019
5780 Clouds 22 1026 52 10000 6.7 300 17:22 27.06.2019
5781 Clouds 22 1026 52 10000 6.7 300 17:22 27.06.2019
5782 Clouds 22 1026 52 10000 7.2 300 16:40 27.06.2019
5783 Clouds 22 1026 52 10000 6.7 320 16:20 27.06.2019
5784 Clouds 22 1026 56 10000 6.2 320 15:55 27.06.2019
5785 Clouds 22 1026 56 10000 6.2 320 15:36 27.06.2019
5786 Clouds 22 1026 56 10000 6.2 320 15:36 27.06.2019
5787 Clouds 21 1027 56 10000 6.2 310 14:58 27.06.2019
5788 Clouds 21 1027 56 10000 6.2 310 14:39 27.06.2019
5789 Clouds 21 1027 55 10000 6.2 300 14:19 27.06.2019
5790 Clouds 20 1027 55 10000 6.7 310 13:43 27.06.2019
5791 Clouds 20 1027 52 10000 5.7 320 13:25 27.06.2019
5792 Clouds 20 1027 52 10000 7.2 300 12:49 27.06.2019
5793 Clouds 20 1027 52 10000 7.2 300 12:49 27.06.2019
5794 Clouds 19 1027 55 10000 6.2 290 12:28 27.06.2019
5795 Clouds 19 1027 55 10000 4.6 310 11:47 27.06.2019
5796 Clouds 18 1027 55 10000 4.6 310 11:24 27.06.2019
5797 Clouds 17 1027 59 10000 5.1 300 10:58 27.06.2019
5798 Clouds 17 1027 59 10000 5.1 300 10:40 27.06.2019
5799 Clouds 16 1028 59 10000 5.1 290 10:19 27.06.2019
5800 Clouds 16 1027 63 10000 6.2 290 09:40 27.06.2019
5801 Clouds 15 1027 67 10000 6.2 300 09:20 27.06.2019
5802 Clouds 14 1027 67 10000 5.7 320 08:48 27.06.2019
5803 Clouds 14 1027 71 10000 5.1 320 08:27 27.06.2019
5804 Clouds 14 1027 71 10000 6.2 320 07:45 27.06.2019
5805 Clouds 14 1027 76 10000 5.1 330 06:58 27.06.2019
5806 Clouds 14 1027 76 10000 5.1 320 06:32 27.06.2019
5807 Clouds 15 1026 77 10000 6.7 320 03:51 27.06.2019
5808 Clouds 16 1026 82 10000 5.7 300 02:42 27.06.2019
5809 Clouds 16 1026 77 10000 5.1 310 01:29 27.06.2019
5810 Clouds 16 1026 77 10000 5.1 320 00:50 27.06.2019
5811 Clouds 17 1026 77 10000 4.1 300 00:26 27.06.2019
5812 Clouds 17 1026 77 10000 4.1 310 23:50 26.06.2019
5813 Clear 18 1025 77 10000 5.7 320 23:23 26.06.2019
5814 Clear 18 1025 77 10000 6.7 330 22:58 26.06.2019
5815 Clear 20 1025 77 10000 6.7 330 22:39 26.06.2019
5816 Clear 20 1025 72 10000 5.1 330 22:19 26.06.2019
5817 Clear 22 1024 68 10000 5.7 340 21:42 26.06.2019
5818 Clear 23 1024 64 10000 5.7 320 21:21 26.06.2019
5819 Clear 24 1024 56 10000 6.2 330 20:57 26.06.2019
5820 Clear 25 1024 56 10000 6.2 330 20:37 26.06.2019
5821 Clear 26 1023 53 10000 7.2 330 20:18 26.06.2019
5822 Clear 26 1023 53 10000 6.7 330 19:42 26.06.2019
5823 Clear 27 1023 54 10000 7.7 330 19:23 26.06.2019
5824 Clear 28 1022 51 10000 7.2 320 18:45 26.06.2019
5825 Clear 30 1022 51 10000 7.2 330 18:22 26.06.2019
5826 Clear 30 1022 51 10000 7.7 330 17:57 26.06.2019
5827 Clear 30 1022 48 10000 7.2 340 17:29 26.06.2019
5828 Clear 31 1022 48 10000 6.7 340 16:57 26.06.2019
5829 Clear 31 1022 48 10000 6.7 340 16:39 26.06.2019
5830 Clear 31 1022 46 10000 6.7 310 16:19 26.06.2019
5831 Clear 32 1022 43 10000 6.7 290 15:37 26.06.2019
5832 Clear 32 1022 46 10000 6.2 300 15:19 26.06.2019
5833 -273 0 0 0 0 0 14:38 26.06.2019
5834 Clear 32 1021 43 10000 6.2 290 14:19 26.06.2019
5835 Clear 32 1022 45 10000 6.2 260 13:41 26.06.2019
5836 Clear 31 1022 45 10000 7.2 280 13:19 26.06.2019
5837 Clear 31 1022 45 10000 6.7 270 12:41 26.06.2019
5838 Clear 31 1021 52 10000 6.2 270 12:22 26.06.2019
5839 Clear 31 1021 55 10000 6.2 270 11:44 26.06.2019
5840 Clear 30 1021 55 10000 5.1 270 11:19 26.06.2019
5841 Clear 29 1021 55 10000 4.6 260 10:41 26.06.2019
5842 Clear 29 1021 54 10000 3.6 270 10:21 26.06.2019
5843 Clear 28 1021 61 10000 4.1 280 09:41 26.06.2019
5844 Clear 27 1020 58 10000 4.6 270 09:18 26.06.2019
5845 Clear 26 1020 61 10000 4.6 270 08:39 26.06.2019
5846 Clear 26 1020 65 10000 4.1 270 08:19 26.06.2019
5847 Clear 24 1020 65 10000 4.1 270 07:45 26.06.2019
5848 Clear 23 1019 69 10000 3.6 260 06:34 26.06.2019
5849 Clear 21 1019 88 10000 3.51 248.375 05:55 26.06.2019
5850 Clear 23 1018 65 10000 1.5 90 00:57 26.06.2019
5851 Clear 23 1018 65 10000 1.5 100 00:19 26.06.2019
5852 Clear 24 1018 65 10000 1.5 100 23:41 25.06.2019
5853 Clear 24 1018 61 10000 1.5 110 23:23 25.06.2019
5854 Clear 25 1018 57 10000 2.1 90 22:55 25.06.2019
5855 Clear 25 1018 57 10000 2.1 90 22:37 25.06.2019
5856 Clear 26 1018 54 10000 1.5 90 22:18 25.06.2019
5857 Clear 28 1018 42 10000 1 0 21:37 25.06.2019
5858 Clear 29 1018 40 10000 1 0 21:19 25.06.2019
5859 Clear 31 1018 38 10000 1.5 150 20:38 25.06.2019
5860 Clear 31 1018 38 10000 1.5 150 20:38 25.06.2019
5861 Clear 31 1018 40 10000 2.6 160 20:19 25.06.2019
5862 Clear 32 1018 35 10000 3.1 160 19:45 25.06.2019
5863 Clear 32 1018 35 10000 3.1 150 19:22 25.06.2019
5864 Clear 32 1018 35 10000 3.6 160 18:43 25.06.2019
5865 Clear 33 1018 31 10000 3.6 160 18:25 25.06.2019
5866 Clear 33 1018 29 10000 4.6 150 17:50 25.06.2019
5867 -273 0 0 0 0 0 17:28 25.06.2019
5868 Clear 33 1018 33 10000 5.1 160 16:55 25.06.2019
5869 Clear 33 1018 33 10000 5.1 160 16:37 25.06.2019
5870 Clear 33 1019 36 10000 3.6 190 16:19 25.06.2019
5871 Clear 32 1019 36 10000 4.6 140 15:39 25.06.2019
5872 Clear 32 1019 36 10000 4.6 170 15:20 25.06.2019
5873 Clear 32 1019 33 10000 5.1 150 14:50 25.06.2019
5874 Clear 32 1019 35 10000 5.1 140 14:31 25.06.2019
5875 Clear 32 1019 40 10000 4.6 170 13:43 25.06.2019
5876 Clear 32 1020 40 10000 4.6 150 13:24 25.06.2019
5877 Clear 31 1019 40 10000 4.1 140 12:43 25.06.2019
5878 Clear 30 1020 45 10000 3.6 120 12:24 25.06.2019
5879 Clear 30 1020 42 10000 3.1 140 11:46 25.06.2019
5880 Clear 29 1020 42 10000 3.6 140 11:25 25.06.2019
5881 Clear 28 1020 42 10000 4.1 180 10:58 25.06.2019
5882 Clear 28 1020 42 10000 4.1 180 10:57 25.06.2019
5883 Clear 28 1020 42 10000 4.1 180 10:37 25.06.2019
5884 Clear 27 1020 42 10000 2.6 130 10:18 25.06.2019
5885 Clear 26 1020 44 10000 2.1 130 09:39 25.06.2019
5886 Clear 24 1020 44 10000 2.1 120 09:21 25.06.2019
5887 Clear 23 1020 47 10000 2.1 110 08:52 25.06.2019
5888 Clear 22 1020 49 10000 1.5 100 08:31 25.06.2019
5889 Clear 20 1020 52 10000 2.1 100 07:44 25.06.2019
5890 Clear 19 1020 59 10000 3.1 90 07:25 25.06.2019
5891 Clear 18 1020 63 10000 3.6 90 06:44 25.06.2019
5892 Clear 17 1020 63 10000 2.1 110 05:56 25.06.2019
5893 Clear 19 1020 59 10000 4.1 90 02:43 25.06.2019
5894 Clear 20 1021 49 10000 2.1 90 00:39 25.06.2019
5895 Clear 20 1021 40 10000 1.5 100 00:20 25.06.2019
5896 Rain 21 1021 46 10000 2.1 100 23:51 24.06.2019
5897 Clear 21 1021 49 10000 2.6 80 23:32 24.06.2019
5898 Clear 22 1021 49 10000 2.6 80 22:48 24.06.2019
5899 Clear 23 1020 44 10000 2.6 90 22:21 24.06.2019
5900 -273 0 0 0 0 0 21:56 24.06.2019
5901 Clear 27 1020 39 10000 2.1 110 21:37 24.06.2019
5902 Clear 26 1020 36 10000 3.6 120 21:18 24.06.2019
5903 Clear 27 1021 34 10000 4.1 110 20:42 24.06.2019
5904 Clear 28 1021 34 10000 3.6 110 20:22 24.06.2019
5905 Clear 29 1021 32 10000 4.1 120 19:49 24.06.2019
5906 Clear 29 1021 34 10000 3.6 120 19:27 24.06.2019
5907 Clear 29 1021 30 10000 4.6 120 18:56 24.06.2019
5908 Clear 29 1021 30 10000 4.6 120 18:37 24.06.2019
5909 Clear 29 1021 32 10000 5.7 100 18:18 24.06.2019
5910 Clear 29 1021 32 10000 5.1 110 17:37 24.06.2019
5911 Clear 29 1021 33 10000 4.1 130 16:57 24.06.2019
5912 Clear 29 1021 33 10000 4.1 130 16:39 24.06.2019
5913 Clear 29 1021 33 10000 4.1 140 16:19 24.06.2019
5914 Clear 29 1021 35 10000 6.2 100 15:40 24.06.2019
5915 Clear 29 1022 32 10000 5.7 140 15:22 24.06.2019
5916 Clear 29 1022 34 10000 5.7 110 14:35 24.06.2019
5917 Clear 28 1022 32 10000 5.7 110 13:58 24.06.2019
5918 Clear 28 1022 34 10000 5.7 100 13:32 24.06.2019
5919 Clear 28 1022 34 10000 5.1 120 12:54 24.06.2019
5920 Clear 27 1022 34 10000 5.1 120 12:36 24.06.2019
5921 Clear 27 1022 42 10000 4.1 120 12:18 24.06.2019
5922 Clear 26 1023 44 10000 4.1 100 11:43 24.06.2019
5923 Clear 26 1023 47 10000 4.1 100 11:23 24.06.2019
5924 Clear 25 1023 53 10000 4.6 90 10:51 24.06.2019
5925 Clear 24 1023 56 10000 4.1 90 10:28 24.06.2019
5926 Clear 23 1023 60 10000 4.1 90 09:49 24.06.2019
5927 Clear 21 1023 64 10000 4.1 100 09:23 24.06.2019
5928 Clear 21 1023 64 10000 4.6 90 08:53 24.06.2019
5929 Clear 20 1023 68 10000 4.6 100 08:32 24.06.2019
5930 Clear 18 1023 72 10000 5.1 80 07:47 24.06.2019
5931 Clear 17 1023 77 10000 4.1 90 07:26 24.06.2019
5932 Clear 16 1023 77 10000 3.6 90 06:49 24.06.2019
5933 Clear 16 1023 77 10000 3.6 90 06:21 24.06.2019
5934 Clear 16 1022 72 10000 3.1 80 05:27 24.06.2019
5935 Clear 16 1022 72 10000 4.1 90 04:25 24.06.2019
5936 Clear 17 1023 63 10000 3.1 100 03:30 24.06.2019
5937 Clear 18 1022 63 10000 3.6 100 02:33 24.06.2019
5938 Clear 18 1022 63 10000 3.6 90 01:54 24.06.2019
5939 Clear 18 1022 59 10000 4.1 90 01:26 24.06.2019
5940 Clear 19 1022 59 10000 3.6 90 00:41 24.06.2019
5941 Clear 20 1022 59 10000 3.6 90 00:19 24.06.2019
5942 Clear 20 1022 56 10000 3.1 80 23:45 23.06.2019
5943 Clear 21 1021 60 10000 2.6 80 23:23 23.06.2019
5944 Clear 21 1021 56 10000 2.6 80 22:43 23.06.2019
5945 Clear 22 1021 53 10000 3.6 80 22:21 23.06.2019
5946 Clear 22 1020 46 10000 3.6 90 21:56 23.06.2019
5947 Clear 25 1020 41 10000 4.1 80 21:36 23.06.2019
5948 Clear 24 1020 41 10000 4.1 80 21:18 23.06.2019
5949 Clear 25 1020 34 10000 4.1 90 20:41 23.06.2019
5950 Clear 26 1020 32 10000 4.1 100 20:22 23.06.2019
5951 Clear 27 1020 34 10000 4.6 90 19:44 23.06.2019
5952 Clear 27 1020 32 10000 3.6 120 19:21 23.06.2019
5953 Clear 27 1020 30 10000 4.6 80 18:54 23.06.2019
5954 Clear 27 1020 32 10000 4.1 110 18:24 23.06.2019
5955 Clear 27 1020 32 10000 5.7 90 17:51 23.06.2019
5956 Clear 27 1021 34 10000 4.6 120 17:26 23.06.2019
5957 Clear 27 1021 39 10000 5.1 110 16:55 23.06.2019
5958 Clear 27 1021 39 10000 5.1 110 16:37 23.06.2019
5959 Clear 27 1021 36 10000 4.6 110 16:18 23.06.2019
5960 Clear 27 1021 36 10000 6.2 110 15:40 23.06.2019
5961 Clear 27 1021 34 10000 5.7 90 15:21 23.06.2019
5962 Clouds 27 1021 36 10000 4.1 110 14:41 23.06.2019
5963 Clouds 27 1021 36 10000 4.1 130 14:22 23.06.2019
5964 Clouds 26 1021 34 10000 5.7 140 13:58 23.06.2019
5965 Clouds 26 1021 41 10000 4.1 110 13:39 23.06.2019
5966 Clear 26 1022 44 10000 4.6 110 13:19 23.06.2019
5967 Clear 25 1022 44 10000 4.1 110 12:43 23.06.2019
5968 Clear 24 1022 47 10000 4.6 100 12:22 23.06.2019
5969 Clear 23 1022 46 10000 4.1 110 11:55 23.06.2019
5970 Clear 23 1022 46 10000 4.1 110 11:36 23.06.2019
5971 Clear 23 1022 53 10000 4.1 90 11:18 23.06.2019
5972 Clear 21 1022 52 10000 5.7 90 10:41 23.06.2019
5973 Clear 21 1022 56 10000 5.7 80 10:18 23.06.2019
5974 Clear 19 1022 59 10000 4.6 80 09:39 23.06.2019
5975 Clear 18 1022 59 10000 5.1 100 09:20 23.06.2019
5976 Clear 18 1022 63 10000 5.1 100 08:42 23.06.2019
5977 Clear 17 1022 63 10000 6.2 90 08:24 23.06.2019
5978 Clear 17 1022 63 10000 6.2 90 07:52 23.06.2019
5979 Clear 15 1022 77 10000 4.1 90 07:20 23.06.2019
5980 Clear 15 1022 77 10000 4.1 90 06:54 23.06.2019
5981 Clear 14 1021 82 10000 3.1 80 05:54 23.06.2019
5982 Clear 15 1021 82 10000 2.6 90 03:41 23.06.2019
5983 Clear 16 1021 77 10000 3.6 60 01:52 23.06.2019
5984 Clear 17 1021 72 10000 3.1 60 01:33 23.06.2019
5985 Clear 18 1021 67 10000 4.6 60 00:34 23.06.2019
5986 Clear 18 1021 63 10000 3.6 50 23:53 22.06.2019
5987 Clear 18 1021 68 10000 3.1 50 23:27 22.06.2019
5988 Clear 19 1020 59 10000 4.1 50 22:49 22.06.2019
5989 Clear 20 1020 56 10000 4.1 60 22:29 22.06.2019
5990 Clear 21 1020 56 10000 3.6 60 21:59 22.06.2019
5991 Clear 21 1020 56 10000 3.6 60 21:37 22.06.2019
5992 Clouds 21 1020 46 10000 3.1 90 21:18 22.06.2019
5993 Clear 22 1020 53 10000 4.6 70 20:48 22.06.2019
5994 Clear 23 1020 49 10000 4.6 60 20:25 22.06.2019
5995 Clear 23 1020 44 10000 4.6 70 19:46 22.06.2019
5996 Clear 24 1020 44 10000 4.6 70 19:22 22.06.2019
5997 Clear 23 1020 46 10000 4.1 80 18:48 22.06.2019
5998 Clear 24 1020 44 10000 4.6 80 18:30 22.06.2019
5999 Clear 24 1020 44 10000 5.1 70 17:56 22.06.2019
6000 Clear 24 1021 46 10000 4.6 70 17:33 22.06.2019
6001 Clear 24 1021 44 10000 4.6 70 16:50 22.06.2019
6002 Clear 24 1021 49 10000 5.7 60 16:24 22.06.2019
6003 Clouds 24 1021 46 10000 4.6 60 15:56 22.06.2019
6004 Clouds 23 1021 46 10000 4.6 60 15:37 22.06.2019
6005 Clouds 23 1021 47 10000 4.6 50 15:19 22.06.2019
6006 Clouds 23 1022 49 10000 4.6 50 14:35 22.06.2019
6007 Clouds 23 1022 46 10000 4.6 100 14:00 22.06.2019
6008 Clouds 22 1022 46 10000 4.6 100 13:40 22.06.2019
6009 Clouds 22 1023 46 10000 5.1 100 13:19 22.06.2019
6010 Clouds 21 1023 49 10000 4.6 80 12:50 22.06.2019
6011 Clouds 21 1023 46 10000 4.6 70 12:32 22.06.2019
6012 Clouds 21 1023 46 10000 5.1 80 11:58 22.06.2019
6013 Clouds 20 1023 52 10000 4.1 60 11:32 22.06.2019
6014 Clear 19 1023 55 10000 4.6 70 10:49 22.06.2019
6015 Clear 18 1023 63 10000 4.1 90 10:21 22.06.2019
6016 Clear 18 1023 59 10000 4.1 60 09:46 22.06.2019
6017 Clear 17 1023 63 10000 4.1 60 09:22 22.06.2019
6018 Clear 16 1023 67 10000 4.6 60 08:42 22.06.2019
6019 Clear 15 1023 77 10000 3.6 70 08:20 22.06.2019
6020 Clear 13 1023 82 10000 0.5 0 07:30 22.06.2019
6021 Clear 12 1023 87 10000 0.5 260 06:47 22.06.2019
6022 Fog 11 1023 93 10000 0.5 310 04:53 22.06.2019
6023 Clear 12 1022 93 10000 0.5 0 02:33 22.06.2019
6024 Clear 13 1022 82 10000 1 0 01:18 22.06.2019
6025 Clear 14 1022 76 10000 1 300 00:38 22.06.2019
6026 Clear 15 1021 72 10000 2.1 360 23:59 21.06.2019
6027 Clear 15 1021 72 10000 2.1 360 23:39 21.06.2019
6028 Clear 16 1021 77 10000 1.5 360 23:19 21.06.2019
6029 Clear 16 1021 77 10000 1.5 360 23:19 21.06.2019
6030 Clear 16 1021 72 10000 1.5 30 22:43 21.06.2019
6031 Clear 17 1020 72 10000 2.6 360 22:23 21.06.2019
6032 Clear 18 1020 63 10000 3.6 360 21:40 21.06.2019
6033 Clear 19 1019 59 10000 4.6 350 21:22 21.06.2019
6034 Clear 20 1019 56 10000 5.1 330 20:53 21.06.2019
6035 Clear 20 1019 56 10000 5.1 330 20:53 21.06.2019
6036 Clear 21 1018 49 10000 3.6 310 20:27 21.06.2019
6037 Clear 21 1018 40 10000 4.1 280 19:55 21.06.2019
6038 Clear 22 1018 37 10000 3.1 260 19:30 21.06.2019
6039 Clear 22 1018 37 10000 4.1 260 18:46 21.06.2019
6040 Clear 23 1018 37 10000 3.6 260 18:28 21.06.2019
6041 Clear 22 1018 40 10000 4.1 270 17:45 21.06.2019
6042 Clear 22 1018 40 10000 4.6 260 17:27 21.06.2019
6043 Clear 22 1018 40 10000 4.1 260 16:38 21.06.2019
6044 Clear 22 1018 46 10000 3.6 270 16:19 21.06.2019
6045 Clear 22 1018 46 10000 5.7 280 15:39 21.06.2019
6046 Clear 22 1018 46 10000 5.7 250 15:19 21.06.2019
6047 Clear 21 1018 46 10000 4.1 260 14:45 21.06.2019
6048 Clear 21 1018 46 10000 5.1 230 14:25 21.06.2019
6049 Clear 21 1018 46 10000 4.1 240 13:44 21.06.2019
6050 Clouds 21 1018 52 10000 5.1 290 13:25 21.06.2019
6051 Clouds 20 1018 49 10000 5.7 260 12:54 21.06.2019
6052 Clouds 20 1018 52 10000 5.1 270 12:23 21.06.2019
6053 Clouds 20 1018 52 10000 5.1 270 11:59 21.06.2019
6054 Clouds 20 1018 52 10000 5.1 270 11:40 21.06.2019
6055 Clouds 20 1018 49 10000 6.2 260 11:22 21.06.2019
6056 Clouds 20 1018 52 10000 5.7 260 10:47 21.06.2019
6057 Clouds 19 1017 72 10000 2.6 240 10:21 21.06.2019
6058 Clouds 19 1017 72 10000 2.6 240 10:21 21.06.2019
6059 Clouds 18 1017 68 10000 3.1 260 09:55 21.06.2019
6060 Clouds 18 1017 68 10000 3.1 260 09:36 21.06.2019
6061 Clouds 18 1017 72 10000 1.5 240 09:18 21.06.2019
6062 Clouds 17 1017 77 10000 2.1 270 08:41 21.06.2019
6063 Clouds 16 1017 82 10000 1 0 08:20 21.06.2019
6064 Clouds 16 1017 82 10000 1 0 07:46 21.06.2019
6065 Clouds 15 1016 87 10000 1 240 07:22 21.06.2019
6066 Fog 15 1016 82 10000 1 0 06:38 21.06.2019
6067 Fog 15 1016 82 10000 1 0 06:18 21.06.2019
6068 Clouds 15 1015 87 10000 3.1 290 04:57 21.06.2019
6069 Clouds 15 1015 93 10000 1 0 03:53 21.06.2019
6070 Clouds 15 1015 93 10000 1.5 280 03:32 21.06.2019
6071 Clouds 16 1015 93 10000 1.5 230 02:44 21.06.2019
6072 Clouds 17 1014 82 10000 2.6 290 01:33 21.06.2019
6073 Clouds 17 1014 82 10000 3.1 310 00:48 21.06.2019
6074 Rain 18 1014 72 10000 4.6 290 23:59 20.06.2019
6075 Rain 18 1014 72 10000 4.6 290 23:41 20.06.2019
6076 Rain 18 1013 68 10000 4.1 280 23:21 20.06.2019
6077 Rain 18 1013 72 10000 2.6 260 22:46 20.06.2019
6078 Thunderstorm 19 1012 82 10000 2.1 240 22:24 20.06.2019
6079 Thunderstorm 19 1012 88 10000 2.1 210 21:57 20.06.2019
6080 Rain 20 1012 88 10000 2.1 210 21:38 20.06.2019
6081 Rain 21 1012 82 10000 2.1 190 21:19 20.06.2019
6082 Rain 21 1011 56 10000 4.6 300 20:44 20.06.2019
6083 Rain 22 1011 64 10000 2.1 290 20:25 20.06.2019
6084 Rain 22 1011 64 10000 2.1 290 20:25 20.06.2019
6085 Clouds 22 1011 60 10000 4.1 290 19:55 20.06.2019
6086 Clouds 23 1011 60 10000 4.1 290 19:36 20.06.2019
6087 Clouds 23 1011 56 10000 4.6 290 19:18 20.06.2019
6088 Clouds 23 1011 56 10000 5.7 290 18:41 20.06.2019
6089 Clouds 24 1011 56 10000 4.6 290 18:21 20.06.2019
6090 Clouds 24 1011 53 10000 6.7 290 17:48 20.06.2019
6091 Clouds 24 1011 53 10000 4.6 280 17:29 20.06.2019
6092 Clouds 24 1010 47 10000 4.6 250 16:47 20.06.2019
6093 Clouds 24 1010 56 10000 4.6 250 16:20 20.06.2019
6094 Clouds 24 1011 56 10000 5.1 270 15:57 20.06.2019
6095 Clouds 23 1011 56 10000 5.1 270 15:38 20.06.2019
6096 Clouds 23 1011 56 10000 5.7 260 15:19 20.06.2019
6097 Clouds 23 1011 53 10000 6.7 250 14:44 20.06.2019
6098 Clouds 23 1011 60 10000 5.1 270 14:22 20.06.2019
6099 Clouds 23 1011 64 10000 5.1 250 13:40 20.06.2019
6100 Clouds 23 1011 60 10000 5.1 250 13:19 20.06.2019
6101 Clouds 22 1011 60 10000 4.6 260 12:46 20.06.2019
6102 Clouds 21 1011 64 10000 5.1 240 12:23 20.06.2019
6103 Clouds 21 1010 64 10000 6.2 240 11:46 20.06.2019
6104 Clouds 21 1010 72 10000 4.6 260 11:27 20.06.2019
6105 Clouds 20 1010 77 10000 4.6 260 10:54 20.06.2019
6106 Clouds 20 1010 77 10000 4.6 260 10:36 20.06.2019
6107 Clouds 20 1010 77 10000 4.6 240 10:18 20.06.2019
6108 Clouds 19 1010 77 10000 4.6 240 09:40 20.06.2019
6109 Clouds 18 1010 88 10000 5.1 250 09:21 20.06.2019
6110 Clouds 18 1010 82 10000 4.6 250 08:45 20.06.2019
6111 Clouds 18 1009 82 10000 4.1 220 08:27 20.06.2019
6112 Clouds 17 1009 82 10000 4.6 250 07:53 20.06.2019
6113 Clear 17 1009 88 10000 2.6 240 07:28 20.06.2019
6114 Fog 16 1009 93 10000 1.5 210 06:28 20.06.2019
6115 Fog 16 1008 93 10000 1.5 230 04:54 20.06.2019
6116 Clear 16 1008 100 10000 1 0 02:55 20.06.2019
6117 Rain 18 1009 82 10000 2.6 200 00:34 20.06.2019
6118 -273 0 0 0 0 0 23:58 19.06.2019
6119 Thunderstorm 19 1009 68 10000 7.7 260 23:39 19.06.2019
6120 Thunderstorm 19 1007 60 10000 2.1 170 23:21 19.06.2019
6121 Thunderstorm 19 1007 60 10000 2.6 110 22:45 19.06.2019
6122 Thunderstorm 20 1007 57 10000 3.1 170 22:18 19.06.2019
6123 Thunderstorm 21 1007 57 10000 1.5 180 21:46 19.06.2019
6124 Thunderstorm 22 1007 50 10000 2.6 180 21:25 19.06.2019
6125 Thunderstorm 22 1006 44 10000 3.6 180 20:43 19.06.2019
6126 Thunderstorm 23 1006 44 10000 1.5 130 20:22 19.06.2019
6127 -273 0 0 0 0 0 20:22 19.06.2019
6128 Clouds 23 1006 44 10000 2.6 120 19:58 19.06.2019
6129 Rain 23 1006 44 10000 2.6 120 19:39 19.06.2019
6130 Rain 23 1007 47 10000 1 0 19:20 19.06.2019
6131 Rain 24 1006 57 10000 1.5 360 18:47 19.06.2019
6132 Rain 25 1007 69 10000 2.1 360 18:20 19.06.2019
6133 Rain 25 1007 73 10000 4.1 320 17:37 19.06.2019
6134 Thunderstorm 27 1007 50 10000 7.7 230 16:59 19.06.2019
6135 Thunderstorm 28 1007 50 10000 7.7 230 16:39 19.06.2019
6136 Thunderstorm 29 1007 37 10000 3.6 220 16:21 19.06.2019
6137 Thunderstorm 30 1007 33 10000 3.6 230 15:48 19.06.2019
6138 -273 0 0 0 0 0 15:27 19.06.2019
6139 Clear 31 1007 31 10000 4.6 200 14:50 19.06.2019
6140 Clear 31 1007 33 10000 5.7 190 14:31 19.06.2019
6141 Clear 31 1007 37 10000 3.1 180 13:59 19.06.2019
6142 Clear 31 1007 37 10000 3.1 180 13:40 19.06.2019
6143 Clear 30 1008 42 10000 4.6 190 13:21 19.06.2019
6144 Clear 30 1008 40 10000 4.6 200 12:44 19.06.2019
6145 Clear 29 1008 40 10000 4.1 0 12:21 19.06.2019
6146 Clear 29 1008 40 10000 3.1 170 11:45 19.06.2019
6147 Clear 28 1008 45 10000 2.6 210 11:25 19.06.2019
6148 Clear 28 1008 45 10000 3.1 190 10:58 19.06.2019
6149 Clear 28 1008 45 10000 3.1 190 10:40 19.06.2019
6150 Clear 27 1008 48 10000 4.1 170 10:22 19.06.2019
6151 Clear 24 1009 57 10000 2.6 160 09:39 19.06.2019
6152 Clear 24 1009 57 10000 2.6 160 09:19 19.06.2019
6153 Clear 24 1009 60 10000 2.1 140 08:48 19.06.2019
6154 Clear 22 1009 60 10000 2.1 140 08:28 19.06.2019
6155 Clear 21 1009 64 10000 1.5 140 07:47 19.06.2019
6156 Clear 21 1009 64 10000 1.5 140 07:47 19.06.2019
6157 Clear 19 1009 77 10000 1.5 110 07:23 19.06.2019
6158 Clear 18 1009 77 10000 1.5 120 06:52 19.06.2019
6159 Clear 17 1009 77 10000 2.1 120 06:26 19.06.2019
6160 Clouds 17 1009 82 10000 1.5 170 05:49 19.06.2019
6161 Clear 17 1010 82 10000 1.5 110 04:19 19.06.2019
6162 Clear 18 1010 77 10000 1.5 90 03:30 19.06.2019
6163 Clear 19 1011 64 10000 1 120 01:53 19.06.2019
6164 Clear 19 1011 68 10000 1.5 110 01:18 19.06.2019
6165 Clear 20 1011 68 10000 1.5 110 00:43 19.06.2019
6166 Clear 20 1012 64 10000 2.1 100 00:20 19.06.2019
6167 Clear 21 1012 64 10000 1.5 100 23:52 18.06.2019
6168 Clear 21 1012 64 10000 2.1 100 23:27 18.06.2019
6169 Clear 22 1012 56 10000 2.6 90 22:46 18.06.2019
6170 Clear 23 1012 53 10000 2.1 80 22:24 18.06.2019
6171 Clear 24 1012 50 10000 1.5 80 21:57 18.06.2019
6172 Clear 25 1012 50 10000 1.5 80 21:38 18.06.2019
6173 Clear 25 1012 44 10000 1 0 21:20 18.06.2019
6174 Clear 26 1012 50 10000 1 0 20:43 18.06.2019
6175 Clear 27 1012 42 10000 1.5 190 20:25 18.06.2019
6176 Clear 27 1012 37 10000 1 0 19:42 18.06.2019
6177 Clear 28 1012 35 10000 2.1 170 19:23 18.06.2019
6178 Clear 28 1012 35 10000 1.5 160 18:59 18.06.2019
6179 Clear 28 1012 35 10000 1.5 160 18:37 18.06.2019
6180 Clear 28 1012 35 10000 3.1 140 18:18 18.06.2019
6181 Clear 29 1013 35 10000 3.1 150 17:38 18.06.2019
6182 Clear 29 1013 39 10000 3.1 160 17:19 18.06.2019
6183 Clear 29 1013 37 10000 2.87 175.364 16:43 18.06.2019
6184 Clear 29 1013 35 10000 3.6 170 16:24 18.06.2019
6185 Clear 29 1013 37 10000 4.1 130 15:43 18.06.2019
6186 Clear 28 1014 42 10000 3.6 130 15:24 18.06.2019
6187 Clear 28 1014 34 10000 4.6 150 14:58 18.06.2019
6188 Clear 28 1014 34 10000 4.6 150 14:58 18.06.2019
6189 Clear 28 1014 34 10000 4.6 150 14:40 18.06.2019
6190 Clear 28 1014 39 10000 4.6 170 14:20 18.06.2019
6191 Clear 28 1015 42 10000 4.1 160 13:52 18.06.2019
6192 Clear 28 1015 39 10000 4.1 0 13:31 18.06.2019
6193 Clear 28 1015 42 10000 3.6 190 12:48 18.06.2019
6194 Clear 27 1015 50 10000 2.1 0 12:29 18.06.2019
6195 Clear 26 1015 50 10000 3.1 140 11:58 18.06.2019
6196 Clear 26 1016 53 10000 4.1 120 11:39 18.06.2019
6197 Clear 26 1016 53 10000 4.1 120 11:20 18.06.2019
6198 Clear 25 1016 50 10000 3.1 150 10:43 18.06.2019
6199 Clear 24 1016 53 10000 3.1 160 10:23 18.06.2019
6200 Clear 23 1016 56 10000 2.1 130 09:54 18.06.2019
6201 Clear 22 1016 60 10000 2.1 130 09:25 18.06.2019
6202 Clear 21 1016 64 10000 1.5 120 08:59 18.06.2019
6203 Clear 20 1016 64 10000 1.5 120 08:39 18.06.2019
6204 Clear 20 1016 68 10000 2.1 100 08:21 18.06.2019
6205 Clear 17 1016 82 10000 3.1 90 07:27 18.06.2019
6206 Clear 17 1016 82 10000 2.6 90 06:59 18.06.2019
6207 Clear 15 1017 87 10000 1.5 70 05:28 18.06.2019
6208 Clear 15 1017 82 10000 2.1 90 04:23 18.06.2019
6209 Clear 16 1017 77 10000 2.1 90 02:50 18.06.2019
6210 Clear 16 1018 77 10000 1.5 100 01:49 18.06.2019
6211 Clear 17 1018 72 10000 2.1 90 01:24 18.06.2019
6212 Clear 17 1018 72 10000 2.1 90 00:40 18.06.2019
6213 Clear 18 1018 68 10000 1.5 80 00:22 18.06.2019
6214 Clear 19 1018 68 10000 1.5 80 23:39 17.06.2019
6215 Clear 19 1018 64 10000 2.1 80 23:19 17.06.2019
6216 Clear 19 1018 64 10000 2.1 80 23:19 17.06.2019
6217 Clear 20 1018 64 10000 2.1 90 22:41 17.06.2019
6218 Clear 20 1018 49 10000 1 0 22:21 17.06.2019
6219 Clear 20 1018 49 10000 1 0 22:21 17.06.2019
6220 Clear 21 1018 50 10000 1 0 21:56 17.06.2019
6221 Clear 23 1018 50 10000 1 0 21:38 17.06.2019
6222 Clear 23 1018 50 10000 1.5 150 21:18 17.06.2019
6223 Clear 25 1018 47 10000 2.6 140 20:36 17.06.2019
6224 Clear 25 1018 50 10000 3.1 160 20:18 17.06.2019
6225 Clear 25 1018 44 10000 3.1 150 19:41 17.06.2019
6226 Clear 25 1019 44 10000 3.1 160 19:22 17.06.2019
6227 Clear 26 1019 44 10000 3.6 140 18:57 17.06.2019
6228 Clear 26 1019 44 10000 3.6 150 18:36 17.06.2019
6229 Clear 26 1019 44 10000 3.6 150 18:18 17.06.2019
6230 Clear 25 1020 44 10000 3.1 140 17:42 17.06.2019
6231 Clear 25 1020 44 10000 3.1 140 17:24 17.06.2019
6232 Clouds 26 1019 41 10000 3.6 160 16:45 17.06.2019
6233 Clear 26 1020 44 10000 3.1 0 16:27 17.06.2019
6234 Clear 25 1020 44 10000 1.5 0 15:56 17.06.2019
6235 Clear 25 1020 41 10000 1.5 140 15:37 17.06.2019
6236 Clear 25 1021 47 10000 2.6 140 15:18 17.06.2019
6237 Clear 25 1021 47 10000 2.6 140 15:18 17.06.2019
6238 Clouds 25 1020 44 10000 2.6 160 14:47 17.06.2019
6239 Clear 25 1021 47 10000 3.1 90 14:26 17.06.2019
6240 Clouds 25 1020 47 10000 2.6 170 13:49 17.06.2019
6241 Clouds 25 1021 47 10000 2.6 0 13:23 17.06.2019
6242 Clouds 24 1021 47 10000 2.6 160 12:50 17.06.2019
6243 Clouds 24 1021 50 10000 2.6 150 12:31 17.06.2019
6244 Clouds 23 1021 47 10000 2.1 120 11:48 17.06.2019
6245 Clouds 23 1022 49 10000 1 0 11:26 17.06.2019
6246 Clouds 23 1022 53 10000 2.1 0 10:58 17.06.2019
6247 Clouds 22 1022 56 10000 2.1 0 10:40 17.06.2019
6248 Clouds 22 1022 56 10000 2.1 0 10:21 17.06.2019
6249 Clear 21 1022 56 10000 2.6 90 09:51 17.06.2019
6250 Clear 20 1022 60 10000 2.1 100 09:28 17.06.2019
6251 Mist 18 1022 82 8000 1 80 08:41 17.06.2019
6252 Mist 17 1022 72 10000 0.5 0 08:23 17.06.2019
6253 Fog 16 1022 87 10000 1.5 160 07:46 17.06.2019
6254 Fog 16 1022 87 10000 1.5 160 07:46 17.06.2019
6255 Fog 15 1022 82 9000 1 90 07:27 17.06.2019
6256 Fog 13 1022 100 600 0.5 150 06:42 17.06.2019
6257 Fog 12 1022 93 10000 1 230 05:47 17.06.2019
6258 Fog 13 1022 93 10000 0.5 320 04:42 17.06.2019
6259 Fog 13 1022 93 50 1 220 03:49 17.06.2019
6260 Fog 13 1022 93 10000 0.5 270 02:59 17.06.2019
6261 Fog 14 1022 93 9000 0.5 0 02:41 17.06.2019
6262 Fog 14 1021 87 10000 1 0 01:55 17.06.2019
6263 Rain 14 1022 93 10000 1.5 310 01:33 17.06.2019
6264 Fog 15 1021 87 10000 0.5 0 00:44 17.06.2019
6265 Fog 15 1021 87 10000 0.5 0 00:44 17.06.2019
6266 Fog 15 1021 87 10000 0.5 0 00:22 17.06.2019
6267 Rain 16 1021 87 10000 1.5 20 23:43 16.06.2019
6268 Rain 16 1021 87 10000 1.5 20 23:22 16.06.2019
6269 Rain 16 1021 77 10000 1 0 22:57 16.06.2019
6270 Rain 17 1020 72 10000 1 0 22:39 16.06.2019
6271 Rain 17 1020 72 10000 1 0 22:18 16.06.2019
6272 Clear 18 1020 68 10000 2.6 170 21:42 16.06.2019
6273 Clear 19 1020 68 10000 2.6 170 21:23 16.06.2019
6274 Clear 19 1020 64 10000 3.6 170 20:59 16.06.2019
6275 Clear 19 1020 64 10000 3.1 160 20:37 16.06.2019
6276 Clear 20 1020 64 10000 3.1 160 20:18 16.06.2019
6277 Rain 20 1020 64 10000 3.6 160 19:43 16.06.2019
6278 Rain 20 1020 64 10000 3.1 140 19:22 16.06.2019
6279 Rain 20 1020 64 10000 3.1 140 18:59 16.06.2019
6280 Clear 20 1020 60 10000 4.1 160 18:40 16.06.2019
6281 Clear 20 1020 60 10000 5.1 160 18:20 16.06.2019
6282 Clouds 21 1019 53 10000 3.1 160 17:48 16.06.2019
6283 Clear 21 1020 56 10000 4.1 180 17:23 16.06.2019
6284 Clear 21 1020 64 10000 3.1 160 16:57 16.06.2019
6285 Clouds 21 1020 72 10000 3.1 170 16:39 16.06.2019
6286 Rain 21 1020 72 10000 4.1 170 16:21 16.06.2019
6287 Clouds 21 1020 64 10000 4.1 180 15:44 16.06.2019
6288 Clouds 21 1020 64 10000 4.1 180 15:24 16.06.2019
6289 Clouds 21 1020 60 10000 2.6 240 14:45 16.06.2019
6290 Clouds 21 1020 60 10000 2.6 240 14:24 16.06.2019
6291 Clouds 21 1020 56 10000 1.5 0 13:56 16.06.2019
6292 Clouds 21 1020 53 10000 1.5 0 13:38 16.06.2019
6293 Clouds 21 1020 60 10000 2.1 280 13:20 16.06.2019
6294 Clouds 20 1020 60 10000 2.1 250 12:41 16.06.2019
6295 Clouds 20 1020 60 10000 2.1 250 12:20 16.06.2019
6296 Clouds 20 1019 56 10000 3.1 270 11:46 16.06.2019
6297 Clouds 20 1019 56 10000 2.6 0 11:21 16.06.2019
6298 Clouds 20 1019 56 10000 2.6 0 10:56 16.06.2019
6299 Clouds 19 1019 68 10000 1 0 10:38 16.06.2019
6300 Clouds 19 1019 68 10000 1.5 70 10:18 16.06.2019
6301 Clear 18 1019 72 10000 0.5 0 09:39 16.06.2019
6302 Clear 17 1019 77 10000 0.5 200 09:21 16.06.2019
6303 Clear 16 1018 82 10000 1 0 08:41 16.06.2019
6304 Clear 15 1018 87 10000 0.5 0 08:19 16.06.2019
6305 Fog 14 1018 100 10000 0.5 0 07:44 16.06.2019
6306 Fog 14 1018 93 10000 0.5 0 07:19 16.06.2019
6307 Fog 13 1018 93 10000 0.5 0 06:43 16.06.2019
6308 Fog 12 1018 93 10000 0.5 0 05:51 16.06.2019
6309 Fog 12 1018 93 10000 0.5 0 04:55 16.06.2019
6310 Fog 13 1018 100 10000 0.5 10 03:57 16.06.2019
6311 Fog 13 1018 100 10000 1 0 03:32 16.06.2019
6312 Clear 13 1017 100 10000 0.5 0 02:33 16.06.2019
6313 Clouds 14 1017 93 10000 0.5 0 01:47 16.06.2019
6314 Clear 14 1017 93 10000 0.5 0 01:27 16.06.2019
6315 Clear 15 1016 93 10000 0.5 0 00:40 16.06.2019
6316 Clear 15 1016 93 10000 0.5 0 00:21 16.06.2019
6317 Clear 16 1015 77 10000 1 290 23:45 15.06.2019
6318 Clear 16 1015 77 10000 1 290 23:25 15.06.2019
6319 Clear 17 1015 72 10000 2.1 300 22:50 15.06.2019
6320 Clear 18 1015 68 10000 3.1 280 22:27 15.06.2019
6321 Clouds 18 1015 63 10000 3.1 280 21:57 15.06.2019
6322 Clouds 20 1014 60 10000 4.6 280 21:39 15.06.2019
6323 Clouds 20 1014 56 10000 4.6 280 21:18 15.06.2019
6324 Clouds 21 1014 60 10000 5.7 270 20:42 15.06.2019
6325 Clouds 21 1014 56 10000 7.7 280 20:22 15.06.2019
6326 Clouds 22 1013 60 10000 6.7 270 19:43 15.06.2019
6327 Clouds 22 1013 60 10000 6.7 270 19:24 15.06.2019
6328 Clouds 22 1013 60 10000 7.7 270 18:41 15.06.2019
6329 Clouds 23 1013 60 10000 7.7 270 18:21 15.06.2019
6330 Clouds 23 1013 68 10000 7.2 250 17:43 15.06.2019
6331 Clouds 23 1013 68 10000 7.2 250 17:25 15.06.2019
6332 Clouds 22 1012 68 10000 6.7 260 16:48 15.06.2019
6333 Clouds 22 1012 73 10000 4.1 280 16:20 15.06.2019
6334 Clouds 22 1012 73 10000 5.7 280 15:44 15.06.2019
6335 Clouds 22 1012 73 10000 5.7 280 15:44 15.06.2019
6336 Clouds 23 1012 73 10000 5.7 280 15:24 15.06.2019
6337 Clouds 23 1011 73 10000 6.2 260 14:44 15.06.2019
6338 Clouds 23 1010 78 10000 7.7 270 14:19 15.06.2019
6339 Clouds 23 1010 78 10000 7.7 270 13:58 15.06.2019
6340 Clouds 23 1010 77 10000 6.7 250 13:40 15.06.2019
6341 Clouds 23 1009 73 10000 6.7 250 13:19 15.06.2019
6342 Clouds 24 1009 73 10000 6.7 250 12:51 15.06.2019
6343 Clouds 23 1008 69 10000 6.2 220 12:26 15.06.2019
6344 Clouds 23 1008 69 10000 4.1 200 11:52 15.06.2019
6345 Clouds 23 1008 73 10000 3.1 200 11:32 15.06.2019
6346 Clouds 23 1007 73 10000 2.6 150 10:49 15.06.2019
6347 Clouds 22 1007 78 10000 3.6 80 10:27 15.06.2019
6348 Clear 21 1008 83 10000 3.6 90 09:59 15.06.2019
6349 Drizzle 20 1007 93 10000 4.1 80 09:39 15.06.2019
6350 Clear 20 1007 88 10000 4.1 80 09:20 15.06.2019
6351 Thunderstorm 19 1007 88 10000 2.1 120 08:46 15.06.2019
6352 Thunderstorm 19 1007 93 10000 4.1 80 08:27 15.06.2019
6353 Thunderstorm 19 1008 88 10000 5.1 60 07:41 15.06.2019
6354 Thunderstorm 18 1008 88 10000 2.6 60 07:21 15.06.2019
6355 Thunderstorm 18 1009 88 10000 2.1 0 06:38 15.06.2019
6356 Thunderstorm 18 1009 88 10000 2.1 0 06:38 15.06.2019
6357 Rain 18 1009 93 10000 3.1 40 05:48 15.06.2019
6358 Rain 19 1010 82 10000 1.5 320 05:20 15.06.2019
6359 Thunderstorm 19 1009 77 10000 2.1 70 04:34 15.06.2019
6360 Clear 19 1011 72 10000 3.1 70 03:38 15.06.2019
6361 Clouds 20 1011 82 10000 1.5 60 02:48 15.06.2019
6362 Clear 20 1012 77 10000 1.5 350 01:59 15.06.2019
6363 Rain 20 1012 77 10000 1 0 01:28 15.06.2019
6364 Rain 20 1012 77 10000 1.5 100 00:44 15.06.2019
6365 Clear 20 1012 68 10000 1.5 60 00:44 15.06.2019
6366 Clear 21 1012 68 10000 1.5 60 00:26 15.06.2019
6367 Clear 21 1013 68 10000 1 0 23:52 14.06.2019
6368 Clear 22 1013 68 10000 0.5 0 23:25 14.06.2019
6369 Clear 22 1013 60 10000 1 60 22:43 14.06.2019
6370 Clear 23 1013 53 10000 1 0 22:22 14.06.2019
6371 Clear 23 1013 53 10000 1 0 21:49 14.06.2019
6372 Clear 25 1013 47 10000 2.1 160 21:30 14.06.2019
6373 Clear 25 1013 47 10000 3.1 170 20:58 14.06.2019
6374 Clear 25 1013 42 10000 2.6 170 20:39 14.06.2019
6375 Clear 25 1013 42 10000 4.1 180 20:18 14.06.2019
6376 Rain 26 1013 44 10000 5.1 200 19:43 14.06.2019
6377 Rain 26 1013 39 10000 4.1 170 19:23 14.06.2019
6378 Rain 26 1013 42 10000 5.1 180 18:55 14.06.2019
6379 Clear 27 1013 39 10000 5.1 170 18:37 14.06.2019
6380 Clear 27 1014 42 10000 3.6 190 18:19 14.06.2019
6381 Thunderstorm 28 1013 37 10000 4.1 230 17:46 14.06.2019
6382 Thunderstorm 28 1014 39 10000 6.2 190 17:24 14.06.2019
6383 Thunderstorm 28 1014 37 10000 5.7 170 16:53 14.06.2019
6384 Thunderstorm 28 1014 42 10000 3.6 150 16:27 14.06.2019
6385 Thunderstorm 28 1014 39 10000 6.2 190 15:59 14.06.2019
6386 Clear 28 1014 42 10000 5.7 170 15:39 14.06.2019
6387 Clear 28 1014 42 10000 5.7 170 15:20 14.06.2019
6388 Clear 28 1014 42 10000 5.7 170 15:20 14.06.2019
6389 Clear 28 1014 42 10000 5.7 170 15:20 14.06.2019
6390 Clouds 28 1014 42 10000 7.2 200 14:48 14.06.2019
6391 Clouds 28 1014 42 10000 7.2 200 14:48 14.06.2019
6392 Clear 28 1015 42 10000 5.1 170 14:29 14.06.2019
6393 Clouds 27 1015 47 10000 5.1 200 13:49 14.06.2019
6394 Clear 27 1015 44 10000 5.7 150 13:30 14.06.2019
6395 Clear 26 1015 47 10000 4.6 150 12:59 14.06.2019
6396 Clear 26 1015 50 10000 4.1 150 12:39 14.06.2019
6397 Clear 25 1015 50 10000 4.1 150 12:21 14.06.2019
6398 Clear 25 1016 49 10000 4.6 130 11:43 14.06.2019
6399 Clear 24 1016 49 10000 4.6 130 11:23 14.06.2019
6400 Clouds 23 1015 53 10000 4.6 140 10:49 14.06.2019
6401 Clear 22 1016 49 10000 4.1 120 10:22 14.06.2019
6402 Clear 22 1016 49 10000 4.1 120 09:55 14.06.2019
6403 Clear 21 1016 49 10000 3.6 130 09:34 14.06.2019
6404 Clouds 18 1015 59 10000 4.1 140 08:49 14.06.2019
6405 Clear 17 1016 59 10000 2.1 110 08:21 14.06.2019
6406 -273 0 0 0 0 0 07:58 14.06.2019
6407 Clear 14 1016 77 10000 3.1 90 07:39 14.06.2019
6408 Clear 14 1016 76 10000 1.5 120 07:18 14.06.2019
6409 Fog 12 1016 76 10000 1.5 110 06:20 14.06.2019
6410 Clouds 11 1015 81 10000 2.6 100 05:49 14.06.2019
6411 Clear 11 1015 81 10000 1 120 04:55 14.06.2019
6412 Clear 12 1015 81 10000 2.6 90 04:27 14.06.2019
6413 Clear 12 1015 76 10000 1.5 0 03:41 14.06.2019
6414 Clear 12 1015 76 10000 1.5 0 03:21 14.06.2019
6415 Clear 12 1015 71 10000 0.5 0 02:36 14.06.2019
6416 Clouds 13 1015 76 10000 2.6 180 01:51 14.06.2019
6417 Clear 15 1015 59 10000 2.6 160 00:40 14.06.2019
6418 Clear 15 1015 59 10000 2.6 160 00:21 14.06.2019
6419 Clouds 15 1014 72 10000 2.1 190 23:50 13.06.2019
6420 Clouds 15 1014 72 10000 2.1 190 23:50 13.06.2019
6421 Clear 16 1014 55 10000 2.1 190 23:25 13.06.2019
6422 Clear 17 1014 55 10000 2.1 210 22:41 13.06.2019
6423 Clear 18 1014 55 10000 2.1 210 22:22 13.06.2019
6424 Clear 18 1013 52 10000 2.1 230 21:59 13.06.2019
6425 Clear 20 1013 52 10000 1.5 240 21:38 13.06.2019
6426 Clear 20 1013 49 10000 1.5 250 21:19 13.06.2019
6427 Clear 21 1013 49 10000 2.6 250 20:45 13.06.2019
6428 Thunderstorm 22 1012 46 10000 2.6 260 20:20 13.06.2019
6429 Rain 22 1012 43 10000 2.6 260 19:43 13.06.2019
6430 Rain 22 1012 43 10000 2.6 240 19:25 13.06.2019
6431 Rain 22 1012 43 10000 3.6 260 19:00 13.06.2019
6432 Clear 22 1012 43 10000 3.1 240 18:41 13.06.2019
6433 Clear 23 1012 43 10000 3.1 240 18:22 13.06.2019
6434 Clouds 23 1012 40 10000 3.1 260 17:45 13.06.2019
6435 Clear 23 1012 40 10000 5.1 220 17:22 13.06.2019
6436 Clear 24 1012 38 10000 5.1 230 16:59 13.06.2019
6437 Clear 24 1012 43 0 5.1 230 16:41 13.06.2019
6438 Clear 24 1012 40 10000 4.6 200 16:20 13.06.2019
6439 Clear 23 1012 43 10000 5.1 210 15:41 13.06.2019
6440 Clear 23 1012 43 10000 5.1 210 15:22 13.06.2019
6441 Clear 23 1013 40 10000 5.1 220 14:52 13.06.2019
6442 Clear 23 1013 43 10000 4.1 220 14:31 13.06.2019
6443 Clear 23 1013 46 10000 3.6 230 13:57 13.06.2019
6444 Clear 23 1013 46 10000 3.6 230 13:57 13.06.2019
6445 Clear 23 1013 46 10000 3.6 230 13:57 13.06.2019
6446 Clear 22 1013 43 10000 6.2 230 13:39 13.06.2019
6447 Clouds 22 1013 49 10000 7.2 190 13:20 13.06.2019
6448 Clouds 21 1013 56 10000 6.7 190 12:41 13.06.2019
6449 Clouds 21 1013 56 10000 5.7 220 12:22 13.06.2019
6450 Clouds 21 1012 52 10000 6.2 220 11:46 13.06.2019
6451 Clouds 20 1013 60 10000 5.7 210 11:28 13.06.2019
6452 Clouds 19 1013 60 10000 5.7 210 10:51 13.06.2019
6453 Clouds 19 1013 60 10000 4.1 200 10:31 13.06.2019
6454 Clear 18 1013 63 10000 5.1 220 09:56 13.06.2019
6455 Clear 18 1013 68 10000 3.6 190 09:38 13.06.2019
6456 Clear 17 1013 68 10000 3.6 190 09:20 13.06.2019
6457 Clear 16 1013 77 10000 3.1 160 08:43 13.06.2019
6458 Clear 16 1013 77 10000 3.1 160 08:22 13.06.2019
6459 Clear 14 1012 77 10000 3.6 170 07:42 13.06.2019
6460 Clear 14 1012 77 10000 3.6 170 07:24 13.06.2019
6461 Clouds 13 1012 72 10000 3.1 170 06:45 13.06.2019
6462 Clear 13 1012 76 10000 2.6 170 06:22 13.06.2019
6463 Fog 12 1012 82 10000 1 0 05:53 13.06.2019
6464 Fog 13 1012 76 10000 3.1 170 05:35 13.06.2019
6465 Fog 12 1012 82 10000 3.1 180 03:57 13.06.2019
6466 Fog 12 1012 87 10000 1.5 130 02:23 13.06.2019
6467 Fog 13 1012 93 10000 1 0 00:46 13.06.2019
6468 Fog 13 1011 93 10000 3.6 220 23:47 12.06.2019
6469 Fog 14 1011 93 10000 1 0 23:21 12.06.2019
6470 Clouds 15 1011 87 10000 0.5 80 22:42 12.06.2019
6471 Clouds 15 1011 87 10000 0.5 80 22:24 12.06.2019
6472 Clear 16 1010 77 10000 0.5 0 21:48 12.06.2019
6473 Clouds 17 1010 77 10000 2.6 220 21:29 12.06.2019
6474 Clouds 17 1009 77 10000 4.1 220 20:57 12.06.2019
6475 Clouds 17 1009 77 10000 3.1 270 20:37 12.06.2019
6476 Clouds 17 1009 82 10000 4.1 240 20:19 12.06.2019
6477 Rain 17 1009 82 10000 7.2 240 19:42 12.06.2019
6478 Rain 17 1009 82 10000 7.2 240 19:22 12.06.2019
6479 Clouds 18 1008 82 10000 4.1 250 18:51 12.06.2019
6480 Rain 18 1008 93 10000 6.2 220 18:29 12.06.2019
6481 Rain 18 1009 88 9000 1.5 150 17:58 12.06.2019
6482 Rain 18 1008 93 9000 1.5 0 17:40 12.06.2019
6483 Rain 18 1009 93 9000 2.6 200 17:19 12.06.2019
6484 Rain 19 1009 93 9000 2.6 190 16:42 12.06.2019
6485 Rain 19 1009 93 9000 2.6 190 16:23 12.06.2019
6486 Rain 19 1008 93 6000 1.5 180 15:48 12.06.2019
6487 Rain 19 1008 93 4500 1 170 15:29 12.06.2019
6488 Rain 19 1008 93 7000 1.5 70 14:45 12.06.2019
6489 Rain 19 1008 93 7000 1.5 70 14:45 12.06.2019
6490 -273 0 0 0 0 0 14:26 12.06.2019
6491 Rain 19 1008 93 10000 3.1 70 13:42 12.06.2019
6492 Rain 19 1008 93 10000 3.1 70 13:20 12.06.2019
6493 Rain 19 1008 93 4500 1 20 12:58 12.06.2019
6494 Clouds 19 1008 88 10000 2.6 30 12:38 12.06.2019
6495 Clouds 19 1008 88 10000 2.6 30 12:38 12.06.2019
6496 Clouds 19 1008 82 10000 2.6 70 12:19 12.06.2019
6497 Clouds 19 1008 82 10000 2.6 70 12:19 12.06.2019
6498 Rain 18 1008 88 9000 1.5 60 11:46 12.06.2019
6499 Rain 18 1008 93 9000 1.5 320 11:27 12.06.2019
6500 Mist 18 1008 88 4500 2.6 40 10:51 12.06.2019
6501 Mist 18 1008 88 9000 4.1 50 10:29 12.06.2019
6502 Mist 17 1009 93 3300 2.6 10 09:45 12.06.2019
6503 Mist 17 1009 93 3300 2.6 10 09:23 12.06.2019
6504 Fog 17 1009 100 1200 3.1 20 08:56 12.06.2019
6505 Fog 17 1009 100 1200 3.1 20 08:56 12.06.2019
6506 Mist 16 1009 100 2600 1.5 360 08:23 12.06.2019
6507 Fog 16 1009 93 2000 1 60 07:46 12.06.2019
6508 Mist 16 1009 93 1700 0.5 0 06:54 12.06.2019
6509 Mist 16 1009 93 1700 0.5 0 06:54 12.06.2019
6510 Mist 15 1009 100 4700 1.5 250 05:37 12.06.2019
6511 Mist 15 1009 100 4700 1.5 250 05:19 12.06.2019
6512 Rain 16 1012 93 4000 4.1 210 01:58 12.06.2019
6513 Thunderstorm 17 1010 93 10000 3.6 280 00:40 12.06.2019
6514 Rain 17 1011 82 10000 2.6 140 23:50 11.06.2019
6515 Rain 17 1010 82 10000 5.1 220 23:31 11.06.2019
6516 Rain 18 1009 82 10000 5.7 20 22:44 11.06.2019
6517 Rain 19 1012 77 10000 2.1 340 22:21 11.06.2019
6518 Rain 19 1012 77 10000 2.1 340 21:58 11.06.2019
6519 Clouds 20 1011 68 10000 3.1 320 21:39 11.06.2019
6520 Clouds 20 1011 68 10000 3.1 320 21:20 11.06.2019
6521 Clouds 20 1011 68 10000 3.1 320 21:20 11.06.2019
6522 Clouds 20 1011 68 10000 3.1 320 21:20 11.06.2019
6523 Clouds 21 1011 64 10000 3.1 320 20:49 11.06.2019
6524 Clouds 21 1012 64 10000 3.1 320 20:26 11.06.2019
6525 Clouds 21 1012 60 10000 3.1 300 19:56 11.06.2019
6526 -273 0 0 0 0 0 19:38 11.06.2019
6527 Clouds 21 1012 60 10000 3.1 300 19:38 11.06.2019
6528 Clouds 22 1011 64 10000 3.1 300 18:59 11.06.2019
6529 Clouds 22 1011 64 10000 3.1 300 18:58 11.06.2019
6530 Clouds 22 1011 60 10000 0.5 0 18:23 11.06.2019
6531 Clouds 22 1011 53 10000 2.1 0 17:57 11.06.2019
6532 Clouds 22 1011 56 10000 2.6 240 17:39 11.06.2019
6533 Clouds 21 1012 64 10000 3.1 270 17:19 11.06.2019
6534 Clouds 21 1011 64 10000 2.6 290 16:42 11.06.2019
6535 Clouds 21 1011 64 10000 2.6 290 16:23 11.06.2019
6536 Clouds 21 1011 68 10000 3.6 300 15:43 11.06.2019
6537 Clouds 21 1011 68 10000 3.6 300 15:24 11.06.2019
6538 Clouds 21 1011 68 10000 3.1 260 14:54 11.06.2019
6539 Clouds 20 1011 72 10000 3.6 270 14:23 11.06.2019
6540 Clouds 19 1011 77 10000 3.6 290 13:57 11.06.2019
6541 Clouds 19 1011 77 10000 4.1 270 13:37 11.06.2019
6542 Clouds 19 1011 82 10000 4.6 250 13:18 11.06.2019
6543 Clouds 18 1011 82 10000 3.6 270 12:40 11.06.2019
6544 Clouds 18 1011 82 10000 5.1 240 12:21 11.06.2019
6545 Rain 18 1010 88 10000 4.1 270 11:41 11.06.2019
6546 Rain 17 1010 88 10000 4.1 270 11:21 11.06.2019
6547 Rain 17 1010 88 10000 3.6 270 10:47 11.06.2019
6548 Rain 17 1010 93 10000 3.1 250 10:26 11.06.2019
6549 Rain 16 1010 100 7000 2.1 250 09:50 11.06.2019
6550 Rain 16 1010 93 7000 3.1 280 09:25 11.06.2019
6551 Rain 16 1010 93 4500 3.6 280 08:47 11.06.2019
6552 Rain 17 1010 88 4800 4.1 240 08:29 11.06.2019
6553 Rain 17 1010 88 8000 6.2 230 07:55 11.06.2019
6554 Rain 17 1009 93 4500 3.6 280 07:29 11.06.2019
6555 Rain 17 1009 88 6000 6.2 250 06:50 11.06.2019
6556 Fog 17 1008 93 10000 1 230 04:59 11.06.2019
6557 Clouds 17 1009 88 10000 1.5 160 03:47 11.06.2019
6558 Clear 18 1009 77 10000 1.5 190 01:41 11.06.2019
6559 Rain 18 1009 72 10000 3.1 230 00:48 11.06.2019
6560 Rain 19 1009 77 10000 1 0 23:56 10.06.2019
6561 Rain 19 1010 73 10000 2.6 120 23:38 10.06.2019
6562 Rain 19 1010 73 10000 1.5 180 22:58 10.06.2019
6563 Rain 20 1010 73 10000 2.1 190 22:40 10.06.2019
6564 Rain 20 1010 77 10000 2.6 230 22:22 10.06.2019
6565 Rain 21 1009 73 10000 1.5 210 21:41 10.06.2019
6566 Rain 22 1009 73 10000 1.5 210 21:22 10.06.2019
6567 Rain 23 1009 57 10000 5.7 150 20:47 10.06.2019
6568 Rain 23 1010 57 10000 3.1 130 20:25 10.06.2019
6569 Rain 23 1010 53 10000 3.6 130 19:57 10.06.2019
6570 Rain 23 1010 53 10000 3.6 130 19:57 10.06.2019
6571 Rain 24 1010 50 10000 3.6 150 19:38 10.06.2019
6572 Rain 24 1010 50 10000 2.6 110 19:20 10.06.2019
6573 Rain 24 1010 50 10000 2.6 110 18:55 10.06.2019
6574 Thunderstorm 24 1010 50 10000 2.6 140 18:37 10.06.2019
6575 Thunderstorm 25 1010 50 10000 3.1 170 18:18 10.06.2019
6576 Clear 25 1010 50 10000 2.6 90 17:40 10.06.2019
6577 Clear 25 1010 50 10000 2.6 90 17:40 10.06.2019
6578 Clouds 25 1010 47 10000 1.5 130 17:21 10.06.2019
6579 Clouds 25 1010 47 10000 0.5 70 16:46 10.06.2019
6580 Clouds 25 1010 50 10000 3.1 80 16:27 10.06.2019
6581 Clear 25 1011 50 10000 2.6 70 15:43 10.06.2019
6582 Clear 25 1011 50 10000 2.6 70 15:24 10.06.2019
6583 Clouds 25 1012 50 10000 1.5 0 14:59 10.06.2019
6584 Clouds 25 1012 53 10000 2.1 80 14:38 10.06.2019
6585 Clouds 24 1012 50 10000 2.1 100 14:20 10.06.2019
6586 Clouds 25 1012 47 10000 2.1 110 13:43 10.06.2019
6587 Clouds 24 1012 47 10000 2.6 80 13:22 10.06.2019
6588 Clouds 24 1012 47 10000 2.6 80 13:22 10.06.2019
6589 Clouds 24 1012 47 10000 1.5 10 12:45 10.06.2019
6590 Clear 23 1013 50 10000 2.1 0 12:26 10.06.2019
6591 Clouds 23 1013 49 10000 1.5 100 11:46 10.06.2019
6592 Clouds 23 1013 49 10000 1.5 100 11:46 10.06.2019
6593 Clear 22 1013 56 10000 2.1 80 11:28 10.06.2019
6594 Clouds 22 1013 49 10000 2.1 90 10:46 10.06.2019
6595 Clear 21 1013 60 10000 2.1 0 10:22 10.06.2019
6596 Clear 20 1013 60 10000 3.1 90 09:58 10.06.2019
6597 Rain 19 1014 59 10000 3.6 90 09:39 10.06.2019
6598 Rain 19 1014 59 10000 3.6 90 09:19 10.06.2019
6599 Rain 17 1014 63 10000 2.6 60 08:45 10.06.2019
6600 Rain 17 1014 63 10000 2.6 60 08:25 10.06.2019
6601 Clear 16 1014 67 10000 3.1 100 07:21 10.06.2019
6602 Clear 16 1016 55 10000 2.1 70 04:30 10.06.2019
6603 Clear 17 1018 59 10000 3.1 50 01:59 10.06.2019
6604 Clear 17 1018 55 10000 3.6 50 01:26 10.06.2019
6605 Clear 17 1018 59 10000 2.6 50 00:58 10.06.2019
6606 Clear 18 1018 55 10000 2.6 40 00:20 10.06.2019
6607 Clear 18 1019 55 10000 3.1 50 23:43 09.06.2019
6608 Clear 18 1019 59 10000 2.6 60 23:20 09.06.2019
6609 Clear 18 1019 63 10000 1.5 30 22:45 09.06.2019
6610 Clear 19 1019 63 10000 1.5 30 22:25 09.06.2019
6611 Clouds 19 1019 55 5000 2.6 80 21:46 09.06.2019
6612 Clear 20 1020 52 10000 2.1 60 21:26 09.06.2019
6613 Clouds 21 1019 52 5000 1.5 60 20:45 09.06.2019
6614 Clear 21 1020 43 10000 2.6 80 20:23 09.06.2019
6615 Clear 21 1020 46 10000 1.5 120 19:56 09.06.2019
6616 Clear 22 1020 37 10000 2.6 110 19:36 09.06.2019
6617 Clear 22 1021 43 10000 3.6 70 19:18 09.06.2019
6618 Clear 22 1021 43 10000 2.6 90 18:41 09.06.2019
6619 Clear 22 1021 43 10000 2.6 90 18:41 09.06.2019
6620 Clear 22 1021 43 10000 2.6 90 18:23 09.06.2019
6621 Clouds 22 1021 38 6000 2.1 80 17:48 09.06.2019
6622 Clear 22 1021 40 10000 3.1 90 17:27 09.06.2019
6623 Clear 22 1021 40 10000 4.1 80 16:55 09.06.2019
6624 Clear 22 1022 40 10000 1.5 0 16:37 09.06.2019
6625 Clear 22 1022 40 10000 1.5 0 16:19 09.06.2019
6626 Clouds 22 1022 40 7000 1.5 110 15:45 09.06.2019
6627 Clear 22 1023 40 10000 2.6 240 15:27 09.06.2019
6628 Clouds 22 1023 43 6000 1.5 300 14:46 09.06.2019
6629 Clear 21 1023 43 10000 2.1 0 14:26 09.06.2019
6630 Clear 21 1023 45 10000 3.6 230 13:56 09.06.2019
6631 Clouds 21 1024 45 10000 2.6 260 13:35 09.06.2019
6632 Clouds 20 1024 45 5000 3.1 210 12:43 09.06.2019
6633 Clouds 20 1024 48 10000 5.1 240 12:25 09.06.2019
6634 Clouds 19 1024 48 4600 3.6 280 11:47 09.06.2019
6635 Clouds 18 1024 52 10000 2.6 0 11:28 09.06.2019
6636 Clouds 18 1024 51 4700 4.1 260 10:46 09.06.2019
6637 Clouds 18 1024 51 4700 4.1 260 10:46 09.06.2019
6638 Clouds 17 1025 51 10000 4.6 230 10:24 09.06.2019
6639 Clear 16 1025 62 10000 3.6 220 09:41 09.06.2019
6640 Clear 16 1025 62 10000 3.6 220 09:23 09.06.2019
6641 Clear 16 1025 62 10000 3.6 220 09:23 09.06.2019
6642 Clear 15 1024 67 10000 3.6 250 08:55 09.06.2019
6643 Clear 15 1024 71 10000 3.1 220 08:36 09.06.2019
6644 Clouds 13 1024 71 4300 3.6 240 07:46 09.06.2019
6645 Clear 12 1024 76 10000 2.6 230 06:30 09.06.2019
6646 Clear 11 1023 76 10000 2.6 200 05:34 09.06.2019
6647 Clear 13 1022 71 10000 3.1 220 01:46 09.06.2019
6648 Clear 13 1022 71 10000 3.1 220 01:22 09.06.2019
6649 Clear 13 1022 71 10000 2.6 210 00:59 09.06.2019
6650 Clear 14 1022 67 10000 3.6 220 23:56 08.06.2019
6651 Clear 14 1022 62 10000 2.1 190 23:38 08.06.2019
6652 Clear 14 1021 67 10000 2.6 220 23:19 08.06.2019
6653 Clear 15 1021 62 10000 3.6 230 22:42 08.06.2019
6654 Clear 15 1021 62 10000 3.6 230 22:23 08.06.2019
6655 Clear 16 1020 55 5000 5.7 250 21:52 08.06.2019
6656 Rain 17 1020 55 10000 6.2 230 21:29 08.06.2019
6657 Rain 18 1020 48 10000 5.7 220 20:59 08.06.2019
6658 Rain 18 1019 42 10000 5.7 210 20:40 08.06.2019
6659 Rain 19 1019 42 10000 5.7 210 20:20 08.06.2019
6660 Clear 19 1019 45 10000 7.2 220 19:41 08.06.2019
6661 Clear 19 1019 45 10000 7.2 220 19:20 08.06.2019
6662 Clouds 20 1018 37 10000 8.7 230 18:57 08.06.2019
6663 Clear 19 1019 45 10000 6.7 210 18:36 08.06.2019
6664 Clear 20 1019 40 10000 8.2 230 17:59 08.06.2019
6665 Clear 19 1019 45 10000 8.2 230 17:39 08.06.2019
6666 Clear 19 1019 45 10000 6.2 220 17:18 08.06.2019
6667 Clouds 19 1018 42 6000 7.2 240 16:44 08.06.2019
6668 Clear 19 1018 48 10000 7.2 220 16:18 08.06.2019
6669 Clear 19 1018 42 10000 8.2 220 15:38 08.06.2019
6670 Clear 18 1018 48 10000 6.7 210 14:54 08.06.2019
6671 Clear 18 1018 48 10000 6.2 210 14:32 08.06.2019
6672 Clear 18 1018 51 10000 8.2 220 13:59 08.06.2019
6673 Clear 18 1017 48 10000 7.7 220 13:24 08.06.2019
6674 Clouds 18 1017 48 10000 6.7 210 12:45 08.06.2019
6675 Clouds 17 1017 48 10000 6.7 210 12:20 08.06.2019
6676 Clear 17 1016 45 5000 8.2 240 11:44 08.06.2019
6677 Clouds 17 1016 48 10000 9.3 210 11:22 08.06.2019
6678 Clouds 17 1015 55 10000 7.2 220 10:44 08.06.2019
6679 Clouds 17 1015 55 10000 7.2 220 10:22 08.06.2019
6680 Clear 16 1014 55 4700 7.2 230 09:48 08.06.2019
6681 Clear 15 1014 67 10000 6.2 210 09:21 08.06.2019
6682 Clear 14 1014 71 10000 5.7 200 08:29 08.06.2019
6683 Clouds 14 1013 71 4200 2.6 160 07:47 08.06.2019
6684 Clouds 13 1013 82 4300 3.1 140 06:50 08.06.2019
6685 Clear 13 1013 76 10000 2.6 150 05:42 08.06.2019
6686 Rain 14 1012 87 10000 3.6 160 02:57 08.06.2019
6687 Rain 14 1011 93 10000 2.1 80 00:59 08.06.2019
6688 Rain 14 1013 87 10000 3.1 240 00:25 08.06.2019
6689 Thunderstorm 15 1011 87 9000 4.6 270 23:41 07.06.2019
6690 Thunderstorm 16 1011 87 9000 4.6 270 23:19 07.06.2019
6691 Thunderstorm 19 1012 77 10000 6.7 220 22:36 07.06.2019
6692 Rain 20 1009 64 10000 1 130 21:58 07.06.2019
6693 Thunderstorm 20 1009 77 8000 7.2 260 21:40 07.06.2019
6694 Thunderstorm 22 1009 77 8000 7.2 260 21:21 07.06.2019
6695 Thunderstorm 23 1